<?xml version="1.0" encoding="UTF-8" standalone="no" ?>
<gpx xmlns="http://www.topografix.com/GPX/1/1" xmlns:xsi="http://www.w3.org/2001/XMLSchema-instance" xsi:schemaLocation="http://www.topografix.com/GPX/1/1 http://www.topografix.com/GPX/1/1/gpx.xsd" version="1.1" creator="VisuGPX - https://www.visugpx.com">
  <metadata>
    <name>Rando Monistrol 8-10-2011 Parcours 60 km</name>
    <desc><![CDATA[Parcous de 60 km avec un dénivelé sympa.
Descente technique en direction de \"Laval\" et sortie difficile avec portage et fort poucentage.]]></desc>
  </metadata>
  <trk>
    <name><![CDATA[VTT 08-10-2011]]></name>
    <trkseg>
      <trkpt lat="45.29283" lon="4.1686">
        <ele>611.54</ele>
        <time>2011-10-08T05:38:46Z</time>
      </trkpt>
      <trkpt lat="45.29292" lon="4.16844">
        <ele>616.34</ele>
        <time>2011-10-08T05:39:05Z</time>
      </trkpt>
      <trkpt lat="45.29311" lon="4.16865">
        <ele>615.86</ele>
        <time>2011-10-08T05:39:15Z</time>
      </trkpt>
      <trkpt lat="45.29316" lon="4.16878">
        <ele>615.38</ele>
        <time>2011-10-08T05:39:18Z</time>
      </trkpt>
      <trkpt lat="45.29318" lon="4.16884">
        <ele>614.9</ele>
        <time>2011-10-08T05:39:19Z</time>
      </trkpt>
      <trkpt lat="45.29319" lon="4.1689">
        <ele>614.42</ele>
        <time>2011-10-08T05:39:20Z</time>
      </trkpt>
      <trkpt lat="45.29319" lon="4.16896">
        <ele>613.94</ele>
        <time>2011-10-08T05:39:21Z</time>
      </trkpt>
      <trkpt lat="45.29319" lon="4.16902">
        <ele>613.94</ele>
        <time>2011-10-08T05:39:22Z</time>
      </trkpt>
      <trkpt lat="45.2932" lon="4.16917">
        <ele>612.02</ele>
        <time>2011-10-08T05:39:27Z</time>
      </trkpt>
      <trkpt lat="45.29322" lon="4.16915">
        <ele>611.54</ele>
        <time>2011-10-08T05:39:28Z</time>
      </trkpt>
      <trkpt lat="45.29325" lon="4.16913">
        <ele>612.02</ele>
        <time>2011-10-08T05:39:29Z</time>
      </trkpt>
      <trkpt lat="45.29334" lon="4.16902">
        <ele>612.02</ele>
        <time>2011-10-08T05:39:32Z</time>
      </trkpt>
      <trkpt lat="45.29381" lon="4.16833">
        <ele>610.09</ele>
        <time>2011-10-08T05:39:46Z</time>
      </trkpt>
      <trkpt lat="45.29418" lon="4.16786">
        <ele>611.06</ele>
        <time>2011-10-08T05:39:59Z</time>
      </trkpt>
      <trkpt lat="45.2942" lon="4.16787">
        <ele>611.06</ele>
        <time>2011-10-08T05:40:00Z</time>
      </trkpt>
      <trkpt lat="45.29422" lon="4.16792">
        <ele>611.06</ele>
        <time>2011-10-08T05:40:01Z</time>
      </trkpt>
      <trkpt lat="45.29424" lon="4.16799">
        <ele>611.06</ele>
        <time>2011-10-08T05:40:02Z</time>
      </trkpt>
      <trkpt lat="45.29427" lon="4.16807">
        <ele>610.57</ele>
        <time>2011-10-08T05:40:03Z</time>
      </trkpt>
      <trkpt lat="45.29461" lon="4.16901">
        <ele>607.21</ele>
        <time>2011-10-08T05:40:11Z</time>
      </trkpt>
      <trkpt lat="45.29504" lon="4.17008">
        <ele>603.85</ele>
        <time>2011-10-08T05:40:22Z</time>
      </trkpt>
      <trkpt lat="45.29532" lon="4.1707">
        <ele>603.85</ele>
        <time>2011-10-08T05:40:31Z</time>
      </trkpt>
      <trkpt lat="45.29535" lon="4.17077">
        <ele>603.36</ele>
        <time>2011-10-08T05:40:32Z</time>
      </trkpt>
      <trkpt lat="45.29535" lon="4.17085">
        <ele>603.36</ele>
        <time>2011-10-08T05:40:33Z</time>
      </trkpt>
      <trkpt lat="45.29534" lon="4.17092">
        <ele>603.36</ele>
        <time>2011-10-08T05:40:34Z</time>
      </trkpt>
      <trkpt lat="45.29533" lon="4.17098">
        <ele>603.36</ele>
        <time>2011-10-08T05:40:35Z</time>
      </trkpt>
      <trkpt lat="45.29531" lon="4.17104">
        <ele>603.36</ele>
        <time>2011-10-08T05:40:36Z</time>
      </trkpt>
      <trkpt lat="45.29531" lon="4.17111">
        <ele>603.36</ele>
        <time>2011-10-08T05:40:37Z</time>
      </trkpt>
      <trkpt lat="45.29533" lon="4.17117">
        <ele>602.88</ele>
        <time>2011-10-08T05:40:38Z</time>
      </trkpt>
      <trkpt lat="45.29536" lon="4.17122">
        <ele>602.88</ele>
        <time>2011-10-08T05:40:39Z</time>
      </trkpt>
      <trkpt lat="45.2954" lon="4.17127">
        <ele>602.4</ele>
        <time>2011-10-08T05:40:40Z</time>
      </trkpt>
      <trkpt lat="45.29543" lon="4.17133">
        <ele>602.4</ele>
        <time>2011-10-08T05:40:41Z</time>
      </trkpt>
      <trkpt lat="45.29547" lon="4.17139">
        <ele>601.92</ele>
        <time>2011-10-08T05:40:42Z</time>
      </trkpt>
      <trkpt lat="45.2956" lon="4.1716">
        <ele>600.96</ele>
        <time>2011-10-08T05:40:45Z</time>
      </trkpt>
      <trkpt lat="45.29566" lon="4.17166">
        <ele>600.96</ele>
        <time>2011-10-08T05:40:46Z</time>
      </trkpt>
      <trkpt lat="45.29573" lon="4.17171">
        <ele>600.96</ele>
        <time>2011-10-08T05:40:47Z</time>
      </trkpt>
      <trkpt lat="45.2958" lon="4.17174">
        <ele>600.48</ele>
        <time>2011-10-08T05:40:48Z</time>
      </trkpt>
      <trkpt lat="45.29588" lon="4.17175">
        <ele>600.48</ele>
        <time>2011-10-08T05:40:49Z</time>
      </trkpt>
      <trkpt lat="45.29596" lon="4.17174">
        <ele>600.48</ele>
        <time>2011-10-08T05:40:50Z</time>
      </trkpt>
      <trkpt lat="45.29604" lon="4.17172">
        <ele>600.48</ele>
        <time>2011-10-08T05:40:51Z</time>
      </trkpt>
      <trkpt lat="45.29613" lon="4.17167">
        <ele>600</ele>
        <time>2011-10-08T05:40:52Z</time>
      </trkpt>
      <trkpt lat="45.29621" lon="4.17161">
        <ele>599.52</ele>
        <time>2011-10-08T05:40:53Z</time>
      </trkpt>
      <trkpt lat="45.29628" lon="4.17153">
        <ele>598.56</ele>
        <time>2011-10-08T05:40:54Z</time>
      </trkpt>
      <trkpt lat="45.29634" lon="4.17142">
        <ele>597.6</ele>
        <time>2011-10-08T05:40:55Z</time>
      </trkpt>
      <trkpt lat="45.29638" lon="4.17129">
        <ele>596.64</ele>
        <time>2011-10-08T05:40:56Z</time>
      </trkpt>
      <trkpt lat="45.29642" lon="4.17115">
        <ele>596.15</ele>
        <time>2011-10-08T05:40:57Z</time>
      </trkpt>
      <trkpt lat="45.29645" lon="4.17102">
        <ele>595.19</ele>
        <time>2011-10-08T05:40:58Z</time>
      </trkpt>
      <trkpt lat="45.29663" lon="4.17006">
        <ele>589.91</ele>
        <time>2011-10-08T05:41:05Z</time>
      </trkpt>
      <trkpt lat="45.29669" lon="4.16995">
        <ele>588.95</ele>
        <time>2011-10-08T05:41:06Z</time>
      </trkpt>
      <trkpt lat="45.29676" lon="4.16986">
        <ele>588.46</ele>
        <time>2011-10-08T05:41:07Z</time>
      </trkpt>
      <trkpt lat="45.29684" lon="4.16978">
        <ele>587.98</ele>
        <time>2011-10-08T05:41:08Z</time>
      </trkpt>
      <trkpt lat="45.29691" lon="4.16971">
        <ele>587.5</ele>
        <time>2011-10-08T05:41:09Z</time>
      </trkpt>
      <trkpt lat="45.29697" lon="4.16962">
        <ele>586.54</ele>
        <time>2011-10-08T05:41:10Z</time>
      </trkpt>
      <trkpt lat="45.29699" lon="4.16951">
        <ele>586.06</ele>
        <time>2011-10-08T05:41:11Z</time>
      </trkpt>
      <trkpt lat="45.29698" lon="4.16941">
        <ele>585.1</ele>
        <time>2011-10-08T05:41:12Z</time>
      </trkpt>
      <trkpt lat="45.29697" lon="4.1693">
        <ele>584.62</ele>
        <time>2011-10-08T05:41:13Z</time>
      </trkpt>
      <trkpt lat="45.29696" lon="4.1692">
        <ele>584.14</ele>
        <time>2011-10-08T05:41:14Z</time>
      </trkpt>
      <trkpt lat="45.2969" lon="4.16848">
        <ele>582.22</ele>
        <time>2011-10-08T05:41:24Z</time>
      </trkpt>
      <trkpt lat="45.2969" lon="4.16842">
        <ele>582.22</ele>
        <time>2011-10-08T05:41:25Z</time>
      </trkpt>
      <trkpt lat="45.29691" lon="4.16837">
        <ele>582.22</ele>
        <time>2011-10-08T05:41:26Z</time>
      </trkpt>
      <trkpt lat="45.29692" lon="4.16832">
        <ele>582.22</ele>
        <time>2011-10-08T05:41:27Z</time>
      </trkpt>
      <trkpt lat="45.29693" lon="4.16826">
        <ele>582.22</ele>
        <time>2011-10-08T05:41:28Z</time>
      </trkpt>
      <trkpt lat="45.29709" lon="4.16768">
        <ele>580.77</ele>
        <time>2011-10-08T05:41:39Z</time>
      </trkpt>
      <trkpt lat="45.29711" lon="4.16762">
        <ele>580.29</ele>
        <time>2011-10-08T05:41:40Z</time>
      </trkpt>
      <trkpt lat="45.29713" lon="4.16756">
        <ele>579.81</ele>
        <time>2011-10-08T05:41:41Z</time>
      </trkpt>
      <trkpt lat="45.29714" lon="4.16751">
        <ele>579.81</ele>
        <time>2011-10-08T05:41:42Z</time>
      </trkpt>
      <trkpt lat="45.29716" lon="4.16745">
        <ele>579.81</ele>
        <time>2011-10-08T05:41:43Z</time>
      </trkpt>
      <trkpt lat="45.29722" lon="4.16714">
        <ele>578.37</ele>
        <time>2011-10-08T05:41:49Z</time>
      </trkpt>
      <trkpt lat="45.29723" lon="4.16711">
        <ele>578.37</ele>
        <time>2011-10-08T05:41:50Z</time>
      </trkpt>
      <trkpt lat="45.29726" lon="4.16709">
        <ele>578.85</ele>
        <time>2011-10-08T05:41:51Z</time>
      </trkpt>
      <trkpt lat="45.29757" lon="4.16703">
        <ele>588.46</ele>
        <time>2011-10-08T05:42:02Z</time>
      </trkpt>
      <trkpt lat="45.29786" lon="4.16706">
        <ele>597.12</ele>
        <time>2011-10-08T05:42:13Z</time>
      </trkpt>
      <trkpt lat="45.29818" lon="4.1672">
        <ele>601.44</ele>
        <time>2011-10-08T05:42:25Z</time>
      </trkpt>
      <trkpt lat="45.2982" lon="4.16721">
        <ele>601.44</ele>
        <time>2011-10-08T05:42:26Z</time>
      </trkpt>
      <trkpt lat="45.29823" lon="4.16721">
        <ele>601.92</ele>
        <time>2011-10-08T05:42:27Z</time>
      </trkpt>
      <trkpt lat="45.29825" lon="4.16719">
        <ele>602.4</ele>
        <time>2011-10-08T05:42:28Z</time>
      </trkpt>
      <trkpt lat="45.29827" lon="4.16716">
        <ele>602.4</ele>
        <time>2011-10-08T05:42:29Z</time>
      </trkpt>
      <trkpt lat="45.29829" lon="4.16711">
        <ele>602.4</ele>
        <time>2011-10-08T05:42:30Z</time>
      </trkpt>
      <trkpt lat="45.29831" lon="4.16707">
        <ele>602.4</ele>
        <time>2011-10-08T05:42:31Z</time>
      </trkpt>
      <trkpt lat="45.29858" lon="4.16644">
        <ele>599.52</ele>
        <time>2011-10-08T05:42:44Z</time>
      </trkpt>
      <trkpt lat="45.29864" lon="4.16633">
        <ele>599.04</ele>
        <time>2011-10-08T05:42:46Z</time>
      </trkpt>
      <trkpt lat="45.29868" lon="4.16627">
        <ele>599.04</ele>
        <time>2011-10-08T05:42:47Z</time>
      </trkpt>
      <trkpt lat="45.2991" lon="4.16569">
        <ele>596.15</ele>
        <time>2011-10-08T05:42:56Z</time>
      </trkpt>
      <trkpt lat="45.29971" lon="4.16502">
        <ele>591.35</ele>
        <time>2011-10-08T05:43:06Z</time>
      </trkpt>
      <trkpt lat="45.29976" lon="4.16493">
        <ele>590.87</ele>
        <time>2011-10-08T05:43:07Z</time>
      </trkpt>
      <trkpt lat="45.30003" lon="4.16439">
        <ele>587.5</ele>
        <time>2011-10-08T05:43:15Z</time>
      </trkpt>
      <trkpt lat="45.30006" lon="4.1644">
        <ele>587.5</ele>
        <time>2011-10-08T05:43:16Z</time>
      </trkpt>
      <trkpt lat="45.30009" lon="4.16442">
        <ele>587.02</ele>
        <time>2011-10-08T05:43:17Z</time>
      </trkpt>
      <trkpt lat="45.30011" lon="4.16445">
        <ele>587.02</ele>
        <time>2011-10-08T05:43:18Z</time>
      </trkpt>
      <trkpt lat="45.30014" lon="4.16449">
        <ele>587.02</ele>
        <time>2011-10-08T05:43:19Z</time>
      </trkpt>
      <trkpt lat="45.30016" lon="4.16453">
        <ele>587.02</ele>
        <time>2011-10-08T05:43:20Z</time>
      </trkpt>
      <trkpt lat="45.30019" lon="4.16456">
        <ele>586.54</ele>
        <time>2011-10-08T05:43:21Z</time>
      </trkpt>
      <trkpt lat="45.30021" lon="4.16459">
        <ele>586.54</ele>
        <time>2011-10-08T05:43:22Z</time>
      </trkpt>
      <trkpt lat="45.30024" lon="4.16461">
        <ele>586.54</ele>
        <time>2011-10-08T05:43:23Z</time>
      </trkpt>
      <trkpt lat="45.30027" lon="4.16463">
        <ele>586.54</ele>
        <time>2011-10-08T05:43:24Z</time>
      </trkpt>
      <trkpt lat="45.30029" lon="4.16466">
        <ele>586.54</ele>
        <time>2011-10-08T05:43:25Z</time>
      </trkpt>
      <trkpt lat="45.30032" lon="4.16469">
        <ele>586.54</ele>
        <time>2011-10-08T05:43:26Z</time>
      </trkpt>
      <trkpt lat="45.30063" lon="4.16479">
        <ele>588.95</ele>
        <time>2011-10-08T05:43:36Z</time>
      </trkpt>
      <trkpt lat="45.30096" lon="4.1648">
        <ele>587.5</ele>
        <time>2011-10-08T05:43:43Z</time>
      </trkpt>
      <trkpt lat="45.30101" lon="4.16481">
        <ele>587.02</ele>
        <time>2011-10-08T05:43:44Z</time>
      </trkpt>
      <trkpt lat="45.30106" lon="4.16483">
        <ele>587.02</ele>
        <time>2011-10-08T05:43:45Z</time>
      </trkpt>
      <trkpt lat="45.3011" lon="4.16486">
        <ele>587.02</ele>
        <time>2011-10-08T05:43:46Z</time>
      </trkpt>
      <trkpt lat="45.30114" lon="4.16488">
        <ele>586.54</ele>
        <time>2011-10-08T05:43:47Z</time>
      </trkpt>
      <trkpt lat="45.30118" lon="4.16491">
        <ele>587.02</ele>
        <time>2011-10-08T05:43:48Z</time>
      </trkpt>
      <trkpt lat="45.30134" lon="4.16504">
        <ele>587.98</ele>
        <time>2011-10-08T05:43:52Z</time>
      </trkpt>
      <trkpt lat="45.30161" lon="4.16533">
        <ele>587.5</ele>
        <time>2011-10-08T05:43:59Z</time>
      </trkpt>
      <trkpt lat="45.30164" lon="4.1654">
        <ele>587.5</ele>
        <time>2011-10-08T05:44:00Z</time>
      </trkpt>
      <trkpt lat="45.30193" lon="4.16615">
        <ele>588.46</ele>
        <time>2011-10-08T05:44:12Z</time>
      </trkpt>
      <trkpt lat="45.30199" lon="4.16628">
        <ele>588.46</ele>
        <time>2011-10-08T05:44:14Z</time>
      </trkpt>
      <trkpt lat="45.30201" lon="4.16635">
        <ele>588.46</ele>
        <time>2011-10-08T05:44:15Z</time>
      </trkpt>
      <trkpt lat="45.30203" lon="4.16643">
        <ele>588.46</ele>
        <time>2011-10-08T05:44:16Z</time>
      </trkpt>
      <trkpt lat="45.30206" lon="4.16655">
        <ele>588.46</ele>
        <time>2011-10-08T05:44:18Z</time>
      </trkpt>
      <trkpt lat="45.30216" lon="4.16695">
        <ele>589.43</ele>
        <time>2011-10-08T05:44:25Z</time>
      </trkpt>
      <trkpt lat="45.30217" lon="4.16701">
        <ele>589.43</ele>
        <time>2011-10-08T05:44:26Z</time>
      </trkpt>
      <trkpt lat="45.3022" lon="4.16719">
        <ele>588.46</ele>
        <time>2011-10-08T05:44:29Z</time>
      </trkpt>
      <trkpt lat="45.30227" lon="4.1675">
        <ele>587.5</ele>
        <time>2011-10-08T05:44:35Z</time>
      </trkpt>
      <trkpt lat="45.30228" lon="4.16757">
        <ele>587.02</ele>
        <time>2011-10-08T05:44:36Z</time>
      </trkpt>
      <trkpt lat="45.30229" lon="4.16764">
        <ele>587.02</ele>
        <time>2011-10-08T05:44:37Z</time>
      </trkpt>
      <trkpt lat="45.3023" lon="4.1677">
        <ele>586.54</ele>
        <time>2011-10-08T05:44:38Z</time>
      </trkpt>
      <trkpt lat="45.3023" lon="4.16777">
        <ele>586.06</ele>
        <time>2011-10-08T05:44:39Z</time>
      </trkpt>
      <trkpt lat="45.30224" lon="4.16828">
        <ele>588.95</ele>
        <time>2011-10-08T05:44:49Z</time>
      </trkpt>
      <trkpt lat="45.3022" lon="4.16873">
        <ele>591.35</ele>
        <time>2011-10-08T05:44:58Z</time>
      </trkpt>
      <trkpt lat="45.3022" lon="4.16879">
        <ele>591.35</ele>
        <time>2011-10-08T05:44:59Z</time>
      </trkpt>
      <trkpt lat="45.30219" lon="4.16885">
        <ele>590.87</ele>
        <time>2011-10-08T05:45:00Z</time>
      </trkpt>
      <trkpt lat="45.30212" lon="4.16947">
        <ele>591.35</ele>
        <time>2011-10-08T05:45:12Z</time>
      </trkpt>
      <trkpt lat="45.30203" lon="4.16995">
        <ele>594.23</ele>
        <time>2011-10-08T05:45:22Z</time>
      </trkpt>
      <trkpt lat="45.30182" lon="4.1707">
        <ele>597.6</ele>
        <time>2011-10-08T05:45:38Z</time>
      </trkpt>
      <trkpt lat="45.30153" lon="4.17127">
        <ele>599.04</ele>
        <time>2011-10-08T05:45:52Z</time>
      </trkpt>
      <trkpt lat="45.30111" lon="4.17169">
        <ele>600</ele>
        <time>2011-10-08T05:46:07Z</time>
      </trkpt>
      <trkpt lat="45.30074" lon="4.17197">
        <ele>602.4</ele>
        <time>2011-10-08T05:46:19Z</time>
      </trkpt>
      <trkpt lat="45.30027" lon="4.17236">
        <ele>602.4</ele>
        <time>2011-10-08T05:46:34Z</time>
      </trkpt>
      <trkpt lat="45.2998" lon="4.17273">
        <ele>604.33</ele>
        <time>2011-10-08T05:46:48Z</time>
      </trkpt>
      <trkpt lat="45.2994" lon="4.17291">
        <ele>605.77</ele>
        <time>2011-10-08T05:47:00Z</time>
      </trkpt>
      <trkpt lat="45.29906" lon="4.1733">
        <ele>607.69</ele>
        <time>2011-10-08T05:47:13Z</time>
      </trkpt>
      <trkpt lat="45.29871" lon="4.17372">
        <ele>609.13</ele>
        <time>2011-10-08T05:47:26Z</time>
      </trkpt>
      <trkpt lat="45.29834" lon="4.1742">
        <ele>612.02</ele>
        <time>2011-10-08T05:47:41Z</time>
      </trkpt>
      <trkpt lat="45.29793" lon="4.17438">
        <ele>614.42</ele>
        <time>2011-10-08T05:47:54Z</time>
      </trkpt>
      <trkpt lat="45.29778" lon="4.17482">
        <ele>616.82</ele>
        <time>2011-10-08T05:48:04Z</time>
      </trkpt>
      <trkpt lat="45.29765" lon="4.17535">
        <ele>618.26</ele>
        <time>2011-10-08T05:48:15Z</time>
      </trkpt>
      <trkpt lat="45.29766" lon="4.17541">
        <ele>618.26</ele>
        <time>2011-10-08T05:48:16Z</time>
      </trkpt>
      <trkpt lat="45.29767" lon="4.17547">
        <ele>617.78</ele>
        <time>2011-10-08T05:48:17Z</time>
      </trkpt>
      <trkpt lat="45.29782" lon="4.17624">
        <ele>619.23</ele>
        <time>2011-10-08T05:48:31Z</time>
      </trkpt>
      <trkpt lat="45.29777" lon="4.17716">
        <ele>622.11</ele>
        <time>2011-10-08T05:48:49Z</time>
      </trkpt>
      <trkpt lat="45.29771" lon="4.17771">
        <ele>623.07</ele>
        <time>2011-10-08T05:49:01Z</time>
      </trkpt>
      <trkpt lat="45.29758" lon="4.1781">
        <ele>624.03</ele>
        <time>2011-10-08T05:49:13Z</time>
      </trkpt>
      <trkpt lat="45.2975" lon="4.17848">
        <ele>626.92</ele>
        <time>2011-10-08T05:49:25Z</time>
      </trkpt>
      <trkpt lat="45.2974" lon="4.17887">
        <ele>631.72</ele>
        <time>2011-10-08T05:49:35Z</time>
      </trkpt>
      <trkpt lat="45.29723" lon="4.17926">
        <ele>635.57</ele>
        <time>2011-10-08T05:49:47Z</time>
      </trkpt>
      <trkpt lat="45.29706" lon="4.17972">
        <ele>636.05</ele>
        <time>2011-10-08T05:50:00Z</time>
      </trkpt>
      <trkpt lat="45.29688" lon="4.18025">
        <ele>639.41</ele>
        <time>2011-10-08T05:50:15Z</time>
      </trkpt>
      <trkpt lat="45.29689" lon="4.18066">
        <ele>641.82</ele>
        <time>2011-10-08T05:50:27Z</time>
      </trkpt>
      <trkpt lat="45.29686" lon="4.18105">
        <ele>646.62</ele>
        <time>2011-10-08T05:50:39Z</time>
      </trkpt>
      <trkpt lat="45.29684" lon="4.18117">
        <ele>646.14</ele>
        <time>2011-10-08T05:50:43Z</time>
      </trkpt>
      <trkpt lat="45.29683" lon="4.18121">
        <ele>646.14</ele>
        <time>2011-10-08T05:50:44Z</time>
      </trkpt>
      <trkpt lat="45.2968" lon="4.18168">
        <ele>647.1</ele>
        <time>2011-10-08T05:50:57Z</time>
      </trkpt>
      <trkpt lat="45.29681" lon="4.18171">
        <ele>648.07</ele>
        <time>2011-10-08T05:50:58Z</time>
      </trkpt>
      <trkpt lat="45.29687" lon="4.18214">
        <ele>652.39</ele>
        <time>2011-10-08T05:51:13Z</time>
      </trkpt>
      <trkpt lat="45.2969" lon="4.1826">
        <ele>654.31</ele>
        <time>2011-10-08T05:51:27Z</time>
      </trkpt>
      <trkpt lat="45.29688" lon="4.183">
        <ele>658.16</ele>
        <time>2011-10-08T05:51:40Z</time>
      </trkpt>
      <trkpt lat="45.29682" lon="4.18336">
        <ele>660.56</ele>
        <time>2011-10-08T05:51:53Z</time>
      </trkpt>
      <trkpt lat="45.29678" lon="4.18373">
        <ele>662.97</ele>
        <time>2011-10-08T05:52:07Z</time>
      </trkpt>
      <trkpt lat="45.29677" lon="4.18407">
        <ele>666.81</ele>
        <time>2011-10-08T05:52:20Z</time>
      </trkpt>
      <trkpt lat="45.29678" lon="4.18414">
        <ele>667.29</ele>
        <time>2011-10-08T05:52:23Z</time>
      </trkpt>
      <trkpt lat="45.29678" lon="4.18416">
        <ele>667.29</ele>
        <time>2011-10-08T05:52:24Z</time>
      </trkpt>
      <trkpt lat="45.29678" lon="4.18419">
        <ele>667.77</ele>
        <time>2011-10-08T05:52:25Z</time>
      </trkpt>
      <trkpt lat="45.29679" lon="4.18421">
        <ele>668.25</ele>
        <time>2011-10-08T05:52:26Z</time>
      </trkpt>
      <trkpt lat="45.29678" lon="4.18423">
        <ele>668.73</ele>
        <time>2011-10-08T05:52:27Z</time>
      </trkpt>
      <trkpt lat="45.29677" lon="4.18425">
        <ele>668.73</ele>
        <time>2011-10-08T05:52:28Z</time>
      </trkpt>
      <trkpt lat="45.29677" lon="4.18427">
        <ele>669.22</ele>
        <time>2011-10-08T05:52:29Z</time>
      </trkpt>
      <trkpt lat="45.29672" lon="4.18465">
        <ele>670.18</ele>
        <time>2011-10-08T05:52:41Z</time>
      </trkpt>
      <trkpt lat="45.29665" lon="4.18505">
        <ele>671.14</ele>
        <time>2011-10-08T05:52:54Z</time>
      </trkpt>
      <trkpt lat="45.29658" lon="4.1855">
        <ele>674.02</ele>
        <time>2011-10-08T05:53:08Z</time>
      </trkpt>
      <trkpt lat="45.29651" lon="4.18589">
        <ele>676.91</ele>
        <time>2011-10-08T05:53:20Z</time>
      </trkpt>
      <trkpt lat="45.29633" lon="4.18646">
        <ele>677.39</ele>
        <time>2011-10-08T05:53:34Z</time>
      </trkpt>
      <trkpt lat="45.29609" lon="4.18696">
        <ele>679.31</ele>
        <time>2011-10-08T05:53:47Z</time>
      </trkpt>
      <trkpt lat="45.29591" lon="4.18747">
        <ele>679.79</ele>
        <time>2011-10-08T05:53:58Z</time>
      </trkpt>
      <trkpt lat="45.29583" lon="4.18824">
        <ele>681.23</ele>
        <time>2011-10-08T05:54:14Z</time>
      </trkpt>
      <trkpt lat="45.29585" lon="4.18859">
        <ele>682.67</ele>
        <time>2011-10-08T05:54:23Z</time>
      </trkpt>
      <trkpt lat="45.29586" lon="4.18861">
        <ele>683.15</ele>
        <time>2011-10-08T05:54:24Z</time>
      </trkpt>
      <trkpt lat="45.29587" lon="4.18861">
        <ele>683.15</ele>
        <time>2011-10-08T05:54:25Z</time>
      </trkpt>
      <trkpt lat="45.29589" lon="4.1886">
        <ele>683.63</ele>
        <time>2011-10-08T05:54:27Z</time>
      </trkpt>
      <trkpt lat="45.29595" lon="4.18858">
        <ele>684.12</ele>
        <time>2011-10-08T05:54:30Z</time>
      </trkpt>
      <trkpt lat="45.29597" lon="4.18858">
        <ele>684.12</ele>
        <time>2011-10-08T05:54:31Z</time>
      </trkpt>
      <trkpt lat="45.296" lon="4.18857">
        <ele>684.12</ele>
        <time>2011-10-08T05:54:32Z</time>
      </trkpt>
      <trkpt lat="45.29603" lon="4.18857">
        <ele>684.12</ele>
        <time>2011-10-08T05:54:33Z</time>
      </trkpt>
      <trkpt lat="45.29605" lon="4.18856">
        <ele>683.63</ele>
        <time>2011-10-08T05:54:34Z</time>
      </trkpt>
      <trkpt lat="45.29608" lon="4.18856">
        <ele>683.63</ele>
        <time>2011-10-08T05:54:35Z</time>
      </trkpt>
      <trkpt lat="45.29611" lon="4.18855">
        <ele>683.63</ele>
        <time>2011-10-08T05:54:36Z</time>
      </trkpt>
      <trkpt lat="45.29614" lon="4.18855">
        <ele>683.63</ele>
        <time>2011-10-08T05:54:37Z</time>
      </trkpt>
      <trkpt lat="45.29618" lon="4.18855">
        <ele>683.63</ele>
        <time>2011-10-08T05:54:38Z</time>
      </trkpt>
      <trkpt lat="45.29621" lon="4.18854">
        <ele>683.63</ele>
        <time>2011-10-08T05:54:39Z</time>
      </trkpt>
      <trkpt lat="45.29689" lon="4.18846">
        <ele>683.63</ele>
        <time>2011-10-08T05:54:56Z</time>
      </trkpt>
      <trkpt lat="45.29723" lon="4.18848">
        <ele>683.63</ele>
        <time>2011-10-08T05:55:04Z</time>
      </trkpt>
      <trkpt lat="45.29732" lon="4.18852">
        <ele>683.63</ele>
        <time>2011-10-08T05:55:06Z</time>
      </trkpt>
      <trkpt lat="45.29736" lon="4.18855">
        <ele>683.63</ele>
        <time>2011-10-08T05:55:07Z</time>
      </trkpt>
      <trkpt lat="45.29773" lon="4.18896">
        <ele>684.12</ele>
        <time>2011-10-08T05:55:17Z</time>
      </trkpt>
      <trkpt lat="45.29778" lon="4.18898">
        <ele>684.12</ele>
        <time>2011-10-08T05:55:18Z</time>
      </trkpt>
      <trkpt lat="45.29848" lon="4.18903">
        <ele>684.6</ele>
        <time>2011-10-08T05:55:32Z</time>
      </trkpt>
      <trkpt lat="45.29919" lon="4.18904">
        <ele>686.04</ele>
        <time>2011-10-08T05:55:46Z</time>
      </trkpt>
      <trkpt lat="45.29924" lon="4.18904">
        <ele>686.04</ele>
        <time>2011-10-08T05:55:47Z</time>
      </trkpt>
      <trkpt lat="45.2994" lon="4.18903">
        <ele>686.04</ele>
        <time>2011-10-08T05:55:50Z</time>
      </trkpt>
      <trkpt lat="45.29945" lon="4.18903">
        <ele>686.04</ele>
        <time>2011-10-08T05:55:51Z</time>
      </trkpt>
      <trkpt lat="45.29977" lon="4.18907">
        <ele>687</ele>
        <time>2011-10-08T05:55:57Z</time>
      </trkpt>
      <trkpt lat="45.29982" lon="4.18907">
        <ele>687.48</ele>
        <time>2011-10-08T05:55:58Z</time>
      </trkpt>
      <trkpt lat="45.29993" lon="4.18908">
        <ele>688.44</ele>
        <time>2011-10-08T05:56:00Z</time>
      </trkpt>
      <trkpt lat="45.29999" lon="4.18909">
        <ele>688.44</ele>
        <time>2011-10-08T05:56:01Z</time>
      </trkpt>
      <trkpt lat="45.3003" lon="4.18913">
        <ele>690.36</ele>
        <time>2011-10-08T05:56:07Z</time>
      </trkpt>
      <trkpt lat="45.3004" lon="4.18916">
        <ele>690.84</ele>
        <time>2011-10-08T05:56:09Z</time>
      </trkpt>
      <trkpt lat="45.30044" lon="4.18918">
        <ele>690.84</ele>
        <time>2011-10-08T05:56:10Z</time>
      </trkpt>
      <trkpt lat="45.30057" lon="4.18927">
        <ele>691.33</ele>
        <time>2011-10-08T05:56:13Z</time>
      </trkpt>
      <trkpt lat="45.30061" lon="4.18931">
        <ele>691.33</ele>
        <time>2011-10-08T05:56:14Z</time>
      </trkpt>
      <trkpt lat="45.30065" lon="4.18935">
        <ele>691.33</ele>
        <time>2011-10-08T05:56:15Z</time>
      </trkpt>
      <trkpt lat="45.30079" lon="4.18953">
        <ele>690.84</ele>
        <time>2011-10-08T05:56:19Z</time>
      </trkpt>
      <trkpt lat="45.30087" lon="4.1897">
        <ele>689.88</ele>
        <time>2011-10-08T05:56:22Z</time>
      </trkpt>
      <trkpt lat="45.30091" lon="4.18975">
        <ele>688.92</ele>
        <time>2011-10-08T05:56:23Z</time>
      </trkpt>
      <trkpt lat="45.30093" lon="4.1898">
        <ele>688.44</ele>
        <time>2011-10-08T05:56:24Z</time>
      </trkpt>
      <trkpt lat="45.30096" lon="4.18983">
        <ele>687.48</ele>
        <time>2011-10-08T05:56:25Z</time>
      </trkpt>
      <trkpt lat="45.30098" lon="4.18984">
        <ele>687</ele>
        <time>2011-10-08T05:56:26Z</time>
      </trkpt>
      <trkpt lat="45.301" lon="4.18982">
        <ele>686.04</ele>
        <time>2011-10-08T05:56:27Z</time>
      </trkpt>
      <trkpt lat="45.30101" lon="4.18978">
        <ele>685.56</ele>
        <time>2011-10-08T05:56:28Z</time>
      </trkpt>
      <trkpt lat="45.30103" lon="4.18973">
        <ele>685.08</ele>
        <time>2011-10-08T05:56:29Z</time>
      </trkpt>
      <trkpt lat="45.30104" lon="4.18967">
        <ele>684.12</ele>
        <time>2011-10-08T05:56:30Z</time>
      </trkpt>
      <trkpt lat="45.30113" lon="4.1892">
        <ele>680.27</ele>
        <time>2011-10-08T05:56:35Z</time>
      </trkpt>
      <trkpt lat="45.30115" lon="4.18909">
        <ele>679.79</ele>
        <time>2011-10-08T05:56:36Z</time>
      </trkpt>
      <trkpt lat="45.30117" lon="4.18899">
        <ele>678.83</ele>
        <time>2011-10-08T05:56:37Z</time>
      </trkpt>
      <trkpt lat="45.30119" lon="4.18889">
        <ele>677.87</ele>
        <time>2011-10-08T05:56:38Z</time>
      </trkpt>
      <trkpt lat="45.30122" lon="4.1888">
        <ele>677.39</ele>
        <time>2011-10-08T05:56:39Z</time>
      </trkpt>
      <trkpt lat="45.30126" lon="4.1887">
        <ele>676.42</ele>
        <time>2011-10-08T05:56:40Z</time>
      </trkpt>
      <trkpt lat="45.30131" lon="4.1886">
        <ele>674.98</ele>
        <time>2011-10-08T05:56:41Z</time>
      </trkpt>
      <trkpt lat="45.30167" lon="4.18795">
        <ele>665.85</ele>
        <time>2011-10-08T05:56:49Z</time>
      </trkpt>
      <trkpt lat="45.30177" lon="4.18776">
        <ele>662.49</ele>
        <time>2011-10-08T05:56:53Z</time>
      </trkpt>
      <trkpt lat="45.30183" lon="4.18783">
        <ele>660.08</ele>
        <time>2011-10-08T05:56:57Z</time>
      </trkpt>
      <trkpt lat="45.30183" lon="4.18823">
        <ele>659.12</ele>
        <time>2011-10-08T05:57:06Z</time>
      </trkpt>
      <trkpt lat="45.30188" lon="4.1885">
        <ele>658.16</ele>
        <time>2011-10-08T05:57:11Z</time>
      </trkpt>
      <trkpt lat="45.30189" lon="4.18854">
        <ele>658.16</ele>
        <time>2011-10-08T05:57:12Z</time>
      </trkpt>
      <trkpt lat="45.3019" lon="4.18859">
        <ele>658.16</ele>
        <time>2011-10-08T05:57:13Z</time>
      </trkpt>
      <trkpt lat="45.30191" lon="4.18863">
        <ele>658.16</ele>
        <time>2011-10-08T05:57:14Z</time>
      </trkpt>
      <trkpt lat="45.30192" lon="4.18867">
        <ele>658.16</ele>
        <time>2011-10-08T05:57:15Z</time>
      </trkpt>
      <trkpt lat="45.30194" lon="4.18871">
        <ele>658.64</ele>
        <time>2011-10-08T05:57:16Z</time>
      </trkpt>
      <trkpt lat="45.30197" lon="4.18875">
        <ele>659.12</ele>
        <time>2011-10-08T05:57:17Z</time>
      </trkpt>
      <trkpt lat="45.30198" lon="4.18879">
        <ele>659.12</ele>
        <time>2011-10-08T05:57:18Z</time>
      </trkpt>
      <trkpt lat="45.30199" lon="4.18882">
        <ele>659.6</ele>
        <time>2011-10-08T05:57:19Z</time>
      </trkpt>
      <trkpt lat="45.30199" lon="4.18885">
        <ele>660.08</ele>
        <time>2011-10-08T05:57:20Z</time>
      </trkpt>
      <trkpt lat="45.302" lon="4.18887">
        <ele>660.08</ele>
        <time>2011-10-08T05:57:21Z</time>
      </trkpt>
      <trkpt lat="45.302" lon="4.18891">
        <ele>660.56</ele>
        <time>2011-10-08T05:57:22Z</time>
      </trkpt>
      <trkpt lat="45.30202" lon="4.18893">
        <ele>661.04</ele>
        <time>2011-10-08T05:57:23Z</time>
      </trkpt>
      <trkpt lat="45.30204" lon="4.18898">
        <ele>661.04</ele>
        <time>2011-10-08T05:57:24Z</time>
      </trkpt>
      <trkpt lat="45.30206" lon="4.18904">
        <ele>661.04</ele>
        <time>2011-10-08T05:57:25Z</time>
      </trkpt>
      <trkpt lat="45.30207" lon="4.18909">
        <ele>661.04</ele>
        <time>2011-10-08T05:57:26Z</time>
      </trkpt>
      <trkpt lat="45.30208" lon="4.18912">
        <ele>661.04</ele>
        <time>2011-10-08T05:57:27Z</time>
      </trkpt>
      <trkpt lat="45.3021" lon="4.18915">
        <ele>660.56</ele>
        <time>2011-10-08T05:57:28Z</time>
      </trkpt>
      <trkpt lat="45.3021" lon="4.18919">
        <ele>660.08</ele>
        <time>2011-10-08T05:57:29Z</time>
      </trkpt>
      <trkpt lat="45.30216" lon="4.18951">
        <ele>656.24</ele>
        <time>2011-10-08T05:57:39Z</time>
      </trkpt>
      <trkpt lat="45.30215" lon="4.18955">
        <ele>655.76</ele>
        <time>2011-10-08T05:57:40Z</time>
      </trkpt>
      <trkpt lat="45.30214" lon="4.1896">
        <ele>654.8</ele>
        <time>2011-10-08T05:57:41Z</time>
      </trkpt>
      <trkpt lat="45.30213" lon="4.18964">
        <ele>654.8</ele>
        <time>2011-10-08T05:57:42Z</time>
      </trkpt>
      <trkpt lat="45.30213" lon="4.18968">
        <ele>654.31</ele>
        <time>2011-10-08T05:57:43Z</time>
      </trkpt>
      <trkpt lat="45.30213" lon="4.18972">
        <ele>653.83</ele>
        <time>2011-10-08T05:57:44Z</time>
      </trkpt>
      <trkpt lat="45.30214" lon="4.18978">
        <ele>652.87</ele>
        <time>2011-10-08T05:57:45Z</time>
      </trkpt>
      <trkpt lat="45.30217" lon="4.18984">
        <ele>651.91</ele>
        <time>2011-10-08T05:57:46Z</time>
      </trkpt>
      <trkpt lat="45.30221" lon="4.18991">
        <ele>650.95</ele>
        <time>2011-10-08T05:57:47Z</time>
      </trkpt>
      <trkpt lat="45.30257" lon="4.19047">
        <ele>644.22</ele>
        <time>2011-10-08T05:57:59Z</time>
      </trkpt>
      <trkpt lat="45.30283" lon="4.19075">
        <ele>637.97</ele>
        <time>2011-10-08T05:58:08Z</time>
      </trkpt>
      <trkpt lat="45.30312" lon="4.19103">
        <ele>631.24</ele>
        <time>2011-10-08T05:58:17Z</time>
      </trkpt>
      <trkpt lat="45.30314" lon="4.19106">
        <ele>630.76</ele>
        <time>2011-10-08T05:58:18Z</time>
      </trkpt>
      <trkpt lat="45.30316" lon="4.19109">
        <ele>629.8</ele>
        <time>2011-10-08T05:58:19Z</time>
      </trkpt>
      <trkpt lat="45.30319" lon="4.19112">
        <ele>629.8</ele>
        <time>2011-10-08T05:58:20Z</time>
      </trkpt>
      <trkpt lat="45.30322" lon="4.19115">
        <ele>630.28</ele>
        <time>2011-10-08T05:58:21Z</time>
      </trkpt>
      <trkpt lat="45.30326" lon="4.19116">
        <ele>629.8</ele>
        <time>2011-10-08T05:58:22Z</time>
      </trkpt>
      <trkpt lat="45.3033" lon="4.19118">
        <ele>628.84</ele>
        <time>2011-10-08T05:58:23Z</time>
      </trkpt>
      <trkpt lat="45.30333" lon="4.19123">
        <ele>628.84</ele>
        <time>2011-10-08T05:58:24Z</time>
      </trkpt>
      <trkpt lat="45.30336" lon="4.19128">
        <ele>628.84</ele>
        <time>2011-10-08T05:58:25Z</time>
      </trkpt>
      <trkpt lat="45.30338" lon="4.19132">
        <ele>628.84</ele>
        <time>2011-10-08T05:58:26Z</time>
      </trkpt>
      <trkpt lat="45.30341" lon="4.19136">
        <ele>628.84</ele>
        <time>2011-10-08T05:58:27Z</time>
      </trkpt>
      <trkpt lat="45.3036" lon="4.19164">
        <ele>629.8</ele>
        <time>2011-10-08T05:58:33Z</time>
      </trkpt>
      <trkpt lat="45.30362" lon="4.1917">
        <ele>629.8</ele>
        <time>2011-10-08T05:58:34Z</time>
      </trkpt>
      <trkpt lat="45.30368" lon="4.19181">
        <ele>629.8</ele>
        <time>2011-10-08T05:58:36Z</time>
      </trkpt>
      <trkpt lat="45.30371" lon="4.19186">
        <ele>630.28</ele>
        <time>2011-10-08T05:58:37Z</time>
      </trkpt>
      <trkpt lat="45.30375" lon="4.19191">
        <ele>630.76</ele>
        <time>2011-10-08T05:58:38Z</time>
      </trkpt>
      <trkpt lat="45.30378" lon="4.19197">
        <ele>631.24</ele>
        <time>2011-10-08T05:58:39Z</time>
      </trkpt>
      <trkpt lat="45.3038" lon="4.19201">
        <ele>632.2</ele>
        <time>2011-10-08T05:58:40Z</time>
      </trkpt>
      <trkpt lat="45.30391" lon="4.19239">
        <ele>643.26</ele>
        <time>2011-10-08T05:58:46Z</time>
      </trkpt>
      <trkpt lat="45.30394" lon="4.19241">
        <ele>643.74</ele>
        <time>2011-10-08T05:58:47Z</time>
      </trkpt>
      <trkpt lat="45.30397" lon="4.19243">
        <ele>643.74</ele>
        <time>2011-10-08T05:58:48Z</time>
      </trkpt>
      <trkpt lat="45.30399" lon="4.19246">
        <ele>644.22</ele>
        <time>2011-10-08T05:58:49Z</time>
      </trkpt>
      <trkpt lat="45.304" lon="4.19249">
        <ele>645.18</ele>
        <time>2011-10-08T05:58:50Z</time>
      </trkpt>
      <trkpt lat="45.30421" lon="4.1927">
        <ele>651.91</ele>
        <time>2011-10-08T05:58:59Z</time>
      </trkpt>
      <trkpt lat="45.30423" lon="4.19273">
        <ele>653.35</ele>
        <time>2011-10-08T05:59:00Z</time>
      </trkpt>
      <trkpt lat="45.30424" lon="4.19276">
        <ele>654.31</ele>
        <time>2011-10-08T05:59:01Z</time>
      </trkpt>
      <trkpt lat="45.30425" lon="4.19278">
        <ele>655.28</ele>
        <time>2011-10-08T05:59:02Z</time>
      </trkpt>
      <trkpt lat="45.30426" lon="4.1928">
        <ele>655.76</ele>
        <time>2011-10-08T05:59:03Z</time>
      </trkpt>
      <trkpt lat="45.30431" lon="4.19286">
        <ele>656.72</ele>
        <time>2011-10-08T05:59:06Z</time>
      </trkpt>
      <trkpt lat="45.30432" lon="4.19287">
        <ele>657.68</ele>
        <time>2011-10-08T05:59:07Z</time>
      </trkpt>
      <trkpt lat="45.30434" lon="4.19289">
        <ele>658.16</ele>
        <time>2011-10-08T05:59:08Z</time>
      </trkpt>
      <trkpt lat="45.30436" lon="4.19292">
        <ele>660.08</ele>
        <time>2011-10-08T05:59:10Z</time>
      </trkpt>
      <trkpt lat="45.30437" lon="4.19294">
        <ele>661.04</ele>
        <time>2011-10-08T05:59:11Z</time>
      </trkpt>
      <trkpt lat="45.30453" lon="4.19319">
        <ele>672.1</ele>
        <time>2011-10-08T05:59:25Z</time>
      </trkpt>
      <trkpt lat="45.30464" lon="4.19345">
        <ele>675.94</ele>
        <time>2011-10-08T05:59:39Z</time>
      </trkpt>
      <trkpt lat="45.30466" lon="4.19357">
        <ele>677.87</ele>
        <time>2011-10-08T05:59:44Z</time>
      </trkpt>
      <trkpt lat="45.30467" lon="4.19362">
        <ele>678.35</ele>
        <time>2011-10-08T05:59:46Z</time>
      </trkpt>
      <trkpt lat="45.30468" lon="4.19365">
        <ele>679.31</ele>
        <time>2011-10-08T05:59:47Z</time>
      </trkpt>
      <trkpt lat="45.30477" lon="4.19403">
        <ele>683.63</ele>
        <time>2011-10-08T06:00:00Z</time>
      </trkpt>
      <trkpt lat="45.30476" lon="4.19452">
        <ele>685.56</ele>
        <time>2011-10-08T06:00:13Z</time>
      </trkpt>
      <trkpt lat="45.30475" lon="4.19484">
        <ele>686.04</ele>
        <time>2011-10-08T06:00:20Z</time>
      </trkpt>
      <trkpt lat="45.30475" lon="4.1949">
        <ele>685.56</ele>
        <time>2011-10-08T06:00:21Z</time>
      </trkpt>
      <trkpt lat="45.30475" lon="4.19497">
        <ele>685.56</ele>
        <time>2011-10-08T06:00:22Z</time>
      </trkpt>
      <trkpt lat="45.30475" lon="4.19505">
        <ele>685.56</ele>
        <time>2011-10-08T06:00:23Z</time>
      </trkpt>
      <trkpt lat="45.30475" lon="4.19512">
        <ele>685.08</ele>
        <time>2011-10-08T06:00:24Z</time>
      </trkpt>
      <trkpt lat="45.30474" lon="4.1952">
        <ele>685.08</ele>
        <time>2011-10-08T06:00:25Z</time>
      </trkpt>
      <trkpt lat="45.30473" lon="4.19529">
        <ele>685.08</ele>
        <time>2011-10-08T06:00:26Z</time>
      </trkpt>
      <trkpt lat="45.30464" lon="4.19583">
        <ele>683.63</ele>
        <time>2011-10-08T06:00:32Z</time>
      </trkpt>
      <trkpt lat="45.30462" lon="4.19614">
        <ele>682.67</ele>
        <time>2011-10-08T06:00:35Z</time>
      </trkpt>
      <trkpt lat="45.30464" lon="4.19649">
        <ele>681.71</ele>
        <time>2011-10-08T06:00:38Z</time>
      </trkpt>
      <trkpt lat="45.30464" lon="4.19675">
        <ele>681.23</ele>
        <time>2011-10-08T06:00:40Z</time>
      </trkpt>
      <trkpt lat="45.30462" lon="4.19703">
        <ele>680.27</ele>
        <time>2011-10-08T06:00:42Z</time>
      </trkpt>
      <trkpt lat="45.30459" lon="4.19716">
        <ele>680.27</ele>
        <time>2011-10-08T06:00:43Z</time>
      </trkpt>
      <trkpt lat="45.30444" lon="4.19784">
        <ele>678.83</ele>
        <time>2011-10-08T06:00:49Z</time>
      </trkpt>
      <trkpt lat="45.30443" lon="4.19793">
        <ele>678.35</ele>
        <time>2011-10-08T06:00:50Z</time>
      </trkpt>
      <trkpt lat="45.30443" lon="4.19818">
        <ele>677.39</ele>
        <time>2011-10-08T06:00:53Z</time>
      </trkpt>
      <trkpt lat="45.30443" lon="4.19842">
        <ele>676.42</ele>
        <time>2011-10-08T06:00:56Z</time>
      </trkpt>
      <trkpt lat="45.30442" lon="4.19857">
        <ele>675.94</ele>
        <time>2011-10-08T06:00:58Z</time>
      </trkpt>
      <trkpt lat="45.30441" lon="4.19863">
        <ele>675.46</ele>
        <time>2011-10-08T06:00:59Z</time>
      </trkpt>
      <trkpt lat="45.30439" lon="4.19868">
        <ele>674.98</ele>
        <time>2011-10-08T06:01:00Z</time>
      </trkpt>
      <trkpt lat="45.30441" lon="4.19886">
        <ele>673.54</ele>
        <time>2011-10-08T06:01:03Z</time>
      </trkpt>
      <trkpt lat="45.30445" lon="4.19891">
        <ele>672.58</ele>
        <time>2011-10-08T06:01:04Z</time>
      </trkpt>
      <trkpt lat="45.30476" lon="4.19922">
        <ele>672.1</ele>
        <time>2011-10-08T06:01:13Z</time>
      </trkpt>
      <trkpt lat="45.30513" lon="4.19929">
        <ele>680.27</ele>
        <time>2011-10-08T06:01:25Z</time>
      </trkpt>
      <trkpt lat="45.3055" lon="4.19924">
        <ele>685.56</ele>
        <time>2011-10-08T06:01:38Z</time>
      </trkpt>
      <trkpt lat="45.30593" lon="4.19924">
        <ele>685.56</ele>
        <time>2011-10-08T06:01:52Z</time>
      </trkpt>
      <trkpt lat="45.30597" lon="4.19925">
        <ele>685.56</ele>
        <time>2011-10-08T06:01:53Z</time>
      </trkpt>
      <trkpt lat="45.306" lon="4.19928">
        <ele>685.08</ele>
        <time>2011-10-08T06:01:54Z</time>
      </trkpt>
      <trkpt lat="45.30603" lon="4.19931">
        <ele>685.08</ele>
        <time>2011-10-08T06:01:55Z</time>
      </trkpt>
      <trkpt lat="45.3062" lon="4.19971">
        <ele>686.52</ele>
        <time>2011-10-08T06:02:07Z</time>
      </trkpt>
      <trkpt lat="45.30616" lon="4.20009">
        <ele>688.44</ele>
        <time>2011-10-08T06:02:19Z</time>
      </trkpt>
      <trkpt lat="45.30608" lon="4.2005">
        <ele>691.33</ele>
        <time>2011-10-08T06:02:33Z</time>
      </trkpt>
      <trkpt lat="45.30603" lon="4.20073">
        <ele>692.29</ele>
        <time>2011-10-08T06:02:42Z</time>
      </trkpt>
      <trkpt lat="45.30599" lon="4.2008">
        <ele>692.77</ele>
        <time>2011-10-08T06:02:45Z</time>
      </trkpt>
      <trkpt lat="45.30598" lon="4.20082">
        <ele>693.25</ele>
        <time>2011-10-08T06:02:46Z</time>
      </trkpt>
      <trkpt lat="45.30597" lon="4.20084">
        <ele>693.25</ele>
        <time>2011-10-08T06:02:47Z</time>
      </trkpt>
      <trkpt lat="45.30595" lon="4.20086">
        <ele>693.25</ele>
        <time>2011-10-08T06:02:48Z</time>
      </trkpt>
      <trkpt lat="45.30594" lon="4.20088">
        <ele>693.25</ele>
        <time>2011-10-08T06:02:49Z</time>
      </trkpt>
      <trkpt lat="45.30593" lon="4.2009">
        <ele>693.73</ele>
        <time>2011-10-08T06:02:51Z</time>
      </trkpt>
      <trkpt lat="45.30581" lon="4.20097">
        <ele>694.69</ele>
        <time>2011-10-08T06:02:58Z</time>
      </trkpt>
      <trkpt lat="45.30579" lon="4.20098">
        <ele>695.17</ele>
        <time>2011-10-08T06:02:59Z</time>
      </trkpt>
      <trkpt lat="45.30574" lon="4.20103">
        <ele>695.17</ele>
        <time>2011-10-08T06:03:02Z</time>
      </trkpt>
      <trkpt lat="45.30571" lon="4.20105">
        <ele>695.65</ele>
        <time>2011-10-08T06:03:04Z</time>
      </trkpt>
      <trkpt lat="45.3057" lon="4.20106">
        <ele>695.65</ele>
        <time>2011-10-08T06:03:05Z</time>
      </trkpt>
      <trkpt lat="45.30568" lon="4.20107">
        <ele>695.65</ele>
        <time>2011-10-08T06:03:06Z</time>
      </trkpt>
      <trkpt lat="45.30548" lon="4.20119">
        <ele>695.65</ele>
        <time>2011-10-08T06:03:17Z</time>
      </trkpt>
      <trkpt lat="45.30533" lon="4.20132">
        <ele>697.57</ele>
        <time>2011-10-08T06:03:27Z</time>
      </trkpt>
      <trkpt lat="45.30521" lon="4.20143">
        <ele>699.98</ele>
        <time>2011-10-08T06:03:36Z</time>
      </trkpt>
      <trkpt lat="45.3052" lon="4.20144">
        <ele>700.46</ele>
        <time>2011-10-08T06:03:37Z</time>
      </trkpt>
      <trkpt lat="45.30518" lon="4.20146">
        <ele>700.46</ele>
        <time>2011-10-08T06:03:38Z</time>
      </trkpt>
      <trkpt lat="45.30517" lon="4.20148">
        <ele>700.94</ele>
        <time>2011-10-08T06:03:39Z</time>
      </trkpt>
      <trkpt lat="45.30515" lon="4.20149">
        <ele>701.42</ele>
        <time>2011-10-08T06:03:40Z</time>
      </trkpt>
      <trkpt lat="45.30504" lon="4.2016">
        <ele>704.78</ele>
        <time>2011-10-08T06:03:51Z</time>
      </trkpt>
      <trkpt lat="45.30503" lon="4.20161">
        <ele>704.78</ele>
        <time>2011-10-08T06:03:52Z</time>
      </trkpt>
      <trkpt lat="45.30493" lon="4.20172">
        <ele>706.71</ele>
        <time>2011-10-08T06:04:02Z</time>
      </trkpt>
      <trkpt lat="45.30487" lon="4.20178">
        <ele>708.15</ele>
        <time>2011-10-08T06:04:06Z</time>
      </trkpt>
      <trkpt lat="45.30486" lon="4.20179">
        <ele>708.63</ele>
        <time>2011-10-08T06:04:07Z</time>
      </trkpt>
      <trkpt lat="45.30471" lon="4.20194">
        <ele>711.03</ele>
        <time>2011-10-08T06:04:18Z</time>
      </trkpt>
      <trkpt lat="45.30456" lon="4.20211">
        <ele>714.88</ele>
        <time>2011-10-08T06:04:29Z</time>
      </trkpt>
      <trkpt lat="45.30451" lon="4.20216">
        <ele>716.8</ele>
        <time>2011-10-08T06:04:34Z</time>
      </trkpt>
      <trkpt lat="45.30449" lon="4.20217">
        <ele>717.28</ele>
        <time>2011-10-08T06:04:35Z</time>
      </trkpt>
      <trkpt lat="45.30447" lon="4.20218">
        <ele>717.28</ele>
        <time>2011-10-08T06:04:36Z</time>
      </trkpt>
      <trkpt lat="45.30445" lon="4.2022">
        <ele>717.76</ele>
        <time>2011-10-08T06:04:37Z</time>
      </trkpt>
      <trkpt lat="45.30439" lon="4.20227">
        <ele>719.2</ele>
        <time>2011-10-08T06:04:43Z</time>
      </trkpt>
      <trkpt lat="45.3043" lon="4.2024">
        <ele>721.61</ele>
        <time>2011-10-08T06:04:52Z</time>
      </trkpt>
      <trkpt lat="45.30426" lon="4.20247">
        <ele>722.57</ele>
        <time>2011-10-08T06:04:55Z</time>
      </trkpt>
      <trkpt lat="45.30422" lon="4.20251">
        <ele>723.53</ele>
        <time>2011-10-08T06:04:58Z</time>
      </trkpt>
      <trkpt lat="45.30421" lon="4.20253">
        <ele>723.05</ele>
        <time>2011-10-08T06:04:59Z</time>
      </trkpt>
      <trkpt lat="45.3042" lon="4.20255">
        <ele>723.05</ele>
        <time>2011-10-08T06:05:00Z</time>
      </trkpt>
      <trkpt lat="45.30418" lon="4.2026">
        <ele>723.05</ele>
        <time>2011-10-08T06:05:03Z</time>
      </trkpt>
      <trkpt lat="45.30416" lon="4.20262">
        <ele>722.57</ele>
        <time>2011-10-08T06:05:04Z</time>
      </trkpt>
      <trkpt lat="45.30404" lon="4.20278">
        <ele>723.05</ele>
        <time>2011-10-08T06:05:15Z</time>
      </trkpt>
      <trkpt lat="45.30399" lon="4.20286">
        <ele>723.05</ele>
        <time>2011-10-08T06:05:21Z</time>
      </trkpt>
      <trkpt lat="45.30398" lon="4.20288">
        <ele>723.53</ele>
        <time>2011-10-08T06:05:22Z</time>
      </trkpt>
      <trkpt lat="45.30397" lon="4.20291">
        <ele>723.53</ele>
        <time>2011-10-08T06:05:23Z</time>
      </trkpt>
      <trkpt lat="45.30396" lon="4.20292">
        <ele>723.53</ele>
        <time>2011-10-08T06:05:24Z</time>
      </trkpt>
      <trkpt lat="45.30395" lon="4.20294">
        <ele>724.01</ele>
        <time>2011-10-08T06:05:25Z</time>
      </trkpt>
      <trkpt lat="45.30381" lon="4.20313">
        <ele>727.86</ele>
        <time>2011-10-08T06:05:36Z</time>
      </trkpt>
      <trkpt lat="45.30366" lon="4.20334">
        <ele>730.74</ele>
        <time>2011-10-08T06:05:47Z</time>
      </trkpt>
      <trkpt lat="45.30345" lon="4.20364">
        <ele>734.1</ele>
        <time>2011-10-08T06:06:00Z</time>
      </trkpt>
      <trkpt lat="45.30331" lon="4.20402">
        <ele>736.03</ele>
        <time>2011-10-08T06:06:13Z</time>
      </trkpt>
      <trkpt lat="45.30313" lon="4.20469">
        <ele>737.47</ele>
        <time>2011-10-08T06:06:32Z</time>
      </trkpt>
      <trkpt lat="45.30303" lon="4.2053">
        <ele>741.79</ele>
        <time>2011-10-08T06:06:48Z</time>
      </trkpt>
      <trkpt lat="45.30301" lon="4.20585">
        <ele>742.76</ele>
        <time>2011-10-08T06:07:02Z</time>
      </trkpt>
      <trkpt lat="45.30293" lon="4.2064">
        <ele>746.12</ele>
        <time>2011-10-08T06:07:17Z</time>
      </trkpt>
      <trkpt lat="45.30291" lon="4.20652">
        <ele>746.12</ele>
        <time>2011-10-08T06:07:21Z</time>
      </trkpt>
      <trkpt lat="45.30291" lon="4.20655">
        <ele>746.12</ele>
        <time>2011-10-08T06:07:22Z</time>
      </trkpt>
      <trkpt lat="45.30292" lon="4.2066">
        <ele>746.12</ele>
        <time>2011-10-08T06:07:23Z</time>
      </trkpt>
      <trkpt lat="45.30292" lon="4.20663">
        <ele>746.12</ele>
        <time>2011-10-08T06:07:24Z</time>
      </trkpt>
      <trkpt lat="45.30291" lon="4.20667">
        <ele>746.6</ele>
        <time>2011-10-08T06:07:25Z</time>
      </trkpt>
      <trkpt lat="45.30291" lon="4.20671">
        <ele>746.6</ele>
        <time>2011-10-08T06:07:26Z</time>
      </trkpt>
      <trkpt lat="45.3029" lon="4.20674">
        <ele>747.08</ele>
        <time>2011-10-08T06:07:27Z</time>
      </trkpt>
      <trkpt lat="45.30274" lon="4.20722">
        <ele>749</ele>
        <time>2011-10-08T06:07:42Z</time>
      </trkpt>
      <trkpt lat="45.30262" lon="4.20766">
        <ele>751.89</ele>
        <time>2011-10-08T06:07:56Z</time>
      </trkpt>
      <trkpt lat="45.30255" lon="4.20807">
        <ele>753.81</ele>
        <time>2011-10-08T06:08:08Z</time>
      </trkpt>
      <trkpt lat="45.30231" lon="4.20846">
        <ele>754.29</ele>
        <time>2011-10-08T06:08:20Z</time>
      </trkpt>
      <trkpt lat="45.30215" lon="4.20905">
        <ele>755.73</ele>
        <time>2011-10-08T06:08:35Z</time>
      </trkpt>
      <trkpt lat="45.30195" lon="4.20971">
        <ele>757.66</ele>
        <time>2011-10-08T06:08:51Z</time>
      </trkpt>
      <trkpt lat="45.30196" lon="4.21016">
        <ele>759.1</ele>
        <time>2011-10-08T06:09:02Z</time>
      </trkpt>
      <trkpt lat="45.30226" lon="4.21079">
        <ele>760.06</ele>
        <time>2011-10-08T06:09:17Z</time>
      </trkpt>
      <trkpt lat="45.30228" lon="4.21084">
        <ele>760.54</ele>
        <time>2011-10-08T06:09:18Z</time>
      </trkpt>
      <trkpt lat="45.30229" lon="4.21089">
        <ele>760.06</ele>
        <time>2011-10-08T06:09:19Z</time>
      </trkpt>
      <trkpt lat="45.30231" lon="4.21095">
        <ele>760.06</ele>
        <time>2011-10-08T06:09:20Z</time>
      </trkpt>
      <trkpt lat="45.30232" lon="4.211">
        <ele>760.06</ele>
        <time>2011-10-08T06:09:21Z</time>
      </trkpt>
      <trkpt lat="45.30232" lon="4.21105">
        <ele>760.06</ele>
        <time>2011-10-08T06:09:22Z</time>
      </trkpt>
      <trkpt lat="45.30233" lon="4.2111">
        <ele>760.54</ele>
        <time>2011-10-08T06:09:23Z</time>
      </trkpt>
      <trkpt lat="45.30234" lon="4.21114">
        <ele>760.54</ele>
        <time>2011-10-08T06:09:24Z</time>
      </trkpt>
      <trkpt lat="45.30236" lon="4.21118">
        <ele>760.54</ele>
        <time>2011-10-08T06:09:25Z</time>
      </trkpt>
      <trkpt lat="45.30259" lon="4.21153">
        <ele>763.9</ele>
        <time>2011-10-08T06:09:35Z</time>
      </trkpt>
      <trkpt lat="45.30259" lon="4.21215">
        <ele>766.31</ele>
        <time>2011-10-08T06:09:49Z</time>
      </trkpt>
      <trkpt lat="45.30255" lon="4.21284">
        <ele>768.71</ele>
        <time>2011-10-08T06:10:04Z</time>
      </trkpt>
      <trkpt lat="45.30259" lon="4.21336">
        <ele>770.63</ele>
        <time>2011-10-08T06:10:15Z</time>
      </trkpt>
      <trkpt lat="45.30255" lon="4.21339">
        <ele>770.15</ele>
        <time>2011-10-08T06:10:16Z</time>
      </trkpt>
      <trkpt lat="45.3025" lon="4.21338">
        <ele>769.67</ele>
        <time>2011-10-08T06:10:17Z</time>
      </trkpt>
      <trkpt lat="45.30246" lon="4.21333">
        <ele>769.19</ele>
        <time>2011-10-08T06:10:18Z</time>
      </trkpt>
      <trkpt lat="45.30243" lon="4.21326">
        <ele>768.71</ele>
        <time>2011-10-08T06:10:19Z</time>
      </trkpt>
      <trkpt lat="45.3024" lon="4.21317">
        <ele>767.75</ele>
        <time>2011-10-08T06:10:20Z</time>
      </trkpt>
      <trkpt lat="45.30238" lon="4.21308">
        <ele>767.27</ele>
        <time>2011-10-08T06:10:21Z</time>
      </trkpt>
      <trkpt lat="45.30235" lon="4.21299">
        <ele>766.79</ele>
        <time>2011-10-08T06:10:22Z</time>
      </trkpt>
      <trkpt lat="45.30231" lon="4.21289">
        <ele>766.31</ele>
        <time>2011-10-08T06:10:23Z</time>
      </trkpt>
      <trkpt lat="45.30226" lon="4.21281">
        <ele>765.83</ele>
        <time>2011-10-08T06:10:24Z</time>
      </trkpt>
      <trkpt lat="45.30204" lon="4.21251">
        <ele>765.35</ele>
        <time>2011-10-08T06:10:28Z</time>
      </trkpt>
      <trkpt lat="45.302" lon="4.21243">
        <ele>765.35</ele>
        <time>2011-10-08T06:10:29Z</time>
      </trkpt>
      <trkpt lat="45.30197" lon="4.21235">
        <ele>765.83</ele>
        <time>2011-10-08T06:10:30Z</time>
      </trkpt>
      <trkpt lat="45.30184" lon="4.21201">
        <ele>766.79</ele>
        <time>2011-10-08T06:10:35Z</time>
      </trkpt>
      <trkpt lat="45.30181" lon="4.21197">
        <ele>766.79</ele>
        <time>2011-10-08T06:10:36Z</time>
      </trkpt>
      <trkpt lat="45.30178" lon="4.21193">
        <ele>767.27</ele>
        <time>2011-10-08T06:10:37Z</time>
      </trkpt>
      <trkpt lat="45.30174" lon="4.21191">
        <ele>767.27</ele>
        <time>2011-10-08T06:10:38Z</time>
      </trkpt>
      <trkpt lat="45.3017" lon="4.2119">
        <ele>767.75</ele>
        <time>2011-10-08T06:10:39Z</time>
      </trkpt>
      <trkpt lat="45.30166" lon="4.21191">
        <ele>767.75</ele>
        <time>2011-10-08T06:10:40Z</time>
      </trkpt>
      <trkpt lat="45.30162" lon="4.21193">
        <ele>767.75</ele>
        <time>2011-10-08T06:10:41Z</time>
      </trkpt>
      <trkpt lat="45.30158" lon="4.21196">
        <ele>768.23</ele>
        <time>2011-10-08T06:10:42Z</time>
      </trkpt>
      <trkpt lat="45.30156" lon="4.21201">
        <ele>768.23</ele>
        <time>2011-10-08T06:10:43Z</time>
      </trkpt>
      <trkpt lat="45.30154" lon="4.21206">
        <ele>768.23</ele>
        <time>2011-10-08T06:10:44Z</time>
      </trkpt>
      <trkpt lat="45.30153" lon="4.21211">
        <ele>768.71</ele>
        <time>2011-10-08T06:10:45Z</time>
      </trkpt>
      <trkpt lat="45.30143" lon="4.21268">
        <ele>770.63</ele>
        <time>2011-10-08T06:10:58Z</time>
      </trkpt>
      <trkpt lat="45.30128" lon="4.21343">
        <ele>774</ele>
        <time>2011-10-08T06:11:16Z</time>
      </trkpt>
      <trkpt lat="45.30118" lon="4.21349">
        <ele>775.44</ele>
        <time>2011-10-08T06:11:20Z</time>
      </trkpt>
      <trkpt lat="45.30084" lon="4.21356">
        <ele>777.36</ele>
        <time>2011-10-08T06:11:32Z</time>
      </trkpt>
      <trkpt lat="45.30082" lon="4.21359">
        <ele>777.36</ele>
        <time>2011-10-08T06:11:33Z</time>
      </trkpt>
      <trkpt lat="45.3008" lon="4.21362">
        <ele>777.36</ele>
        <time>2011-10-08T06:11:34Z</time>
      </trkpt>
      <trkpt lat="45.30078" lon="4.21365">
        <ele>777.36</ele>
        <time>2011-10-08T06:11:35Z</time>
      </trkpt>
      <trkpt lat="45.30077" lon="4.21369">
        <ele>777.36</ele>
        <time>2011-10-08T06:11:36Z</time>
      </trkpt>
      <trkpt lat="45.30053" lon="4.21429">
        <ele>781.21</ele>
        <time>2011-10-08T06:11:52Z</time>
      </trkpt>
      <trkpt lat="45.30051" lon="4.21436">
        <ele>782.65</ele>
        <time>2011-10-08T06:11:55Z</time>
      </trkpt>
      <trkpt lat="45.30017" lon="4.21476">
        <ele>785.05</ele>
        <time>2011-10-08T06:12:06Z</time>
      </trkpt>
      <trkpt lat="45.29994" lon="4.21507">
        <ele>785.05</ele>
        <time>2011-10-08T06:12:15Z</time>
      </trkpt>
      <trkpt lat="45.29986" lon="4.21516">
        <ele>784.57</ele>
        <time>2011-10-08T06:12:17Z</time>
      </trkpt>
      <trkpt lat="45.29981" lon="4.21521">
        <ele>784.09</ele>
        <time>2011-10-08T06:12:18Z</time>
      </trkpt>
      <trkpt lat="45.29953" lon="4.21559">
        <ele>785.53</ele>
        <time>2011-10-08T06:12:26Z</time>
      </trkpt>
      <trkpt lat="45.29943" lon="4.21571">
        <ele>786.02</ele>
        <time>2011-10-08T06:12:30Z</time>
      </trkpt>
      <trkpt lat="45.29938" lon="4.21569">
        <ele>786.02</ele>
        <time>2011-10-08T06:12:31Z</time>
      </trkpt>
      <trkpt lat="45.29934" lon="4.21565">
        <ele>786.02</ele>
        <time>2011-10-08T06:12:32Z</time>
      </trkpt>
      <trkpt lat="45.29884" lon="4.21511">
        <ele>777.84</ele>
        <time>2011-10-08T06:12:40Z</time>
      </trkpt>
      <trkpt lat="45.29845" lon="4.21466">
        <ele>772.08</ele>
        <time>2011-10-08T06:12:45Z</time>
      </trkpt>
      <trkpt lat="45.29835" lon="4.21461">
        <ele>770.63</ele>
        <time>2011-10-08T06:12:46Z</time>
      </trkpt>
      <trkpt lat="45.29825" lon="4.2146">
        <ele>769.19</ele>
        <time>2011-10-08T06:12:47Z</time>
      </trkpt>
      <trkpt lat="45.29814" lon="4.21461">
        <ele>767.75</ele>
        <time>2011-10-08T06:12:48Z</time>
      </trkpt>
      <trkpt lat="45.29803" lon="4.21464">
        <ele>766.31</ele>
        <time>2011-10-08T06:12:49Z</time>
      </trkpt>
      <trkpt lat="45.29791" lon="4.21465">
        <ele>765.35</ele>
        <time>2011-10-08T06:12:50Z</time>
      </trkpt>
      <trkpt lat="45.29779" lon="4.21464">
        <ele>763.9</ele>
        <time>2011-10-08T06:12:51Z</time>
      </trkpt>
      <trkpt lat="45.29731" lon="4.21452">
        <ele>761.02</ele>
        <time>2011-10-08T06:12:55Z</time>
      </trkpt>
      <trkpt lat="45.29672" lon="4.21424">
        <ele>756.21</ele>
        <time>2011-10-08T06:13:00Z</time>
      </trkpt>
      <trkpt lat="45.2966" lon="4.21422">
        <ele>754.77</ele>
        <time>2011-10-08T06:13:01Z</time>
      </trkpt>
      <trkpt lat="45.29648" lon="4.21424">
        <ele>754.29</ele>
        <time>2011-10-08T06:13:02Z</time>
      </trkpt>
      <trkpt lat="45.29637" lon="4.21428">
        <ele>753.81</ele>
        <time>2011-10-08T06:13:03Z</time>
      </trkpt>
      <trkpt lat="45.29627" lon="4.2143">
        <ele>754.29</ele>
        <time>2011-10-08T06:13:04Z</time>
      </trkpt>
      <trkpt lat="45.29618" lon="4.2143">
        <ele>754.77</ele>
        <time>2011-10-08T06:13:05Z</time>
      </trkpt>
      <trkpt lat="45.2961" lon="4.21429">
        <ele>755.73</ele>
        <time>2011-10-08T06:13:06Z</time>
      </trkpt>
      <trkpt lat="45.29581" lon="4.21423">
        <ele>759.58</ele>
        <time>2011-10-08T06:13:10Z</time>
      </trkpt>
      <trkpt lat="45.29502" lon="4.2141">
        <ele>762.94</ele>
        <time>2011-10-08T06:13:23Z</time>
      </trkpt>
      <trkpt lat="45.29466" lon="4.21402">
        <ele>765.35</ele>
        <time>2011-10-08T06:13:30Z</time>
      </trkpt>
      <trkpt lat="45.29461" lon="4.21401">
        <ele>765.35</ele>
        <time>2011-10-08T06:13:31Z</time>
      </trkpt>
      <trkpt lat="45.29402" lon="4.21389">
        <ele>768.71</ele>
        <time>2011-10-08T06:13:45Z</time>
      </trkpt>
      <trkpt lat="45.29372" lon="4.21391">
        <ele>772.56</ele>
        <time>2011-10-08T06:13:55Z</time>
      </trkpt>
      <trkpt lat="45.2937" lon="4.21395">
        <ele>773.04</ele>
        <time>2011-10-08T06:13:56Z</time>
      </trkpt>
      <trkpt lat="45.29356" lon="4.21457">
        <ele>774.96</ele>
        <time>2011-10-08T06:14:09Z</time>
      </trkpt>
      <trkpt lat="45.29335" lon="4.21536">
        <ele>775.44</ele>
        <time>2011-10-08T06:14:24Z</time>
      </trkpt>
      <trkpt lat="45.29315" lon="4.21598">
        <ele>774.96</ele>
        <time>2011-10-08T06:14:34Z</time>
      </trkpt>
      <trkpt lat="45.29307" lon="4.21629">
        <ele>774.48</ele>
        <time>2011-10-08T06:14:38Z</time>
      </trkpt>
      <trkpt lat="45.29306" lon="4.21637">
        <ele>774</ele>
        <time>2011-10-08T06:14:39Z</time>
      </trkpt>
      <trkpt lat="45.29306" lon="4.21647">
        <ele>774</ele>
        <time>2011-10-08T06:14:40Z</time>
      </trkpt>
      <trkpt lat="45.29308" lon="4.21655">
        <ele>773.52</ele>
        <time>2011-10-08T06:14:41Z</time>
      </trkpt>
      <trkpt lat="45.29311" lon="4.21663">
        <ele>773.52</ele>
        <time>2011-10-08T06:14:42Z</time>
      </trkpt>
      <trkpt lat="45.29314" lon="4.21671">
        <ele>773.04</ele>
        <time>2011-10-08T06:14:43Z</time>
      </trkpt>
      <trkpt lat="45.29317" lon="4.2168">
        <ele>773.04</ele>
        <time>2011-10-08T06:14:44Z</time>
      </trkpt>
      <trkpt lat="45.29341" lon="4.21804">
        <ele>772.56</ele>
        <time>2011-10-08T06:14:58Z</time>
      </trkpt>
      <trkpt lat="45.29338" lon="4.2183">
        <ele>772.56</ele>
        <time>2011-10-08T06:15:01Z</time>
      </trkpt>
      <trkpt lat="45.29336" lon="4.21838">
        <ele>772.56</ele>
        <time>2011-10-08T06:15:02Z</time>
      </trkpt>
      <trkpt lat="45.29328" lon="4.21933">
        <ele>772.56</ele>
        <time>2011-10-08T06:15:14Z</time>
      </trkpt>
      <trkpt lat="45.2932" lon="4.22054">
        <ele>774.48</ele>
        <time>2011-10-08T06:15:30Z</time>
      </trkpt>
      <trkpt lat="45.29318" lon="4.2213">
        <ele>774.96</ele>
        <time>2011-10-08T06:15:41Z</time>
      </trkpt>
      <trkpt lat="45.29324" lon="4.2221">
        <ele>778.81</ele>
        <time>2011-10-08T06:15:55Z</time>
      </trkpt>
      <trkpt lat="45.29315" lon="4.22279">
        <ele>783.13</ele>
        <time>2011-10-08T06:16:09Z</time>
      </trkpt>
      <trkpt lat="45.2929" lon="4.22363">
        <ele>785.05</ele>
        <time>2011-10-08T06:16:27Z</time>
      </trkpt>
      <trkpt lat="45.29268" lon="4.22403">
        <ele>786.5</ele>
        <time>2011-10-08T06:16:38Z</time>
      </trkpt>
      <trkpt lat="45.29225" lon="4.224">
        <ele>789.86</ele>
        <time>2011-10-08T06:16:52Z</time>
      </trkpt>
      <trkpt lat="45.29194" lon="4.22397">
        <ele>789.86</ele>
        <time>2011-10-08T06:17:01Z</time>
      </trkpt>
      <trkpt lat="45.29166" lon="4.22391">
        <ele>788.9</ele>
        <time>2011-10-08T06:17:06Z</time>
      </trkpt>
      <trkpt lat="45.29125" lon="4.22387">
        <ele>787.46</ele>
        <time>2011-10-08T06:17:13Z</time>
      </trkpt>
      <trkpt lat="45.2912" lon="4.22383">
        <ele>787.46</ele>
        <time>2011-10-08T06:17:14Z</time>
      </trkpt>
      <trkpt lat="45.29116" lon="4.22377">
        <ele>787.46</ele>
        <time>2011-10-08T06:17:15Z</time>
      </trkpt>
      <trkpt lat="45.29114" lon="4.2237">
        <ele>787.46</ele>
        <time>2011-10-08T06:17:16Z</time>
      </trkpt>
      <trkpt lat="45.29112" lon="4.22363">
        <ele>787.46</ele>
        <time>2011-10-08T06:17:17Z</time>
      </trkpt>
      <trkpt lat="45.2911" lon="4.22357">
        <ele>787.46</ele>
        <time>2011-10-08T06:17:18Z</time>
      </trkpt>
      <trkpt lat="45.29109" lon="4.22351">
        <ele>787.46</ele>
        <time>2011-10-08T06:17:19Z</time>
      </trkpt>
      <trkpt lat="45.29106" lon="4.22346">
        <ele>786.98</ele>
        <time>2011-10-08T06:17:20Z</time>
      </trkpt>
      <trkpt lat="45.29103" lon="4.22343">
        <ele>786.98</ele>
        <time>2011-10-08T06:17:21Z</time>
      </trkpt>
      <trkpt lat="45.29099" lon="4.22341">
        <ele>786.98</ele>
        <time>2011-10-08T06:17:22Z</time>
      </trkpt>
      <trkpt lat="45.29091" lon="4.22338">
        <ele>786.98</ele>
        <time>2011-10-08T06:17:24Z</time>
      </trkpt>
      <trkpt lat="45.29087" lon="4.22339">
        <ele>786.5</ele>
        <time>2011-10-08T06:17:25Z</time>
      </trkpt>
      <trkpt lat="45.29081" lon="4.22342">
        <ele>786.5</ele>
        <time>2011-10-08T06:17:26Z</time>
      </trkpt>
      <trkpt lat="45.29052" lon="4.22361">
        <ele>782.65</ele>
        <time>2011-10-08T06:17:29Z</time>
      </trkpt>
      <trkpt lat="45.29043" lon="4.22371">
        <ele>781.21</ele>
        <time>2011-10-08T06:17:30Z</time>
      </trkpt>
      <trkpt lat="45.29035" lon="4.22383">
        <ele>779.77</ele>
        <time>2011-10-08T06:17:31Z</time>
      </trkpt>
      <trkpt lat="45.29027" lon="4.22394">
        <ele>778.32</ele>
        <time>2011-10-08T06:17:32Z</time>
      </trkpt>
      <trkpt lat="45.29018" lon="4.22402">
        <ele>776.88</ele>
        <time>2011-10-08T06:17:33Z</time>
      </trkpt>
      <trkpt lat="45.29007" lon="4.22408">
        <ele>774.96</ele>
        <time>2011-10-08T06:17:34Z</time>
      </trkpt>
      <trkpt lat="45.28996" lon="4.22413">
        <ele>774</ele>
        <time>2011-10-08T06:17:35Z</time>
      </trkpt>
      <trkpt lat="45.28971" lon="4.22426">
        <ele>772.08</ele>
        <time>2011-10-08T06:17:38Z</time>
      </trkpt>
      <trkpt lat="45.28964" lon="4.22432">
        <ele>771.6</ele>
        <time>2011-10-08T06:17:39Z</time>
      </trkpt>
      <trkpt lat="45.28959" lon="4.2244">
        <ele>771.11</ele>
        <time>2011-10-08T06:17:40Z</time>
      </trkpt>
      <trkpt lat="45.28955" lon="4.22449">
        <ele>770.63</ele>
        <time>2011-10-08T06:17:41Z</time>
      </trkpt>
      <trkpt lat="45.28952" lon="4.22458">
        <ele>770.15</ele>
        <time>2011-10-08T06:17:42Z</time>
      </trkpt>
      <trkpt lat="45.2895" lon="4.22467">
        <ele>770.15</ele>
        <time>2011-10-08T06:17:43Z</time>
      </trkpt>
      <trkpt lat="45.28923" lon="4.22578">
        <ele>769.19</ele>
        <time>2011-10-08T06:17:55Z</time>
      </trkpt>
      <trkpt lat="45.28871" lon="4.22689">
        <ele>769.19</ele>
        <time>2011-10-08T06:18:09Z</time>
      </trkpt>
      <trkpt lat="45.28852" lon="4.22728">
        <ele>769.67</ele>
        <time>2011-10-08T06:18:14Z</time>
      </trkpt>
      <trkpt lat="45.28846" lon="4.22735">
        <ele>769.19</ele>
        <time>2011-10-08T06:18:15Z</time>
      </trkpt>
      <trkpt lat="45.28819" lon="4.22769">
        <ele>767.75</ele>
        <time>2011-10-08T06:18:20Z</time>
      </trkpt>
      <trkpt lat="45.28814" lon="4.22778">
        <ele>767.27</ele>
        <time>2011-10-08T06:18:21Z</time>
      </trkpt>
      <trkpt lat="45.28769" lon="4.22898">
        <ele>765.35</ele>
        <time>2011-10-08T06:18:34Z</time>
      </trkpt>
      <trkpt lat="45.28763" lon="4.22905">
        <ele>765.35</ele>
        <time>2011-10-08T06:18:35Z</time>
      </trkpt>
      <trkpt lat="45.28757" lon="4.22909">
        <ele>765.35</ele>
        <time>2011-10-08T06:18:36Z</time>
      </trkpt>
      <trkpt lat="45.2875" lon="4.2291">
        <ele>765.35</ele>
        <time>2011-10-08T06:18:37Z</time>
      </trkpt>
      <trkpt lat="45.28744" lon="4.2291">
        <ele>765.35</ele>
        <time>2011-10-08T06:18:38Z</time>
      </trkpt>
      <trkpt lat="45.28734" lon="4.22911">
        <ele>765.35</ele>
        <time>2011-10-08T06:18:40Z</time>
      </trkpt>
      <trkpt lat="45.2873" lon="4.22914">
        <ele>765.35</ele>
        <time>2011-10-08T06:18:41Z</time>
      </trkpt>
      <trkpt lat="45.28726" lon="4.22917">
        <ele>765.83</ele>
        <time>2011-10-08T06:18:42Z</time>
      </trkpt>
      <trkpt lat="45.28723" lon="4.22922">
        <ele>766.31</ele>
        <time>2011-10-08T06:18:43Z</time>
      </trkpt>
      <trkpt lat="45.28721" lon="4.22926">
        <ele>766.31</ele>
        <time>2011-10-08T06:18:44Z</time>
      </trkpt>
      <trkpt lat="45.2872" lon="4.2293">
        <ele>766.79</ele>
        <time>2011-10-08T06:18:45Z</time>
      </trkpt>
      <trkpt lat="45.28719" lon="4.22934">
        <ele>766.79</ele>
        <time>2011-10-08T06:18:46Z</time>
      </trkpt>
      <trkpt lat="45.28715" lon="4.22949">
        <ele>767.27</ele>
        <time>2011-10-08T06:18:51Z</time>
      </trkpt>
      <trkpt lat="45.28714" lon="4.22952">
        <ele>767.27</ele>
        <time>2011-10-08T06:18:52Z</time>
      </trkpt>
      <trkpt lat="45.28704" lon="4.2299">
        <ele>770.15</ele>
        <time>2011-10-08T06:19:05Z</time>
      </trkpt>
      <trkpt lat="45.28693" lon="4.23016">
        <ele>769.67</ele>
        <time>2011-10-08T06:19:15Z</time>
      </trkpt>
      <trkpt lat="45.28679" lon="4.23046">
        <ele>769.67</ele>
        <time>2011-10-08T06:19:26Z</time>
      </trkpt>
      <trkpt lat="45.28666" lon="4.23078">
        <ele>774.48</ele>
        <time>2011-10-08T06:19:37Z</time>
      </trkpt>
      <trkpt lat="45.28661" lon="4.23091">
        <ele>775.92</ele>
        <time>2011-10-08T06:19:43Z</time>
      </trkpt>
      <trkpt lat="45.2866" lon="4.23094">
        <ele>775.92</ele>
        <time>2011-10-08T06:19:44Z</time>
      </trkpt>
      <trkpt lat="45.28639" lon="4.23133">
        <ele>778.81</ele>
        <time>2011-10-08T06:19:58Z</time>
      </trkpt>
      <trkpt lat="45.28633" lon="4.23149">
        <ele>779.29</ele>
        <time>2011-10-08T06:20:04Z</time>
      </trkpt>
      <trkpt lat="45.28629" lon="4.23152">
        <ele>779.29</ele>
        <time>2011-10-08T06:20:06Z</time>
      </trkpt>
      <trkpt lat="45.28627" lon="4.23154">
        <ele>779.29</ele>
        <time>2011-10-08T06:20:07Z</time>
      </trkpt>
      <trkpt lat="45.28593" lon="4.2318">
        <ele>780.73</ele>
        <time>2011-10-08T06:20:18Z</time>
      </trkpt>
      <trkpt lat="45.28564" lon="4.23197">
        <ele>781.69</ele>
        <time>2011-10-08T06:20:26Z</time>
      </trkpt>
      <trkpt lat="45.28545" lon="4.2321">
        <ele>783.13</ele>
        <time>2011-10-08T06:20:37Z</time>
      </trkpt>
      <trkpt lat="45.28542" lon="4.23209">
        <ele>783.13</ele>
        <time>2011-10-08T06:20:39Z</time>
      </trkpt>
      <trkpt lat="45.28541" lon="4.23209">
        <ele>783.13</ele>
        <time>2011-10-08T06:20:40Z</time>
      </trkpt>
      <trkpt lat="45.28539" lon="4.23208">
        <ele>783.13</ele>
        <time>2011-10-08T06:20:41Z</time>
      </trkpt>
      <trkpt lat="45.2853" lon="4.23205">
        <ele>783.13</ele>
        <time>2011-10-08T06:20:46Z</time>
      </trkpt>
      <trkpt lat="45.28526" lon="4.23207">
        <ele>783.13</ele>
        <time>2011-10-08T06:20:47Z</time>
      </trkpt>
      <trkpt lat="45.28522" lon="4.23209">
        <ele>783.13</ele>
        <time>2011-10-08T06:20:48Z</time>
      </trkpt>
      <trkpt lat="45.28519" lon="4.23209">
        <ele>783.61</ele>
        <time>2011-10-08T06:20:49Z</time>
      </trkpt>
      <trkpt lat="45.28518" lon="4.2321">
        <ele>783.61</ele>
        <time>2011-10-08T06:20:50Z</time>
      </trkpt>
      <trkpt lat="45.28513" lon="4.23214">
        <ele>784.09</ele>
        <time>2011-10-08T06:20:54Z</time>
      </trkpt>
      <trkpt lat="45.2851" lon="4.23215">
        <ele>784.09</ele>
        <time>2011-10-08T06:20:55Z</time>
      </trkpt>
      <trkpt lat="45.28506" lon="4.23215">
        <ele>784.09</ele>
        <time>2011-10-08T06:20:57Z</time>
      </trkpt>
      <trkpt lat="45.28503" lon="4.23218">
        <ele>784.57</ele>
        <time>2011-10-08T06:21:01Z</time>
      </trkpt>
      <trkpt lat="45.28494" lon="4.23222">
        <ele>784.09</ele>
        <time>2011-10-08T06:21:04Z</time>
      </trkpt>
      <trkpt lat="45.28492" lon="4.23223">
        <ele>783.61</ele>
        <time>2011-10-08T06:21:05Z</time>
      </trkpt>
      <trkpt lat="45.2849" lon="4.23224">
        <ele>783.61</ele>
        <time>2011-10-08T06:21:06Z</time>
      </trkpt>
      <trkpt lat="45.28488" lon="4.23224">
        <ele>784.09</ele>
        <time>2011-10-08T06:21:07Z</time>
      </trkpt>
      <trkpt lat="45.28486" lon="4.23223">
        <ele>783.61</ele>
        <time>2011-10-08T06:21:08Z</time>
      </trkpt>
      <trkpt lat="45.28484" lon="4.23224">
        <ele>784.09</ele>
        <time>2011-10-08T06:21:09Z</time>
      </trkpt>
      <trkpt lat="45.28482" lon="4.23224">
        <ele>784.09</ele>
        <time>2011-10-08T06:21:10Z</time>
      </trkpt>
      <trkpt lat="45.28458" lon="4.23238">
        <ele>786.02</ele>
        <time>2011-10-08T06:21:21Z</time>
      </trkpt>
      <trkpt lat="45.28456" lon="4.23238">
        <ele>786.02</ele>
        <time>2011-10-08T06:21:22Z</time>
      </trkpt>
      <trkpt lat="45.28451" lon="4.23238">
        <ele>786.02</ele>
        <time>2011-10-08T06:21:24Z</time>
      </trkpt>
      <trkpt lat="45.28448" lon="4.23239">
        <ele>786.02</ele>
        <time>2011-10-08T06:21:25Z</time>
      </trkpt>
      <trkpt lat="45.28445" lon="4.23239">
        <ele>786.02</ele>
        <time>2011-10-08T06:21:26Z</time>
      </trkpt>
      <trkpt lat="45.28443" lon="4.23239">
        <ele>786.02</ele>
        <time>2011-10-08T06:21:27Z</time>
      </trkpt>
      <trkpt lat="45.2844" lon="4.23239">
        <ele>786.02</ele>
        <time>2011-10-08T06:21:28Z</time>
      </trkpt>
      <trkpt lat="45.28438" lon="4.2324">
        <ele>786.5</ele>
        <time>2011-10-08T06:21:29Z</time>
      </trkpt>
      <trkpt lat="45.28435" lon="4.23241">
        <ele>786.98</ele>
        <time>2011-10-08T06:21:30Z</time>
      </trkpt>
      <trkpt lat="45.28433" lon="4.23242">
        <ele>787.46</ele>
        <time>2011-10-08T06:21:31Z</time>
      </trkpt>
      <trkpt lat="45.28431" lon="4.23244">
        <ele>787.46</ele>
        <time>2011-10-08T06:21:32Z</time>
      </trkpt>
      <trkpt lat="45.2843" lon="4.23244">
        <ele>787.94</ele>
        <time>2011-10-08T06:21:33Z</time>
      </trkpt>
      <trkpt lat="45.28428" lon="4.23245">
        <ele>787.94</ele>
        <time>2011-10-08T06:21:34Z</time>
      </trkpt>
      <trkpt lat="45.28415" lon="4.23249">
        <ele>789.86</ele>
        <time>2011-10-08T06:21:42Z</time>
      </trkpt>
      <trkpt lat="45.28412" lon="4.23248">
        <ele>790.34</ele>
        <time>2011-10-08T06:21:44Z</time>
      </trkpt>
      <trkpt lat="45.28402" lon="4.23249">
        <ele>791.3</ele>
        <time>2011-10-08T06:21:48Z</time>
      </trkpt>
      <trkpt lat="45.284" lon="4.2325">
        <ele>791.78</ele>
        <time>2011-10-08T06:21:49Z</time>
      </trkpt>
      <trkpt lat="45.28399" lon="4.23251">
        <ele>791.78</ele>
        <time>2011-10-08T06:21:50Z</time>
      </trkpt>
      <trkpt lat="45.28396" lon="4.23252">
        <ele>791.78</ele>
        <time>2011-10-08T06:21:51Z</time>
      </trkpt>
      <trkpt lat="45.28394" lon="4.23253">
        <ele>791.78</ele>
        <time>2011-10-08T06:21:52Z</time>
      </trkpt>
      <trkpt lat="45.28393" lon="4.23253">
        <ele>792.26</ele>
        <time>2011-10-08T06:21:53Z</time>
      </trkpt>
      <trkpt lat="45.2839" lon="4.23253">
        <ele>792.74</ele>
        <time>2011-10-08T06:21:54Z</time>
      </trkpt>
      <trkpt lat="45.28388" lon="4.23253">
        <ele>793.22</ele>
        <time>2011-10-08T06:21:55Z</time>
      </trkpt>
      <trkpt lat="45.28386" lon="4.23254">
        <ele>793.71</ele>
        <time>2011-10-08T06:21:56Z</time>
      </trkpt>
      <trkpt lat="45.2837" lon="4.23253">
        <ele>798.99</ele>
        <time>2011-10-08T06:22:04Z</time>
      </trkpt>
      <trkpt lat="45.28369" lon="4.23251">
        <ele>799.95</ele>
        <time>2011-10-08T06:22:05Z</time>
      </trkpt>
      <trkpt lat="45.28367" lon="4.2325">
        <ele>800.92</ele>
        <time>2011-10-08T06:22:06Z</time>
      </trkpt>
      <trkpt lat="45.28366" lon="4.2325">
        <ele>801.4</ele>
        <time>2011-10-08T06:22:07Z</time>
      </trkpt>
      <trkpt lat="45.28365" lon="4.23249">
        <ele>802.36</ele>
        <time>2011-10-08T06:22:08Z</time>
      </trkpt>
      <trkpt lat="45.28362" lon="4.23249">
        <ele>802.84</ele>
        <time>2011-10-08T06:22:09Z</time>
      </trkpt>
      <trkpt lat="45.28361" lon="4.2325">
        <ele>802.84</ele>
        <time>2011-10-08T06:22:10Z</time>
      </trkpt>
      <trkpt lat="45.28359" lon="4.23252">
        <ele>803.32</ele>
        <time>2011-10-08T06:22:11Z</time>
      </trkpt>
      <trkpt lat="45.28357" lon="4.23256">
        <ele>803.8</ele>
        <time>2011-10-08T06:22:14Z</time>
      </trkpt>
      <trkpt lat="45.28356" lon="4.23258">
        <ele>803.8</ele>
        <time>2011-10-08T06:22:15Z</time>
      </trkpt>
      <trkpt lat="45.28353" lon="4.23257">
        <ele>803.8</ele>
        <time>2011-10-08T06:22:16Z</time>
      </trkpt>
      <trkpt lat="45.2835" lon="4.23257">
        <ele>803.8</ele>
        <time>2011-10-08T06:22:17Z</time>
      </trkpt>
      <trkpt lat="45.28348" lon="4.23257">
        <ele>803.8</ele>
        <time>2011-10-08T06:22:18Z</time>
      </trkpt>
      <trkpt lat="45.28342" lon="4.23256">
        <ele>804.76</ele>
        <time>2011-10-08T06:22:21Z</time>
      </trkpt>
      <trkpt lat="45.2834" lon="4.23256">
        <ele>804.76</ele>
        <time>2011-10-08T06:22:22Z</time>
      </trkpt>
      <trkpt lat="45.28339" lon="4.23255">
        <ele>805.24</ele>
        <time>2011-10-08T06:22:23Z</time>
      </trkpt>
      <trkpt lat="45.28336" lon="4.23255">
        <ele>805.72</ele>
        <time>2011-10-08T06:22:24Z</time>
      </trkpt>
      <trkpt lat="45.28334" lon="4.23256">
        <ele>805.72</ele>
        <time>2011-10-08T06:22:25Z</time>
      </trkpt>
      <trkpt lat="45.28333" lon="4.23257">
        <ele>805.72</ele>
        <time>2011-10-08T06:22:26Z</time>
      </trkpt>
      <trkpt lat="45.28331" lon="4.23257">
        <ele>806.2</ele>
        <time>2011-10-08T06:22:27Z</time>
      </trkpt>
      <trkpt lat="45.28328" lon="4.23257">
        <ele>806.68</ele>
        <time>2011-10-08T06:22:28Z</time>
      </trkpt>
      <trkpt lat="45.28326" lon="4.23257">
        <ele>807.16</ele>
        <time>2011-10-08T06:22:29Z</time>
      </trkpt>
      <trkpt lat="45.28324" lon="4.23258">
        <ele>807.16</ele>
        <time>2011-10-08T06:22:30Z</time>
      </trkpt>
      <trkpt lat="45.28323" lon="4.23259">
        <ele>807.64</ele>
        <time>2011-10-08T06:22:31Z</time>
      </trkpt>
      <trkpt lat="45.28318" lon="4.2326">
        <ele>808.13</ele>
        <time>2011-10-08T06:22:35Z</time>
      </trkpt>
      <trkpt lat="45.28312" lon="4.23264">
        <ele>807.64</ele>
        <time>2011-10-08T06:22:39Z</time>
      </trkpt>
      <trkpt lat="45.28304" lon="4.23263">
        <ele>807.64</ele>
        <time>2011-10-08T06:22:43Z</time>
      </trkpt>
      <trkpt lat="45.28303" lon="4.23262">
        <ele>807.64</ele>
        <time>2011-10-08T06:22:44Z</time>
      </trkpt>
      <trkpt lat="45.28302" lon="4.23261">
        <ele>808.13</ele>
        <time>2011-10-08T06:22:45Z</time>
      </trkpt>
      <trkpt lat="45.283" lon="4.23259">
        <ele>808.13</ele>
        <time>2011-10-08T06:22:46Z</time>
      </trkpt>
      <trkpt lat="45.28298" lon="4.23258">
        <ele>808.61</ele>
        <time>2011-10-08T06:22:47Z</time>
      </trkpt>
      <trkpt lat="45.28296" lon="4.23256">
        <ele>808.61</ele>
        <time>2011-10-08T06:22:48Z</time>
      </trkpt>
      <trkpt lat="45.28294" lon="4.23256">
        <ele>809.09</ele>
        <time>2011-10-08T06:22:49Z</time>
      </trkpt>
      <trkpt lat="45.28292" lon="4.23256">
        <ele>809.57</ele>
        <time>2011-10-08T06:22:50Z</time>
      </trkpt>
      <trkpt lat="45.2829" lon="4.23256">
        <ele>809.57</ele>
        <time>2011-10-08T06:22:51Z</time>
      </trkpt>
      <trkpt lat="45.28288" lon="4.23256">
        <ele>809.57</ele>
        <time>2011-10-08T06:22:52Z</time>
      </trkpt>
      <trkpt lat="45.28285" lon="4.23255">
        <ele>810.05</ele>
        <time>2011-10-08T06:22:53Z</time>
      </trkpt>
      <trkpt lat="45.28283" lon="4.23255">
        <ele>810.53</ele>
        <time>2011-10-08T06:22:54Z</time>
      </trkpt>
      <trkpt lat="45.28281" lon="4.23256">
        <ele>810.53</ele>
        <time>2011-10-08T06:22:55Z</time>
      </trkpt>
      <trkpt lat="45.28271" lon="4.2326">
        <ele>811.97</ele>
        <time>2011-10-08T06:23:03Z</time>
      </trkpt>
      <trkpt lat="45.28269" lon="4.23259">
        <ele>812.45</ele>
        <time>2011-10-08T06:23:04Z</time>
      </trkpt>
      <trkpt lat="45.28267" lon="4.23259">
        <ele>812.45</ele>
        <time>2011-10-08T06:23:05Z</time>
      </trkpt>
      <trkpt lat="45.28265" lon="4.23259">
        <ele>812.45</ele>
        <time>2011-10-08T06:23:06Z</time>
      </trkpt>
      <trkpt lat="45.28264" lon="4.23259">
        <ele>812.45</ele>
        <time>2011-10-08T06:23:07Z</time>
      </trkpt>
      <trkpt lat="45.28254" lon="4.23258">
        <ele>812.45</ele>
        <time>2011-10-08T06:23:13Z</time>
      </trkpt>
      <trkpt lat="45.28252" lon="4.23258">
        <ele>812.45</ele>
        <time>2011-10-08T06:23:14Z</time>
      </trkpt>
      <trkpt lat="45.28246" lon="4.23254">
        <ele>812.45</ele>
        <time>2011-10-08T06:23:18Z</time>
      </trkpt>
      <trkpt lat="45.28241" lon="4.23252">
        <ele>812.45</ele>
        <time>2011-10-08T06:23:23Z</time>
      </trkpt>
      <trkpt lat="45.28239" lon="4.23252">
        <ele>812.93</ele>
        <time>2011-10-08T06:23:24Z</time>
      </trkpt>
      <trkpt lat="45.28232" lon="4.23251">
        <ele>815.82</ele>
        <time>2011-10-08T06:23:28Z</time>
      </trkpt>
      <trkpt lat="45.2822" lon="4.23252">
        <ele>819.66</ele>
        <time>2011-10-08T06:23:36Z</time>
      </trkpt>
      <trkpt lat="45.28217" lon="4.23251">
        <ele>820.14</ele>
        <time>2011-10-08T06:23:37Z</time>
      </trkpt>
      <trkpt lat="45.28189" lon="4.23244">
        <ele>827.35</ele>
        <time>2011-10-08T06:23:50Z</time>
      </trkpt>
      <trkpt lat="45.28182" lon="4.23245">
        <ele>828.31</ele>
        <time>2011-10-08T06:23:54Z</time>
      </trkpt>
      <trkpt lat="45.28179" lon="4.23244">
        <ele>830.24</ele>
        <time>2011-10-08T06:23:56Z</time>
      </trkpt>
      <trkpt lat="45.28171" lon="4.2324">
        <ele>831.2</ele>
        <time>2011-10-08T06:24:00Z</time>
      </trkpt>
      <trkpt lat="45.28145" lon="4.23268">
        <ele>831.2</ele>
        <time>2011-10-08T06:24:13Z</time>
      </trkpt>
      <trkpt lat="45.28131" lon="4.23309">
        <ele>828.79</ele>
        <time>2011-10-08T06:24:20Z</time>
      </trkpt>
      <trkpt lat="45.28117" lon="4.2333">
        <ele>826.87</ele>
        <time>2011-10-08T06:24:24Z</time>
      </trkpt>
      <trkpt lat="45.28098" lon="4.23366">
        <ele>823.51</ele>
        <time>2011-10-08T06:24:30Z</time>
      </trkpt>
      <trkpt lat="45.28095" lon="4.23372">
        <ele>823.03</ele>
        <time>2011-10-08T06:24:31Z</time>
      </trkpt>
      <trkpt lat="45.28093" lon="4.23377">
        <ele>822.55</ele>
        <time>2011-10-08T06:24:32Z</time>
      </trkpt>
      <trkpt lat="45.28078" lon="4.23411">
        <ele>819.18</ele>
        <time>2011-10-08T06:24:38Z</time>
      </trkpt>
      <trkpt lat="45.28075" lon="4.23418">
        <ele>818.7</ele>
        <time>2011-10-08T06:24:39Z</time>
      </trkpt>
      <trkpt lat="45.28062" lon="4.23458">
        <ele>815.82</ele>
        <time>2011-10-08T06:24:47Z</time>
      </trkpt>
      <trkpt lat="45.28062" lon="4.23476">
        <ele>816.3</ele>
        <time>2011-10-08T06:24:49Z</time>
      </trkpt>
      <trkpt lat="45.28062" lon="4.23483">
        <ele>816.3</ele>
        <time>2011-10-08T06:24:50Z</time>
      </trkpt>
      <trkpt lat="45.28062" lon="4.23532">
        <ele>816.78</ele>
        <time>2011-10-08T06:24:56Z</time>
      </trkpt>
      <trkpt lat="45.28062" lon="4.23539">
        <ele>816.78</ele>
        <time>2011-10-08T06:24:57Z</time>
      </trkpt>
      <trkpt lat="45.28061" lon="4.23568">
        <ele>816.78</ele>
        <time>2011-10-08T06:25:01Z</time>
      </trkpt>
      <trkpt lat="45.2806" lon="4.23585">
        <ele>817.74</ele>
        <time>2011-10-08T06:25:03Z</time>
      </trkpt>
      <trkpt lat="45.2806" lon="4.23593">
        <ele>818.22</ele>
        <time>2011-10-08T06:25:04Z</time>
      </trkpt>
      <trkpt lat="45.2806" lon="4.23601">
        <ele>818.7</ele>
        <time>2011-10-08T06:25:05Z</time>
      </trkpt>
      <trkpt lat="45.2806" lon="4.23608">
        <ele>819.18</ele>
        <time>2011-10-08T06:25:06Z</time>
      </trkpt>
      <trkpt lat="45.28059" lon="4.23615">
        <ele>819.66</ele>
        <time>2011-10-08T06:25:07Z</time>
      </trkpt>
      <trkpt lat="45.28058" lon="4.23621">
        <ele>820.14</ele>
        <time>2011-10-08T06:25:08Z</time>
      </trkpt>
      <trkpt lat="45.28058" lon="4.23627">
        <ele>820.62</ele>
        <time>2011-10-08T06:25:09Z</time>
      </trkpt>
      <trkpt lat="45.28058" lon="4.23633">
        <ele>820.62</ele>
        <time>2011-10-08T06:25:10Z</time>
      </trkpt>
      <trkpt lat="45.28062" lon="4.23702">
        <ele>823.51</ele>
        <time>2011-10-08T06:25:21Z</time>
      </trkpt>
      <trkpt lat="45.28069" lon="4.23722">
        <ele>825.43</ele>
        <time>2011-10-08T06:25:27Z</time>
      </trkpt>
      <trkpt lat="45.2807" lon="4.23726">
        <ele>825.43</ele>
        <time>2011-10-08T06:25:28Z</time>
      </trkpt>
      <trkpt lat="45.2807" lon="4.2373">
        <ele>825.91</ele>
        <time>2011-10-08T06:25:29Z</time>
      </trkpt>
      <trkpt lat="45.28068" lon="4.23746">
        <ele>828.79</ele>
        <time>2011-10-08T06:25:33Z</time>
      </trkpt>
      <trkpt lat="45.28069" lon="4.23751">
        <ele>829.27</ele>
        <time>2011-10-08T06:25:34Z</time>
      </trkpt>
      <trkpt lat="45.28069" lon="4.23756">
        <ele>829.76</ele>
        <time>2011-10-08T06:25:35Z</time>
      </trkpt>
      <trkpt lat="45.2807" lon="4.2376">
        <ele>830.24</ele>
        <time>2011-10-08T06:25:36Z</time>
      </trkpt>
      <trkpt lat="45.28071" lon="4.23764">
        <ele>830.24</ele>
        <time>2011-10-08T06:25:37Z</time>
      </trkpt>
      <trkpt lat="45.2808" lon="4.23801">
        <ele>833.6</ele>
        <time>2011-10-08T06:25:47Z</time>
      </trkpt>
      <trkpt lat="45.28088" lon="4.23854">
        <ele>836</ele>
        <time>2011-10-08T06:25:58Z</time>
      </trkpt>
      <trkpt lat="45.28086" lon="4.23921">
        <ele>839.85</ele>
        <time>2011-10-08T06:26:12Z</time>
      </trkpt>
      <trkpt lat="45.28077" lon="4.23959">
        <ele>839.85</ele>
        <time>2011-10-08T06:26:21Z</time>
      </trkpt>
      <trkpt lat="45.28073" lon="4.23978">
        <ele>839.37</ele>
        <time>2011-10-08T06:26:25Z</time>
      </trkpt>
      <trkpt lat="45.28068" lon="4.23997">
        <ele>838.41</ele>
        <time>2011-10-08T06:26:28Z</time>
      </trkpt>
      <trkpt lat="45.28067" lon="4.24013">
        <ele>837.93</ele>
        <time>2011-10-08T06:26:30Z</time>
      </trkpt>
      <trkpt lat="45.28068" lon="4.2403">
        <ele>837.45</ele>
        <time>2011-10-08T06:26:32Z</time>
      </trkpt>
      <trkpt lat="45.28068" lon="4.24038">
        <ele>837.45</ele>
        <time>2011-10-08T06:26:33Z</time>
      </trkpt>
      <trkpt lat="45.28068" lon="4.24046">
        <ele>837.93</ele>
        <time>2011-10-08T06:26:34Z</time>
      </trkpt>
      <trkpt lat="45.28066" lon="4.24054">
        <ele>837.93</ele>
        <time>2011-10-08T06:26:35Z</time>
      </trkpt>
      <trkpt lat="45.28064" lon="4.24061">
        <ele>838.41</ele>
        <time>2011-10-08T06:26:36Z</time>
      </trkpt>
      <trkpt lat="45.28061" lon="4.24068">
        <ele>838.41</ele>
        <time>2011-10-08T06:26:37Z</time>
      </trkpt>
      <trkpt lat="45.28058" lon="4.24075">
        <ele>838.89</ele>
        <time>2011-10-08T06:26:38Z</time>
      </trkpt>
      <trkpt lat="45.2805" lon="4.24088">
        <ele>838.89</ele>
        <time>2011-10-08T06:26:40Z</time>
      </trkpt>
      <trkpt lat="45.28047" lon="4.24095">
        <ele>838.89</ele>
        <time>2011-10-08T06:26:41Z</time>
      </trkpt>
      <trkpt lat="45.2804" lon="4.24112">
        <ele>838.89</ele>
        <time>2011-10-08T06:26:43Z</time>
      </trkpt>
      <trkpt lat="45.28038" lon="4.2412">
        <ele>838.89</ele>
        <time>2011-10-08T06:26:44Z</time>
      </trkpt>
      <trkpt lat="45.28026" lon="4.24179">
        <ele>838.41</ele>
        <time>2011-10-08T06:26:51Z</time>
      </trkpt>
      <trkpt lat="45.28022" lon="4.24205">
        <ele>838.41</ele>
        <time>2011-10-08T06:26:54Z</time>
      </trkpt>
      <trkpt lat="45.28021" lon="4.2422">
        <ele>837.93</ele>
        <time>2011-10-08T06:26:56Z</time>
      </trkpt>
      <trkpt lat="45.28021" lon="4.24228">
        <ele>837.45</ele>
        <time>2011-10-08T06:26:57Z</time>
      </trkpt>
      <trkpt lat="45.2802" lon="4.24235">
        <ele>837.45</ele>
        <time>2011-10-08T06:26:58Z</time>
      </trkpt>
      <trkpt lat="45.28018" lon="4.24287">
        <ele>836</ele>
        <time>2011-10-08T06:27:05Z</time>
      </trkpt>
      <trkpt lat="45.28017" lon="4.24295">
        <ele>836</ele>
        <time>2011-10-08T06:27:06Z</time>
      </trkpt>
      <trkpt lat="45.28017" lon="4.2431">
        <ele>835.52</ele>
        <time>2011-10-08T06:27:08Z</time>
      </trkpt>
      <trkpt lat="45.28012" lon="4.24374">
        <ele>836.48</ele>
        <time>2011-10-08T06:27:16Z</time>
      </trkpt>
      <trkpt lat="45.27999" lon="4.24456">
        <ele>836.96</ele>
        <time>2011-10-08T06:27:25Z</time>
      </trkpt>
      <trkpt lat="45.27998" lon="4.24465">
        <ele>836.96</ele>
        <time>2011-10-08T06:27:26Z</time>
      </trkpt>
      <trkpt lat="45.27996" lon="4.24484">
        <ele>836.96</ele>
        <time>2011-10-08T06:27:28Z</time>
      </trkpt>
      <trkpt lat="45.27994" lon="4.24493">
        <ele>836.96</ele>
        <time>2011-10-08T06:27:29Z</time>
      </trkpt>
      <trkpt lat="45.27992" lon="4.24502">
        <ele>836.96</ele>
        <time>2011-10-08T06:27:30Z</time>
      </trkpt>
      <trkpt lat="45.2799" lon="4.2451">
        <ele>836.96</ele>
        <time>2011-10-08T06:27:31Z</time>
      </trkpt>
      <trkpt lat="45.27987" lon="4.24519">
        <ele>836.48</ele>
        <time>2011-10-08T06:27:32Z</time>
      </trkpt>
      <trkpt lat="45.27974" lon="4.24578">
        <ele>834.56</ele>
        <time>2011-10-08T06:27:38Z</time>
      </trkpt>
      <trkpt lat="45.27972" lon="4.24589">
        <ele>834.56</ele>
        <time>2011-10-08T06:27:39Z</time>
      </trkpt>
      <trkpt lat="45.27956" lon="4.24703">
        <ele>831.2</ele>
        <time>2011-10-08T06:27:50Z</time>
      </trkpt>
      <trkpt lat="45.27943" lon="4.2475">
        <ele>830.72</ele>
        <time>2011-10-08T06:27:56Z</time>
      </trkpt>
      <trkpt lat="45.27937" lon="4.24771">
        <ele>830.24</ele>
        <time>2011-10-08T06:27:59Z</time>
      </trkpt>
      <trkpt lat="45.27935" lon="4.24778">
        <ele>829.76</ele>
        <time>2011-10-08T06:28:00Z</time>
      </trkpt>
      <trkpt lat="45.27928" lon="4.24843">
        <ele>829.27</ele>
        <time>2011-10-08T06:28:10Z</time>
      </trkpt>
      <trkpt lat="45.27927" lon="4.24849">
        <ele>828.79</ele>
        <time>2011-10-08T06:28:11Z</time>
      </trkpt>
      <trkpt lat="45.27926" lon="4.24857">
        <ele>828.79</ele>
        <time>2011-10-08T06:28:12Z</time>
      </trkpt>
      <trkpt lat="45.27925" lon="4.24872">
        <ele>828.31</ele>
        <time>2011-10-08T06:28:14Z</time>
      </trkpt>
      <trkpt lat="45.27925" lon="4.24881">
        <ele>827.83</ele>
        <time>2011-10-08T06:28:15Z</time>
      </trkpt>
      <trkpt lat="45.27925" lon="4.24889">
        <ele>827.35</ele>
        <time>2011-10-08T06:28:16Z</time>
      </trkpt>
      <trkpt lat="45.27926" lon="4.24898">
        <ele>826.87</ele>
        <time>2011-10-08T06:28:17Z</time>
      </trkpt>
      <trkpt lat="45.27927" lon="4.24905">
        <ele>826.39</ele>
        <time>2011-10-08T06:28:18Z</time>
      </trkpt>
      <trkpt lat="45.27929" lon="4.24928">
        <ele>825.43</ele>
        <time>2011-10-08T06:28:22Z</time>
      </trkpt>
      <trkpt lat="45.27928" lon="4.24932">
        <ele>824.95</ele>
        <time>2011-10-08T06:28:23Z</time>
      </trkpt>
      <trkpt lat="45.27928" lon="4.24936">
        <ele>824.95</ele>
        <time>2011-10-08T06:28:24Z</time>
      </trkpt>
      <trkpt lat="45.27929" lon="4.24941">
        <ele>824.47</ele>
        <time>2011-10-08T06:28:25Z</time>
      </trkpt>
      <trkpt lat="45.27931" lon="4.24945">
        <ele>824.47</ele>
        <time>2011-10-08T06:28:26Z</time>
      </trkpt>
      <trkpt lat="45.27933" lon="4.24949">
        <ele>823.99</ele>
        <time>2011-10-08T06:28:27Z</time>
      </trkpt>
      <trkpt lat="45.27934" lon="4.24954">
        <ele>824.47</ele>
        <time>2011-10-08T06:28:28Z</time>
      </trkpt>
      <trkpt lat="45.27934" lon="4.24959">
        <ele>824.47</ele>
        <time>2011-10-08T06:28:29Z</time>
      </trkpt>
      <trkpt lat="45.27933" lon="4.24964">
        <ele>824.47</ele>
        <time>2011-10-08T06:28:30Z</time>
      </trkpt>
      <trkpt lat="45.27932" lon="4.2497">
        <ele>824.95</ele>
        <time>2011-10-08T06:28:31Z</time>
      </trkpt>
      <trkpt lat="45.27931" lon="4.24975">
        <ele>824.95</ele>
        <time>2011-10-08T06:28:32Z</time>
      </trkpt>
      <trkpt lat="45.2793" lon="4.24981">
        <ele>824.95</ele>
        <time>2011-10-08T06:28:33Z</time>
      </trkpt>
      <trkpt lat="45.27924" lon="4.25004">
        <ele>825.91</ele>
        <time>2011-10-08T06:28:37Z</time>
      </trkpt>
      <trkpt lat="45.27923" lon="4.25009">
        <ele>825.91</ele>
        <time>2011-10-08T06:28:38Z</time>
      </trkpt>
      <trkpt lat="45.27921" lon="4.25015">
        <ele>825.91</ele>
        <time>2011-10-08T06:28:39Z</time>
      </trkpt>
      <trkpt lat="45.27921" lon="4.25021">
        <ele>826.39</ele>
        <time>2011-10-08T06:28:40Z</time>
      </trkpt>
      <trkpt lat="45.2792" lon="4.25026">
        <ele>826.39</ele>
        <time>2011-10-08T06:28:41Z</time>
      </trkpt>
      <trkpt lat="45.27924" lon="4.25084">
        <ele>829.27</ele>
        <time>2011-10-08T06:28:53Z</time>
      </trkpt>
      <trkpt lat="45.27929" lon="4.25106">
        <ele>829.27</ele>
        <time>2011-10-08T06:28:57Z</time>
      </trkpt>
      <trkpt lat="45.2793" lon="4.25111">
        <ele>829.27</ele>
        <time>2011-10-08T06:28:58Z</time>
      </trkpt>
      <trkpt lat="45.2793" lon="4.25117">
        <ele>829.76</ele>
        <time>2011-10-08T06:28:59Z</time>
      </trkpt>
      <trkpt lat="45.27944" lon="4.25183">
        <ele>831.68</ele>
        <time>2011-10-08T06:29:12Z</time>
      </trkpt>
      <trkpt lat="45.27939" lon="4.25225">
        <ele>832.16</ele>
        <time>2011-10-08T06:29:23Z</time>
      </trkpt>
      <trkpt lat="45.27922" lon="4.25251">
        <ele>832.64</ele>
        <time>2011-10-08T06:29:30Z</time>
      </trkpt>
      <trkpt lat="45.27914" lon="4.25262">
        <ele>832.16</ele>
        <time>2011-10-08T06:29:33Z</time>
      </trkpt>
      <trkpt lat="45.2791" lon="4.25267">
        <ele>832.16</ele>
        <time>2011-10-08T06:29:34Z</time>
      </trkpt>
      <trkpt lat="45.27906" lon="4.25273">
        <ele>831.68</ele>
        <time>2011-10-08T06:29:35Z</time>
      </trkpt>
      <trkpt lat="45.27899" lon="4.2528">
        <ele>831.68</ele>
        <time>2011-10-08T06:29:37Z</time>
      </trkpt>
      <trkpt lat="45.27895" lon="4.25281">
        <ele>831.68</ele>
        <time>2011-10-08T06:29:38Z</time>
      </trkpt>
      <trkpt lat="45.27892" lon="4.25284">
        <ele>831.68</ele>
        <time>2011-10-08T06:29:39Z</time>
      </trkpt>
      <trkpt lat="45.27888" lon="4.25287">
        <ele>831.2</ele>
        <time>2011-10-08T06:29:40Z</time>
      </trkpt>
      <trkpt lat="45.27885" lon="4.25292">
        <ele>831.2</ele>
        <time>2011-10-08T06:29:41Z</time>
      </trkpt>
      <trkpt lat="45.27882" lon="4.25296">
        <ele>831.68</ele>
        <time>2011-10-08T06:29:42Z</time>
      </trkpt>
      <trkpt lat="45.27877" lon="4.25301">
        <ele>831.68</ele>
        <time>2011-10-08T06:29:43Z</time>
      </trkpt>
      <trkpt lat="45.27867" lon="4.25309">
        <ele>831.68</ele>
        <time>2011-10-08T06:29:45Z</time>
      </trkpt>
      <trkpt lat="45.27862" lon="4.25313">
        <ele>831.68</ele>
        <time>2011-10-08T06:29:46Z</time>
      </trkpt>
      <trkpt lat="45.27857" lon="4.25318">
        <ele>831.68</ele>
        <time>2011-10-08T06:29:47Z</time>
      </trkpt>
      <trkpt lat="45.27853" lon="4.25322">
        <ele>831.2</ele>
        <time>2011-10-08T06:29:48Z</time>
      </trkpt>
      <trkpt lat="45.27848" lon="4.25326">
        <ele>831.2</ele>
        <time>2011-10-08T06:29:49Z</time>
      </trkpt>
      <trkpt lat="45.27844" lon="4.25331">
        <ele>830.24</ele>
        <time>2011-10-08T06:29:50Z</time>
      </trkpt>
      <trkpt lat="45.2784" lon="4.25334">
        <ele>830.24</ele>
        <time>2011-10-08T06:29:51Z</time>
      </trkpt>
      <trkpt lat="45.27837" lon="4.25338">
        <ele>829.76</ele>
        <time>2011-10-08T06:29:52Z</time>
      </trkpt>
      <trkpt lat="45.27812" lon="4.25368">
        <ele>828.79</ele>
        <time>2011-10-08T06:29:59Z</time>
      </trkpt>
      <trkpt lat="45.27809" lon="4.25374">
        <ele>828.79</ele>
        <time>2011-10-08T06:30:00Z</time>
      </trkpt>
      <trkpt lat="45.27805" lon="4.25381">
        <ele>828.79</ele>
        <time>2011-10-08T06:30:01Z</time>
      </trkpt>
      <trkpt lat="45.27801" lon="4.25386">
        <ele>828.79</ele>
        <time>2011-10-08T06:30:02Z</time>
      </trkpt>
      <trkpt lat="45.27797" lon="4.2539">
        <ele>828.79</ele>
        <time>2011-10-08T06:30:03Z</time>
      </trkpt>
      <trkpt lat="45.27794" lon="4.25395">
        <ele>828.79</ele>
        <time>2011-10-08T06:30:04Z</time>
      </trkpt>
      <trkpt lat="45.2779" lon="4.25398">
        <ele>828.79</ele>
        <time>2011-10-08T06:30:05Z</time>
      </trkpt>
      <trkpt lat="45.27786" lon="4.254">
        <ele>828.79</ele>
        <time>2011-10-08T06:30:06Z</time>
      </trkpt>
      <trkpt lat="45.27783" lon="4.25402">
        <ele>828.79</ele>
        <time>2011-10-08T06:30:07Z</time>
      </trkpt>
      <trkpt lat="45.2778" lon="4.25405">
        <ele>828.79</ele>
        <time>2011-10-08T06:30:08Z</time>
      </trkpt>
      <trkpt lat="45.27776" lon="4.25408">
        <ele>828.31</ele>
        <time>2011-10-08T06:30:09Z</time>
      </trkpt>
      <trkpt lat="45.27769" lon="4.25416">
        <ele>827.83</ele>
        <time>2011-10-08T06:30:11Z</time>
      </trkpt>
      <trkpt lat="45.27742" lon="4.25446">
        <ele>827.35</ele>
        <time>2011-10-08T06:30:19Z</time>
      </trkpt>
      <trkpt lat="45.2773" lon="4.25457">
        <ele>826.39</ele>
        <time>2011-10-08T06:30:22Z</time>
      </trkpt>
      <trkpt lat="45.27726" lon="4.25462">
        <ele>826.39</ele>
        <time>2011-10-08T06:30:23Z</time>
      </trkpt>
      <trkpt lat="45.27722" lon="4.25466">
        <ele>825.91</ele>
        <time>2011-10-08T06:30:24Z</time>
      </trkpt>
      <trkpt lat="45.27718" lon="4.25471">
        <ele>825.91</ele>
        <time>2011-10-08T06:30:25Z</time>
      </trkpt>
      <trkpt lat="45.27713" lon="4.25476">
        <ele>825.91</ele>
        <time>2011-10-08T06:30:26Z</time>
      </trkpt>
      <trkpt lat="45.2771" lon="4.25481">
        <ele>825.43</ele>
        <time>2011-10-08T06:30:27Z</time>
      </trkpt>
      <trkpt lat="45.27705" lon="4.25486">
        <ele>825.43</ele>
        <time>2011-10-08T06:30:28Z</time>
      </trkpt>
      <trkpt lat="45.27699" lon="4.2549">
        <ele>825.43</ele>
        <time>2011-10-08T06:30:29Z</time>
      </trkpt>
      <trkpt lat="45.27669" lon="4.25513">
        <ele>824.47</ele>
        <time>2011-10-08T06:30:35Z</time>
      </trkpt>
      <trkpt lat="45.27664" lon="4.25517">
        <ele>824.47</ele>
        <time>2011-10-08T06:30:36Z</time>
      </trkpt>
      <trkpt lat="45.2766" lon="4.25521">
        <ele>824.47</ele>
        <time>2011-10-08T06:30:37Z</time>
      </trkpt>
      <trkpt lat="45.27656" lon="4.25525">
        <ele>824.47</ele>
        <time>2011-10-08T06:30:38Z</time>
      </trkpt>
      <trkpt lat="45.27652" lon="4.25527">
        <ele>823.99</ele>
        <time>2011-10-08T06:30:39Z</time>
      </trkpt>
      <trkpt lat="45.27647" lon="4.2553">
        <ele>823.99</ele>
        <time>2011-10-08T06:30:40Z</time>
      </trkpt>
      <trkpt lat="45.27638" lon="4.25533">
        <ele>823.51</ele>
        <time>2011-10-08T06:30:42Z</time>
      </trkpt>
      <trkpt lat="45.27634" lon="4.25536">
        <ele>823.03</ele>
        <time>2011-10-08T06:30:43Z</time>
      </trkpt>
      <trkpt lat="45.2763" lon="4.25539">
        <ele>822.55</ele>
        <time>2011-10-08T06:30:44Z</time>
      </trkpt>
      <trkpt lat="45.27626" lon="4.25542">
        <ele>821.58</ele>
        <time>2011-10-08T06:30:45Z</time>
      </trkpt>
      <trkpt lat="45.27623" lon="4.25545">
        <ele>821.1</ele>
        <time>2011-10-08T06:30:46Z</time>
      </trkpt>
      <trkpt lat="45.2762" lon="4.25548">
        <ele>820.14</ele>
        <time>2011-10-08T06:30:47Z</time>
      </trkpt>
      <trkpt lat="45.27616" lon="4.25552">
        <ele>819.66</ele>
        <time>2011-10-08T06:30:48Z</time>
      </trkpt>
      <trkpt lat="45.27613" lon="4.25556">
        <ele>818.7</ele>
        <time>2011-10-08T06:30:49Z</time>
      </trkpt>
      <trkpt lat="45.276" lon="4.25576">
        <ele>816.78</ele>
        <time>2011-10-08T06:30:53Z</time>
      </trkpt>
      <trkpt lat="45.27598" lon="4.25582">
        <ele>816.3</ele>
        <time>2011-10-08T06:30:54Z</time>
      </trkpt>
      <trkpt lat="45.27586" lon="4.25615">
        <ele>815.34</ele>
        <time>2011-10-08T06:30:59Z</time>
      </trkpt>
      <trkpt lat="45.27584" lon="4.25635">
        <ele>815.82</ele>
        <time>2011-10-08T06:31:01Z</time>
      </trkpt>
      <trkpt lat="45.27581" lon="4.25643">
        <ele>816.3</ele>
        <time>2011-10-08T06:31:02Z</time>
      </trkpt>
      <trkpt lat="45.27579" lon="4.25652">
        <ele>816.78</ele>
        <time>2011-10-08T06:31:03Z</time>
      </trkpt>
      <trkpt lat="45.27566" lon="4.25702">
        <ele>820.62</ele>
        <time>2011-10-08T06:31:09Z</time>
      </trkpt>
      <trkpt lat="45.27563" lon="4.25716">
        <ele>821.58</ele>
        <time>2011-10-08T06:31:11Z</time>
      </trkpt>
      <trkpt lat="45.2756" lon="4.25723">
        <ele>822.06</ele>
        <time>2011-10-08T06:31:12Z</time>
      </trkpt>
      <trkpt lat="45.27526" lon="4.25786">
        <ele>824.95</ele>
        <time>2011-10-08T06:31:22Z</time>
      </trkpt>
      <trkpt lat="45.27517" lon="4.25806">
        <ele>825.91</ele>
        <time>2011-10-08T06:31:25Z</time>
      </trkpt>
      <trkpt lat="45.27512" lon="4.25819">
        <ele>825.91</ele>
        <time>2011-10-08T06:31:27Z</time>
      </trkpt>
      <trkpt lat="45.27509" lon="4.25824">
        <ele>826.39</ele>
        <time>2011-10-08T06:31:28Z</time>
      </trkpt>
      <trkpt lat="45.27493" lon="4.25844">
        <ele>827.35</ele>
        <time>2011-10-08T06:31:32Z</time>
      </trkpt>
      <trkpt lat="45.2749" lon="4.25848">
        <ele>827.35</ele>
        <time>2011-10-08T06:31:33Z</time>
      </trkpt>
      <trkpt lat="45.27487" lon="4.25853">
        <ele>827.83</ele>
        <time>2011-10-08T06:31:34Z</time>
      </trkpt>
      <trkpt lat="45.27483" lon="4.25858">
        <ele>827.35</ele>
        <time>2011-10-08T06:31:35Z</time>
      </trkpt>
      <trkpt lat="45.2748" lon="4.25863">
        <ele>827.35</ele>
        <time>2011-10-08T06:31:36Z</time>
      </trkpt>
      <trkpt lat="45.27477" lon="4.2587">
        <ele>827.35</ele>
        <time>2011-10-08T06:31:37Z</time>
      </trkpt>
      <trkpt lat="45.27473" lon="4.25875">
        <ele>827.35</ele>
        <time>2011-10-08T06:31:38Z</time>
      </trkpt>
      <trkpt lat="45.2747" lon="4.25881">
        <ele>827.35</ele>
        <time>2011-10-08T06:31:39Z</time>
      </trkpt>
      <trkpt lat="45.27468" lon="4.25887">
        <ele>827.83</ele>
        <time>2011-10-08T06:31:40Z</time>
      </trkpt>
      <trkpt lat="45.27467" lon="4.25892">
        <ele>827.83</ele>
        <time>2011-10-08T06:31:41Z</time>
      </trkpt>
      <trkpt lat="45.27465" lon="4.25897">
        <ele>827.83</ele>
        <time>2011-10-08T06:31:42Z</time>
      </trkpt>
      <trkpt lat="45.27464" lon="4.25902">
        <ele>827.83</ele>
        <time>2011-10-08T06:31:43Z</time>
      </trkpt>
      <trkpt lat="45.27463" lon="4.25906">
        <ele>827.83</ele>
        <time>2011-10-08T06:31:44Z</time>
      </trkpt>
      <trkpt lat="45.27462" lon="4.25909">
        <ele>827.83</ele>
        <time>2011-10-08T06:31:45Z</time>
      </trkpt>
      <trkpt lat="45.27454" lon="4.25926">
        <ele>832.64</ele>
        <time>2011-10-08T06:31:54Z</time>
      </trkpt>
      <trkpt lat="45.27444" lon="4.25945">
        <ele>831.68</ele>
        <time>2011-10-08T06:31:59Z</time>
      </trkpt>
      <trkpt lat="45.27441" lon="4.25949">
        <ele>831.2</ele>
        <time>2011-10-08T06:32:00Z</time>
      </trkpt>
      <trkpt lat="45.27428" lon="4.25966">
        <ele>830.72</ele>
        <time>2011-10-08T06:32:04Z</time>
      </trkpt>
      <trkpt lat="45.27422" lon="4.25974">
        <ele>830.24</ele>
        <time>2011-10-08T06:32:06Z</time>
      </trkpt>
      <trkpt lat="45.27418" lon="4.2598">
        <ele>830.24</ele>
        <time>2011-10-08T06:32:07Z</time>
      </trkpt>
      <trkpt lat="45.27404" lon="4.25995">
        <ele>829.27</ele>
        <time>2011-10-08T06:32:11Z</time>
      </trkpt>
      <trkpt lat="45.274" lon="4.26">
        <ele>829.27</ele>
        <time>2011-10-08T06:32:12Z</time>
      </trkpt>
      <trkpt lat="45.27397" lon="4.26004">
        <ele>828.79</ele>
        <time>2011-10-08T06:32:13Z</time>
      </trkpt>
      <trkpt lat="45.27394" lon="4.26009">
        <ele>828.31</ele>
        <time>2011-10-08T06:32:14Z</time>
      </trkpt>
      <trkpt lat="45.27391" lon="4.26012">
        <ele>828.31</ele>
        <time>2011-10-08T06:32:15Z</time>
      </trkpt>
      <trkpt lat="45.27371" lon="4.26043">
        <ele>826.87</ele>
        <time>2011-10-08T06:32:22Z</time>
      </trkpt>
      <trkpt lat="45.27369" lon="4.2605">
        <ele>826.39</ele>
        <time>2011-10-08T06:32:23Z</time>
      </trkpt>
      <trkpt lat="45.27348" lon="4.26093">
        <ele>823.03</ele>
        <time>2011-10-08T06:32:32Z</time>
      </trkpt>
      <trkpt lat="45.27345" lon="4.26098">
        <ele>822.55</ele>
        <time>2011-10-08T06:32:33Z</time>
      </trkpt>
      <trkpt lat="45.27324" lon="4.26135">
        <ele>820.14</ele>
        <time>2011-10-08T06:32:39Z</time>
      </trkpt>
      <trkpt lat="45.27321" lon="4.26141">
        <ele>819.66</ele>
        <time>2011-10-08T06:32:40Z</time>
      </trkpt>
      <trkpt lat="45.2731" lon="4.26163">
        <ele>819.18</ele>
        <time>2011-10-08T06:32:43Z</time>
      </trkpt>
      <trkpt lat="45.27307" lon="4.26169">
        <ele>819.18</ele>
        <time>2011-10-08T06:32:44Z</time>
      </trkpt>
      <trkpt lat="45.27294" lon="4.26188">
        <ele>817.74</ele>
        <time>2011-10-08T06:32:48Z</time>
      </trkpt>
      <trkpt lat="45.27266" lon="4.26225">
        <ele>815.34</ele>
        <time>2011-10-08T06:32:57Z</time>
      </trkpt>
      <trkpt lat="45.27225" lon="4.26259">
        <ele>817.74</ele>
        <time>2011-10-08T06:33:08Z</time>
      </trkpt>
      <trkpt lat="45.27194" lon="4.26285">
        <ele>818.22</ele>
        <time>2011-10-08T06:33:13Z</time>
      </trkpt>
      <trkpt lat="45.27188" lon="4.26289">
        <ele>818.7</ele>
        <time>2011-10-08T06:33:14Z</time>
      </trkpt>
      <trkpt lat="45.27181" lon="4.26293">
        <ele>819.18</ele>
        <time>2011-10-08T06:33:15Z</time>
      </trkpt>
      <trkpt lat="45.27157" lon="4.26308">
        <ele>821.1</ele>
        <time>2011-10-08T06:33:18Z</time>
      </trkpt>
      <trkpt lat="45.27125" lon="4.26326">
        <ele>822.06</ele>
        <time>2011-10-08T06:33:22Z</time>
      </trkpt>
      <trkpt lat="45.2708" lon="4.26344">
        <ele>822.06</ele>
        <time>2011-10-08T06:33:28Z</time>
      </trkpt>
      <trkpt lat="45.27062" lon="4.26348">
        <ele>822.06</ele>
        <time>2011-10-08T06:33:31Z</time>
      </trkpt>
      <trkpt lat="45.27047" lon="4.26353">
        <ele>822.55</ele>
        <time>2011-10-08T06:33:34Z</time>
      </trkpt>
      <trkpt lat="45.27042" lon="4.26355">
        <ele>822.55</ele>
        <time>2011-10-08T06:33:35Z</time>
      </trkpt>
      <trkpt lat="45.27038" lon="4.26357">
        <ele>822.55</ele>
        <time>2011-10-08T06:33:36Z</time>
      </trkpt>
      <trkpt lat="45.27034" lon="4.26359">
        <ele>822.55</ele>
        <time>2011-10-08T06:33:37Z</time>
      </trkpt>
      <trkpt lat="45.2703" lon="4.26362">
        <ele>822.55</ele>
        <time>2011-10-08T06:33:38Z</time>
      </trkpt>
      <trkpt lat="45.27026" lon="4.26364">
        <ele>822.55</ele>
        <time>2011-10-08T06:33:39Z</time>
      </trkpt>
      <trkpt lat="45.27021" lon="4.26368">
        <ele>823.03</ele>
        <time>2011-10-08T06:33:40Z</time>
      </trkpt>
      <trkpt lat="45.27016" lon="4.26372">
        <ele>823.03</ele>
        <time>2011-10-08T06:33:41Z</time>
      </trkpt>
      <trkpt lat="45.27011" lon="4.26376">
        <ele>823.99</ele>
        <time>2011-10-08T06:33:42Z</time>
      </trkpt>
      <trkpt lat="45.27005" lon="4.2638">
        <ele>824.95</ele>
        <time>2011-10-08T06:33:43Z</time>
      </trkpt>
      <trkpt lat="45.27" lon="4.26384">
        <ele>824.95</ele>
        <time>2011-10-08T06:33:44Z</time>
      </trkpt>
      <trkpt lat="45.26991" lon="4.26393">
        <ele>825.43</ele>
        <time>2011-10-08T06:33:46Z</time>
      </trkpt>
      <trkpt lat="45.26984" lon="4.26405">
        <ele>825.91</ele>
        <time>2011-10-08T06:33:48Z</time>
      </trkpt>
      <trkpt lat="45.26981" lon="4.2641">
        <ele>826.39</ele>
        <time>2011-10-08T06:33:49Z</time>
      </trkpt>
      <trkpt lat="45.26975" lon="4.26424">
        <ele>827.35</ele>
        <time>2011-10-08T06:33:51Z</time>
      </trkpt>
      <trkpt lat="45.26961" lon="4.2647">
        <ele>830.72</ele>
        <time>2011-10-08T06:33:58Z</time>
      </trkpt>
      <trkpt lat="45.26957" lon="4.26491">
        <ele>831.2</ele>
        <time>2011-10-08T06:34:01Z</time>
      </trkpt>
      <trkpt lat="45.26951" lon="4.26515">
        <ele>831.68</ele>
        <time>2011-10-08T06:34:08Z</time>
      </trkpt>
      <trkpt lat="45.2695" lon="4.26517">
        <ele>831.68</ele>
        <time>2011-10-08T06:34:09Z</time>
      </trkpt>
      <trkpt lat="45.26949" lon="4.26519">
        <ele>831.68</ele>
        <time>2011-10-08T06:34:10Z</time>
      </trkpt>
      <trkpt lat="45.26949" lon="4.26521">
        <ele>831.68</ele>
        <time>2011-10-08T06:34:11Z</time>
      </trkpt>
      <trkpt lat="45.26949" lon="4.26523">
        <ele>831.68</ele>
        <time>2011-10-08T06:34:12Z</time>
      </trkpt>
      <trkpt lat="45.26947" lon="4.26525">
        <ele>831.68</ele>
        <time>2011-10-08T06:34:14Z</time>
      </trkpt>
      <trkpt lat="45.26946" lon="4.26525">
        <ele>832.16</ele>
        <time>2011-10-08T06:34:15Z</time>
      </trkpt>
      <trkpt lat="45.26945" lon="4.26524">
        <ele>832.64</ele>
        <time>2011-10-08T06:34:16Z</time>
      </trkpt>
      <trkpt lat="45.26945" lon="4.26522">
        <ele>832.64</ele>
        <time>2011-10-08T06:34:17Z</time>
      </trkpt>
      <trkpt lat="45.26947" lon="4.2652">
        <ele>832.16</ele>
        <time>2011-10-08T06:34:18Z</time>
      </trkpt>
      <trkpt lat="45.26949" lon="4.26519">
        <ele>832.16</ele>
        <time>2011-10-08T06:34:19Z</time>
      </trkpt>
      <trkpt lat="45.26951" lon="4.26517">
        <ele>831.68</ele>
        <time>2011-10-08T06:34:20Z</time>
      </trkpt>
      <trkpt lat="45.26953" lon="4.26514">
        <ele>831.68</ele>
        <time>2011-10-08T06:34:21Z</time>
      </trkpt>
      <trkpt lat="45.26954" lon="4.2651">
        <ele>831.2</ele>
        <time>2011-10-08T06:34:22Z</time>
      </trkpt>
      <trkpt lat="45.26956" lon="4.26506">
        <ele>831.2</ele>
        <time>2011-10-08T06:34:23Z</time>
      </trkpt>
      <trkpt lat="45.26958" lon="4.26503">
        <ele>831.68</ele>
        <time>2011-10-08T06:34:24Z</time>
      </trkpt>
      <trkpt lat="45.2696" lon="4.265">
        <ele>832.16</ele>
        <time>2011-10-08T06:34:25Z</time>
      </trkpt>
      <trkpt lat="45.26966" lon="4.26491">
        <ele>833.6</ele>
        <time>2011-10-08T06:34:29Z</time>
      </trkpt>
      <trkpt lat="45.26968" lon="4.26491">
        <ele>833.6</ele>
        <time>2011-10-08T06:34:30Z</time>
      </trkpt>
      <trkpt lat="45.2697" lon="4.26491">
        <ele>833.6</ele>
        <time>2011-10-08T06:34:31Z</time>
      </trkpt>
      <trkpt lat="45.26972" lon="4.26492">
        <ele>833.6</ele>
        <time>2011-10-08T06:34:32Z</time>
      </trkpt>
      <trkpt lat="45.26974" lon="4.26489">
        <ele>833.12</ele>
        <time>2011-10-08T06:34:40Z</time>
      </trkpt>
      <trkpt lat="45.26972" lon="4.26491">
        <ele>833.12</ele>
        <time>2011-10-08T06:39:01Z</time>
      </trkpt>
      <trkpt lat="45.26971" lon="4.26491">
        <ele>833.12</ele>
        <time>2011-10-08T06:39:02Z</time>
      </trkpt>
      <trkpt lat="45.26969" lon="4.26491">
        <ele>833.6</ele>
        <time>2011-10-08T06:39:03Z</time>
      </trkpt>
      <trkpt lat="45.26968" lon="4.26491">
        <ele>833.6</ele>
        <time>2011-10-08T06:39:04Z</time>
      </trkpt>
      <trkpt lat="45.2695" lon="4.26518">
        <ele>831.2</ele>
        <time>2011-10-08T06:39:13Z</time>
      </trkpt>
      <trkpt lat="45.26948" lon="4.26525">
        <ele>831.2</ele>
        <time>2011-10-08T06:39:14Z</time>
      </trkpt>
      <trkpt lat="45.26939" lon="4.26543">
        <ele>831.2</ele>
        <time>2011-10-08T06:39:17Z</time>
      </trkpt>
      <trkpt lat="45.26936" lon="4.2655">
        <ele>831.2</ele>
        <time>2011-10-08T06:39:18Z</time>
      </trkpt>
      <trkpt lat="45.26931" lon="4.26562">
        <ele>831.68</ele>
        <time>2011-10-08T06:39:20Z</time>
      </trkpt>
      <trkpt lat="45.26917" lon="4.26592">
        <ele>832.64</ele>
        <time>2011-10-08T06:39:26Z</time>
      </trkpt>
      <trkpt lat="45.26914" lon="4.26597">
        <ele>833.12</ele>
        <time>2011-10-08T06:39:27Z</time>
      </trkpt>
      <trkpt lat="45.26912" lon="4.26601">
        <ele>833.6</ele>
        <time>2011-10-08T06:39:28Z</time>
      </trkpt>
      <trkpt lat="45.26909" lon="4.26606">
        <ele>833.6</ele>
        <time>2011-10-08T06:39:29Z</time>
      </trkpt>
      <trkpt lat="45.26907" lon="4.2661">
        <ele>833.6</ele>
        <time>2011-10-08T06:39:30Z</time>
      </trkpt>
      <trkpt lat="45.26882" lon="4.26664">
        <ele>836</ele>
        <time>2011-10-08T06:39:43Z</time>
      </trkpt>
      <trkpt lat="45.26856" lon="4.26718">
        <ele>838.41</ele>
        <time>2011-10-08T06:39:57Z</time>
      </trkpt>
      <trkpt lat="45.26829" lon="4.26773">
        <ele>839.85</ele>
        <time>2011-10-08T06:40:12Z</time>
      </trkpt>
      <trkpt lat="45.26807" lon="4.26825">
        <ele>842.25</ele>
        <time>2011-10-08T06:40:26Z</time>
      </trkpt>
      <trkpt lat="45.26789" lon="4.26866">
        <ele>843.21</ele>
        <time>2011-10-08T06:40:38Z</time>
      </trkpt>
      <trkpt lat="45.26768" lon="4.269">
        <ele>845.14</ele>
        <time>2011-10-08T06:40:49Z</time>
      </trkpt>
      <trkpt lat="45.26753" lon="4.26921">
        <ele>846.58</ele>
        <time>2011-10-08T06:40:59Z</time>
      </trkpt>
      <trkpt lat="45.26737" lon="4.26947">
        <ele>846.1</ele>
        <time>2011-10-08T06:41:11Z</time>
      </trkpt>
      <trkpt lat="45.26734" lon="4.26948">
        <ele>846.1</ele>
        <time>2011-10-08T06:41:12Z</time>
      </trkpt>
      <trkpt lat="45.26732" lon="4.26951">
        <ele>846.1</ele>
        <time>2011-10-08T06:41:13Z</time>
      </trkpt>
      <trkpt lat="45.26731" lon="4.26953">
        <ele>846.1</ele>
        <time>2011-10-08T06:41:14Z</time>
      </trkpt>
      <trkpt lat="45.26717" lon="4.26971">
        <ele>847.06</ele>
        <time>2011-10-08T06:41:24Z</time>
      </trkpt>
      <trkpt lat="45.26715" lon="4.2698">
        <ele>847.06</ele>
        <time>2011-10-08T06:41:28Z</time>
      </trkpt>
      <trkpt lat="45.26699" lon="4.27007">
        <ele>848.02</ele>
        <time>2011-10-08T06:41:40Z</time>
      </trkpt>
      <trkpt lat="45.26698" lon="4.27009">
        <ele>848.02</ele>
        <time>2011-10-08T06:41:41Z</time>
      </trkpt>
      <trkpt lat="45.26692" lon="4.27024">
        <ele>849.46</ele>
        <time>2011-10-08T06:41:46Z</time>
      </trkpt>
      <trkpt lat="45.26686" lon="4.2703">
        <ele>848.98</ele>
        <time>2011-10-08T06:41:50Z</time>
      </trkpt>
      <trkpt lat="45.26683" lon="4.27031">
        <ele>848.98</ele>
        <time>2011-10-08T06:41:51Z</time>
      </trkpt>
      <trkpt lat="45.26671" lon="4.2704">
        <ele>848.98</ele>
        <time>2011-10-08T06:41:57Z</time>
      </trkpt>
      <trkpt lat="45.26669" lon="4.27041">
        <ele>848.98</ele>
        <time>2011-10-08T06:41:58Z</time>
      </trkpt>
      <trkpt lat="45.26667" lon="4.27042">
        <ele>848.98</ele>
        <time>2011-10-08T06:41:59Z</time>
      </trkpt>
      <trkpt lat="45.26665" lon="4.27043">
        <ele>848.98</ele>
        <time>2011-10-08T06:42:00Z</time>
      </trkpt>
      <trkpt lat="45.26664" lon="4.27045">
        <ele>848.98</ele>
        <time>2011-10-08T06:42:01Z</time>
      </trkpt>
      <trkpt lat="45.26663" lon="4.27047">
        <ele>848.5</ele>
        <time>2011-10-08T06:42:02Z</time>
      </trkpt>
      <trkpt lat="45.26661" lon="4.27048">
        <ele>848.5</ele>
        <time>2011-10-08T06:42:03Z</time>
      </trkpt>
      <trkpt lat="45.26659" lon="4.2705">
        <ele>848.5</ele>
        <time>2011-10-08T06:42:04Z</time>
      </trkpt>
      <trkpt lat="45.26641" lon="4.27063">
        <ele>848.5</ele>
        <time>2011-10-08T06:42:15Z</time>
      </trkpt>
      <trkpt lat="45.26639" lon="4.27065">
        <ele>848.5</ele>
        <time>2011-10-08T06:42:16Z</time>
      </trkpt>
      <trkpt lat="45.26637" lon="4.27066">
        <ele>848.98</ele>
        <time>2011-10-08T06:42:17Z</time>
      </trkpt>
      <trkpt lat="45.26629" lon="4.27075">
        <ele>849.46</ele>
        <time>2011-10-08T06:42:22Z</time>
      </trkpt>
      <trkpt lat="45.26628" lon="4.27078">
        <ele>849.46</ele>
        <time>2011-10-08T06:42:23Z</time>
      </trkpt>
      <trkpt lat="45.26626" lon="4.27079">
        <ele>849.46</ele>
        <time>2011-10-08T06:42:24Z</time>
      </trkpt>
      <trkpt lat="45.26622" lon="4.27081">
        <ele>849.46</ele>
        <time>2011-10-08T06:42:27Z</time>
      </trkpt>
      <trkpt lat="45.2662" lon="4.27082">
        <ele>849.46</ele>
        <time>2011-10-08T06:42:28Z</time>
      </trkpt>
      <trkpt lat="45.26618" lon="4.27083">
        <ele>848.98</ele>
        <time>2011-10-08T06:42:29Z</time>
      </trkpt>
      <trkpt lat="45.26617" lon="4.27084">
        <ele>848.98</ele>
        <time>2011-10-08T06:42:30Z</time>
      </trkpt>
      <trkpt lat="45.26616" lon="4.27085">
        <ele>848.98</ele>
        <time>2011-10-08T06:42:31Z</time>
      </trkpt>
      <trkpt lat="45.26614" lon="4.27087">
        <ele>848.98</ele>
        <time>2011-10-08T06:42:32Z</time>
      </trkpt>
      <trkpt lat="45.26606" lon="4.27096">
        <ele>848.98</ele>
        <time>2011-10-08T06:42:41Z</time>
      </trkpt>
      <trkpt lat="45.26604" lon="4.27098">
        <ele>849.46</ele>
        <time>2011-10-08T06:42:42Z</time>
      </trkpt>
      <trkpt lat="45.26601" lon="4.27102">
        <ele>849.94</ele>
        <time>2011-10-08T06:42:44Z</time>
      </trkpt>
      <trkpt lat="45.26598" lon="4.27106">
        <ele>850.42</ele>
        <time>2011-10-08T06:42:45Z</time>
      </trkpt>
      <trkpt lat="45.26596" lon="4.27109">
        <ele>850.9</ele>
        <time>2011-10-08T06:42:46Z</time>
      </trkpt>
      <trkpt lat="45.26594" lon="4.27112">
        <ele>850.9</ele>
        <time>2011-10-08T06:42:47Z</time>
      </trkpt>
      <trkpt lat="45.26593" lon="4.27114">
        <ele>851.38</ele>
        <time>2011-10-08T06:42:48Z</time>
      </trkpt>
      <trkpt lat="45.26588" lon="4.27126">
        <ele>852.35</ele>
        <time>2011-10-08T06:42:53Z</time>
      </trkpt>
      <trkpt lat="45.26588" lon="4.27128">
        <ele>852.35</ele>
        <time>2011-10-08T06:42:54Z</time>
      </trkpt>
      <trkpt lat="45.26586" lon="4.2714">
        <ele>852.83</ele>
        <time>2011-10-08T06:42:59Z</time>
      </trkpt>
      <trkpt lat="45.26575" lon="4.2716">
        <ele>852.83</ele>
        <time>2011-10-08T06:43:09Z</time>
      </trkpt>
      <trkpt lat="45.26565" lon="4.27173">
        <ele>852.35</ele>
        <time>2011-10-08T06:43:18Z</time>
      </trkpt>
      <trkpt lat="45.26554" lon="4.27196">
        <ele>852.35</ele>
        <time>2011-10-08T06:43:29Z</time>
      </trkpt>
      <trkpt lat="45.26551" lon="4.27196">
        <ele>852.35</ele>
        <time>2011-10-08T06:43:31Z</time>
      </trkpt>
      <trkpt lat="45.26548" lon="4.27206">
        <ele>852.35</ele>
        <time>2011-10-08T06:43:35Z</time>
      </trkpt>
      <trkpt lat="45.26542" lon="4.2722">
        <ele>851.87</ele>
        <time>2011-10-08T06:43:41Z</time>
      </trkpt>
      <trkpt lat="45.26541" lon="4.27223">
        <ele>851.87</ele>
        <time>2011-10-08T06:43:42Z</time>
      </trkpt>
      <trkpt lat="45.26535" lon="4.27235">
        <ele>851.87</ele>
        <time>2011-10-08T06:43:46Z</time>
      </trkpt>
      <trkpt lat="45.26532" lon="4.2724">
        <ele>851.38</ele>
        <time>2011-10-08T06:43:48Z</time>
      </trkpt>
      <trkpt lat="45.26528" lon="4.27245">
        <ele>851.38</ele>
        <time>2011-10-08T06:43:50Z</time>
      </trkpt>
      <trkpt lat="45.26526" lon="4.27247">
        <ele>851.38</ele>
        <time>2011-10-08T06:43:51Z</time>
      </trkpt>
      <trkpt lat="45.26524" lon="4.27249">
        <ele>851.38</ele>
        <time>2011-10-08T06:43:52Z</time>
      </trkpt>
      <trkpt lat="45.26522" lon="4.27253">
        <ele>851.38</ele>
        <time>2011-10-08T06:43:53Z</time>
      </trkpt>
      <trkpt lat="45.26519" lon="4.27255">
        <ele>851.38</ele>
        <time>2011-10-08T06:43:54Z</time>
      </trkpt>
      <trkpt lat="45.26516" lon="4.27258">
        <ele>851.87</ele>
        <time>2011-10-08T06:43:55Z</time>
      </trkpt>
      <trkpt lat="45.26513" lon="4.2726">
        <ele>851.87</ele>
        <time>2011-10-08T06:43:56Z</time>
      </trkpt>
      <trkpt lat="45.26511" lon="4.27262">
        <ele>852.35</ele>
        <time>2011-10-08T06:43:57Z</time>
      </trkpt>
      <trkpt lat="45.2651" lon="4.27264">
        <ele>852.35</ele>
        <time>2011-10-08T06:43:58Z</time>
      </trkpt>
      <trkpt lat="45.26508" lon="4.27266">
        <ele>852.35</ele>
        <time>2011-10-08T06:43:59Z</time>
      </trkpt>
      <trkpt lat="45.26506" lon="4.27267">
        <ele>852.83</ele>
        <time>2011-10-08T06:44:00Z</time>
      </trkpt>
      <trkpt lat="45.26502" lon="4.27277">
        <ele>853.31</ele>
        <time>2011-10-08T06:44:04Z</time>
      </trkpt>
      <trkpt lat="45.26501" lon="4.27279">
        <ele>853.79</ele>
        <time>2011-10-08T06:44:05Z</time>
      </trkpt>
      <trkpt lat="45.26499" lon="4.27283">
        <ele>854.27</ele>
        <time>2011-10-08T06:44:06Z</time>
      </trkpt>
      <trkpt lat="45.26496" lon="4.27284">
        <ele>854.27</ele>
        <time>2011-10-08T06:44:07Z</time>
      </trkpt>
      <trkpt lat="45.26493" lon="4.27288">
        <ele>855.23</ele>
        <time>2011-10-08T06:44:08Z</time>
      </trkpt>
      <trkpt lat="45.26491" lon="4.27291">
        <ele>854.75</ele>
        <time>2011-10-08T06:44:09Z</time>
      </trkpt>
      <trkpt lat="45.26489" lon="4.27294">
        <ele>855.23</ele>
        <time>2011-10-08T06:44:10Z</time>
      </trkpt>
      <trkpt lat="45.26485" lon="4.27297">
        <ele>855.71</ele>
        <time>2011-10-08T06:44:11Z</time>
      </trkpt>
      <trkpt lat="45.26483" lon="4.273">
        <ele>856.19</ele>
        <time>2011-10-08T06:44:12Z</time>
      </trkpt>
      <trkpt lat="45.26481" lon="4.27303">
        <ele>856.67</ele>
        <time>2011-10-08T06:44:13Z</time>
      </trkpt>
      <trkpt lat="45.26475" lon="4.27309">
        <ele>857.63</ele>
        <time>2011-10-08T06:44:16Z</time>
      </trkpt>
      <trkpt lat="45.26468" lon="4.27313">
        <ele>859.08</ele>
        <time>2011-10-08T06:44:18Z</time>
      </trkpt>
      <trkpt lat="45.26464" lon="4.2732">
        <ele>859.08</ele>
        <time>2011-10-08T06:44:19Z</time>
      </trkpt>
      <trkpt lat="45.26461" lon="4.27325">
        <ele>859.56</ele>
        <time>2011-10-08T06:44:20Z</time>
      </trkpt>
      <trkpt lat="45.26444" lon="4.27361">
        <ele>861.96</ele>
        <time>2011-10-08T06:44:26Z</time>
      </trkpt>
      <trkpt lat="45.26443" lon="4.27365">
        <ele>862.44</ele>
        <time>2011-10-08T06:44:27Z</time>
      </trkpt>
      <trkpt lat="45.2644" lon="4.27368">
        <ele>863.4</ele>
        <time>2011-10-08T06:44:28Z</time>
      </trkpt>
      <trkpt lat="45.26438" lon="4.27372">
        <ele>863.88</ele>
        <time>2011-10-08T06:44:29Z</time>
      </trkpt>
      <trkpt lat="45.26436" lon="4.27376">
        <ele>863.88</ele>
        <time>2011-10-08T06:44:30Z</time>
      </trkpt>
      <trkpt lat="45.26434" lon="4.27381">
        <ele>863.88</ele>
        <time>2011-10-08T06:44:31Z</time>
      </trkpt>
      <trkpt lat="45.26431" lon="4.27385">
        <ele>863.88</ele>
        <time>2011-10-08T06:44:32Z</time>
      </trkpt>
      <trkpt lat="45.26429" lon="4.27387">
        <ele>863.88</ele>
        <time>2011-10-08T06:44:33Z</time>
      </trkpt>
      <trkpt lat="45.26425" lon="4.2739">
        <ele>865.32</ele>
        <time>2011-10-08T06:44:34Z</time>
      </trkpt>
      <trkpt lat="45.26422" lon="4.27394">
        <ele>866.29</ele>
        <time>2011-10-08T06:44:35Z</time>
      </trkpt>
      <trkpt lat="45.26405" lon="4.27421">
        <ele>867.73</ele>
        <time>2011-10-08T06:44:40Z</time>
      </trkpt>
      <trkpt lat="45.26373" lon="4.27444">
        <ele>872.53</ele>
        <time>2011-10-08T06:44:49Z</time>
      </trkpt>
      <trkpt lat="45.26369" lon="4.27454">
        <ele>872.53</ele>
        <time>2011-10-08T06:44:50Z</time>
      </trkpt>
      <trkpt lat="45.26364" lon="4.27458">
        <ele>873.01</ele>
        <time>2011-10-08T06:44:51Z</time>
      </trkpt>
      <trkpt lat="45.2636" lon="4.27469">
        <ele>873.5</ele>
        <time>2011-10-08T06:44:52Z</time>
      </trkpt>
      <trkpt lat="45.26357" lon="4.27478">
        <ele>873.98</ele>
        <time>2011-10-08T06:44:53Z</time>
      </trkpt>
      <trkpt lat="45.26352" lon="4.27484">
        <ele>873.98</ele>
        <time>2011-10-08T06:44:54Z</time>
      </trkpt>
      <trkpt lat="45.26348" lon="4.27489">
        <ele>873.98</ele>
        <time>2011-10-08T06:44:55Z</time>
      </trkpt>
      <trkpt lat="45.26343" lon="4.27494">
        <ele>873.98</ele>
        <time>2011-10-08T06:44:56Z</time>
      </trkpt>
      <trkpt lat="45.26339" lon="4.27499">
        <ele>873.98</ele>
        <time>2011-10-08T06:44:57Z</time>
      </trkpt>
      <trkpt lat="45.26328" lon="4.27515">
        <ele>874.94</ele>
        <time>2011-10-08T06:45:00Z</time>
      </trkpt>
      <trkpt lat="45.26325" lon="4.2752">
        <ele>874.94</ele>
        <time>2011-10-08T06:45:01Z</time>
      </trkpt>
      <trkpt lat="45.26321" lon="4.27525">
        <ele>875.42</ele>
        <time>2011-10-08T06:45:02Z</time>
      </trkpt>
      <trkpt lat="45.26306" lon="4.2754">
        <ele>874.94</ele>
        <time>2011-10-08T06:45:05Z</time>
      </trkpt>
      <trkpt lat="45.26302" lon="4.27546">
        <ele>874.94</ele>
        <time>2011-10-08T06:45:06Z</time>
      </trkpt>
      <trkpt lat="45.26298" lon="4.27551">
        <ele>874.46</ele>
        <time>2011-10-08T06:45:07Z</time>
      </trkpt>
      <trkpt lat="45.26288" lon="4.2757">
        <ele>874.46</ele>
        <time>2011-10-08T06:45:10Z</time>
      </trkpt>
      <trkpt lat="45.26284" lon="4.27576">
        <ele>873.98</ele>
        <time>2011-10-08T06:45:11Z</time>
      </trkpt>
      <trkpt lat="45.2628" lon="4.27581">
        <ele>873.5</ele>
        <time>2011-10-08T06:45:12Z</time>
      </trkpt>
      <trkpt lat="45.26276" lon="4.27588">
        <ele>873.01</ele>
        <time>2011-10-08T06:45:13Z</time>
      </trkpt>
      <trkpt lat="45.26272" lon="4.27596">
        <ele>872.53</ele>
        <time>2011-10-08T06:45:14Z</time>
      </trkpt>
      <trkpt lat="45.26269" lon="4.27603">
        <ele>872.05</ele>
        <time>2011-10-08T06:45:15Z</time>
      </trkpt>
      <trkpt lat="45.26266" lon="4.27611">
        <ele>871.57</ele>
        <time>2011-10-08T06:45:16Z</time>
      </trkpt>
      <trkpt lat="45.26265" lon="4.2762">
        <ele>870.61</ele>
        <time>2011-10-08T06:45:17Z</time>
      </trkpt>
      <trkpt lat="45.26264" lon="4.27629">
        <ele>870.61</ele>
        <time>2011-10-08T06:45:18Z</time>
      </trkpt>
      <trkpt lat="45.26264" lon="4.27639">
        <ele>870.13</ele>
        <time>2011-10-08T06:45:19Z</time>
      </trkpt>
      <trkpt lat="45.26263" lon="4.27649">
        <ele>869.65</ele>
        <time>2011-10-08T06:45:20Z</time>
      </trkpt>
      <trkpt lat="45.26261" lon="4.27667">
        <ele>868.69</ele>
        <time>2011-10-08T06:45:22Z</time>
      </trkpt>
      <trkpt lat="45.26259" lon="4.27676">
        <ele>868.21</ele>
        <time>2011-10-08T06:45:23Z</time>
      </trkpt>
      <trkpt lat="45.26251" lon="4.27703">
        <ele>866.29</ele>
        <time>2011-10-08T06:45:26Z</time>
      </trkpt>
      <trkpt lat="45.26247" lon="4.27721">
        <ele>865.32</ele>
        <time>2011-10-08T06:45:28Z</time>
      </trkpt>
      <trkpt lat="45.26244" lon="4.27739">
        <ele>864.36</ele>
        <time>2011-10-08T06:45:30Z</time>
      </trkpt>
      <trkpt lat="45.26231" lon="4.27779">
        <ele>862.44</ele>
        <time>2011-10-08T06:45:35Z</time>
      </trkpt>
      <trkpt lat="45.26229" lon="4.27787">
        <ele>861.96</ele>
        <time>2011-10-08T06:45:36Z</time>
      </trkpt>
      <trkpt lat="45.26223" lon="4.27803">
        <ele>861.48</ele>
        <time>2011-10-08T06:45:38Z</time>
      </trkpt>
      <trkpt lat="45.26219" lon="4.27812">
        <ele>861.48</ele>
        <time>2011-10-08T06:45:39Z</time>
      </trkpt>
      <trkpt lat="45.26215" lon="4.2782">
        <ele>861</ele>
        <time>2011-10-08T06:45:40Z</time>
      </trkpt>
      <trkpt lat="45.26212" lon="4.27827">
        <ele>861</ele>
        <time>2011-10-08T06:45:41Z</time>
      </trkpt>
      <trkpt lat="45.26208" lon="4.27835">
        <ele>861</ele>
        <time>2011-10-08T06:45:42Z</time>
      </trkpt>
      <trkpt lat="45.26173" lon="4.27905">
        <ele>860.52</ele>
        <time>2011-10-08T06:45:51Z</time>
      </trkpt>
      <trkpt lat="45.2617" lon="4.27914">
        <ele>860.52</ele>
        <time>2011-10-08T06:45:52Z</time>
      </trkpt>
      <trkpt lat="45.26168" lon="4.27923">
        <ele>860.52</ele>
        <time>2011-10-08T06:45:53Z</time>
      </trkpt>
      <trkpt lat="45.26166" lon="4.27932">
        <ele>860.52</ele>
        <time>2011-10-08T06:45:54Z</time>
      </trkpt>
      <trkpt lat="45.26164" lon="4.27941">
        <ele>860.04</ele>
        <time>2011-10-08T06:45:55Z</time>
      </trkpt>
      <trkpt lat="45.26163" lon="4.27957">
        <ele>860.04</ele>
        <time>2011-10-08T06:45:57Z</time>
      </trkpt>
      <trkpt lat="45.26162" lon="4.27964">
        <ele>861.48</ele>
        <time>2011-10-08T06:45:58Z</time>
      </trkpt>
      <trkpt lat="45.26179" lon="4.28038">
        <ele>861.48</ele>
        <time>2011-10-08T06:46:07Z</time>
      </trkpt>
      <trkpt lat="45.26183" lon="4.28054">
        <ele>861.48</ele>
        <time>2011-10-08T06:46:09Z</time>
      </trkpt>
      <trkpt lat="45.26187" lon="4.28107">
        <ele>862.92</ele>
        <time>2011-10-08T06:46:16Z</time>
      </trkpt>
      <trkpt lat="45.26189" lon="4.28153">
        <ele>864.36</ele>
        <time>2011-10-08T06:46:23Z</time>
      </trkpt>
      <trkpt lat="45.26189" lon="4.2816">
        <ele>864.84</ele>
        <time>2011-10-08T06:46:24Z</time>
      </trkpt>
      <trkpt lat="45.26186" lon="4.28235">
        <ele>867.25</ele>
        <time>2011-10-08T06:46:38Z</time>
      </trkpt>
      <trkpt lat="45.26188" lon="4.28282">
        <ele>869.65</ele>
        <time>2011-10-08T06:46:51Z</time>
      </trkpt>
      <trkpt lat="45.26186" lon="4.28317">
        <ele>872.05</ele>
        <time>2011-10-08T06:47:03Z</time>
      </trkpt>
      <trkpt lat="45.26179" lon="4.2835">
        <ele>875.42</ele>
        <time>2011-10-08T06:47:16Z</time>
      </trkpt>
      <trkpt lat="45.26178" lon="4.284">
        <ele>878.3</ele>
        <time>2011-10-08T06:47:31Z</time>
      </trkpt>
      <trkpt lat="45.26188" lon="4.28441">
        <ele>879.74</ele>
        <time>2011-10-08T06:47:44Z</time>
      </trkpt>
      <trkpt lat="45.26195" lon="4.28456">
        <ele>879.74</ele>
        <time>2011-10-08T06:47:50Z</time>
      </trkpt>
      <trkpt lat="45.26196" lon="4.28458">
        <ele>879.74</ele>
        <time>2011-10-08T06:47:51Z</time>
      </trkpt>
      <trkpt lat="45.26196" lon="4.28467">
        <ele>879.74</ele>
        <time>2011-10-08T06:47:55Z</time>
      </trkpt>
      <trkpt lat="45.26196" lon="4.28469">
        <ele>879.74</ele>
        <time>2011-10-08T06:47:56Z</time>
      </trkpt>
      <trkpt lat="45.26191" lon="4.28509">
        <ele>882.15</ele>
        <time>2011-10-08T06:48:08Z</time>
      </trkpt>
      <trkpt lat="45.2619" lon="4.28519">
        <ele>882.63</ele>
        <time>2011-10-08T06:48:11Z</time>
      </trkpt>
      <trkpt lat="45.26196" lon="4.28569">
        <ele>883.11</ele>
        <time>2011-10-08T06:48:20Z</time>
      </trkpt>
      <trkpt lat="45.26205" lon="4.28603">
        <ele>883.11</ele>
        <time>2011-10-08T06:48:26Z</time>
      </trkpt>
      <trkpt lat="45.26218" lon="4.28687">
        <ele>885.03</ele>
        <time>2011-10-08T06:48:40Z</time>
      </trkpt>
      <trkpt lat="45.26219" lon="4.28693">
        <ele>885.03</ele>
        <time>2011-10-08T06:48:41Z</time>
      </trkpt>
      <trkpt lat="45.26219" lon="4.28698">
        <ele>885.51</ele>
        <time>2011-10-08T06:48:42Z</time>
      </trkpt>
      <trkpt lat="45.26221" lon="4.28703">
        <ele>885.99</ele>
        <time>2011-10-08T06:48:43Z</time>
      </trkpt>
      <trkpt lat="45.26248" lon="4.28761">
        <ele>886.95</ele>
        <time>2011-10-08T06:48:56Z</time>
      </trkpt>
      <trkpt lat="45.26275" lon="4.28803">
        <ele>887.43</ele>
        <time>2011-10-08T06:49:06Z</time>
      </trkpt>
      <trkpt lat="45.26293" lon="4.28869">
        <ele>889.36</ele>
        <time>2011-10-08T06:49:19Z</time>
      </trkpt>
      <trkpt lat="45.26301" lon="4.28958">
        <ele>892.72</ele>
        <time>2011-10-08T06:49:35Z</time>
      </trkpt>
      <trkpt lat="45.263" lon="4.29026">
        <ele>895.61</ele>
        <time>2011-10-08T06:49:48Z</time>
      </trkpt>
      <trkpt lat="45.263" lon="4.29068">
        <ele>895.12</ele>
        <time>2011-10-08T06:49:55Z</time>
      </trkpt>
      <trkpt lat="45.26297" lon="4.29109">
        <ele>893.68</ele>
        <time>2011-10-08T06:50:00Z</time>
      </trkpt>
      <trkpt lat="45.26296" lon="4.29118">
        <ele>893.2</ele>
        <time>2011-10-08T06:50:01Z</time>
      </trkpt>
      <trkpt lat="45.26295" lon="4.29137">
        <ele>892.24</ele>
        <time>2011-10-08T06:50:03Z</time>
      </trkpt>
      <trkpt lat="45.26296" lon="4.29178">
        <ele>890.8</ele>
        <time>2011-10-08T06:50:07Z</time>
      </trkpt>
      <trkpt lat="45.26301" lon="4.29225">
        <ele>888.88</ele>
        <time>2011-10-08T06:50:11Z</time>
      </trkpt>
      <trkpt lat="45.263" lon="4.29237">
        <ele>888.4</ele>
        <time>2011-10-08T06:50:12Z</time>
      </trkpt>
      <trkpt lat="45.26298" lon="4.29271">
        <ele>886.95</ele>
        <time>2011-10-08T06:50:15Z</time>
      </trkpt>
      <trkpt lat="45.26299" lon="4.29315">
        <ele>885.03</ele>
        <time>2011-10-08T06:50:19Z</time>
      </trkpt>
      <trkpt lat="45.26298" lon="4.29325">
        <ele>884.07</ele>
        <time>2011-10-08T06:50:20Z</time>
      </trkpt>
      <trkpt lat="45.26296" lon="4.29335">
        <ele>883.11</ele>
        <time>2011-10-08T06:50:21Z</time>
      </trkpt>
      <trkpt lat="45.26292" lon="4.29346">
        <ele>882.15</ele>
        <time>2011-10-08T06:50:22Z</time>
      </trkpt>
      <trkpt lat="45.26287" lon="4.29355">
        <ele>881.67</ele>
        <time>2011-10-08T06:50:23Z</time>
      </trkpt>
      <trkpt lat="45.26281" lon="4.29364">
        <ele>881.19</ele>
        <time>2011-10-08T06:50:24Z</time>
      </trkpt>
      <trkpt lat="45.26233" lon="4.29442">
        <ele>877.82</ele>
        <time>2011-10-08T06:50:33Z</time>
      </trkpt>
      <trkpt lat="45.26228" lon="4.2945">
        <ele>877.82</ele>
        <time>2011-10-08T06:50:34Z</time>
      </trkpt>
      <trkpt lat="45.2621" lon="4.29481">
        <ele>878.3</ele>
        <time>2011-10-08T06:50:38Z</time>
      </trkpt>
      <trkpt lat="45.26203" lon="4.29496">
        <ele>877.82</ele>
        <time>2011-10-08T06:50:40Z</time>
      </trkpt>
      <trkpt lat="45.26199" lon="4.29503">
        <ele>878.3</ele>
        <time>2011-10-08T06:50:41Z</time>
      </trkpt>
      <trkpt lat="45.26193" lon="4.29518">
        <ele>878.3</ele>
        <time>2011-10-08T06:50:43Z</time>
      </trkpt>
      <trkpt lat="45.26186" lon="4.29531">
        <ele>878.3</ele>
        <time>2011-10-08T06:50:45Z</time>
      </trkpt>
      <trkpt lat="45.2618" lon="4.29544">
        <ele>878.78</ele>
        <time>2011-10-08T06:50:47Z</time>
      </trkpt>
      <trkpt lat="45.26177" lon="4.2955">
        <ele>879.26</ele>
        <time>2011-10-08T06:50:48Z</time>
      </trkpt>
      <trkpt lat="45.26174" lon="4.29556">
        <ele>879.74</ele>
        <time>2011-10-08T06:50:49Z</time>
      </trkpt>
      <trkpt lat="45.26164" lon="4.29578">
        <ele>880.22</ele>
        <time>2011-10-08T06:50:53Z</time>
      </trkpt>
      <trkpt lat="45.26153" lon="4.29602">
        <ele>880.71</ele>
        <time>2011-10-08T06:50:58Z</time>
      </trkpt>
      <trkpt lat="45.26151" lon="4.29607">
        <ele>881.19</ele>
        <time>2011-10-08T06:50:59Z</time>
      </trkpt>
      <trkpt lat="45.26143" lon="4.29621">
        <ele>881.67</ele>
        <time>2011-10-08T06:51:02Z</time>
      </trkpt>
      <trkpt lat="45.2614" lon="4.29625">
        <ele>881.67</ele>
        <time>2011-10-08T06:51:03Z</time>
      </trkpt>
      <trkpt lat="45.26122" lon="4.29651">
        <ele>880.71</ele>
        <time>2011-10-08T06:51:08Z</time>
      </trkpt>
      <trkpt lat="45.26118" lon="4.29658">
        <ele>880.22</ele>
        <time>2011-10-08T06:51:09Z</time>
      </trkpt>
      <trkpt lat="45.2611" lon="4.2967">
        <ele>880.22</ele>
        <time>2011-10-08T06:51:11Z</time>
      </trkpt>
      <trkpt lat="45.26107" lon="4.29677">
        <ele>880.22</ele>
        <time>2011-10-08T06:51:12Z</time>
      </trkpt>
      <trkpt lat="45.26102" lon="4.29683">
        <ele>879.74</ele>
        <time>2011-10-08T06:51:13Z</time>
      </trkpt>
      <trkpt lat="45.26098" lon="4.29689">
        <ele>879.74</ele>
        <time>2011-10-08T06:51:14Z</time>
      </trkpt>
      <trkpt lat="45.26094" lon="4.29695">
        <ele>879.74</ele>
        <time>2011-10-08T06:51:15Z</time>
      </trkpt>
      <trkpt lat="45.26074" lon="4.29722">
        <ele>879.26</ele>
        <time>2011-10-08T06:51:20Z</time>
      </trkpt>
      <trkpt lat="45.26065" lon="4.29732">
        <ele>879.74</ele>
        <time>2011-10-08T06:51:22Z</time>
      </trkpt>
      <trkpt lat="45.26057" lon="4.29743">
        <ele>879.74</ele>
        <time>2011-10-08T06:51:24Z</time>
      </trkpt>
      <trkpt lat="45.26042" lon="4.29765">
        <ele>879.74</ele>
        <time>2011-10-08T06:51:28Z</time>
      </trkpt>
      <trkpt lat="45.26031" lon="4.29782">
        <ele>879.74</ele>
        <time>2011-10-08T06:51:31Z</time>
      </trkpt>
      <trkpt lat="45.26027" lon="4.29787">
        <ele>879.74</ele>
        <time>2011-10-08T06:51:32Z</time>
      </trkpt>
      <trkpt lat="45.26016" lon="4.29803">
        <ele>880.22</ele>
        <time>2011-10-08T06:51:35Z</time>
      </trkpt>
      <trkpt lat="45.26012" lon="4.29808">
        <ele>880.22</ele>
        <time>2011-10-08T06:51:36Z</time>
      </trkpt>
      <trkpt lat="45.26007" lon="4.29813">
        <ele>880.71</ele>
        <time>2011-10-08T06:51:37Z</time>
      </trkpt>
      <trkpt lat="45.26003" lon="4.29817">
        <ele>880.71</ele>
        <time>2011-10-08T06:51:38Z</time>
      </trkpt>
      <trkpt lat="45.25999" lon="4.29822">
        <ele>880.71</ele>
        <time>2011-10-08T06:51:39Z</time>
      </trkpt>
      <trkpt lat="45.25942" lon="4.29885">
        <ele>881.19</ele>
        <time>2011-10-08T06:51:52Z</time>
      </trkpt>
      <trkpt lat="45.25925" lon="4.29906">
        <ele>880.71</ele>
        <time>2011-10-08T06:51:56Z</time>
      </trkpt>
      <trkpt lat="45.25868" lon="4.29981">
        <ele>877.82</ele>
        <time>2011-10-08T06:52:08Z</time>
      </trkpt>
      <trkpt lat="45.25842" lon="4.3002">
        <ele>876.38</ele>
        <time>2011-10-08T06:52:14Z</time>
      </trkpt>
      <trkpt lat="45.25837" lon="4.30025">
        <ele>876.38</ele>
        <time>2011-10-08T06:52:15Z</time>
      </trkpt>
      <trkpt lat="45.25831" lon="4.30029">
        <ele>876.38</ele>
        <time>2011-10-08T06:52:16Z</time>
      </trkpt>
      <trkpt lat="45.25826" lon="4.30031">
        <ele>876.38</ele>
        <time>2011-10-08T06:52:17Z</time>
      </trkpt>
      <trkpt lat="45.2582" lon="4.30032">
        <ele>876.38</ele>
        <time>2011-10-08T06:52:18Z</time>
      </trkpt>
      <trkpt lat="45.25815" lon="4.30033">
        <ele>876.38</ele>
        <time>2011-10-08T06:52:19Z</time>
      </trkpt>
      <trkpt lat="45.25783" lon="4.30041">
        <ele>876.86</ele>
        <time>2011-10-08T06:52:28Z</time>
      </trkpt>
      <trkpt lat="45.25781" lon="4.30038">
        <ele>876.86</ele>
        <time>2011-10-08T06:52:31Z</time>
      </trkpt>
      <trkpt lat="45.2578" lon="4.30038">
        <ele>876.86</ele>
        <time>2011-10-08T06:52:32Z</time>
      </trkpt>
      <trkpt lat="45.25778" lon="4.30039">
        <ele>876.86</ele>
        <time>2011-10-08T06:52:33Z</time>
      </trkpt>
      <trkpt lat="45.25773" lon="4.30043">
        <ele>876.38</ele>
        <time>2011-10-08T06:52:35Z</time>
      </trkpt>
      <trkpt lat="45.2577" lon="4.30043">
        <ele>876.38</ele>
        <time>2011-10-08T06:52:36Z</time>
      </trkpt>
      <trkpt lat="45.25763" lon="4.30044">
        <ele>876.38</ele>
        <time>2011-10-08T06:52:38Z</time>
      </trkpt>
      <trkpt lat="45.2575" lon="4.30044">
        <ele>876.86</ele>
        <time>2011-10-08T06:52:41Z</time>
      </trkpt>
      <trkpt lat="45.25723" lon="4.30043">
        <ele>877.82</ele>
        <time>2011-10-08T06:52:47Z</time>
      </trkpt>
      <trkpt lat="45.25719" lon="4.30044">
        <ele>877.82</ele>
        <time>2011-10-08T06:52:48Z</time>
      </trkpt>
      <trkpt lat="45.25704" lon="4.30044">
        <ele>877.82</ele>
        <time>2011-10-08T06:52:51Z</time>
      </trkpt>
      <trkpt lat="45.25699" lon="4.30045">
        <ele>878.3</ele>
        <time>2011-10-08T06:52:52Z</time>
      </trkpt>
      <trkpt lat="45.25679" lon="4.30044">
        <ele>878.78</ele>
        <time>2011-10-08T06:52:56Z</time>
      </trkpt>
      <trkpt lat="45.25674" lon="4.30043">
        <ele>879.26</ele>
        <time>2011-10-08T06:52:57Z</time>
      </trkpt>
      <trkpt lat="45.25669" lon="4.30041">
        <ele>879.26</ele>
        <time>2011-10-08T06:52:58Z</time>
      </trkpt>
      <trkpt lat="45.25665" lon="4.30038">
        <ele>879.26</ele>
        <time>2011-10-08T06:52:59Z</time>
      </trkpt>
      <trkpt lat="45.25661" lon="4.30033">
        <ele>878.78</ele>
        <time>2011-10-08T06:53:00Z</time>
      </trkpt>
      <trkpt lat="45.25657" lon="4.30029">
        <ele>878.78</ele>
        <time>2011-10-08T06:53:01Z</time>
      </trkpt>
      <trkpt lat="45.25654" lon="4.30024">
        <ele>878.78</ele>
        <time>2011-10-08T06:53:02Z</time>
      </trkpt>
      <trkpt lat="45.2565" lon="4.30019">
        <ele>878.78</ele>
        <time>2011-10-08T06:53:03Z</time>
      </trkpt>
      <trkpt lat="45.25647" lon="4.30014">
        <ele>878.78</ele>
        <time>2011-10-08T06:53:04Z</time>
      </trkpt>
      <trkpt lat="45.25638" lon="4.30001">
        <ele>879.26</ele>
        <time>2011-10-08T06:53:07Z</time>
      </trkpt>
      <trkpt lat="45.25636" lon="4.29996">
        <ele>879.74</ele>
        <time>2011-10-08T06:53:08Z</time>
      </trkpt>
      <trkpt lat="45.25633" lon="4.29993">
        <ele>879.74</ele>
        <time>2011-10-08T06:53:09Z</time>
      </trkpt>
      <trkpt lat="45.2563" lon="4.29989">
        <ele>880.22</ele>
        <time>2011-10-08T06:53:10Z</time>
      </trkpt>
      <trkpt lat="45.25627" lon="4.29986">
        <ele>880.22</ele>
        <time>2011-10-08T06:53:11Z</time>
      </trkpt>
      <trkpt lat="45.25623" lon="4.29984">
        <ele>880.71</ele>
        <time>2011-10-08T06:53:12Z</time>
      </trkpt>
      <trkpt lat="45.25608" lon="4.29973">
        <ele>881.67</ele>
        <time>2011-10-08T06:53:17Z</time>
      </trkpt>
      <trkpt lat="45.25605" lon="4.29972">
        <ele>882.15</ele>
        <time>2011-10-08T06:53:18Z</time>
      </trkpt>
      <trkpt lat="45.25584" lon="4.29951">
        <ele>884.07</ele>
        <time>2011-10-08T06:53:27Z</time>
      </trkpt>
      <trkpt lat="45.25555" lon="4.2993">
        <ele>886.47</ele>
        <time>2011-10-08T06:53:37Z</time>
      </trkpt>
      <trkpt lat="45.25551" lon="4.29928">
        <ele>886.47</ele>
        <time>2011-10-08T06:53:38Z</time>
      </trkpt>
      <trkpt lat="45.25538" lon="4.29921">
        <ele>887.43</ele>
        <time>2011-10-08T06:53:41Z</time>
      </trkpt>
      <trkpt lat="45.25533" lon="4.2992">
        <ele>887.43</ele>
        <time>2011-10-08T06:53:42Z</time>
      </trkpt>
      <trkpt lat="45.25525" lon="4.29915">
        <ele>887.43</ele>
        <time>2011-10-08T06:53:44Z</time>
      </trkpt>
      <trkpt lat="45.25523" lon="4.29911">
        <ele>887.91</ele>
        <time>2011-10-08T06:53:45Z</time>
      </trkpt>
      <trkpt lat="45.2552" lon="4.29908">
        <ele>887.91</ele>
        <time>2011-10-08T06:53:46Z</time>
      </trkpt>
      <trkpt lat="45.25515" lon="4.29904">
        <ele>887.91</ele>
        <time>2011-10-08T06:53:47Z</time>
      </trkpt>
      <trkpt lat="45.25511" lon="4.29901">
        <ele>887.91</ele>
        <time>2011-10-08T06:53:48Z</time>
      </trkpt>
      <trkpt lat="45.25501" lon="4.29895">
        <ele>887.91</ele>
        <time>2011-10-08T06:53:50Z</time>
      </trkpt>
      <trkpt lat="45.25482" lon="4.29882">
        <ele>888.88</ele>
        <time>2011-10-08T06:53:54Z</time>
      </trkpt>
      <trkpt lat="45.25477" lon="4.29878">
        <ele>888.88</ele>
        <time>2011-10-08T06:53:55Z</time>
      </trkpt>
      <trkpt lat="45.25472" lon="4.29874">
        <ele>888.88</ele>
        <time>2011-10-08T06:53:56Z</time>
      </trkpt>
      <trkpt lat="45.25454" lon="4.29862">
        <ele>888.4</ele>
        <time>2011-10-08T06:53:59Z</time>
      </trkpt>
      <trkpt lat="45.25448" lon="4.29858">
        <ele>888.4</ele>
        <time>2011-10-08T06:54:00Z</time>
      </trkpt>
      <trkpt lat="45.25397" lon="4.29829">
        <ele>885.51</ele>
        <time>2011-10-08T06:54:08Z</time>
      </trkpt>
      <trkpt lat="45.25376" lon="4.29823">
        <ele>884.55</ele>
        <time>2011-10-08T06:54:12Z</time>
      </trkpt>
      <trkpt lat="45.25363" lon="4.29822">
        <ele>883.11</ele>
        <time>2011-10-08T06:54:14Z</time>
      </trkpt>
      <trkpt lat="45.25358" lon="4.29823">
        <ele>882.15</ele>
        <time>2011-10-08T06:54:15Z</time>
      </trkpt>
      <trkpt lat="45.25333" lon="4.29826">
        <ele>878.3</ele>
        <time>2011-10-08T06:54:18Z</time>
      </trkpt>
      <trkpt lat="45.25325" lon="4.29826">
        <ele>876.86</ele>
        <time>2011-10-08T06:54:19Z</time>
      </trkpt>
      <trkpt lat="45.25318" lon="4.29826">
        <ele>875.9</ele>
        <time>2011-10-08T06:54:20Z</time>
      </trkpt>
      <trkpt lat="45.25311" lon="4.29826">
        <ele>874.46</ele>
        <time>2011-10-08T06:54:21Z</time>
      </trkpt>
      <trkpt lat="45.25305" lon="4.29826">
        <ele>873.5</ele>
        <time>2011-10-08T06:54:22Z</time>
      </trkpt>
      <trkpt lat="45.25295" lon="4.29825">
        <ele>872.05</ele>
        <time>2011-10-08T06:54:24Z</time>
      </trkpt>
      <trkpt lat="45.2529" lon="4.29824">
        <ele>871.57</ele>
        <time>2011-10-08T06:54:25Z</time>
      </trkpt>
      <trkpt lat="45.25276" lon="4.29819">
        <ele>870.13</ele>
        <time>2011-10-08T06:54:29Z</time>
      </trkpt>
      <trkpt lat="45.25273" lon="4.2982">
        <ele>870.13</ele>
        <time>2011-10-08T06:54:30Z</time>
      </trkpt>
      <trkpt lat="45.2527" lon="4.29818">
        <ele>869.65</ele>
        <time>2011-10-08T06:54:31Z</time>
      </trkpt>
      <trkpt lat="45.25267" lon="4.29816">
        <ele>869.65</ele>
        <time>2011-10-08T06:54:32Z</time>
      </trkpt>
      <trkpt lat="45.25264" lon="4.29816">
        <ele>869.17</ele>
        <time>2011-10-08T06:54:33Z</time>
      </trkpt>
      <trkpt lat="45.25261" lon="4.29815">
        <ele>869.65</ele>
        <time>2011-10-08T06:54:34Z</time>
      </trkpt>
      <trkpt lat="45.25258" lon="4.29814">
        <ele>869.65</ele>
        <time>2011-10-08T06:54:35Z</time>
      </trkpt>
      <trkpt lat="45.25219" lon="4.29797">
        <ele>867.25</ele>
        <time>2011-10-08T06:54:47Z</time>
      </trkpt>
      <trkpt lat="45.25213" lon="4.29794">
        <ele>866.77</ele>
        <time>2011-10-08T06:54:48Z</time>
      </trkpt>
      <trkpt lat="45.25211" lon="4.29791">
        <ele>866.77</ele>
        <time>2011-10-08T06:54:49Z</time>
      </trkpt>
      <trkpt lat="45.25207" lon="4.29787">
        <ele>866.29</ele>
        <time>2011-10-08T06:54:50Z</time>
      </trkpt>
      <trkpt lat="45.25196" lon="4.29776">
        <ele>863.88</ele>
        <time>2011-10-08T06:54:53Z</time>
      </trkpt>
      <trkpt lat="45.25189" lon="4.29772">
        <ele>863.4</ele>
        <time>2011-10-08T06:54:54Z</time>
      </trkpt>
      <trkpt lat="45.25181" lon="4.29769">
        <ele>862.92</ele>
        <time>2011-10-08T06:54:55Z</time>
      </trkpt>
      <trkpt lat="45.25154" lon="4.29758">
        <ele>860.52</ele>
        <time>2011-10-08T06:54:59Z</time>
      </trkpt>
      <trkpt lat="45.25147" lon="4.29757">
        <ele>860.04</ele>
        <time>2011-10-08T06:55:00Z</time>
      </trkpt>
      <trkpt lat="45.25139" lon="4.29756">
        <ele>859.56</ele>
        <time>2011-10-08T06:55:01Z</time>
      </trkpt>
      <trkpt lat="45.25132" lon="4.29754">
        <ele>859.56</ele>
        <time>2011-10-08T06:55:02Z</time>
      </trkpt>
      <trkpt lat="45.25126" lon="4.29752">
        <ele>858.59</ele>
        <time>2011-10-08T06:55:03Z</time>
      </trkpt>
      <trkpt lat="45.2512" lon="4.2975">
        <ele>858.11</ele>
        <time>2011-10-08T06:55:04Z</time>
      </trkpt>
      <trkpt lat="45.25113" lon="4.2975">
        <ele>857.63</ele>
        <time>2011-10-08T06:55:05Z</time>
      </trkpt>
      <trkpt lat="45.25107" lon="4.29748">
        <ele>857.15</ele>
        <time>2011-10-08T06:55:06Z</time>
      </trkpt>
      <trkpt lat="45.25098" lon="4.29745">
        <ele>856.67</ele>
        <time>2011-10-08T06:55:07Z</time>
      </trkpt>
      <trkpt lat="45.25091" lon="4.29741">
        <ele>856.19</ele>
        <time>2011-10-08T06:55:08Z</time>
      </trkpt>
      <trkpt lat="45.25082" lon="4.29736">
        <ele>855.23</ele>
        <time>2011-10-08T06:55:09Z</time>
      </trkpt>
      <trkpt lat="45.25074" lon="4.29732">
        <ele>854.75</ele>
        <time>2011-10-08T06:55:10Z</time>
      </trkpt>
      <trkpt lat="45.25066" lon="4.29729">
        <ele>853.79</ele>
        <time>2011-10-08T06:55:11Z</time>
      </trkpt>
      <trkpt lat="45.25025" lon="4.29707">
        <ele>846.58</ele>
        <time>2011-10-08T06:55:18Z</time>
      </trkpt>
      <trkpt lat="45.25001" lon="4.29683">
        <ele>842.25</ele>
        <time>2011-10-08T06:55:23Z</time>
      </trkpt>
      <trkpt lat="45.24975" lon="4.2967">
        <ele>838.41</ele>
        <time>2011-10-08T06:55:27Z</time>
      </trkpt>
      <trkpt lat="45.24965" lon="4.29669">
        <ele>837.45</ele>
        <time>2011-10-08T06:55:28Z</time>
      </trkpt>
      <trkpt lat="45.24955" lon="4.29665">
        <ele>837.45</ele>
        <time>2011-10-08T06:55:29Z</time>
      </trkpt>
      <trkpt lat="45.24946" lon="4.29662">
        <ele>836.96</ele>
        <time>2011-10-08T06:55:30Z</time>
      </trkpt>
      <trkpt lat="45.2493" lon="4.2966">
        <ele>835.52</ele>
        <time>2011-10-08T06:55:31Z</time>
      </trkpt>
      <trkpt lat="45.24922" lon="4.29657">
        <ele>835.04</ele>
        <time>2011-10-08T06:55:32Z</time>
      </trkpt>
      <trkpt lat="45.24916" lon="4.29655">
        <ele>834.56</ele>
        <time>2011-10-08T06:55:33Z</time>
      </trkpt>
      <trkpt lat="45.24909" lon="4.29652">
        <ele>835.04</ele>
        <time>2011-10-08T06:55:34Z</time>
      </trkpt>
      <trkpt lat="45.24903" lon="4.29649">
        <ele>836.48</ele>
        <time>2011-10-08T06:55:35Z</time>
      </trkpt>
      <trkpt lat="45.24897" lon="4.29645">
        <ele>838.41</ele>
        <time>2011-10-08T06:55:36Z</time>
      </trkpt>
      <trkpt lat="45.24892" lon="4.29642">
        <ele>839.37</ele>
        <time>2011-10-08T06:55:37Z</time>
      </trkpt>
      <trkpt lat="45.24885" lon="4.29637">
        <ele>842.73</ele>
        <time>2011-10-08T06:55:38Z</time>
      </trkpt>
      <trkpt lat="45.24877" lon="4.29632">
        <ele>846.58</ele>
        <time>2011-10-08T06:55:39Z</time>
      </trkpt>
      <trkpt lat="45.24872" lon="4.29627">
        <ele>849.46</ele>
        <time>2011-10-08T06:55:40Z</time>
      </trkpt>
      <trkpt lat="45.24863" lon="4.2962">
        <ele>856.19</ele>
        <time>2011-10-08T06:55:41Z</time>
      </trkpt>
      <trkpt lat="45.2486" lon="4.29614">
        <ele>857.63</ele>
        <time>2011-10-08T06:55:42Z</time>
      </trkpt>
      <trkpt lat="45.24856" lon="4.29609">
        <ele>859.56</ele>
        <time>2011-10-08T06:55:43Z</time>
      </trkpt>
      <trkpt lat="45.24852" lon="4.29605">
        <ele>861</ele>
        <time>2011-10-08T06:55:44Z</time>
      </trkpt>
      <trkpt lat="45.24848" lon="4.29601">
        <ele>863.4</ele>
        <time>2011-10-08T06:55:45Z</time>
      </trkpt>
      <trkpt lat="45.24844" lon="4.29596">
        <ele>865.32</ele>
        <time>2011-10-08T06:55:46Z</time>
      </trkpt>
      <trkpt lat="45.2484" lon="4.2959">
        <ele>867.25</ele>
        <time>2011-10-08T06:55:47Z</time>
      </trkpt>
      <trkpt lat="45.24837" lon="4.29585">
        <ele>868.21</ele>
        <time>2011-10-08T06:55:48Z</time>
      </trkpt>
      <trkpt lat="45.24827" lon="4.2956">
        <ele>871.09</ele>
        <time>2011-10-08T06:55:52Z</time>
      </trkpt>
      <trkpt lat="45.24824" lon="4.29554">
        <ele>872.05</ele>
        <time>2011-10-08T06:55:53Z</time>
      </trkpt>
      <trkpt lat="45.24822" lon="4.29549">
        <ele>872.53</ele>
        <time>2011-10-08T06:55:54Z</time>
      </trkpt>
      <trkpt lat="45.24819" lon="4.29544">
        <ele>873.01</ele>
        <time>2011-10-08T06:55:55Z</time>
      </trkpt>
      <trkpt lat="45.24817" lon="4.29539">
        <ele>873.5</ele>
        <time>2011-10-08T06:55:56Z</time>
      </trkpt>
      <trkpt lat="45.24815" lon="4.29534">
        <ele>873.98</ele>
        <time>2011-10-08T06:55:57Z</time>
      </trkpt>
      <trkpt lat="45.24812" lon="4.2953">
        <ele>873.98</ele>
        <time>2011-10-08T06:55:58Z</time>
      </trkpt>
      <trkpt lat="45.2481" lon="4.29525">
        <ele>873.98</ele>
        <time>2011-10-08T06:55:59Z</time>
      </trkpt>
      <trkpt lat="45.24762" lon="4.29457">
        <ele>873.98</ele>
        <time>2011-10-08T06:56:12Z</time>
      </trkpt>
      <trkpt lat="45.24752" lon="4.29447">
        <ele>873.5</ele>
        <time>2011-10-08T06:56:14Z</time>
      </trkpt>
      <trkpt lat="45.24747" lon="4.29442">
        <ele>873.01</ele>
        <time>2011-10-08T06:56:15Z</time>
      </trkpt>
      <trkpt lat="45.24731" lon="4.29426">
        <ele>872.05</ele>
        <time>2011-10-08T06:56:18Z</time>
      </trkpt>
      <trkpt lat="45.24683" lon="4.29377">
        <ele>868.21</ele>
        <time>2011-10-08T06:56:26Z</time>
      </trkpt>
      <trkpt lat="45.24678" lon="4.2937">
        <ele>867.73</ele>
        <time>2011-10-08T06:56:27Z</time>
      </trkpt>
      <trkpt lat="45.24675" lon="4.29362">
        <ele>866.77</ele>
        <time>2011-10-08T06:56:28Z</time>
      </trkpt>
      <trkpt lat="45.24654" lon="4.29297">
        <ele>861</ele>
        <time>2011-10-08T06:56:35Z</time>
      </trkpt>
      <trkpt lat="45.2465" lon="4.29287">
        <ele>860.52</ele>
        <time>2011-10-08T06:56:36Z</time>
      </trkpt>
      <trkpt lat="45.24608" lon="4.29168">
        <ele>853.31</ele>
        <time>2011-10-08T06:56:47Z</time>
      </trkpt>
      <trkpt lat="45.24605" lon="4.29158">
        <ele>852.83</ele>
        <time>2011-10-08T06:56:48Z</time>
      </trkpt>
      <trkpt lat="45.24602" lon="4.29148">
        <ele>851.87</ele>
        <time>2011-10-08T06:56:49Z</time>
      </trkpt>
      <trkpt lat="45.246" lon="4.29139">
        <ele>851.38</ele>
        <time>2011-10-08T06:56:50Z</time>
      </trkpt>
      <trkpt lat="45.24599" lon="4.29132">
        <ele>850.9</ele>
        <time>2011-10-08T06:56:51Z</time>
      </trkpt>
      <trkpt lat="45.24598" lon="4.29123">
        <ele>850.42</ele>
        <time>2011-10-08T06:56:52Z</time>
      </trkpt>
      <trkpt lat="45.24593" lon="4.29069">
        <ele>846.1</ele>
        <time>2011-10-08T06:56:57Z</time>
      </trkpt>
      <trkpt lat="45.24591" lon="4.29057">
        <ele>845.62</ele>
        <time>2011-10-08T06:56:58Z</time>
      </trkpt>
      <trkpt lat="45.24587" lon="4.29045">
        <ele>844.66</ele>
        <time>2011-10-08T06:56:59Z</time>
      </trkpt>
      <trkpt lat="45.24582" lon="4.29035">
        <ele>844.18</ele>
        <time>2011-10-08T06:57:00Z</time>
      </trkpt>
      <trkpt lat="45.24576" lon="4.29025">
        <ele>843.69</ele>
        <time>2011-10-08T06:57:01Z</time>
      </trkpt>
      <trkpt lat="45.24527" lon="4.28949">
        <ele>841.29</ele>
        <time>2011-10-08T06:57:11Z</time>
      </trkpt>
      <trkpt lat="45.24516" lon="4.28938">
        <ele>841.29</ele>
        <time>2011-10-08T06:57:13Z</time>
      </trkpt>
      <trkpt lat="45.2451" lon="4.28937">
        <ele>840.81</ele>
        <time>2011-10-08T06:57:14Z</time>
      </trkpt>
      <trkpt lat="45.24505" lon="4.28939">
        <ele>840.33</ele>
        <time>2011-10-08T06:57:15Z</time>
      </trkpt>
      <trkpt lat="45.24493" lon="4.28943">
        <ele>839.85</ele>
        <time>2011-10-08T06:57:17Z</time>
      </trkpt>
      <trkpt lat="45.24487" lon="4.28943">
        <ele>839.37</ele>
        <time>2011-10-08T06:57:18Z</time>
      </trkpt>
      <trkpt lat="45.24481" lon="4.28943">
        <ele>838.89</ele>
        <time>2011-10-08T06:57:19Z</time>
      </trkpt>
      <trkpt lat="45.24475" lon="4.28945">
        <ele>837.93</ele>
        <time>2011-10-08T06:57:20Z</time>
      </trkpt>
      <trkpt lat="45.24471" lon="4.2895">
        <ele>837.93</ele>
        <time>2011-10-08T06:57:21Z</time>
      </trkpt>
      <trkpt lat="45.24467" lon="4.28958">
        <ele>837.45</ele>
        <time>2011-10-08T06:57:22Z</time>
      </trkpt>
      <trkpt lat="45.24464" lon="4.28968">
        <ele>837.45</ele>
        <time>2011-10-08T06:57:23Z</time>
      </trkpt>
      <trkpt lat="45.24462" lon="4.28979">
        <ele>836.96</ele>
        <time>2011-10-08T06:57:24Z</time>
      </trkpt>
      <trkpt lat="45.24454" lon="4.29012">
        <ele>836</ele>
        <time>2011-10-08T06:57:27Z</time>
      </trkpt>
      <trkpt lat="45.2445" lon="4.29022">
        <ele>835.52</ele>
        <time>2011-10-08T06:57:28Z</time>
      </trkpt>
      <trkpt lat="45.24445" lon="4.29031">
        <ele>835.04</ele>
        <time>2011-10-08T06:57:29Z</time>
      </trkpt>
      <trkpt lat="45.2441" lon="4.29081">
        <ele>834.56</ele>
        <time>2011-10-08T06:57:35Z</time>
      </trkpt>
      <trkpt lat="45.24385" lon="4.29102">
        <ele>833.12</ele>
        <time>2011-10-08T06:57:39Z</time>
      </trkpt>
      <trkpt lat="45.24379" lon="4.29102">
        <ele>832.64</ele>
        <time>2011-10-08T06:57:40Z</time>
      </trkpt>
      <trkpt lat="45.24373" lon="4.29099">
        <ele>832.16</ele>
        <time>2011-10-08T06:57:41Z</time>
      </trkpt>
      <trkpt lat="45.24367" lon="4.29095">
        <ele>832.16</ele>
        <time>2011-10-08T06:57:42Z</time>
      </trkpt>
      <trkpt lat="45.24361" lon="4.29089">
        <ele>831.68</ele>
        <time>2011-10-08T06:57:43Z</time>
      </trkpt>
      <trkpt lat="45.24327" lon="4.29062">
        <ele>829.76</ele>
        <time>2011-10-08T06:57:48Z</time>
      </trkpt>
      <trkpt lat="45.24318" lon="4.2906">
        <ele>828.79</ele>
        <time>2011-10-08T06:57:49Z</time>
      </trkpt>
      <trkpt lat="45.24308" lon="4.2906">
        <ele>827.83</ele>
        <time>2011-10-08T06:57:50Z</time>
      </trkpt>
      <trkpt lat="45.24298" lon="4.29063">
        <ele>827.35</ele>
        <time>2011-10-08T06:57:51Z</time>
      </trkpt>
      <trkpt lat="45.24288" lon="4.29068">
        <ele>826.39</ele>
        <time>2011-10-08T06:57:52Z</time>
      </trkpt>
      <trkpt lat="45.24268" lon="4.29077">
        <ele>824.47</ele>
        <time>2011-10-08T06:57:54Z</time>
      </trkpt>
      <trkpt lat="45.24257" lon="4.29079">
        <ele>823.51</ele>
        <time>2011-10-08T06:57:55Z</time>
      </trkpt>
      <trkpt lat="45.24211" lon="4.29083">
        <ele>819.18</ele>
        <time>2011-10-08T06:57:59Z</time>
      </trkpt>
      <trkpt lat="45.24199" lon="4.2908">
        <ele>818.22</ele>
        <time>2011-10-08T06:58:00Z</time>
      </trkpt>
      <trkpt lat="45.24187" lon="4.29075">
        <ele>817.26</ele>
        <time>2011-10-08T06:58:01Z</time>
      </trkpt>
      <trkpt lat="45.24153" lon="4.29059">
        <ele>814.85</ele>
        <time>2011-10-08T06:58:04Z</time>
      </trkpt>
      <trkpt lat="45.24131" lon="4.2905">
        <ele>812.93</ele>
        <time>2011-10-08T06:58:06Z</time>
      </trkpt>
      <trkpt lat="45.24119" lon="4.29043">
        <ele>811.97</ele>
        <time>2011-10-08T06:58:07Z</time>
      </trkpt>
      <trkpt lat="45.24108" lon="4.29034">
        <ele>810.53</ele>
        <time>2011-10-08T06:58:08Z</time>
      </trkpt>
      <trkpt lat="45.2409" lon="4.2902">
        <ele>808.61</ele>
        <time>2011-10-08T06:58:10Z</time>
      </trkpt>
      <trkpt lat="45.24081" lon="4.29018">
        <ele>807.64</ele>
        <time>2011-10-08T06:58:11Z</time>
      </trkpt>
      <trkpt lat="45.24071" lon="4.29019">
        <ele>806.68</ele>
        <time>2011-10-08T06:58:12Z</time>
      </trkpt>
      <trkpt lat="45.24061" lon="4.29024">
        <ele>806.2</ele>
        <time>2011-10-08T06:58:13Z</time>
      </trkpt>
      <trkpt lat="45.24053" lon="4.2903">
        <ele>805.72</ele>
        <time>2011-10-08T06:58:14Z</time>
      </trkpt>
      <trkpt lat="45.24044" lon="4.29037">
        <ele>805.24</ele>
        <time>2011-10-08T06:58:15Z</time>
      </trkpt>
      <trkpt lat="45.24035" lon="4.29042">
        <ele>805.24</ele>
        <time>2011-10-08T06:58:16Z</time>
      </trkpt>
      <trkpt lat="45.24027" lon="4.29046">
        <ele>805.24</ele>
        <time>2011-10-08T06:58:17Z</time>
      </trkpt>
      <trkpt lat="45.24005" lon="4.29049">
        <ele>803.8</ele>
        <time>2011-10-08T06:58:20Z</time>
      </trkpt>
      <trkpt lat="45.23998" lon="4.29049">
        <ele>803.32</ele>
        <time>2011-10-08T06:58:21Z</time>
      </trkpt>
      <trkpt lat="45.2391" lon="4.29044">
        <ele>798.51</ele>
        <time>2011-10-08T06:58:31Z</time>
      </trkpt>
      <trkpt lat="45.23891" lon="4.29041">
        <ele>797.55</ele>
        <time>2011-10-08T06:58:33Z</time>
      </trkpt>
      <trkpt lat="45.23881" lon="4.2904">
        <ele>797.07</ele>
        <time>2011-10-08T06:58:34Z</time>
      </trkpt>
      <trkpt lat="45.23793" lon="4.29031">
        <ele>795.63</ele>
        <time>2011-10-08T06:58:44Z</time>
      </trkpt>
      <trkpt lat="45.23787" lon="4.29029">
        <ele>795.63</ele>
        <time>2011-10-08T06:58:45Z</time>
      </trkpt>
      <trkpt lat="45.23765" lon="4.29028">
        <ele>796.59</ele>
        <time>2011-10-08T06:58:49Z</time>
      </trkpt>
      <trkpt lat="45.23756" lon="4.29029">
        <ele>797.07</ele>
        <time>2011-10-08T06:58:51Z</time>
      </trkpt>
      <trkpt lat="45.23708" lon="4.29039">
        <ele>801.4</ele>
        <time>2011-10-08T06:59:06Z</time>
      </trkpt>
      <trkpt lat="45.23684" lon="4.29042">
        <ele>804.28</ele>
        <time>2011-10-08T06:59:17Z</time>
      </trkpt>
      <trkpt lat="45.23665" lon="4.29048">
        <ele>809.09</ele>
        <time>2011-10-08T06:59:28Z</time>
      </trkpt>
      <trkpt lat="45.23664" lon="4.29049">
        <ele>809.57</ele>
        <time>2011-10-08T06:59:29Z</time>
      </trkpt>
      <trkpt lat="45.23662" lon="4.2905">
        <ele>810.53</ele>
        <time>2011-10-08T06:59:30Z</time>
      </trkpt>
      <trkpt lat="45.2366" lon="4.29051">
        <ele>811.01</ele>
        <time>2011-10-08T06:59:31Z</time>
      </trkpt>
      <trkpt lat="45.23658" lon="4.29052">
        <ele>811.49</ele>
        <time>2011-10-08T06:59:32Z</time>
      </trkpt>
      <trkpt lat="45.23657" lon="4.29052">
        <ele>811.49</ele>
        <time>2011-10-08T06:59:33Z</time>
      </trkpt>
      <trkpt lat="45.23656" lon="4.29053">
        <ele>811.49</ele>
        <time>2011-10-08T06:59:34Z</time>
      </trkpt>
      <trkpt lat="45.23655" lon="4.29053">
        <ele>811.97</ele>
        <time>2011-10-08T06:59:35Z</time>
      </trkpt>
      <trkpt lat="45.23642" lon="4.29059">
        <ele>811.49</ele>
        <time>2011-10-08T06:59:44Z</time>
      </trkpt>
      <trkpt lat="45.2364" lon="4.29058">
        <ele>811.49</ele>
        <time>2011-10-08T06:59:45Z</time>
      </trkpt>
      <trkpt lat="45.23624" lon="4.29033">
        <ele>811.49</ele>
        <time>2011-10-08T06:59:57Z</time>
      </trkpt>
      <trkpt lat="45.23615" lon="4.29025">
        <ele>811.49</ele>
        <time>2011-10-08T07:00:03Z</time>
      </trkpt>
      <trkpt lat="45.23613" lon="4.29024">
        <ele>811.49</ele>
        <time>2011-10-08T07:00:04Z</time>
      </trkpt>
      <trkpt lat="45.23586" lon="4.2901">
        <ele>810.05</ele>
        <time>2011-10-08T07:00:16Z</time>
      </trkpt>
      <trkpt lat="45.23558" lon="4.28987">
        <ele>810.53</ele>
        <time>2011-10-08T07:00:29Z</time>
      </trkpt>
      <trkpt lat="45.23535" lon="4.2897">
        <ele>811.01</ele>
        <time>2011-10-08T07:00:39Z</time>
      </trkpt>
      <trkpt lat="45.23511" lon="4.28946">
        <ele>814.37</ele>
        <time>2011-10-08T07:00:52Z</time>
      </trkpt>
      <trkpt lat="45.23491" lon="4.28929">
        <ele>819.18</ele>
        <time>2011-10-08T07:01:03Z</time>
      </trkpt>
      <trkpt lat="45.23489" lon="4.28927">
        <ele>819.66</ele>
        <time>2011-10-08T07:01:04Z</time>
      </trkpt>
      <trkpt lat="45.23485" lon="4.2892">
        <ele>819.18</ele>
        <time>2011-10-08T07:01:07Z</time>
      </trkpt>
      <trkpt lat="45.23484" lon="4.28917">
        <ele>819.18</ele>
        <time>2011-10-08T07:01:08Z</time>
      </trkpt>
      <trkpt lat="45.23483" lon="4.28914">
        <ele>819.18</ele>
        <time>2011-10-08T07:01:09Z</time>
      </trkpt>
      <trkpt lat="45.23468" lon="4.28873">
        <ele>824.95</ele>
        <time>2011-10-08T07:01:22Z</time>
      </trkpt>
      <trkpt lat="45.23467" lon="4.28871">
        <ele>824.95</ele>
        <time>2011-10-08T07:01:23Z</time>
      </trkpt>
      <trkpt lat="45.23465" lon="4.28869">
        <ele>825.43</ele>
        <time>2011-10-08T07:01:24Z</time>
      </trkpt>
      <trkpt lat="45.23464" lon="4.28867">
        <ele>825.43</ele>
        <time>2011-10-08T07:01:25Z</time>
      </trkpt>
      <trkpt lat="45.23462" lon="4.28865">
        <ele>825.43</ele>
        <time>2011-10-08T07:01:26Z</time>
      </trkpt>
      <trkpt lat="45.2344" lon="4.28845">
        <ele>827.83</ele>
        <time>2011-10-08T07:01:39Z</time>
      </trkpt>
      <trkpt lat="45.2342" lon="4.2882">
        <ele>832.64</ele>
        <time>2011-10-08T07:01:53Z</time>
      </trkpt>
      <trkpt lat="45.23405" lon="4.28792">
        <ele>835.04</ele>
        <time>2011-10-08T07:02:05Z</time>
      </trkpt>
      <trkpt lat="45.23404" lon="4.2879">
        <ele>835.04</ele>
        <time>2011-10-08T07:02:06Z</time>
      </trkpt>
      <trkpt lat="45.23402" lon="4.28788">
        <ele>835.52</ele>
        <time>2011-10-08T07:02:07Z</time>
      </trkpt>
      <trkpt lat="45.234" lon="4.28786">
        <ele>835.52</ele>
        <time>2011-10-08T07:02:08Z</time>
      </trkpt>
      <trkpt lat="45.23399" lon="4.28784">
        <ele>835.52</ele>
        <time>2011-10-08T07:02:09Z</time>
      </trkpt>
      <trkpt lat="45.23398" lon="4.28782">
        <ele>836</ele>
        <time>2011-10-08T07:02:10Z</time>
      </trkpt>
      <trkpt lat="45.23396" lon="4.2878">
        <ele>836</ele>
        <time>2011-10-08T07:02:11Z</time>
      </trkpt>
      <trkpt lat="45.2339" lon="4.28769">
        <ele>838.41</ele>
        <time>2011-10-08T07:02:19Z</time>
      </trkpt>
      <trkpt lat="45.23388" lon="4.28767">
        <ele>838.41</ele>
        <time>2011-10-08T07:02:20Z</time>
      </trkpt>
      <trkpt lat="45.23387" lon="4.28766">
        <ele>838.89</ele>
        <time>2011-10-08T07:02:21Z</time>
      </trkpt>
      <trkpt lat="45.23382" lon="4.28758">
        <ele>839.85</ele>
        <time>2011-10-08T07:02:26Z</time>
      </trkpt>
      <trkpt lat="45.2338" lon="4.28757">
        <ele>839.85</ele>
        <time>2011-10-08T07:02:27Z</time>
      </trkpt>
      <trkpt lat="45.2337" lon="4.28746">
        <ele>839.85</ele>
        <time>2011-10-08T07:02:33Z</time>
      </trkpt>
      <trkpt lat="45.23369" lon="4.28744">
        <ele>839.85</ele>
        <time>2011-10-08T07:02:34Z</time>
      </trkpt>
      <trkpt lat="45.23367" lon="4.28742">
        <ele>840.33</ele>
        <time>2011-10-08T07:02:35Z</time>
      </trkpt>
      <trkpt lat="45.23343" lon="4.28714">
        <ele>839.37</ele>
        <time>2011-10-08T07:02:48Z</time>
      </trkpt>
      <trkpt lat="45.23312" lon="4.28682">
        <ele>840.33</ele>
        <time>2011-10-08T07:03:02Z</time>
      </trkpt>
      <trkpt lat="45.23281" lon="4.28652">
        <ele>840.81</ele>
        <time>2011-10-08T07:03:14Z</time>
      </trkpt>
      <trkpt lat="45.23263" lon="4.2863">
        <ele>840.33</ele>
        <time>2011-10-08T07:03:20Z</time>
      </trkpt>
      <trkpt lat="45.23259" lon="4.28627">
        <ele>840.33</ele>
        <time>2011-10-08T07:03:21Z</time>
      </trkpt>
      <trkpt lat="45.23243" lon="4.28609">
        <ele>840.81</ele>
        <time>2011-10-08T07:03:26Z</time>
      </trkpt>
      <trkpt lat="45.2324" lon="4.28605">
        <ele>841.29</ele>
        <time>2011-10-08T07:03:27Z</time>
      </trkpt>
      <trkpt lat="45.23237" lon="4.28603">
        <ele>841.29</ele>
        <time>2011-10-08T07:03:28Z</time>
      </trkpt>
      <trkpt lat="45.23188" lon="4.28566">
        <ele>845.14</ele>
        <time>2011-10-08T07:03:42Z</time>
      </trkpt>
      <trkpt lat="45.23185" lon="4.28562">
        <ele>845.14</ele>
        <time>2011-10-08T07:03:43Z</time>
      </trkpt>
      <trkpt lat="45.23183" lon="4.28557">
        <ele>845.62</ele>
        <time>2011-10-08T07:03:44Z</time>
      </trkpt>
      <trkpt lat="45.23182" lon="4.28552">
        <ele>845.62</ele>
        <time>2011-10-08T07:03:45Z</time>
      </trkpt>
      <trkpt lat="45.23182" lon="4.28546">
        <ele>845.62</ele>
        <time>2011-10-08T07:03:46Z</time>
      </trkpt>
      <trkpt lat="45.23182" lon="4.28539">
        <ele>845.62</ele>
        <time>2011-10-08T07:03:47Z</time>
      </trkpt>
      <trkpt lat="45.23182" lon="4.28422">
        <ele>842.25</ele>
        <time>2011-10-08T07:04:00Z</time>
      </trkpt>
      <trkpt lat="45.23184" lon="4.28341">
        <ele>839.85</ele>
        <time>2011-10-08T07:04:09Z</time>
      </trkpt>
      <trkpt lat="45.23183" lon="4.28334">
        <ele>839.37</ele>
        <time>2011-10-08T07:04:10Z</time>
      </trkpt>
      <trkpt lat="45.23182" lon="4.28328">
        <ele>838.89</ele>
        <time>2011-10-08T07:04:11Z</time>
      </trkpt>
      <trkpt lat="45.2318" lon="4.28314">
        <ele>837.93</ele>
        <time>2011-10-08T07:04:14Z</time>
      </trkpt>
      <trkpt lat="45.23181" lon="4.28313">
        <ele>837.93</ele>
        <time>2011-10-08T07:04:15Z</time>
      </trkpt>
      <trkpt lat="45.23182" lon="4.28314">
        <ele>837.93</ele>
        <time>2011-10-08T07:04:16Z</time>
      </trkpt>
      <trkpt lat="45.23183" lon="4.28316">
        <ele>837.93</ele>
        <time>2011-10-08T07:04:17Z</time>
      </trkpt>
      <trkpt lat="45.23182" lon="4.28318">
        <ele>837.93</ele>
        <time>2011-10-08T07:04:18Z</time>
      </trkpt>
      <trkpt lat="45.2318" lon="4.28319">
        <ele>837.93</ele>
        <time>2011-10-08T07:04:19Z</time>
      </trkpt>
      <trkpt lat="45.23177" lon="4.28321">
        <ele>837.93</ele>
        <time>2011-10-08T07:04:20Z</time>
      </trkpt>
      <trkpt lat="45.23175" lon="4.28323">
        <ele>837.93</ele>
        <time>2011-10-08T07:04:21Z</time>
      </trkpt>
      <trkpt lat="45.23173" lon="4.28327">
        <ele>837.93</ele>
        <time>2011-10-08T07:04:22Z</time>
      </trkpt>
      <trkpt lat="45.2317" lon="4.2833">
        <ele>837.93</ele>
        <time>2011-10-08T07:04:23Z</time>
      </trkpt>
      <trkpt lat="45.23168" lon="4.28334">
        <ele>837.93</ele>
        <time>2011-10-08T07:04:24Z</time>
      </trkpt>
      <trkpt lat="45.23151" lon="4.28353">
        <ele>839.37</ele>
        <time>2011-10-08T07:04:29Z</time>
      </trkpt>
      <trkpt lat="45.23148" lon="4.28356">
        <ele>839.37</ele>
        <time>2011-10-08T07:04:30Z</time>
      </trkpt>
      <trkpt lat="45.23144" lon="4.2836">
        <ele>839.37</ele>
        <time>2011-10-08T07:04:31Z</time>
      </trkpt>
      <trkpt lat="45.23094" lon="4.28424">
        <ele>839.37</ele>
        <time>2011-10-08T07:04:43Z</time>
      </trkpt>
      <trkpt lat="45.23089" lon="4.28424">
        <ele>838.89</ele>
        <time>2011-10-08T07:04:44Z</time>
      </trkpt>
      <trkpt lat="45.23085" lon="4.28421">
        <ele>838.41</ele>
        <time>2011-10-08T07:04:45Z</time>
      </trkpt>
      <trkpt lat="45.23081" lon="4.28415">
        <ele>838.41</ele>
        <time>2011-10-08T07:04:46Z</time>
      </trkpt>
      <trkpt lat="45.23079" lon="4.28408">
        <ele>837.93</ele>
        <time>2011-10-08T07:04:47Z</time>
      </trkpt>
      <trkpt lat="45.23072" lon="4.28393">
        <ele>836.96</ele>
        <time>2011-10-08T07:04:49Z</time>
      </trkpt>
      <trkpt lat="45.23068" lon="4.28387">
        <ele>836.96</ele>
        <time>2011-10-08T07:04:50Z</time>
      </trkpt>
      <trkpt lat="45.23062" lon="4.28381">
        <ele>836.48</ele>
        <time>2011-10-08T07:04:51Z</time>
      </trkpt>
      <trkpt lat="45.23057" lon="4.28377">
        <ele>835.52</ele>
        <time>2011-10-08T07:04:52Z</time>
      </trkpt>
      <trkpt lat="45.2305" lon="4.28373">
        <ele>835.04</ele>
        <time>2011-10-08T07:04:53Z</time>
      </trkpt>
      <trkpt lat="45.23031" lon="4.28361">
        <ele>833.6</ele>
        <time>2011-10-08T07:04:56Z</time>
      </trkpt>
      <trkpt lat="45.23025" lon="4.28356">
        <ele>833.12</ele>
        <time>2011-10-08T07:04:57Z</time>
      </trkpt>
      <trkpt lat="45.23019" lon="4.2835">
        <ele>832.16</ele>
        <time>2011-10-08T07:04:58Z</time>
      </trkpt>
      <trkpt lat="45.23014" lon="4.28342">
        <ele>831.68</ele>
        <time>2011-10-08T07:04:59Z</time>
      </trkpt>
      <trkpt lat="45.23009" lon="4.28333">
        <ele>831.2</ele>
        <time>2011-10-08T07:05:00Z</time>
      </trkpt>
      <trkpt lat="45.23006" lon="4.28324">
        <ele>830.72</ele>
        <time>2011-10-08T07:05:01Z</time>
      </trkpt>
      <trkpt lat="45.23002" lon="4.28315">
        <ele>830.24</ele>
        <time>2011-10-08T07:05:02Z</time>
      </trkpt>
      <trkpt lat="45.22998" lon="4.28306">
        <ele>829.76</ele>
        <time>2011-10-08T07:05:03Z</time>
      </trkpt>
      <trkpt lat="45.2299" lon="4.28292">
        <ele>828.79</ele>
        <time>2011-10-08T07:05:05Z</time>
      </trkpt>
      <trkpt lat="45.22985" lon="4.28285">
        <ele>828.31</ele>
        <time>2011-10-08T07:05:06Z</time>
      </trkpt>
      <trkpt lat="45.2298" lon="4.28279">
        <ele>827.35</ele>
        <time>2011-10-08T07:05:07Z</time>
      </trkpt>
      <trkpt lat="45.22976" lon="4.28272">
        <ele>826.87</ele>
        <time>2011-10-08T07:05:08Z</time>
      </trkpt>
      <trkpt lat="45.22972" lon="4.28265">
        <ele>826.39</ele>
        <time>2011-10-08T07:05:09Z</time>
      </trkpt>
      <trkpt lat="45.2295" lon="4.28233">
        <ele>823.51</ele>
        <time>2011-10-08T07:05:14Z</time>
      </trkpt>
      <trkpt lat="45.22944" lon="4.28228">
        <ele>822.55</ele>
        <time>2011-10-08T07:05:15Z</time>
      </trkpt>
      <trkpt lat="45.22938" lon="4.28223">
        <ele>821.58</ele>
        <time>2011-10-08T07:05:16Z</time>
      </trkpt>
      <trkpt lat="45.2291" lon="4.28198">
        <ele>818.7</ele>
        <time>2011-10-08T07:05:21Z</time>
      </trkpt>
      <trkpt lat="45.22847" lon="4.28127">
        <ele>809.57</ele>
        <time>2011-10-08T07:05:33Z</time>
      </trkpt>
      <trkpt lat="45.22842" lon="4.28118">
        <ele>808.13</ele>
        <time>2011-10-08T07:05:34Z</time>
      </trkpt>
      <trkpt lat="45.22837" lon="4.28108">
        <ele>807.16</ele>
        <time>2011-10-08T07:05:35Z</time>
      </trkpt>
      <trkpt lat="45.2282" lon="4.28074">
        <ele>805.24</ele>
        <time>2011-10-08T07:05:39Z</time>
      </trkpt>
      <trkpt lat="45.22815" lon="4.28068">
        <ele>805.24</ele>
        <time>2011-10-08T07:05:40Z</time>
      </trkpt>
      <trkpt lat="45.22807" lon="4.28058">
        <ele>805.72</ele>
        <time>2011-10-08T07:05:42Z</time>
      </trkpt>
      <trkpt lat="45.22804" lon="4.28053">
        <ele>806.2</ele>
        <time>2011-10-08T07:05:43Z</time>
      </trkpt>
      <trkpt lat="45.22801" lon="4.28049">
        <ele>806.2</ele>
        <time>2011-10-08T07:05:44Z</time>
      </trkpt>
      <trkpt lat="45.22778" lon="4.28022">
        <ele>809.09</ele>
        <time>2011-10-08T07:05:56Z</time>
      </trkpt>
      <trkpt lat="45.2276" lon="4.28005">
        <ele>812.45</ele>
        <time>2011-10-08T07:06:09Z</time>
      </trkpt>
      <trkpt lat="45.22747" lon="4.27986">
        <ele>814.37</ele>
        <time>2011-10-08T07:06:20Z</time>
      </trkpt>
      <trkpt lat="45.22745" lon="4.27983">
        <ele>814.85</ele>
        <time>2011-10-08T07:06:22Z</time>
      </trkpt>
      <trkpt lat="45.22743" lon="4.2798">
        <ele>814.85</ele>
        <time>2011-10-08T07:06:24Z</time>
      </trkpt>
      <trkpt lat="45.22741" lon="4.27979">
        <ele>815.34</ele>
        <time>2011-10-08T07:06:25Z</time>
      </trkpt>
      <trkpt lat="45.22733" lon="4.27972">
        <ele>817.26</ele>
        <time>2011-10-08T07:06:31Z</time>
      </trkpt>
      <trkpt lat="45.22732" lon="4.27971">
        <ele>817.74</ele>
        <time>2011-10-08T07:06:32Z</time>
      </trkpt>
      <trkpt lat="45.22731" lon="4.27969">
        <ele>817.74</ele>
        <time>2011-10-08T07:06:33Z</time>
      </trkpt>
      <trkpt lat="45.22729" lon="4.27968">
        <ele>818.22</ele>
        <time>2011-10-08T07:06:34Z</time>
      </trkpt>
      <trkpt lat="45.22711" lon="4.27952">
        <ele>817.26</ele>
        <time>2011-10-08T07:06:47Z</time>
      </trkpt>
      <trkpt lat="45.22703" lon="4.27941">
        <ele>819.18</ele>
        <time>2011-10-08T07:06:55Z</time>
      </trkpt>
      <trkpt lat="45.22704" lon="4.27937">
        <ele>819.66</ele>
        <time>2011-10-08T07:06:57Z</time>
      </trkpt>
      <trkpt lat="45.22704" lon="4.27935">
        <ele>820.14</ele>
        <time>2011-10-08T07:06:58Z</time>
      </trkpt>
      <trkpt lat="45.22704" lon="4.27932">
        <ele>821.1</ele>
        <time>2011-10-08T07:06:59Z</time>
      </trkpt>
      <trkpt lat="45.22704" lon="4.27929">
        <ele>821.58</ele>
        <time>2011-10-08T07:07:00Z</time>
      </trkpt>
      <trkpt lat="45.22703" lon="4.27927">
        <ele>822.06</ele>
        <time>2011-10-08T07:07:01Z</time>
      </trkpt>
      <trkpt lat="45.22702" lon="4.27922">
        <ele>822.55</ele>
        <time>2011-10-08T07:07:03Z</time>
      </trkpt>
      <trkpt lat="45.22701" lon="4.27921">
        <ele>823.03</ele>
        <time>2011-10-08T07:07:04Z</time>
      </trkpt>
      <trkpt lat="45.227" lon="4.27918">
        <ele>823.99</ele>
        <time>2011-10-08T07:07:05Z</time>
      </trkpt>
      <trkpt lat="45.22699" lon="4.27915">
        <ele>824.47</ele>
        <time>2011-10-08T07:07:06Z</time>
      </trkpt>
      <trkpt lat="45.22697" lon="4.27913">
        <ele>824.95</ele>
        <time>2011-10-08T07:07:07Z</time>
      </trkpt>
      <trkpt lat="45.22696" lon="4.27911">
        <ele>824.95</ele>
        <time>2011-10-08T07:07:08Z</time>
      </trkpt>
      <trkpt lat="45.22695" lon="4.27909">
        <ele>825.43</ele>
        <time>2011-10-08T07:07:09Z</time>
      </trkpt>
      <trkpt lat="45.22694" lon="4.27908">
        <ele>825.43</ele>
        <time>2011-10-08T07:07:10Z</time>
      </trkpt>
      <trkpt lat="45.22692" lon="4.27907">
        <ele>825.91</ele>
        <time>2011-10-08T07:07:11Z</time>
      </trkpt>
      <trkpt lat="45.22691" lon="4.27906">
        <ele>825.91</ele>
        <time>2011-10-08T07:07:12Z</time>
      </trkpt>
      <trkpt lat="45.2269" lon="4.27904">
        <ele>826.39</ele>
        <time>2011-10-08T07:07:13Z</time>
      </trkpt>
      <trkpt lat="45.22688" lon="4.27903">
        <ele>826.87</ele>
        <time>2011-10-08T07:07:14Z</time>
      </trkpt>
      <trkpt lat="45.22687" lon="4.27901">
        <ele>827.83</ele>
        <time>2011-10-08T07:07:15Z</time>
      </trkpt>
      <trkpt lat="45.22685" lon="4.27899">
        <ele>828.79</ele>
        <time>2011-10-08T07:07:18Z</time>
      </trkpt>
      <trkpt lat="45.22683" lon="4.27898">
        <ele>829.27</ele>
        <time>2011-10-08T07:07:19Z</time>
      </trkpt>
      <trkpt lat="45.22682" lon="4.27896">
        <ele>829.27</ele>
        <time>2011-10-08T07:07:20Z</time>
      </trkpt>
      <trkpt lat="45.22681" lon="4.27895">
        <ele>829.27</ele>
        <time>2011-10-08T07:07:21Z</time>
      </trkpt>
      <trkpt lat="45.2268" lon="4.27894">
        <ele>830.24</ele>
        <time>2011-10-08T07:07:22Z</time>
      </trkpt>
      <trkpt lat="45.22679" lon="4.27892">
        <ele>830.72</ele>
        <time>2011-10-08T07:07:23Z</time>
      </trkpt>
      <trkpt lat="45.22675" lon="4.27886">
        <ele>832.16</ele>
        <time>2011-10-08T07:07:27Z</time>
      </trkpt>
      <trkpt lat="45.22655" lon="4.27872">
        <ele>833.12</ele>
        <time>2011-10-08T07:07:37Z</time>
      </trkpt>
      <trkpt lat="45.22627" lon="4.27835">
        <ele>836.48</ele>
        <time>2011-10-08T07:07:50Z</time>
      </trkpt>
      <trkpt lat="45.22616" lon="4.27803">
        <ele>838.41</ele>
        <time>2011-10-08T07:08:01Z</time>
      </trkpt>
      <trkpt lat="45.22609" lon="4.27763">
        <ele>839.85</ele>
        <time>2011-10-08T07:08:12Z</time>
      </trkpt>
      <trkpt lat="45.22609" lon="4.2776">
        <ele>839.85</ele>
        <time>2011-10-08T07:08:13Z</time>
      </trkpt>
      <trkpt lat="45.22608" lon="4.27752">
        <ele>840.81</ele>
        <time>2011-10-08T07:08:15Z</time>
      </trkpt>
      <trkpt lat="45.22608" lon="4.27749">
        <ele>841.29</ele>
        <time>2011-10-08T07:08:16Z</time>
      </trkpt>
      <trkpt lat="45.22608" lon="4.27745">
        <ele>841.77</ele>
        <time>2011-10-08T07:08:17Z</time>
      </trkpt>
      <trkpt lat="45.22608" lon="4.27742">
        <ele>842.25</ele>
        <time>2011-10-08T07:08:18Z</time>
      </trkpt>
      <trkpt lat="45.22608" lon="4.27738">
        <ele>842.73</ele>
        <time>2011-10-08T07:08:19Z</time>
      </trkpt>
      <trkpt lat="45.22607" lon="4.27734">
        <ele>843.21</ele>
        <time>2011-10-08T07:08:20Z</time>
      </trkpt>
      <trkpt lat="45.22606" lon="4.27731">
        <ele>843.69</ele>
        <time>2011-10-08T07:08:21Z</time>
      </trkpt>
      <trkpt lat="45.22601" lon="4.27716">
        <ele>844.18</ele>
        <time>2011-10-08T07:08:26Z</time>
      </trkpt>
      <trkpt lat="45.22602" lon="4.27711">
        <ele>845.14</ele>
        <time>2011-10-08T07:08:28Z</time>
      </trkpt>
      <trkpt lat="45.22601" lon="4.27709">
        <ele>845.62</ele>
        <time>2011-10-08T07:08:29Z</time>
      </trkpt>
      <trkpt lat="45.226" lon="4.27706">
        <ele>845.62</ele>
        <time>2011-10-08T07:08:30Z</time>
      </trkpt>
      <trkpt lat="45.22581" lon="4.27687">
        <ele>846.58</ele>
        <time>2011-10-08T07:08:38Z</time>
      </trkpt>
      <trkpt lat="45.22577" lon="4.27685">
        <ele>846.58</ele>
        <time>2011-10-08T07:08:39Z</time>
      </trkpt>
      <trkpt lat="45.22569" lon="4.27678">
        <ele>846.58</ele>
        <time>2011-10-08T07:08:42Z</time>
      </trkpt>
      <trkpt lat="45.22554" lon="4.27668">
        <ele>845.62</ele>
        <time>2011-10-08T07:08:46Z</time>
      </trkpt>
      <trkpt lat="45.2255" lon="4.27665">
        <ele>845.62</ele>
        <time>2011-10-08T07:08:47Z</time>
      </trkpt>
      <trkpt lat="45.22537" lon="4.27655">
        <ele>844.18</ele>
        <time>2011-10-08T07:08:50Z</time>
      </trkpt>
      <trkpt lat="45.22532" lon="4.27651">
        <ele>843.69</ele>
        <time>2011-10-08T07:08:51Z</time>
      </trkpt>
      <trkpt lat="45.22529" lon="4.27648">
        <ele>843.21</ele>
        <time>2011-10-08T07:08:52Z</time>
      </trkpt>
      <trkpt lat="45.22525" lon="4.27645">
        <ele>842.73</ele>
        <time>2011-10-08T07:08:53Z</time>
      </trkpt>
      <trkpt lat="45.22522" lon="4.27641">
        <ele>842.25</ele>
        <time>2011-10-08T07:08:54Z</time>
      </trkpt>
      <trkpt lat="45.22519" lon="4.27638">
        <ele>841.29</ele>
        <time>2011-10-08T07:08:55Z</time>
      </trkpt>
      <trkpt lat="45.22516" lon="4.27634">
        <ele>840.81</ele>
        <time>2011-10-08T07:08:56Z</time>
      </trkpt>
      <trkpt lat="45.22514" lon="4.27629">
        <ele>840.33</ele>
        <time>2011-10-08T07:08:57Z</time>
      </trkpt>
      <trkpt lat="45.22511" lon="4.27623">
        <ele>840.33</ele>
        <time>2011-10-08T07:08:58Z</time>
      </trkpt>
      <trkpt lat="45.22507" lon="4.27619">
        <ele>839.85</ele>
        <time>2011-10-08T07:08:59Z</time>
      </trkpt>
      <trkpt lat="45.22497" lon="4.2761">
        <ele>840.33</ele>
        <time>2011-10-08T07:09:01Z</time>
      </trkpt>
      <trkpt lat="45.22493" lon="4.27604">
        <ele>840.81</ele>
        <time>2011-10-08T07:09:02Z</time>
      </trkpt>
      <trkpt lat="45.22491" lon="4.276">
        <ele>841.29</ele>
        <time>2011-10-08T07:09:03Z</time>
      </trkpt>
      <trkpt lat="45.22489" lon="4.27595">
        <ele>841.29</ele>
        <time>2011-10-08T07:09:04Z</time>
      </trkpt>
      <trkpt lat="45.22486" lon="4.2759">
        <ele>841.29</ele>
        <time>2011-10-08T07:09:05Z</time>
      </trkpt>
      <trkpt lat="45.22484" lon="4.27585">
        <ele>841.77</ele>
        <time>2011-10-08T07:09:06Z</time>
      </trkpt>
      <trkpt lat="45.22481" lon="4.27579">
        <ele>841.29</ele>
        <time>2011-10-08T07:09:07Z</time>
      </trkpt>
      <trkpt lat="45.22477" lon="4.27569">
        <ele>841.29</ele>
        <time>2011-10-08T07:09:09Z</time>
      </trkpt>
      <trkpt lat="45.22457" lon="4.27531">
        <ele>841.77</ele>
        <time>2011-10-08T07:09:18Z</time>
      </trkpt>
      <trkpt lat="45.22455" lon="4.27527">
        <ele>842.25</ele>
        <time>2011-10-08T07:09:19Z</time>
      </trkpt>
      <trkpt lat="45.22453" lon="4.27522">
        <ele>842.73</ele>
        <time>2011-10-08T07:09:20Z</time>
      </trkpt>
      <trkpt lat="45.22451" lon="4.27518">
        <ele>842.73</ele>
        <time>2011-10-08T07:09:21Z</time>
      </trkpt>
      <trkpt lat="45.22449" lon="4.27513">
        <ele>843.21</ele>
        <time>2011-10-08T07:09:22Z</time>
      </trkpt>
      <trkpt lat="45.22447" lon="4.27509">
        <ele>843.21</ele>
        <time>2011-10-08T07:09:23Z</time>
      </trkpt>
      <trkpt lat="45.22445" lon="4.27504">
        <ele>843.69</ele>
        <time>2011-10-08T07:09:24Z</time>
      </trkpt>
      <trkpt lat="45.22442" lon="4.27499">
        <ele>843.69</ele>
        <time>2011-10-08T07:09:25Z</time>
      </trkpt>
      <trkpt lat="45.2244" lon="4.27495">
        <ele>844.18</ele>
        <time>2011-10-08T07:09:26Z</time>
      </trkpt>
      <trkpt lat="45.22439" lon="4.27492">
        <ele>844.18</ele>
        <time>2011-10-08T07:09:27Z</time>
      </trkpt>
      <trkpt lat="45.22437" lon="4.27489">
        <ele>844.18</ele>
        <time>2011-10-08T07:09:28Z</time>
      </trkpt>
      <trkpt lat="45.22436" lon="4.27485">
        <ele>844.18</ele>
        <time>2011-10-08T07:09:29Z</time>
      </trkpt>
      <trkpt lat="45.22433" lon="4.27481">
        <ele>844.66</ele>
        <time>2011-10-08T07:09:30Z</time>
      </trkpt>
      <trkpt lat="45.2243" lon="4.27476">
        <ele>845.14</ele>
        <time>2011-10-08T07:09:31Z</time>
      </trkpt>
      <trkpt lat="45.22428" lon="4.2747">
        <ele>845.62</ele>
        <time>2011-10-08T07:09:32Z</time>
      </trkpt>
      <trkpt lat="45.22426" lon="4.27465">
        <ele>845.14</ele>
        <time>2011-10-08T07:09:33Z</time>
      </trkpt>
      <trkpt lat="45.22411" lon="4.27426">
        <ele>844.18</ele>
        <time>2011-10-08T07:09:39Z</time>
      </trkpt>
      <trkpt lat="45.22391" lon="4.27383">
        <ele>843.69</ele>
        <time>2011-10-08T07:09:46Z</time>
      </trkpt>
      <trkpt lat="45.22388" lon="4.27376">
        <ele>843.69</ele>
        <time>2011-10-08T07:09:47Z</time>
      </trkpt>
      <trkpt lat="45.22385" lon="4.2737">
        <ele>843.69</ele>
        <time>2011-10-08T07:09:48Z</time>
      </trkpt>
      <trkpt lat="45.22382" lon="4.27363">
        <ele>843.21</ele>
        <time>2011-10-08T07:09:49Z</time>
      </trkpt>
      <trkpt lat="45.22379" lon="4.27356">
        <ele>843.21</ele>
        <time>2011-10-08T07:09:50Z</time>
      </trkpt>
      <trkpt lat="45.22377" lon="4.27348">
        <ele>843.21</ele>
        <time>2011-10-08T07:09:51Z</time>
      </trkpt>
      <trkpt lat="45.22374" lon="4.27341">
        <ele>842.73</ele>
        <time>2011-10-08T07:09:52Z</time>
      </trkpt>
      <trkpt lat="45.22371" lon="4.27334">
        <ele>842.73</ele>
        <time>2011-10-08T07:09:53Z</time>
      </trkpt>
      <trkpt lat="45.22368" lon="4.27327">
        <ele>842.25</ele>
        <time>2011-10-08T07:09:54Z</time>
      </trkpt>
      <trkpt lat="45.22365" lon="4.27319">
        <ele>842.25</ele>
        <time>2011-10-08T07:09:55Z</time>
      </trkpt>
      <trkpt lat="45.22362" lon="4.27311">
        <ele>841.77</ele>
        <time>2011-10-08T07:09:56Z</time>
      </trkpt>
      <trkpt lat="45.22347" lon="4.27265">
        <ele>840.33</ele>
        <time>2011-10-08T07:10:02Z</time>
      </trkpt>
      <trkpt lat="45.22343" lon="4.27259">
        <ele>839.85</ele>
        <time>2011-10-08T07:10:03Z</time>
      </trkpt>
      <trkpt lat="45.22333" lon="4.27248">
        <ele>838.89</ele>
        <time>2011-10-08T07:10:05Z</time>
      </trkpt>
      <trkpt lat="45.223" lon="4.272">
        <ele>835.04</ele>
        <time>2011-10-08T07:10:11Z</time>
      </trkpt>
      <trkpt lat="45.22287" lon="4.27187">
        <ele>834.08</ele>
        <time>2011-10-08T07:10:13Z</time>
      </trkpt>
      <trkpt lat="45.2228" lon="4.27182">
        <ele>833.6</ele>
        <time>2011-10-08T07:10:14Z</time>
      </trkpt>
      <trkpt lat="45.22225" lon="4.27136">
        <ele>834.56</ele>
        <time>2011-10-08T07:10:25Z</time>
      </trkpt>
      <trkpt lat="45.2218" lon="4.27101">
        <ele>836.48</ele>
        <time>2011-10-08T07:10:37Z</time>
      </trkpt>
      <trkpt lat="45.22176" lon="4.27099">
        <ele>836</ele>
        <time>2011-10-08T07:10:38Z</time>
      </trkpt>
      <trkpt lat="45.22168" lon="4.27093">
        <ele>835.04</ele>
        <time>2011-10-08T07:10:40Z</time>
      </trkpt>
      <trkpt lat="45.22147" lon="4.27073">
        <ele>832.64</ele>
        <time>2011-10-08T07:10:44Z</time>
      </trkpt>
      <trkpt lat="45.22131" lon="4.27057">
        <ele>830.72</ele>
        <time>2011-10-08T07:10:47Z</time>
      </trkpt>
      <trkpt lat="45.2212" lon="4.2705">
        <ele>829.76</ele>
        <time>2011-10-08T07:10:49Z</time>
      </trkpt>
      <trkpt lat="45.22114" lon="4.27048">
        <ele>829.27</ele>
        <time>2011-10-08T07:10:50Z</time>
      </trkpt>
      <trkpt lat="45.22109" lon="4.27047">
        <ele>829.27</ele>
        <time>2011-10-08T07:10:51Z</time>
      </trkpt>
      <trkpt lat="45.22095" lon="4.27044">
        <ele>828.79</ele>
        <time>2011-10-08T07:10:54Z</time>
      </trkpt>
      <trkpt lat="45.22065" lon="4.27027">
        <ele>827.83</ele>
        <time>2011-10-08T07:11:03Z</time>
      </trkpt>
      <trkpt lat="45.22028" lon="4.26992">
        <ele>828.79</ele>
        <time>2011-10-08T07:11:14Z</time>
      </trkpt>
      <trkpt lat="45.22006" lon="4.26967">
        <ele>827.83</ele>
        <time>2011-10-08T07:11:18Z</time>
      </trkpt>
      <trkpt lat="45.21981" lon="4.26937">
        <ele>825.43</ele>
        <time>2011-10-08T07:11:22Z</time>
      </trkpt>
      <trkpt lat="45.21971" lon="4.26925">
        <ele>824.47</ele>
        <time>2011-10-08T07:11:24Z</time>
      </trkpt>
      <trkpt lat="45.21969" lon="4.26921">
        <ele>823.99</ele>
        <time>2011-10-08T07:11:25Z</time>
      </trkpt>
      <trkpt lat="45.21967" lon="4.26915">
        <ele>822.55</ele>
        <time>2011-10-08T07:11:27Z</time>
      </trkpt>
      <trkpt lat="45.21968" lon="4.26912">
        <ele>821.58</ele>
        <time>2011-10-08T07:11:28Z</time>
      </trkpt>
      <trkpt lat="45.21968" lon="4.2691">
        <ele>821.1</ele>
        <time>2011-10-08T07:11:29Z</time>
      </trkpt>
      <trkpt lat="45.21972" lon="4.26909">
        <ele>818.22</ele>
        <time>2011-10-08T07:11:33Z</time>
      </trkpt>
      <trkpt lat="45.21975" lon="4.26907">
        <ele>817.26</ele>
        <time>2011-10-08T07:11:34Z</time>
      </trkpt>
      <trkpt lat="45.21977" lon="4.26904">
        <ele>816.78</ele>
        <time>2011-10-08T07:11:35Z</time>
      </trkpt>
      <trkpt lat="45.21979" lon="4.26901">
        <ele>815.82</ele>
        <time>2011-10-08T07:11:36Z</time>
      </trkpt>
      <trkpt lat="45.21981" lon="4.26898">
        <ele>815.82</ele>
        <time>2011-10-08T07:11:37Z</time>
      </trkpt>
      <trkpt lat="45.21984" lon="4.26895">
        <ele>815.82</ele>
        <time>2011-10-08T07:11:38Z</time>
      </trkpt>
      <trkpt lat="45.21997" lon="4.26889">
        <ele>816.78</ele>
        <time>2011-10-08T07:11:43Z</time>
      </trkpt>
      <trkpt lat="45.21999" lon="4.26888">
        <ele>817.26</ele>
        <time>2011-10-08T07:11:44Z</time>
      </trkpt>
      <trkpt lat="45.22028" lon="4.26878">
        <ele>822.55</ele>
        <time>2011-10-08T07:11:55Z</time>
      </trkpt>
      <trkpt lat="45.22041" lon="4.26876">
        <ele>825.43</ele>
        <time>2011-10-08T07:12:01Z</time>
      </trkpt>
      <trkpt lat="45.22043" lon="4.26876">
        <ele>825.43</ele>
        <time>2011-10-08T07:12:02Z</time>
      </trkpt>
      <trkpt lat="45.22046" lon="4.26875">
        <ele>825.91</ele>
        <time>2011-10-08T07:12:03Z</time>
      </trkpt>
      <trkpt lat="45.22049" lon="4.26876">
        <ele>826.39</ele>
        <time>2011-10-08T07:12:04Z</time>
      </trkpt>
      <trkpt lat="45.22052" lon="4.26876">
        <ele>826.87</ele>
        <time>2011-10-08T07:12:05Z</time>
      </trkpt>
      <trkpt lat="45.22055" lon="4.26876">
        <ele>826.87</ele>
        <time>2011-10-08T07:12:06Z</time>
      </trkpt>
      <trkpt lat="45.22094" lon="4.26873">
        <ele>825.43</ele>
        <time>2011-10-08T07:12:18Z</time>
      </trkpt>
      <trkpt lat="45.22115" lon="4.2687">
        <ele>825.91</ele>
        <time>2011-10-08T07:12:24Z</time>
      </trkpt>
      <trkpt lat="45.22118" lon="4.26868">
        <ele>825.43</ele>
        <time>2011-10-08T07:12:25Z</time>
      </trkpt>
      <trkpt lat="45.22121" lon="4.26867">
        <ele>825.91</ele>
        <time>2011-10-08T07:12:26Z</time>
      </trkpt>
      <trkpt lat="45.22124" lon="4.26865">
        <ele>825.91</ele>
        <time>2011-10-08T07:12:27Z</time>
      </trkpt>
      <trkpt lat="45.22126" lon="4.26864">
        <ele>825.91</ele>
        <time>2011-10-08T07:12:28Z</time>
      </trkpt>
      <trkpt lat="45.2216" lon="4.26848">
        <ele>828.79</ele>
        <time>2011-10-08T07:12:40Z</time>
      </trkpt>
      <trkpt lat="45.22193" lon="4.26844">
        <ele>834.08</ele>
        <time>2011-10-08T07:12:51Z</time>
      </trkpt>
      <trkpt lat="45.22217" lon="4.26845">
        <ele>834.56</ele>
        <time>2011-10-08T07:12:57Z</time>
      </trkpt>
      <trkpt lat="45.22221" lon="4.26844">
        <ele>834.56</ele>
        <time>2011-10-08T07:12:58Z</time>
      </trkpt>
      <trkpt lat="45.22248" lon="4.26839">
        <ele>835.52</ele>
        <time>2011-10-08T07:13:04Z</time>
      </trkpt>
      <trkpt lat="45.22252" lon="4.26838">
        <ele>835.52</ele>
        <time>2011-10-08T07:13:05Z</time>
      </trkpt>
      <trkpt lat="45.22284" lon="4.26828">
        <ele>836.48</ele>
        <time>2011-10-08T07:13:12Z</time>
      </trkpt>
      <trkpt lat="45.22288" lon="4.26826">
        <ele>836.96</ele>
        <time>2011-10-08T07:13:13Z</time>
      </trkpt>
      <trkpt lat="45.22293" lon="4.26823">
        <ele>836.48</ele>
        <time>2011-10-08T07:13:14Z</time>
      </trkpt>
      <trkpt lat="45.22297" lon="4.2682">
        <ele>836.48</ele>
        <time>2011-10-08T07:13:15Z</time>
      </trkpt>
      <trkpt lat="45.22301" lon="4.26817">
        <ele>836.48</ele>
        <time>2011-10-08T07:13:16Z</time>
      </trkpt>
      <trkpt lat="45.22323" lon="4.26802">
        <ele>836</ele>
        <time>2011-10-08T07:13:21Z</time>
      </trkpt>
      <trkpt lat="45.2233" lon="4.26795">
        <ele>836</ele>
        <time>2011-10-08T07:13:23Z</time>
      </trkpt>
      <trkpt lat="45.22333" lon="4.26791">
        <ele>836</ele>
        <time>2011-10-08T07:13:24Z</time>
      </trkpt>
      <trkpt lat="45.22336" lon="4.26785">
        <ele>836</ele>
        <time>2011-10-08T07:13:25Z</time>
      </trkpt>
      <trkpt lat="45.22339" lon="4.26779">
        <ele>836</ele>
        <time>2011-10-08T07:13:26Z</time>
      </trkpt>
      <trkpt lat="45.22341" lon="4.26772">
        <ele>835.52</ele>
        <time>2011-10-08T07:13:27Z</time>
      </trkpt>
      <trkpt lat="45.22343" lon="4.26764">
        <ele>835.04</ele>
        <time>2011-10-08T07:13:28Z</time>
      </trkpt>
      <trkpt lat="45.22346" lon="4.26756">
        <ele>834.56</ele>
        <time>2011-10-08T07:13:29Z</time>
      </trkpt>
      <trkpt lat="45.22348" lon="4.26746">
        <ele>833.6</ele>
        <time>2011-10-08T07:13:30Z</time>
      </trkpt>
      <trkpt lat="45.2235" lon="4.26737">
        <ele>833.6</ele>
        <time>2011-10-08T07:13:31Z</time>
      </trkpt>
      <trkpt lat="45.22374" lon="4.26598">
        <ele>824.47</ele>
        <time>2011-10-08T07:13:42Z</time>
      </trkpt>
      <trkpt lat="45.22382" lon="4.26546">
        <ele>823.03</ele>
        <time>2011-10-08T07:13:46Z</time>
      </trkpt>
      <trkpt lat="45.22382" lon="4.26537">
        <ele>822.55</ele>
        <time>2011-10-08T07:13:47Z</time>
      </trkpt>
      <trkpt lat="45.22381" lon="4.26531">
        <ele>822.55</ele>
        <time>2011-10-08T07:13:48Z</time>
      </trkpt>
      <trkpt lat="45.2238" lon="4.26528">
        <ele>822.06</ele>
        <time>2011-10-08T07:13:49Z</time>
      </trkpt>
      <trkpt lat="45.2238" lon="4.26527">
        <ele>821.58</ele>
        <time>2011-10-08T07:14:04Z</time>
      </trkpt>
      <trkpt lat="45.2238" lon="4.26526">
        <ele>822.06</ele>
        <time>2011-10-08T07:15:02Z</time>
      </trkpt>
      <trkpt lat="45.22378" lon="4.26527">
        <ele>822.06</ele>
        <time>2011-10-08T07:15:43Z</time>
      </trkpt>
      <trkpt lat="45.22376" lon="4.26526">
        <ele>822.06</ele>
        <time>2011-10-08T07:15:45Z</time>
      </trkpt>
      <trkpt lat="45.22375" lon="4.26525">
        <ele>822.55</ele>
        <time>2011-10-08T07:15:46Z</time>
      </trkpt>
      <trkpt lat="45.22373" lon="4.26525">
        <ele>822.55</ele>
        <time>2011-10-08T07:15:47Z</time>
      </trkpt>
      <trkpt lat="45.22372" lon="4.26523">
        <ele>823.03</ele>
        <time>2011-10-08T07:15:48Z</time>
      </trkpt>
      <trkpt lat="45.2237" lon="4.26522">
        <ele>823.03</ele>
        <time>2011-10-08T07:15:49Z</time>
      </trkpt>
      <trkpt lat="45.22368" lon="4.2652">
        <ele>823.03</ele>
        <time>2011-10-08T07:15:50Z</time>
      </trkpt>
      <trkpt lat="45.22366" lon="4.26518">
        <ele>823.03</ele>
        <time>2011-10-08T07:15:51Z</time>
      </trkpt>
      <trkpt lat="45.22363" lon="4.26517">
        <ele>823.03</ele>
        <time>2011-10-08T07:15:52Z</time>
      </trkpt>
      <trkpt lat="45.22346" lon="4.26511">
        <ele>823.03</ele>
        <time>2011-10-08T07:15:57Z</time>
      </trkpt>
      <trkpt lat="45.22341" lon="4.26511">
        <ele>823.03</ele>
        <time>2011-10-08T07:15:58Z</time>
      </trkpt>
      <trkpt lat="45.22317" lon="4.26513">
        <ele>822.55</ele>
        <time>2011-10-08T07:16:03Z</time>
      </trkpt>
      <trkpt lat="45.22307" lon="4.26517">
        <ele>821.58</ele>
        <time>2011-10-08T07:16:05Z</time>
      </trkpt>
      <trkpt lat="45.22301" lon="4.2652">
        <ele>821.1</ele>
        <time>2011-10-08T07:16:06Z</time>
      </trkpt>
      <trkpt lat="45.22296" lon="4.26521">
        <ele>820.62</ele>
        <time>2011-10-08T07:16:07Z</time>
      </trkpt>
      <trkpt lat="45.22291" lon="4.26521">
        <ele>820.62</ele>
        <time>2011-10-08T07:16:08Z</time>
      </trkpt>
      <trkpt lat="45.22285" lon="4.2652">
        <ele>820.14</ele>
        <time>2011-10-08T07:16:09Z</time>
      </trkpt>
      <trkpt lat="45.2228" lon="4.26518">
        <ele>820.14</ele>
        <time>2011-10-08T07:16:10Z</time>
      </trkpt>
      <trkpt lat="45.22275" lon="4.26514">
        <ele>819.66</ele>
        <time>2011-10-08T07:16:11Z</time>
      </trkpt>
      <trkpt lat="45.22271" lon="4.26509">
        <ele>819.18</ele>
        <time>2011-10-08T07:16:12Z</time>
      </trkpt>
      <trkpt lat="45.22267" lon="4.26501">
        <ele>818.7</ele>
        <time>2011-10-08T07:16:13Z</time>
      </trkpt>
      <trkpt lat="45.22265" lon="4.26492">
        <ele>818.22</ele>
        <time>2011-10-08T07:16:14Z</time>
      </trkpt>
      <trkpt lat="45.22263" lon="4.26483">
        <ele>818.22</ele>
        <time>2011-10-08T07:16:15Z</time>
      </trkpt>
      <trkpt lat="45.22256" lon="4.26443">
        <ele>817.26</ele>
        <time>2011-10-08T07:16:20Z</time>
      </trkpt>
      <trkpt lat="45.22258" lon="4.26435">
        <ele>817.26</ele>
        <time>2011-10-08T07:16:21Z</time>
      </trkpt>
      <trkpt lat="45.22261" lon="4.26428">
        <ele>816.78</ele>
        <time>2011-10-08T07:16:22Z</time>
      </trkpt>
      <trkpt lat="45.22264" lon="4.26421">
        <ele>816.3</ele>
        <time>2011-10-08T07:16:23Z</time>
      </trkpt>
      <trkpt lat="45.22268" lon="4.26415">
        <ele>815.34</ele>
        <time>2011-10-08T07:16:24Z</time>
      </trkpt>
      <trkpt lat="45.22271" lon="4.2641">
        <ele>814.85</ele>
        <time>2011-10-08T07:16:25Z</time>
      </trkpt>
      <trkpt lat="45.22275" lon="4.26405">
        <ele>814.37</ele>
        <time>2011-10-08T07:16:26Z</time>
      </trkpt>
      <trkpt lat="45.22308" lon="4.26357">
        <ele>810.05</ele>
        <time>2011-10-08T07:16:36Z</time>
      </trkpt>
      <trkpt lat="45.22311" lon="4.26352">
        <ele>809.57</ele>
        <time>2011-10-08T07:16:37Z</time>
      </trkpt>
      <trkpt lat="45.22317" lon="4.26341">
        <ele>808.61</ele>
        <time>2011-10-08T07:16:39Z</time>
      </trkpt>
      <trkpt lat="45.22319" lon="4.26335">
        <ele>807.64</ele>
        <time>2011-10-08T07:16:40Z</time>
      </trkpt>
      <trkpt lat="45.22319" lon="4.2633">
        <ele>807.16</ele>
        <time>2011-10-08T07:16:41Z</time>
      </trkpt>
      <trkpt lat="45.22319" lon="4.26325">
        <ele>807.16</ele>
        <time>2011-10-08T07:16:42Z</time>
      </trkpt>
      <trkpt lat="45.22317" lon="4.2632">
        <ele>806.68</ele>
        <time>2011-10-08T07:16:43Z</time>
      </trkpt>
      <trkpt lat="45.22315" lon="4.26315">
        <ele>806.2</ele>
        <time>2011-10-08T07:16:44Z</time>
      </trkpt>
      <trkpt lat="45.22312" lon="4.26311">
        <ele>806.2</ele>
        <time>2011-10-08T07:16:45Z</time>
      </trkpt>
      <trkpt lat="45.22309" lon="4.26306">
        <ele>805.72</ele>
        <time>2011-10-08T07:16:46Z</time>
      </trkpt>
      <trkpt lat="45.22305" lon="4.26301">
        <ele>805.72</ele>
        <time>2011-10-08T07:16:47Z</time>
      </trkpt>
      <trkpt lat="45.2229" lon="4.26274">
        <ele>803.8</ele>
        <time>2011-10-08T07:16:52Z</time>
      </trkpt>
      <trkpt lat="45.22288" lon="4.26268">
        <ele>803.8</ele>
        <time>2011-10-08T07:16:53Z</time>
      </trkpt>
      <trkpt lat="45.22287" lon="4.26263">
        <ele>803.32</ele>
        <time>2011-10-08T07:16:54Z</time>
      </trkpt>
      <trkpt lat="45.22285" lon="4.26259">
        <ele>803.32</ele>
        <time>2011-10-08T07:16:55Z</time>
      </trkpt>
      <trkpt lat="45.22283" lon="4.26255">
        <ele>802.84</ele>
        <time>2011-10-08T07:16:56Z</time>
      </trkpt>
      <trkpt lat="45.22282" lon="4.2625">
        <ele>802.36</ele>
        <time>2011-10-08T07:16:57Z</time>
      </trkpt>
      <trkpt lat="45.2228" lon="4.26244">
        <ele>801.4</ele>
        <time>2011-10-08T07:16:58Z</time>
      </trkpt>
      <trkpt lat="45.22279" lon="4.26238">
        <ele>800.92</ele>
        <time>2011-10-08T07:16:59Z</time>
      </trkpt>
      <trkpt lat="45.22278" lon="4.26232">
        <ele>799.95</ele>
        <time>2011-10-08T07:17:00Z</time>
      </trkpt>
      <trkpt lat="45.22267" lon="4.26191">
        <ele>794.19</ele>
        <time>2011-10-08T07:17:07Z</time>
      </trkpt>
      <trkpt lat="45.22261" lon="4.26177">
        <ele>791.3</ele>
        <time>2011-10-08T07:17:10Z</time>
      </trkpt>
      <trkpt lat="45.22259" lon="4.26172">
        <ele>790.82</ele>
        <time>2011-10-08T07:17:11Z</time>
      </trkpt>
      <trkpt lat="45.22257" lon="4.26168">
        <ele>789.86</ele>
        <time>2011-10-08T07:17:12Z</time>
      </trkpt>
      <trkpt lat="45.22255" lon="4.26165">
        <ele>789.38</ele>
        <time>2011-10-08T07:17:13Z</time>
      </trkpt>
      <trkpt lat="45.22254" lon="4.26162">
        <ele>788.42</ele>
        <time>2011-10-08T07:17:14Z</time>
      </trkpt>
      <trkpt lat="45.22253" lon="4.26158">
        <ele>787.94</ele>
        <time>2011-10-08T07:17:15Z</time>
      </trkpt>
      <trkpt lat="45.22252" lon="4.26155">
        <ele>786.98</ele>
        <time>2011-10-08T07:17:16Z</time>
      </trkpt>
      <trkpt lat="45.2225" lon="4.26151">
        <ele>786.5</ele>
        <time>2011-10-08T07:17:17Z</time>
      </trkpt>
      <trkpt lat="45.22248" lon="4.26146">
        <ele>785.53</ele>
        <time>2011-10-08T07:17:18Z</time>
      </trkpt>
      <trkpt lat="45.22245" lon="4.26137">
        <ele>784.09</ele>
        <time>2011-10-08T07:17:20Z</time>
      </trkpt>
      <trkpt lat="45.22241" lon="4.26117">
        <ele>782.65</ele>
        <time>2011-10-08T07:17:25Z</time>
      </trkpt>
      <trkpt lat="45.2224" lon="4.26114">
        <ele>782.17</ele>
        <time>2011-10-08T07:17:26Z</time>
      </trkpt>
      <trkpt lat="45.2224" lon="4.26111">
        <ele>782.17</ele>
        <time>2011-10-08T07:17:27Z</time>
      </trkpt>
      <trkpt lat="45.2224" lon="4.26109">
        <ele>781.69</ele>
        <time>2011-10-08T07:17:28Z</time>
      </trkpt>
      <trkpt lat="45.2224" lon="4.26106">
        <ele>781.69</ele>
        <time>2011-10-08T07:17:29Z</time>
      </trkpt>
      <trkpt lat="45.2224" lon="4.26102">
        <ele>781.21</ele>
        <time>2011-10-08T07:17:30Z</time>
      </trkpt>
      <trkpt lat="45.2224" lon="4.26098">
        <ele>780.73</ele>
        <time>2011-10-08T07:17:31Z</time>
      </trkpt>
      <trkpt lat="45.22235" lon="4.26056">
        <ele>777.84</ele>
        <time>2011-10-08T07:17:38Z</time>
      </trkpt>
      <trkpt lat="45.22232" lon="4.26051">
        <ele>777.36</ele>
        <time>2011-10-08T07:17:39Z</time>
      </trkpt>
      <trkpt lat="45.22229" lon="4.26047">
        <ele>776.88</ele>
        <time>2011-10-08T07:17:40Z</time>
      </trkpt>
      <trkpt lat="45.22222" lon="4.26038">
        <ele>775.92</ele>
        <time>2011-10-08T07:17:42Z</time>
      </trkpt>
      <trkpt lat="45.22193" lon="4.26013">
        <ele>770.63</ele>
        <time>2011-10-08T07:17:52Z</time>
      </trkpt>
      <trkpt lat="45.2219" lon="4.26011">
        <ele>770.15</ele>
        <time>2011-10-08T07:17:53Z</time>
      </trkpt>
      <trkpt lat="45.22187" lon="4.2601">
        <ele>769.67</ele>
        <time>2011-10-08T07:17:54Z</time>
      </trkpt>
      <trkpt lat="45.22185" lon="4.26008">
        <ele>769.19</ele>
        <time>2011-10-08T07:17:55Z</time>
      </trkpt>
      <trkpt lat="45.22182" lon="4.26006">
        <ele>768.23</ele>
        <time>2011-10-08T07:17:56Z</time>
      </trkpt>
      <trkpt lat="45.22179" lon="4.26002">
        <ele>767.75</ele>
        <time>2011-10-08T07:17:57Z</time>
      </trkpt>
      <trkpt lat="45.22175" lon="4.25998">
        <ele>767.27</ele>
        <time>2011-10-08T07:17:58Z</time>
      </trkpt>
      <trkpt lat="45.22171" lon="4.25994">
        <ele>766.79</ele>
        <time>2011-10-08T07:17:59Z</time>
      </trkpt>
      <trkpt lat="45.22169" lon="4.25991">
        <ele>766.31</ele>
        <time>2011-10-08T07:18:00Z</time>
      </trkpt>
      <trkpt lat="45.22166" lon="4.25987">
        <ele>765.83</ele>
        <time>2011-10-08T07:18:01Z</time>
      </trkpt>
      <trkpt lat="45.22159" lon="4.25964">
        <ele>762.94</ele>
        <time>2011-10-08T07:18:07Z</time>
      </trkpt>
      <trkpt lat="45.22156" lon="4.25962">
        <ele>761.5</ele>
        <time>2011-10-08T07:18:09Z</time>
      </trkpt>
      <trkpt lat="45.22154" lon="4.25962">
        <ele>760.54</ele>
        <time>2011-10-08T07:18:10Z</time>
      </trkpt>
      <trkpt lat="45.22153" lon="4.25962">
        <ele>760.06</ele>
        <time>2011-10-08T07:18:11Z</time>
      </trkpt>
      <trkpt lat="45.22149" lon="4.25973">
        <ele>756.21</ele>
        <time>2011-10-08T07:18:17Z</time>
      </trkpt>
      <trkpt lat="45.22145" lon="4.25978">
        <ele>754.77</ele>
        <time>2011-10-08T07:18:19Z</time>
      </trkpt>
      <trkpt lat="45.2213" lon="4.25992">
        <ele>749.49</ele>
        <time>2011-10-08T07:18:29Z</time>
      </trkpt>
      <trkpt lat="45.22116" lon="4.2596">
        <ele>744.68</ele>
        <time>2011-10-08T07:18:40Z</time>
      </trkpt>
      <trkpt lat="45.22116" lon="4.2596">
        <ele>744.68</ele>
        <time>2011-10-08T07:18:41Z</time>
      </trkpt>
      <trkpt lat="45.22105" lon="4.25947">
        <ele>742.28</ele>
        <time>2011-10-08T07:18:54Z</time>
      </trkpt>
      <trkpt lat="45.22095" lon="4.25955">
        <ele>737.47</ele>
        <time>2011-10-08T07:19:05Z</time>
      </trkpt>
      <trkpt lat="45.2209" lon="4.25974">
        <ele>731.7</ele>
        <time>2011-10-08T07:19:12Z</time>
      </trkpt>
      <trkpt lat="45.22084" lon="4.25998">
        <ele>729.78</ele>
        <time>2011-10-08T07:19:20Z</time>
      </trkpt>
      <trkpt lat="45.22076" lon="4.26004">
        <ele>728.82</ele>
        <time>2011-10-08T07:19:27Z</time>
      </trkpt>
      <trkpt lat="45.2206" lon="4.25983">
        <ele>722.09</ele>
        <time>2011-10-08T07:19:39Z</time>
      </trkpt>
      <trkpt lat="45.22054" lon="4.25971">
        <ele>717.76</ele>
        <time>2011-10-08T07:19:44Z</time>
      </trkpt>
      <trkpt lat="45.22031" lon="4.25955">
        <ele>709.11</ele>
        <time>2011-10-08T07:19:57Z</time>
      </trkpt>
      <trkpt lat="45.22025" lon="4.2595">
        <ele>707.19</ele>
        <time>2011-10-08T07:20:01Z</time>
      </trkpt>
      <trkpt lat="45.22014" lon="4.25942">
        <ele>703.34</ele>
        <time>2011-10-08T07:20:11Z</time>
      </trkpt>
      <trkpt lat="45.21995" lon="4.25915">
        <ele>699.02</ele>
        <time>2011-10-08T07:20:19Z</time>
      </trkpt>
      <trkpt lat="45.21993" lon="4.2591">
        <ele>699.02</ele>
        <time>2011-10-08T07:20:20Z</time>
      </trkpt>
      <trkpt lat="45.21984" lon="4.2587">
        <ele>698.53</ele>
        <time>2011-10-08T07:20:27Z</time>
      </trkpt>
      <trkpt lat="45.21994" lon="4.25852">
        <ele>696.13</ele>
        <time>2011-10-08T07:20:33Z</time>
      </trkpt>
      <trkpt lat="45.22025" lon="4.25849">
        <ele>692.29</ele>
        <time>2011-10-08T07:20:41Z</time>
      </trkpt>
      <trkpt lat="45.22035" lon="4.25845">
        <ele>691.33</ele>
        <time>2011-10-08T07:20:44Z</time>
      </trkpt>
      <trkpt lat="45.22035" lon="4.2583">
        <ele>689.4</ele>
        <time>2011-10-08T07:20:48Z</time>
      </trkpt>
      <trkpt lat="45.22032" lon="4.25818">
        <ele>689.4</ele>
        <time>2011-10-08T07:20:51Z</time>
      </trkpt>
      <trkpt lat="45.22027" lon="4.25811">
        <ele>688.92</ele>
        <time>2011-10-08T07:20:53Z</time>
      </trkpt>
      <trkpt lat="45.22011" lon="4.25791">
        <ele>688.92</ele>
        <time>2011-10-08T07:20:58Z</time>
      </trkpt>
      <trkpt lat="45.22003" lon="4.25764">
        <ele>688.44</ele>
        <time>2011-10-08T07:21:03Z</time>
      </trkpt>
      <trkpt lat="45.22008" lon="4.25733">
        <ele>687.96</ele>
        <time>2011-10-08T07:21:11Z</time>
      </trkpt>
      <trkpt lat="45.21998" lon="4.25716">
        <ele>687</ele>
        <time>2011-10-08T07:21:17Z</time>
      </trkpt>
      <trkpt lat="45.21995" lon="4.25713">
        <ele>687</ele>
        <time>2011-10-08T07:21:18Z</time>
      </trkpt>
      <trkpt lat="45.21974" lon="4.25682">
        <ele>685.08</ele>
        <time>2011-10-08T07:21:27Z</time>
      </trkpt>
      <trkpt lat="45.21955" lon="4.25647">
        <ele>684.12</ele>
        <time>2011-10-08T07:21:36Z</time>
      </trkpt>
      <trkpt lat="45.21946" lon="4.25638">
        <ele>683.15</ele>
        <time>2011-10-08T07:21:38Z</time>
      </trkpt>
      <trkpt lat="45.21931" lon="4.25616">
        <ele>681.23</ele>
        <time>2011-10-08T07:21:42Z</time>
      </trkpt>
      <trkpt lat="45.21919" lon="4.25587">
        <ele>676.91</ele>
        <time>2011-10-08T07:21:50Z</time>
      </trkpt>
      <trkpt lat="45.21914" lon="4.25577">
        <ele>675.46</ele>
        <time>2011-10-08T07:21:53Z</time>
      </trkpt>
      <trkpt lat="45.21901" lon="4.25554">
        <ele>673.06</ele>
        <time>2011-10-08T07:21:59Z</time>
      </trkpt>
      <trkpt lat="45.21894" lon="4.25533">
        <ele>667.77</ele>
        <time>2011-10-08T07:22:06Z</time>
      </trkpt>
      <trkpt lat="45.21894" lon="4.25506">
        <ele>663.93</ele>
        <time>2011-10-08T07:22:15Z</time>
      </trkpt>
      <trkpt lat="45.21892" lon="4.25492">
        <ele>663.93</ele>
        <time>2011-10-08T07:22:20Z</time>
      </trkpt>
      <trkpt lat="45.21881" lon="4.2546">
        <ele>663.93</ele>
        <time>2011-10-08T07:22:30Z</time>
      </trkpt>
      <trkpt lat="45.21868" lon="4.25417">
        <ele>662.97</ele>
        <time>2011-10-08T07:22:41Z</time>
      </trkpt>
      <trkpt lat="45.21867" lon="4.25409">
        <ele>663.45</ele>
        <time>2011-10-08T07:22:43Z</time>
      </trkpt>
      <trkpt lat="45.21867" lon="4.25387">
        <ele>665.85</ele>
        <time>2011-10-08T07:22:51Z</time>
      </trkpt>
      <trkpt lat="45.21863" lon="4.25374">
        <ele>667.29</ele>
        <time>2011-10-08T07:22:56Z</time>
      </trkpt>
      <trkpt lat="45.21848" lon="4.25345">
        <ele>666.33</ele>
        <time>2011-10-08T07:23:07Z</time>
      </trkpt>
      <trkpt lat="45.21843" lon="4.25338">
        <ele>665.85</ele>
        <time>2011-10-08T07:23:10Z</time>
      </trkpt>
      <trkpt lat="45.2184" lon="4.25299">
        <ele>666.33</ele>
        <time>2011-10-08T07:23:20Z</time>
      </trkpt>
      <trkpt lat="45.21838" lon="4.25272">
        <ele>665.85</ele>
        <time>2011-10-08T07:23:24Z</time>
      </trkpt>
      <trkpt lat="45.21839" lon="4.25266">
        <ele>665.85</ele>
        <time>2011-10-08T07:23:25Z</time>
      </trkpt>
      <trkpt lat="45.2184" lon="4.2526">
        <ele>665.85</ele>
        <time>2011-10-08T07:23:26Z</time>
      </trkpt>
      <trkpt lat="45.21845" lon="4.2525">
        <ele>665.85</ele>
        <time>2011-10-08T07:23:28Z</time>
      </trkpt>
      <trkpt lat="45.21847" lon="4.25245">
        <ele>665.37</ele>
        <time>2011-10-08T07:23:29Z</time>
      </trkpt>
      <trkpt lat="45.21849" lon="4.2524">
        <ele>664.89</ele>
        <time>2011-10-08T07:23:30Z</time>
      </trkpt>
      <trkpt lat="45.2186" lon="4.2521">
        <ele>663.45</ele>
        <time>2011-10-08T07:23:36Z</time>
      </trkpt>
      <trkpt lat="45.21861" lon="4.25204">
        <ele>662.97</ele>
        <time>2011-10-08T07:23:37Z</time>
      </trkpt>
      <trkpt lat="45.21861" lon="4.25199">
        <ele>662.49</ele>
        <time>2011-10-08T07:23:38Z</time>
      </trkpt>
      <trkpt lat="45.21862" lon="4.25193">
        <ele>662.01</ele>
        <time>2011-10-08T07:23:39Z</time>
      </trkpt>
      <trkpt lat="45.21863" lon="4.25187">
        <ele>661.52</ele>
        <time>2011-10-08T07:23:40Z</time>
      </trkpt>
      <trkpt lat="45.21864" lon="4.25181">
        <ele>661.04</ele>
        <time>2011-10-08T07:23:41Z</time>
      </trkpt>
      <trkpt lat="45.21865" lon="4.25175">
        <ele>660.08</ele>
        <time>2011-10-08T07:23:42Z</time>
      </trkpt>
      <trkpt lat="45.21873" lon="4.25143">
        <ele>657.68</ele>
        <time>2011-10-08T07:23:47Z</time>
      </trkpt>
      <trkpt lat="45.21876" lon="4.25138">
        <ele>657.2</ele>
        <time>2011-10-08T07:23:48Z</time>
      </trkpt>
      <trkpt lat="45.21881" lon="4.25126">
        <ele>655.28</ele>
        <time>2011-10-08T07:23:51Z</time>
      </trkpt>
      <trkpt lat="45.21879" lon="4.25122">
        <ele>654.31</ele>
        <time>2011-10-08T07:23:52Z</time>
      </trkpt>
      <trkpt lat="45.21879" lon="4.25118">
        <ele>653.35</ele>
        <time>2011-10-08T07:23:53Z</time>
      </trkpt>
      <trkpt lat="45.21879" lon="4.25115">
        <ele>653.35</ele>
        <time>2011-10-08T07:23:54Z</time>
      </trkpt>
      <trkpt lat="45.21879" lon="4.25112">
        <ele>652.87</ele>
        <time>2011-10-08T07:23:55Z</time>
      </trkpt>
      <trkpt lat="45.21879" lon="4.25109">
        <ele>652.39</ele>
        <time>2011-10-08T07:23:56Z</time>
      </trkpt>
      <trkpt lat="45.2188" lon="4.25106">
        <ele>652.39</ele>
        <time>2011-10-08T07:23:57Z</time>
      </trkpt>
      <trkpt lat="45.21881" lon="4.25102">
        <ele>651.91</ele>
        <time>2011-10-08T07:23:58Z</time>
      </trkpt>
      <trkpt lat="45.21881" lon="4.25097">
        <ele>651.91</ele>
        <time>2011-10-08T07:23:59Z</time>
      </trkpt>
      <trkpt lat="45.21882" lon="4.25092">
        <ele>651.91</ele>
        <time>2011-10-08T07:24:00Z</time>
      </trkpt>
      <trkpt lat="45.21882" lon="4.25088">
        <ele>651.43</ele>
        <time>2011-10-08T07:24:01Z</time>
      </trkpt>
      <trkpt lat="45.21883" lon="4.25084">
        <ele>651.43</ele>
        <time>2011-10-08T07:24:02Z</time>
      </trkpt>
      <trkpt lat="45.21883" lon="4.2504">
        <ele>649.99</ele>
        <time>2011-10-08T07:24:10Z</time>
      </trkpt>
      <trkpt lat="45.21882" lon="4.25033">
        <ele>649.03</ele>
        <time>2011-10-08T07:24:11Z</time>
      </trkpt>
      <trkpt lat="45.21881" lon="4.25027">
        <ele>649.03</ele>
        <time>2011-10-08T07:24:12Z</time>
      </trkpt>
      <trkpt lat="45.21877" lon="4.25016">
        <ele>649.03</ele>
        <time>2011-10-08T07:24:14Z</time>
      </trkpt>
      <trkpt lat="45.21875" lon="4.25009">
        <ele>649.03</ele>
        <time>2011-10-08T07:24:15Z</time>
      </trkpt>
      <trkpt lat="45.21874" lon="4.25001">
        <ele>649.51</ele>
        <time>2011-10-08T07:24:16Z</time>
      </trkpt>
      <trkpt lat="45.21873" lon="4.24986">
        <ele>648.55</ele>
        <time>2011-10-08T07:24:18Z</time>
      </trkpt>
      <trkpt lat="45.21871" lon="4.2498">
        <ele>648.55</ele>
        <time>2011-10-08T07:24:19Z</time>
      </trkpt>
      <trkpt lat="45.21869" lon="4.24974">
        <ele>648.55</ele>
        <time>2011-10-08T07:24:20Z</time>
      </trkpt>
      <trkpt lat="45.21867" lon="4.24969">
        <ele>648.55</ele>
        <time>2011-10-08T07:24:21Z</time>
      </trkpt>
      <trkpt lat="45.21865" lon="4.24964">
        <ele>648.55</ele>
        <time>2011-10-08T07:24:22Z</time>
      </trkpt>
      <trkpt lat="45.21854" lon="4.24907">
        <ele>648.55</ele>
        <time>2011-10-08T07:24:33Z</time>
      </trkpt>
      <trkpt lat="45.21854" lon="4.24898">
        <ele>648.55</ele>
        <time>2011-10-08T07:24:35Z</time>
      </trkpt>
      <trkpt lat="45.21855" lon="4.24894">
        <ele>648.07</ele>
        <time>2011-10-08T07:24:36Z</time>
      </trkpt>
      <trkpt lat="45.21855" lon="4.24889">
        <ele>647.59</ele>
        <time>2011-10-08T07:24:37Z</time>
      </trkpt>
      <trkpt lat="45.21853" lon="4.24886">
        <ele>647.59</ele>
        <time>2011-10-08T07:24:38Z</time>
      </trkpt>
      <trkpt lat="45.21849" lon="4.24884">
        <ele>647.59</ele>
        <time>2011-10-08T07:24:39Z</time>
      </trkpt>
      <trkpt lat="45.21845" lon="4.24883">
        <ele>648.07</ele>
        <time>2011-10-08T07:24:40Z</time>
      </trkpt>
      <trkpt lat="45.21843" lon="4.24883">
        <ele>648.07</ele>
        <time>2011-10-08T07:24:41Z</time>
      </trkpt>
      <trkpt lat="45.2184" lon="4.24881">
        <ele>648.55</ele>
        <time>2011-10-08T07:24:42Z</time>
      </trkpt>
      <trkpt lat="45.21838" lon="4.24876">
        <ele>648.07</ele>
        <time>2011-10-08T07:24:43Z</time>
      </trkpt>
      <trkpt lat="45.21834" lon="4.24871">
        <ele>648.07</ele>
        <time>2011-10-08T07:24:44Z</time>
      </trkpt>
      <trkpt lat="45.21831" lon="4.24866">
        <ele>648.07</ele>
        <time>2011-10-08T07:24:45Z</time>
      </trkpt>
      <trkpt lat="45.21824" lon="4.24854">
        <ele>649.51</ele>
        <time>2011-10-08T07:24:53Z</time>
      </trkpt>
      <trkpt lat="45.21824" lon="4.24849">
        <ele>650.47</ele>
        <time>2011-10-08T07:24:55Z</time>
      </trkpt>
      <trkpt lat="45.21824" lon="4.24838">
        <ele>653.35</ele>
        <time>2011-10-08T07:25:01Z</time>
      </trkpt>
      <trkpt lat="45.21825" lon="4.24835">
        <ele>654.8</ele>
        <time>2011-10-08T07:25:04Z</time>
      </trkpt>
      <trkpt lat="45.21836" lon="4.24831">
        <ele>660.56</ele>
        <time>2011-10-08T07:25:16Z</time>
      </trkpt>
      <trkpt lat="45.21839" lon="4.24826">
        <ele>661.04</ele>
        <time>2011-10-08T07:25:20Z</time>
      </trkpt>
      <trkpt lat="45.21841" lon="4.24812">
        <ele>663.93</ele>
        <time>2011-10-08T07:25:31Z</time>
      </trkpt>
      <trkpt lat="45.21836" lon="4.24803">
        <ele>665.85</ele>
        <time>2011-10-08T07:25:41Z</time>
      </trkpt>
      <trkpt lat="45.21835" lon="4.24801">
        <ele>666.33</ele>
        <time>2011-10-08T07:25:42Z</time>
      </trkpt>
      <trkpt lat="45.21827" lon="4.24785">
        <ele>667.29</ele>
        <time>2011-10-08T07:25:53Z</time>
      </trkpt>
      <trkpt lat="45.21815" lon="4.24768">
        <ele>667.29</ele>
        <time>2011-10-08T07:26:03Z</time>
      </trkpt>
      <trkpt lat="45.21814" lon="4.24766">
        <ele>666.81</ele>
        <time>2011-10-08T07:26:04Z</time>
      </trkpt>
      <trkpt lat="45.21813" lon="4.24765">
        <ele>666.33</ele>
        <time>2011-10-08T07:26:05Z</time>
      </trkpt>
      <trkpt lat="45.21803" lon="4.24757">
        <ele>664.89</ele>
        <time>2011-10-08T07:26:15Z</time>
      </trkpt>
      <trkpt lat="45.21793" lon="4.24759">
        <ele>664.89</ele>
        <time>2011-10-08T07:26:23Z</time>
      </trkpt>
      <trkpt lat="45.21791" lon="4.2476">
        <ele>664.89</ele>
        <time>2011-10-08T07:26:24Z</time>
      </trkpt>
      <trkpt lat="45.21789" lon="4.2476">
        <ele>664.89</ele>
        <time>2011-10-08T07:26:25Z</time>
      </trkpt>
      <trkpt lat="45.21786" lon="4.24761">
        <ele>664.89</ele>
        <time>2011-10-08T07:26:26Z</time>
      </trkpt>
      <trkpt lat="45.21782" lon="4.2476">
        <ele>665.85</ele>
        <time>2011-10-08T07:26:27Z</time>
      </trkpt>
      <trkpt lat="45.2178" lon="4.24759">
        <ele>666.33</ele>
        <time>2011-10-08T07:26:28Z</time>
      </trkpt>
      <trkpt lat="45.21772" lon="4.2476">
        <ele>668.73</ele>
        <time>2011-10-08T07:26:35Z</time>
      </trkpt>
      <trkpt lat="45.21762" lon="4.24762">
        <ele>669.7</ele>
        <time>2011-10-08T07:26:47Z</time>
      </trkpt>
      <trkpt lat="45.21755" lon="4.24764">
        <ele>671.14</ele>
        <time>2011-10-08T07:26:55Z</time>
      </trkpt>
      <trkpt lat="45.21746" lon="4.24758">
        <ele>674.98</ele>
        <time>2011-10-08T07:27:03Z</time>
      </trkpt>
      <trkpt lat="45.21742" lon="4.24749">
        <ele>678.35</ele>
        <time>2011-10-08T07:27:14Z</time>
      </trkpt>
      <trkpt lat="45.21743" lon="4.24736">
        <ele>679.79</ele>
        <time>2011-10-08T07:27:26Z</time>
      </trkpt>
      <trkpt lat="45.21744" lon="4.24727">
        <ele>678.83</ele>
        <time>2011-10-08T07:27:31Z</time>
      </trkpt>
      <trkpt lat="45.21745" lon="4.24721">
        <ele>678.35</ele>
        <time>2011-10-08T07:27:35Z</time>
      </trkpt>
      <trkpt lat="45.21752" lon="4.24703">
        <ele>680.27</ele>
        <time>2011-10-08T07:27:49Z</time>
      </trkpt>
      <trkpt lat="45.21753" lon="4.24694">
        <ele>681.23</ele>
        <time>2011-10-08T07:27:54Z</time>
      </trkpt>
      <trkpt lat="45.21753" lon="4.24692">
        <ele>681.23</ele>
        <time>2011-10-08T07:27:55Z</time>
      </trkpt>
      <trkpt lat="45.21754" lon="4.2469">
        <ele>681.23</ele>
        <time>2011-10-08T07:27:56Z</time>
      </trkpt>
      <trkpt lat="45.21754" lon="4.24687">
        <ele>681.71</ele>
        <time>2011-10-08T07:27:57Z</time>
      </trkpt>
      <trkpt lat="45.21755" lon="4.24684">
        <ele>681.71</ele>
        <time>2011-10-08T07:27:58Z</time>
      </trkpt>
      <trkpt lat="45.21755" lon="4.24681">
        <ele>681.23</ele>
        <time>2011-10-08T07:27:59Z</time>
      </trkpt>
      <trkpt lat="45.21755" lon="4.24678">
        <ele>681.23</ele>
        <time>2011-10-08T07:28:00Z</time>
      </trkpt>
      <trkpt lat="45.21754" lon="4.24674">
        <ele>680.75</ele>
        <time>2011-10-08T07:28:01Z</time>
      </trkpt>
      <trkpt lat="45.21754" lon="4.24669">
        <ele>680.75</ele>
        <time>2011-10-08T07:28:02Z</time>
      </trkpt>
      <trkpt lat="45.21753" lon="4.24663">
        <ele>680.27</ele>
        <time>2011-10-08T07:28:03Z</time>
      </trkpt>
      <trkpt lat="45.21752" lon="4.24651">
        <ele>680.27</ele>
        <time>2011-10-08T07:28:05Z</time>
      </trkpt>
      <trkpt lat="45.21751" lon="4.24644">
        <ele>680.27</ele>
        <time>2011-10-08T07:28:06Z</time>
      </trkpt>
      <trkpt lat="45.21751" lon="4.24638">
        <ele>680.27</ele>
        <time>2011-10-08T07:28:07Z</time>
      </trkpt>
      <trkpt lat="45.2175" lon="4.24631">
        <ele>680.27</ele>
        <time>2011-10-08T07:28:08Z</time>
      </trkpt>
      <trkpt lat="45.21749" lon="4.24625">
        <ele>680.27</ele>
        <time>2011-10-08T07:28:09Z</time>
      </trkpt>
      <trkpt lat="45.21745" lon="4.24589">
        <ele>680.75</ele>
        <time>2011-10-08T07:28:15Z</time>
      </trkpt>
      <trkpt lat="45.2174" lon="4.24573">
        <ele>680.27</ele>
        <time>2011-10-08T07:28:18Z</time>
      </trkpt>
      <trkpt lat="45.21723" lon="4.24542">
        <ele>679.31</ele>
        <time>2011-10-08T07:28:26Z</time>
      </trkpt>
      <trkpt lat="45.21723" lon="4.2454">
        <ele>679.31</ele>
        <time>2011-10-08T07:28:27Z</time>
      </trkpt>
      <trkpt lat="45.21722" lon="4.24537">
        <ele>678.83</ele>
        <time>2011-10-08T07:28:28Z</time>
      </trkpt>
      <trkpt lat="45.2172" lon="4.24534">
        <ele>678.83</ele>
        <time>2011-10-08T07:28:29Z</time>
      </trkpt>
      <trkpt lat="45.21718" lon="4.24531">
        <ele>678.35</ele>
        <time>2011-10-08T07:28:30Z</time>
      </trkpt>
      <trkpt lat="45.21716" lon="4.24528">
        <ele>678.35</ele>
        <time>2011-10-08T07:28:31Z</time>
      </trkpt>
      <trkpt lat="45.21709" lon="4.2452">
        <ele>677.39</ele>
        <time>2011-10-08T07:28:34Z</time>
      </trkpt>
      <trkpt lat="45.21708" lon="4.24517">
        <ele>677.39</ele>
        <time>2011-10-08T07:28:35Z</time>
      </trkpt>
      <trkpt lat="45.21708" lon="4.24514">
        <ele>676.91</ele>
        <time>2011-10-08T07:28:36Z</time>
      </trkpt>
      <trkpt lat="45.21708" lon="4.24511">
        <ele>676.91</ele>
        <time>2011-10-08T07:28:37Z</time>
      </trkpt>
      <trkpt lat="45.21709" lon="4.24509">
        <ele>676.91</ele>
        <time>2011-10-08T07:28:38Z</time>
      </trkpt>
      <trkpt lat="45.2171" lon="4.24507">
        <ele>676.91</ele>
        <time>2011-10-08T07:28:39Z</time>
      </trkpt>
      <trkpt lat="45.21712" lon="4.24504">
        <ele>676.91</ele>
        <time>2011-10-08T07:28:40Z</time>
      </trkpt>
      <trkpt lat="45.21713" lon="4.24502">
        <ele>676.91</ele>
        <time>2011-10-08T07:28:41Z</time>
      </trkpt>
      <trkpt lat="45.21714" lon="4.245">
        <ele>676.42</ele>
        <time>2011-10-08T07:28:42Z</time>
      </trkpt>
      <trkpt lat="45.21715" lon="4.24498">
        <ele>676.42</ele>
        <time>2011-10-08T07:28:43Z</time>
      </trkpt>
      <trkpt lat="45.21716" lon="4.24497">
        <ele>676.42</ele>
        <time>2011-10-08T07:28:44Z</time>
      </trkpt>
      <trkpt lat="45.21718" lon="4.24495">
        <ele>675.94</ele>
        <time>2011-10-08T07:28:45Z</time>
      </trkpt>
      <trkpt lat="45.2172" lon="4.24494">
        <ele>675.94</ele>
        <time>2011-10-08T07:28:46Z</time>
      </trkpt>
      <trkpt lat="45.21721" lon="4.24492">
        <ele>676.42</ele>
        <time>2011-10-08T07:28:47Z</time>
      </trkpt>
      <trkpt lat="45.21723" lon="4.2449">
        <ele>676.42</ele>
        <time>2011-10-08T07:28:48Z</time>
      </trkpt>
      <trkpt lat="45.21725" lon="4.24489">
        <ele>676.91</ele>
        <time>2011-10-08T07:28:49Z</time>
      </trkpt>
      <trkpt lat="45.21726" lon="4.24487">
        <ele>676.91</ele>
        <time>2011-10-08T07:28:50Z</time>
      </trkpt>
      <trkpt lat="45.21728" lon="4.24485">
        <ele>676.91</ele>
        <time>2011-10-08T07:28:51Z</time>
      </trkpt>
      <trkpt lat="45.21748" lon="4.24444">
        <ele>678.83</ele>
        <time>2011-10-08T07:29:03Z</time>
      </trkpt>
      <trkpt lat="45.21753" lon="4.24427">
        <ele>678.83</ele>
        <time>2011-10-08T07:29:06Z</time>
      </trkpt>
      <trkpt lat="45.21756" lon="4.24422">
        <ele>678.83</ele>
        <time>2011-10-08T07:29:07Z</time>
      </trkpt>
      <trkpt lat="45.21759" lon="4.24417">
        <ele>678.83</ele>
        <time>2011-10-08T07:29:08Z</time>
      </trkpt>
      <trkpt lat="45.21763" lon="4.24414">
        <ele>678.83</ele>
        <time>2011-10-08T07:29:09Z</time>
      </trkpt>
      <trkpt lat="45.21765" lon="4.2441">
        <ele>678.83</ele>
        <time>2011-10-08T07:29:10Z</time>
      </trkpt>
      <trkpt lat="45.21767" lon="4.24406">
        <ele>679.31</ele>
        <time>2011-10-08T07:29:11Z</time>
      </trkpt>
      <trkpt lat="45.2177" lon="4.24402">
        <ele>679.31</ele>
        <time>2011-10-08T07:29:12Z</time>
      </trkpt>
      <trkpt lat="45.21774" lon="4.24397">
        <ele>679.31</ele>
        <time>2011-10-08T07:29:13Z</time>
      </trkpt>
      <trkpt lat="45.21777" lon="4.24391">
        <ele>679.79</ele>
        <time>2011-10-08T07:29:14Z</time>
      </trkpt>
      <trkpt lat="45.2178" lon="4.24385">
        <ele>679.79</ele>
        <time>2011-10-08T07:29:15Z</time>
      </trkpt>
      <trkpt lat="45.21783" lon="4.2438">
        <ele>679.79</ele>
        <time>2011-10-08T07:29:16Z</time>
      </trkpt>
      <trkpt lat="45.21791" lon="4.24363">
        <ele>679.79</ele>
        <time>2011-10-08T07:29:19Z</time>
      </trkpt>
      <trkpt lat="45.21793" lon="4.24358">
        <ele>680.27</ele>
        <time>2011-10-08T07:29:20Z</time>
      </trkpt>
      <trkpt lat="45.21793" lon="4.24353">
        <ele>680.27</ele>
        <time>2011-10-08T07:29:21Z</time>
      </trkpt>
      <trkpt lat="45.21793" lon="4.24348">
        <ele>680.75</ele>
        <time>2011-10-08T07:29:22Z</time>
      </trkpt>
      <trkpt lat="45.21791" lon="4.24343">
        <ele>680.75</ele>
        <time>2011-10-08T07:29:23Z</time>
      </trkpt>
      <trkpt lat="45.21778" lon="4.24305">
        <ele>686.52</ele>
        <time>2011-10-08T07:29:33Z</time>
      </trkpt>
      <trkpt lat="45.21767" lon="4.24279">
        <ele>691.33</ele>
        <time>2011-10-08T07:29:45Z</time>
      </trkpt>
      <trkpt lat="45.21765" lon="4.24278">
        <ele>691.81</ele>
        <time>2011-10-08T07:29:46Z</time>
      </trkpt>
      <trkpt lat="45.21764" lon="4.24278">
        <ele>691.81</ele>
        <time>2011-10-08T07:29:47Z</time>
      </trkpt>
      <trkpt lat="45.21763" lon="4.24276">
        <ele>691.81</ele>
        <time>2011-10-08T07:29:48Z</time>
      </trkpt>
      <trkpt lat="45.21758" lon="4.2427">
        <ele>692.29</ele>
        <time>2011-10-08T07:29:53Z</time>
      </trkpt>
      <trkpt lat="45.21757" lon="4.24265">
        <ele>693.25</ele>
        <time>2011-10-08T07:29:57Z</time>
      </trkpt>
      <trkpt lat="45.21758" lon="4.24264">
        <ele>693.25</ele>
        <time>2011-10-08T07:29:58Z</time>
      </trkpt>
      <trkpt lat="45.21758" lon="4.24262">
        <ele>692.77</ele>
        <time>2011-10-08T07:29:59Z</time>
      </trkpt>
      <trkpt lat="45.21758" lon="4.24259">
        <ele>692.77</ele>
        <time>2011-10-08T07:30:00Z</time>
      </trkpt>
      <trkpt lat="45.21758" lon="4.24257">
        <ele>692.77</ele>
        <time>2011-10-08T07:30:01Z</time>
      </trkpt>
      <trkpt lat="45.21758" lon="4.24255">
        <ele>692.77</ele>
        <time>2011-10-08T07:30:02Z</time>
      </trkpt>
      <trkpt lat="45.21759" lon="4.24253">
        <ele>693.25</ele>
        <time>2011-10-08T07:30:03Z</time>
      </trkpt>
      <trkpt lat="45.21759" lon="4.24252">
        <ele>693.25</ele>
        <time>2011-10-08T07:30:04Z</time>
      </trkpt>
      <trkpt lat="45.21761" lon="4.24249">
        <ele>693.73</ele>
        <time>2011-10-08T07:30:07Z</time>
      </trkpt>
      <trkpt lat="45.21763" lon="4.24247">
        <ele>693.73</ele>
        <time>2011-10-08T07:30:09Z</time>
      </trkpt>
      <trkpt lat="45.21763" lon="4.24242">
        <ele>694.21</ele>
        <time>2011-10-08T07:30:12Z</time>
      </trkpt>
      <trkpt lat="45.21763" lon="4.2424">
        <ele>694.21</ele>
        <time>2011-10-08T07:30:13Z</time>
      </trkpt>
      <trkpt lat="45.21764" lon="4.24237">
        <ele>694.21</ele>
        <time>2011-10-08T07:30:14Z</time>
      </trkpt>
      <trkpt lat="45.21764" lon="4.24233">
        <ele>694.21</ele>
        <time>2011-10-08T07:30:15Z</time>
      </trkpt>
      <trkpt lat="45.21765" lon="4.24228">
        <ele>694.21</ele>
        <time>2011-10-08T07:30:16Z</time>
      </trkpt>
      <trkpt lat="45.21767" lon="4.24223">
        <ele>694.21</ele>
        <time>2011-10-08T07:30:17Z</time>
      </trkpt>
      <trkpt lat="45.21774" lon="4.24172">
        <ele>689.88</ele>
        <time>2011-10-08T07:30:27Z</time>
      </trkpt>
      <trkpt lat="45.21772" lon="4.24162">
        <ele>688.44</ele>
        <time>2011-10-08T07:30:29Z</time>
      </trkpt>
      <trkpt lat="45.21773" lon="4.24149">
        <ele>687.48</ele>
        <time>2011-10-08T07:30:31Z</time>
      </trkpt>
      <trkpt lat="45.21776" lon="4.24129">
        <ele>686.04</ele>
        <time>2011-10-08T07:30:34Z</time>
      </trkpt>
      <trkpt lat="45.2178" lon="4.24107">
        <ele>683.63</ele>
        <time>2011-10-08T07:30:39Z</time>
      </trkpt>
      <trkpt lat="45.21781" lon="4.24105">
        <ele>683.15</ele>
        <time>2011-10-08T07:30:40Z</time>
      </trkpt>
      <trkpt lat="45.21781" lon="4.24102">
        <ele>682.19</ele>
        <time>2011-10-08T07:30:41Z</time>
      </trkpt>
      <trkpt lat="45.21781" lon="4.24099">
        <ele>681.71</ele>
        <time>2011-10-08T07:30:42Z</time>
      </trkpt>
      <trkpt lat="45.21781" lon="4.24096">
        <ele>681.23</ele>
        <time>2011-10-08T07:30:43Z</time>
      </trkpt>
      <trkpt lat="45.21781" lon="4.24093">
        <ele>680.75</ele>
        <time>2011-10-08T07:30:44Z</time>
      </trkpt>
      <trkpt lat="45.2178" lon="4.2409">
        <ele>680.27</ele>
        <time>2011-10-08T07:30:45Z</time>
      </trkpt>
      <trkpt lat="45.21779" lon="4.24089">
        <ele>680.27</ele>
        <time>2011-10-08T07:30:46Z</time>
      </trkpt>
      <trkpt lat="45.21777" lon="4.24089">
        <ele>680.27</ele>
        <time>2011-10-08T07:30:47Z</time>
      </trkpt>
      <trkpt lat="45.21776" lon="4.24088">
        <ele>679.79</ele>
        <time>2011-10-08T07:30:48Z</time>
      </trkpt>
      <trkpt lat="45.21771" lon="4.24087">
        <ele>677.39</ele>
        <time>2011-10-08T07:30:52Z</time>
      </trkpt>
      <trkpt lat="45.2177" lon="4.24085">
        <ele>676.42</ele>
        <time>2011-10-08T07:30:53Z</time>
      </trkpt>
      <trkpt lat="45.2177" lon="4.24082">
        <ele>675.94</ele>
        <time>2011-10-08T07:30:54Z</time>
      </trkpt>
      <trkpt lat="45.2177" lon="4.24079">
        <ele>674.98</ele>
        <time>2011-10-08T07:30:55Z</time>
      </trkpt>
      <trkpt lat="45.21772" lon="4.24078">
        <ele>674.98</ele>
        <time>2011-10-08T07:30:56Z</time>
      </trkpt>
      <trkpt lat="45.21773" lon="4.24076">
        <ele>674.5</ele>
        <time>2011-10-08T07:30:57Z</time>
      </trkpt>
      <trkpt lat="45.21774" lon="4.24074">
        <ele>674.02</ele>
        <time>2011-10-08T07:30:58Z</time>
      </trkpt>
      <trkpt lat="45.21775" lon="4.24072">
        <ele>673.54</ele>
        <time>2011-10-08T07:30:59Z</time>
      </trkpt>
      <trkpt lat="45.21776" lon="4.24071">
        <ele>673.06</ele>
        <time>2011-10-08T07:31:00Z</time>
      </trkpt>
      <trkpt lat="45.21776" lon="4.24069">
        <ele>673.06</ele>
        <time>2011-10-08T07:31:01Z</time>
      </trkpt>
      <trkpt lat="45.21776" lon="4.24066">
        <ele>672.58</ele>
        <time>2011-10-08T07:31:02Z</time>
      </trkpt>
      <trkpt lat="45.21777" lon="4.24063">
        <ele>672.1</ele>
        <time>2011-10-08T07:31:03Z</time>
      </trkpt>
      <trkpt lat="45.21784" lon="4.24031">
        <ele>668.25</ele>
        <time>2011-10-08T07:31:12Z</time>
      </trkpt>
      <trkpt lat="45.21786" lon="4.24013">
        <ele>663.93</ele>
        <time>2011-10-08T07:31:21Z</time>
      </trkpt>
      <trkpt lat="45.21786" lon="4.24009">
        <ele>663.45</ele>
        <time>2011-10-08T07:31:23Z</time>
      </trkpt>
      <trkpt lat="45.21786" lon="4.24008">
        <ele>662.97</ele>
        <time>2011-10-08T07:31:24Z</time>
      </trkpt>
      <trkpt lat="45.21787" lon="4.23998">
        <ele>660.56</ele>
        <time>2011-10-08T07:31:30Z</time>
      </trkpt>
      <trkpt lat="45.21787" lon="4.23997">
        <ele>660.08</ele>
        <time>2011-10-08T07:31:31Z</time>
      </trkpt>
      <trkpt lat="45.21786" lon="4.23994">
        <ele>659.6</ele>
        <time>2011-10-08T07:31:33Z</time>
      </trkpt>
      <trkpt lat="45.21788" lon="4.23987">
        <ele>657.2</ele>
        <time>2011-10-08T07:31:39Z</time>
      </trkpt>
      <trkpt lat="45.21787" lon="4.23985">
        <ele>657.2</ele>
        <time>2011-10-08T07:31:40Z</time>
      </trkpt>
      <trkpt lat="45.21788" lon="4.23983">
        <ele>656.72</ele>
        <time>2011-10-08T07:31:41Z</time>
      </trkpt>
      <trkpt lat="45.21789" lon="4.23981">
        <ele>656.72</ele>
        <time>2011-10-08T07:31:42Z</time>
      </trkpt>
      <trkpt lat="45.2179" lon="4.23979">
        <ele>656.72</ele>
        <time>2011-10-08T07:31:43Z</time>
      </trkpt>
      <trkpt lat="45.2179" lon="4.23976">
        <ele>656.72</ele>
        <time>2011-10-08T07:31:44Z</time>
      </trkpt>
      <trkpt lat="45.2179" lon="4.23973">
        <ele>656.72</ele>
        <time>2011-10-08T07:31:45Z</time>
      </trkpt>
      <trkpt lat="45.2179" lon="4.23971">
        <ele>656.72</ele>
        <time>2011-10-08T07:31:46Z</time>
      </trkpt>
      <trkpt lat="45.21791" lon="4.23969">
        <ele>656.24</ele>
        <time>2011-10-08T07:31:47Z</time>
      </trkpt>
      <trkpt lat="45.21792" lon="4.23966">
        <ele>656.24</ele>
        <time>2011-10-08T07:31:48Z</time>
      </trkpt>
      <trkpt lat="45.21792" lon="4.23963">
        <ele>656.24</ele>
        <time>2011-10-08T07:31:49Z</time>
      </trkpt>
      <trkpt lat="45.21792" lon="4.23961">
        <ele>656.24</ele>
        <time>2011-10-08T07:31:50Z</time>
      </trkpt>
      <trkpt lat="45.21793" lon="4.23958">
        <ele>655.76</ele>
        <time>2011-10-08T07:31:51Z</time>
      </trkpt>
      <trkpt lat="45.21795" lon="4.23955">
        <ele>655.76</ele>
        <time>2011-10-08T07:31:53Z</time>
      </trkpt>
      <trkpt lat="45.21796" lon="4.23954">
        <ele>655.76</ele>
        <time>2011-10-08T07:31:54Z</time>
      </trkpt>
      <trkpt lat="45.21806" lon="4.2395">
        <ele>649.51</ele>
        <time>2011-10-08T07:32:06Z</time>
      </trkpt>
      <trkpt lat="45.2181" lon="4.23946">
        <ele>647.1</ele>
        <time>2011-10-08T07:32:09Z</time>
      </trkpt>
      <trkpt lat="45.21811" lon="4.23945">
        <ele>646.14</ele>
        <time>2011-10-08T07:32:10Z</time>
      </trkpt>
      <trkpt lat="45.21813" lon="4.23944">
        <ele>645.18</ele>
        <time>2011-10-08T07:32:11Z</time>
      </trkpt>
      <trkpt lat="45.21814" lon="4.23944">
        <ele>644.7</ele>
        <time>2011-10-08T07:32:12Z</time>
      </trkpt>
      <trkpt lat="45.21816" lon="4.23943">
        <ele>643.74</ele>
        <time>2011-10-08T07:32:13Z</time>
      </trkpt>
      <trkpt lat="45.21817" lon="4.23942">
        <ele>642.78</ele>
        <time>2011-10-08T07:32:14Z</time>
      </trkpt>
      <trkpt lat="45.2182" lon="4.2394">
        <ele>642.3</ele>
        <time>2011-10-08T07:32:17Z</time>
      </trkpt>
      <trkpt lat="45.21822" lon="4.23938">
        <ele>642.3</ele>
        <time>2011-10-08T07:32:19Z</time>
      </trkpt>
      <trkpt lat="45.21824" lon="4.23932">
        <ele>641.34</ele>
        <time>2011-10-08T07:32:23Z</time>
      </trkpt>
      <trkpt lat="45.21828" lon="4.23925">
        <ele>640.38</ele>
        <time>2011-10-08T07:32:32Z</time>
      </trkpt>
      <trkpt lat="45.21838" lon="4.23914">
        <ele>639.89</ele>
        <time>2011-10-08T07:32:38Z</time>
      </trkpt>
      <trkpt lat="45.21839" lon="4.23911">
        <ele>639.41</ele>
        <time>2011-10-08T07:32:39Z</time>
      </trkpt>
      <trkpt lat="45.21848" lon="4.23904">
        <ele>636.53</ele>
        <time>2011-10-08T07:32:46Z</time>
      </trkpt>
      <trkpt lat="45.2185" lon="4.23902">
        <ele>636.53</ele>
        <time>2011-10-08T07:32:47Z</time>
      </trkpt>
      <trkpt lat="45.21852" lon="4.239">
        <ele>636.53</ele>
        <time>2011-10-08T07:32:48Z</time>
      </trkpt>
      <trkpt lat="45.21854" lon="4.23897">
        <ele>636.05</ele>
        <time>2011-10-08T07:32:49Z</time>
      </trkpt>
      <trkpt lat="45.21855" lon="4.23895">
        <ele>636.05</ele>
        <time>2011-10-08T07:32:50Z</time>
      </trkpt>
      <trkpt lat="45.21856" lon="4.23892">
        <ele>636.05</ele>
        <time>2011-10-08T07:32:51Z</time>
      </trkpt>
      <trkpt lat="45.21857" lon="4.23889">
        <ele>636.05</ele>
        <time>2011-10-08T07:32:52Z</time>
      </trkpt>
      <trkpt lat="45.21858" lon="4.23884">
        <ele>635.57</ele>
        <time>2011-10-08T07:32:54Z</time>
      </trkpt>
      <trkpt lat="45.21863" lon="4.23875">
        <ele>635.57</ele>
        <time>2011-10-08T07:32:57Z</time>
      </trkpt>
      <trkpt lat="45.21863" lon="4.23856">
        <ele>635.09</ele>
        <time>2011-10-08T07:33:02Z</time>
      </trkpt>
      <trkpt lat="45.21862" lon="4.23853">
        <ele>634.61</ele>
        <time>2011-10-08T07:33:03Z</time>
      </trkpt>
      <trkpt lat="45.21861" lon="4.23851">
        <ele>634.61</ele>
        <time>2011-10-08T07:33:04Z</time>
      </trkpt>
      <trkpt lat="45.2186" lon="4.23848">
        <ele>634.61</ele>
        <time>2011-10-08T07:33:05Z</time>
      </trkpt>
      <trkpt lat="45.21858" lon="4.23845">
        <ele>634.61</ele>
        <time>2011-10-08T07:33:06Z</time>
      </trkpt>
      <trkpt lat="45.21857" lon="4.23842">
        <ele>634.61</ele>
        <time>2011-10-08T07:33:07Z</time>
      </trkpt>
      <trkpt lat="45.2185" lon="4.23832">
        <ele>634.13</ele>
        <time>2011-10-08T07:33:11Z</time>
      </trkpt>
      <trkpt lat="45.2185" lon="4.23828">
        <ele>634.13</ele>
        <time>2011-10-08T07:33:12Z</time>
      </trkpt>
      <trkpt lat="45.2185" lon="4.23825">
        <ele>634.13</ele>
        <time>2011-10-08T07:33:13Z</time>
      </trkpt>
      <trkpt lat="45.2185" lon="4.23822">
        <ele>633.65</ele>
        <time>2011-10-08T07:33:14Z</time>
      </trkpt>
      <trkpt lat="45.21851" lon="4.2382">
        <ele>633.65</ele>
        <time>2011-10-08T07:33:15Z</time>
      </trkpt>
      <trkpt lat="45.21853" lon="4.23819">
        <ele>633.65</ele>
        <time>2011-10-08T07:33:16Z</time>
      </trkpt>
      <trkpt lat="45.21855" lon="4.23819">
        <ele>633.65</ele>
        <time>2011-10-08T07:33:17Z</time>
      </trkpt>
      <trkpt lat="45.21858" lon="4.2382">
        <ele>632.68</ele>
        <time>2011-10-08T07:33:24Z</time>
      </trkpt>
      <trkpt lat="45.21858" lon="4.23818">
        <ele>632.68</ele>
        <time>2011-10-08T07:33:28Z</time>
      </trkpt>
      <trkpt lat="45.21862" lon="4.23811">
        <ele>631.24</ele>
        <time>2011-10-08T07:33:36Z</time>
      </trkpt>
      <trkpt lat="45.21862" lon="4.23808">
        <ele>631.24</ele>
        <time>2011-10-08T07:33:38Z</time>
      </trkpt>
      <trkpt lat="45.2186" lon="4.23788">
        <ele>627.88</ele>
        <time>2011-10-08T07:33:48Z</time>
      </trkpt>
      <trkpt lat="45.21859" lon="4.23777">
        <ele>624.03</ele>
        <time>2011-10-08T07:33:52Z</time>
      </trkpt>
      <trkpt lat="45.21861" lon="4.23766">
        <ele>621.15</ele>
        <time>2011-10-08T07:33:55Z</time>
      </trkpt>
      <trkpt lat="45.21873" lon="4.23736">
        <ele>618.26</ele>
        <time>2011-10-08T07:34:03Z</time>
      </trkpt>
      <trkpt lat="45.21875" lon="4.2373">
        <ele>619.23</ele>
        <time>2011-10-08T07:34:05Z</time>
      </trkpt>
      <trkpt lat="45.21889" lon="4.23713">
        <ele>620.19</ele>
        <time>2011-10-08T07:34:09Z</time>
      </trkpt>
      <trkpt lat="45.21894" lon="4.23708">
        <ele>620.19</ele>
        <time>2011-10-08T07:34:10Z</time>
      </trkpt>
      <trkpt lat="45.21917" lon="4.23667">
        <ele>621.15</ele>
        <time>2011-10-08T07:34:20Z</time>
      </trkpt>
      <trkpt lat="45.21923" lon="4.23657">
        <ele>621.63</ele>
        <time>2011-10-08T07:34:23Z</time>
      </trkpt>
      <trkpt lat="45.21925" lon="4.23655">
        <ele>621.63</ele>
        <time>2011-10-08T07:34:24Z</time>
      </trkpt>
      <trkpt lat="45.21928" lon="4.23655">
        <ele>621.63</ele>
        <time>2011-10-08T07:34:25Z</time>
      </trkpt>
      <trkpt lat="45.2193" lon="4.23656">
        <ele>621.63</ele>
        <time>2011-10-08T07:34:26Z</time>
      </trkpt>
      <trkpt lat="45.21933" lon="4.23657">
        <ele>621.63</ele>
        <time>2011-10-08T07:34:27Z</time>
      </trkpt>
      <trkpt lat="45.21935" lon="4.23659">
        <ele>620.67</ele>
        <time>2011-10-08T07:34:28Z</time>
      </trkpt>
      <trkpt lat="45.21937" lon="4.23661">
        <ele>620.19</ele>
        <time>2011-10-08T07:34:29Z</time>
      </trkpt>
      <trkpt lat="45.2194" lon="4.23662">
        <ele>620.19</ele>
        <time>2011-10-08T07:34:30Z</time>
      </trkpt>
      <trkpt lat="45.21941" lon="4.23664">
        <ele>619.71</ele>
        <time>2011-10-08T07:34:31Z</time>
      </trkpt>
      <trkpt lat="45.21944" lon="4.23665">
        <ele>620.19</ele>
        <time>2011-10-08T07:34:32Z</time>
      </trkpt>
      <trkpt lat="45.21946" lon="4.23666">
        <ele>620.19</ele>
        <time>2011-10-08T07:34:33Z</time>
      </trkpt>
      <trkpt lat="45.21948" lon="4.23668">
        <ele>620.19</ele>
        <time>2011-10-08T07:34:34Z</time>
      </trkpt>
      <trkpt lat="45.2195" lon="4.2367">
        <ele>620.19</ele>
        <time>2011-10-08T07:34:35Z</time>
      </trkpt>
      <trkpt lat="45.21953" lon="4.23672">
        <ele>620.67</ele>
        <time>2011-10-08T07:34:36Z</time>
      </trkpt>
      <trkpt lat="45.21955" lon="4.23673">
        <ele>621.15</ele>
        <time>2011-10-08T07:34:37Z</time>
      </trkpt>
      <trkpt lat="45.21972" lon="4.2368">
        <ele>623.55</ele>
        <time>2011-10-08T07:34:48Z</time>
      </trkpt>
      <trkpt lat="45.21977" lon="4.23683">
        <ele>624.99</ele>
        <time>2011-10-08T07:34:56Z</time>
      </trkpt>
      <trkpt lat="45.21986" lon="4.23688">
        <ele>624.51</ele>
        <time>2011-10-08T07:35:04Z</time>
      </trkpt>
      <trkpt lat="45.2199" lon="4.2369">
        <ele>627.4</ele>
        <time>2011-10-08T07:35:11Z</time>
      </trkpt>
      <trkpt lat="45.21993" lon="4.23696">
        <ele>631.72</ele>
        <time>2011-10-08T07:35:22Z</time>
      </trkpt>
      <trkpt lat="45.21998" lon="4.23708">
        <ele>636.05</ele>
        <time>2011-10-08T07:35:33Z</time>
      </trkpt>
      <trkpt lat="45.21997" lon="4.23709">
        <ele>635.57</ele>
        <time>2011-10-08T07:35:34Z</time>
      </trkpt>
      <trkpt lat="45.21999" lon="4.23722">
        <ele>634.61</ele>
        <time>2011-10-08T07:35:45Z</time>
      </trkpt>
      <trkpt lat="45.22004" lon="4.23742">
        <ele>635.09</ele>
        <time>2011-10-08T07:35:59Z</time>
      </trkpt>
      <trkpt lat="45.22009" lon="4.2374">
        <ele>637.01</ele>
        <time>2011-10-08T07:36:05Z</time>
      </trkpt>
      <trkpt lat="45.22018" lon="4.2374">
        <ele>637.97</ele>
        <time>2011-10-08T07:36:16Z</time>
      </trkpt>
      <trkpt lat="45.22025" lon="4.23741">
        <ele>638.93</ele>
        <time>2011-10-08T07:36:28Z</time>
      </trkpt>
      <trkpt lat="45.22034" lon="4.23749">
        <ele>639.41</ele>
        <time>2011-10-08T07:36:37Z</time>
      </trkpt>
      <trkpt lat="45.22035" lon="4.23752">
        <ele>639.41</ele>
        <time>2011-10-08T07:36:39Z</time>
      </trkpt>
      <trkpt lat="45.22037" lon="4.23753">
        <ele>638.93</ele>
        <time>2011-10-08T07:36:40Z</time>
      </trkpt>
      <trkpt lat="45.22042" lon="4.23756">
        <ele>638.93</ele>
        <time>2011-10-08T07:36:43Z</time>
      </trkpt>
      <trkpt lat="45.22043" lon="4.23758">
        <ele>639.41</ele>
        <time>2011-10-08T07:36:44Z</time>
      </trkpt>
      <trkpt lat="45.22044" lon="4.23759">
        <ele>639.41</ele>
        <time>2011-10-08T07:36:45Z</time>
      </trkpt>
      <trkpt lat="45.22052" lon="4.23767">
        <ele>642.78</ele>
        <time>2011-10-08T07:36:53Z</time>
      </trkpt>
      <trkpt lat="45.22063" lon="4.23769">
        <ele>646.62</ele>
        <time>2011-10-08T07:37:02Z</time>
      </trkpt>
      <trkpt lat="45.22065" lon="4.23769">
        <ele>647.1</ele>
        <time>2011-10-08T07:37:03Z</time>
      </trkpt>
      <trkpt lat="45.22074" lon="4.23768">
        <ele>650.47</ele>
        <time>2011-10-08T07:37:15Z</time>
      </trkpt>
      <trkpt lat="45.22083" lon="4.23769">
        <ele>653.35</ele>
        <time>2011-10-08T07:37:25Z</time>
      </trkpt>
      <trkpt lat="45.22092" lon="4.23771">
        <ele>656.24</ele>
        <time>2011-10-08T07:37:38Z</time>
      </trkpt>
      <trkpt lat="45.22096" lon="4.23764">
        <ele>658.16</ele>
        <time>2011-10-08T07:37:49Z</time>
      </trkpt>
      <trkpt lat="45.22104" lon="4.23755">
        <ele>659.12</ele>
        <time>2011-10-08T07:38:01Z</time>
      </trkpt>
      <trkpt lat="45.22107" lon="4.23743">
        <ele>657.2</ele>
        <time>2011-10-08T07:38:15Z</time>
      </trkpt>
      <trkpt lat="45.22111" lon="4.23735">
        <ele>657.68</ele>
        <time>2011-10-08T07:38:25Z</time>
      </trkpt>
      <trkpt lat="45.22119" lon="4.23726">
        <ele>659.12</ele>
        <time>2011-10-08T07:38:37Z</time>
      </trkpt>
      <trkpt lat="45.22124" lon="4.23715">
        <ele>660.56</ele>
        <time>2011-10-08T07:38:50Z</time>
      </trkpt>
      <trkpt lat="45.22124" lon="4.23711">
        <ele>662.01</ele>
        <time>2011-10-08T07:38:54Z</time>
      </trkpt>
      <trkpt lat="45.22125" lon="4.23698">
        <ele>667.77</ele>
        <time>2011-10-08T07:39:06Z</time>
      </trkpt>
      <trkpt lat="45.22127" lon="4.23692">
        <ele>669.7</ele>
        <time>2011-10-08T07:39:13Z</time>
      </trkpt>
      <trkpt lat="45.22131" lon="4.23683">
        <ele>671.14</ele>
        <time>2011-10-08T07:39:23Z</time>
      </trkpt>
      <trkpt lat="45.22134" lon="4.23672">
        <ele>671.62</ele>
        <time>2011-10-08T07:39:32Z</time>
      </trkpt>
      <trkpt lat="45.22136" lon="4.23658">
        <ele>674.98</ele>
        <time>2011-10-08T07:39:46Z</time>
      </trkpt>
      <trkpt lat="45.22139" lon="4.23646">
        <ele>680.27</ele>
        <time>2011-10-08T07:39:58Z</time>
      </trkpt>
      <trkpt lat="45.22141" lon="4.23632">
        <ele>685.56</ele>
        <time>2011-10-08T07:40:11Z</time>
      </trkpt>
      <trkpt lat="45.22141" lon="4.23629">
        <ele>686.04</ele>
        <time>2011-10-08T07:40:14Z</time>
      </trkpt>
      <trkpt lat="45.22146" lon="4.23616">
        <ele>686.52</ele>
        <time>2011-10-08T07:40:26Z</time>
      </trkpt>
      <trkpt lat="45.22148" lon="4.23608">
        <ele>686.52</ele>
        <time>2011-10-08T07:40:33Z</time>
      </trkpt>
      <trkpt lat="45.22148" lon="4.23596">
        <ele>688.44</ele>
        <time>2011-10-08T07:40:45Z</time>
      </trkpt>
      <trkpt lat="45.22154" lon="4.23595">
        <ele>689.4</ele>
        <time>2011-10-08T07:40:54Z</time>
      </trkpt>
      <trkpt lat="45.22157" lon="4.23601">
        <ele>690.36</ele>
        <time>2011-10-08T07:41:06Z</time>
      </trkpt>
      <trkpt lat="45.22157" lon="4.23615">
        <ele>693.73</ele>
        <time>2011-10-08T07:41:17Z</time>
      </trkpt>
      <trkpt lat="45.22157" lon="4.23616">
        <ele>693.73</ele>
        <time>2011-10-08T07:41:18Z</time>
      </trkpt>
      <trkpt lat="45.22165" lon="4.23635">
        <ele>696.13</ele>
        <time>2011-10-08T07:41:31Z</time>
      </trkpt>
      <trkpt lat="45.22168" lon="4.23646">
        <ele>697.09</ele>
        <time>2011-10-08T07:41:40Z</time>
      </trkpt>
      <trkpt lat="45.22174" lon="4.23665">
        <ele>701.9</ele>
        <time>2011-10-08T07:41:51Z</time>
      </trkpt>
      <trkpt lat="45.22175" lon="4.2367">
        <ele>702.38</ele>
        <time>2011-10-08T07:41:55Z</time>
      </trkpt>
      <trkpt lat="45.22177" lon="4.2368">
        <ele>705.26</ele>
        <time>2011-10-08T07:42:01Z</time>
      </trkpt>
      <trkpt lat="45.22182" lon="4.23702">
        <ele>705.26</ele>
        <time>2011-10-08T07:42:12Z</time>
      </trkpt>
      <trkpt lat="45.22186" lon="4.23713">
        <ele>705.75</ele>
        <time>2011-10-08T07:42:19Z</time>
      </trkpt>
      <trkpt lat="45.2219" lon="4.23727">
        <ele>706.23</ele>
        <time>2011-10-08T07:42:27Z</time>
      </trkpt>
      <trkpt lat="45.22192" lon="4.23732">
        <ele>707.19</ele>
        <time>2011-10-08T07:42:30Z</time>
      </trkpt>
      <trkpt lat="45.22193" lon="4.23738">
        <ele>707.67</ele>
        <time>2011-10-08T07:42:34Z</time>
      </trkpt>
      <trkpt lat="45.22196" lon="4.23749">
        <ele>707.19</ele>
        <time>2011-10-08T07:42:43Z</time>
      </trkpt>
      <trkpt lat="45.22197" lon="4.23758">
        <ele>706.23</ele>
        <time>2011-10-08T07:42:48Z</time>
      </trkpt>
      <trkpt lat="45.22198" lon="4.23768">
        <ele>706.23</ele>
        <time>2011-10-08T07:42:52Z</time>
      </trkpt>
      <trkpt lat="45.22195" lon="4.23785">
        <ele>709.59</ele>
        <time>2011-10-08T07:43:01Z</time>
      </trkpt>
      <trkpt lat="45.22194" lon="4.23796">
        <ele>710.55</ele>
        <time>2011-10-08T07:43:07Z</time>
      </trkpt>
      <trkpt lat="45.22199" lon="4.23817">
        <ele>712.47</ele>
        <time>2011-10-08T07:43:20Z</time>
      </trkpt>
      <trkpt lat="45.22199" lon="4.23823">
        <ele>713.44</ele>
        <time>2011-10-08T07:43:23Z</time>
      </trkpt>
      <trkpt lat="45.222" lon="4.23827">
        <ele>713.92</ele>
        <time>2011-10-08T07:43:25Z</time>
      </trkpt>
      <trkpt lat="45.22204" lon="4.23835">
        <ele>713.92</ele>
        <time>2011-10-08T07:43:32Z</time>
      </trkpt>
      <trkpt lat="45.22206" lon="4.2384">
        <ele>714.88</ele>
        <time>2011-10-08T07:43:35Z</time>
      </trkpt>
      <trkpt lat="45.2221" lon="4.23845">
        <ele>715.36</ele>
        <time>2011-10-08T07:43:38Z</time>
      </trkpt>
      <trkpt lat="45.22218" lon="4.23849">
        <ele>715.84</ele>
        <time>2011-10-08T07:43:43Z</time>
      </trkpt>
      <trkpt lat="45.2222" lon="4.23847">
        <ele>715.84</ele>
        <time>2011-10-08T07:43:45Z</time>
      </trkpt>
      <trkpt lat="45.22235" lon="4.23843">
        <ele>717.76</ele>
        <time>2011-10-08T07:43:57Z</time>
      </trkpt>
      <trkpt lat="45.22236" lon="4.23842">
        <ele>717.76</ele>
        <time>2011-10-08T07:43:58Z</time>
      </trkpt>
      <trkpt lat="45.22251" lon="4.2384">
        <ele>721.13</ele>
        <time>2011-10-08T07:44:12Z</time>
      </trkpt>
      <trkpt lat="45.22251" lon="4.2384">
        <ele>721.13</ele>
        <time>2011-10-08T07:44:13Z</time>
      </trkpt>
      <trkpt lat="45.22268" lon="4.23828">
        <ele>724.49</ele>
        <time>2011-10-08T07:44:27Z</time>
      </trkpt>
      <trkpt lat="45.22279" lon="4.23816">
        <ele>727.86</ele>
        <time>2011-10-08T07:44:39Z</time>
      </trkpt>
      <trkpt lat="45.22289" lon="4.23799">
        <ele>730.74</ele>
        <time>2011-10-08T07:44:52Z</time>
      </trkpt>
      <trkpt lat="45.22291" lon="4.23795">
        <ele>731.7</ele>
        <time>2011-10-08T07:44:55Z</time>
      </trkpt>
      <trkpt lat="45.22297" lon="4.23778">
        <ele>735.55</ele>
        <time>2011-10-08T07:45:08Z</time>
      </trkpt>
      <trkpt lat="45.22303" lon="4.23766">
        <ele>736.03</ele>
        <time>2011-10-08T07:45:19Z</time>
      </trkpt>
      <trkpt lat="45.22314" lon="4.23754">
        <ele>737.47</ele>
        <time>2011-10-08T07:45:30Z</time>
      </trkpt>
      <trkpt lat="45.22326" lon="4.23751">
        <ele>738.91</ele>
        <time>2011-10-08T07:45:40Z</time>
      </trkpt>
      <trkpt lat="45.22341" lon="4.23743">
        <ele>738.91</ele>
        <time>2011-10-08T07:45:52Z</time>
      </trkpt>
      <trkpt lat="45.22354" lon="4.23734">
        <ele>737.95</ele>
        <time>2011-10-08T07:46:01Z</time>
      </trkpt>
      <trkpt lat="45.22361" lon="4.23726">
        <ele>737.47</ele>
        <time>2011-10-08T07:46:07Z</time>
      </trkpt>
      <trkpt lat="45.22371" lon="4.23714">
        <ele>737.47</ele>
        <time>2011-10-08T07:46:13Z</time>
      </trkpt>
      <trkpt lat="45.22378" lon="4.23706">
        <ele>737.95</ele>
        <time>2011-10-08T07:46:18Z</time>
      </trkpt>
      <trkpt lat="45.22398" lon="4.2369">
        <ele>740.83</ele>
        <time>2011-10-08T07:46:30Z</time>
      </trkpt>
      <trkpt lat="45.22413" lon="4.23697">
        <ele>743.24</ele>
        <time>2011-10-08T07:46:40Z</time>
      </trkpt>
      <trkpt lat="45.22424" lon="4.23716">
        <ele>746.12</ele>
        <time>2011-10-08T07:46:50Z</time>
      </trkpt>
      <trkpt lat="45.22432" lon="4.23734">
        <ele>749</ele>
        <time>2011-10-08T07:47:01Z</time>
      </trkpt>
      <trkpt lat="45.22437" lon="4.23742">
        <ele>748.52</ele>
        <time>2011-10-08T07:47:06Z</time>
      </trkpt>
      <trkpt lat="45.22451" lon="4.23762">
        <ele>751.41</ele>
        <time>2011-10-08T07:47:18Z</time>
      </trkpt>
      <trkpt lat="45.22461" lon="4.23767">
        <ele>753.33</ele>
        <time>2011-10-08T07:47:27Z</time>
      </trkpt>
      <trkpt lat="45.22464" lon="4.23767">
        <ele>753.33</ele>
        <time>2011-10-08T07:47:30Z</time>
      </trkpt>
      <trkpt lat="45.22467" lon="4.23766">
        <ele>753.33</ele>
        <time>2011-10-08T07:47:33Z</time>
      </trkpt>
      <trkpt lat="45.22473" lon="4.23763">
        <ele>753.33</ele>
        <time>2011-10-08T07:47:38Z</time>
      </trkpt>
      <trkpt lat="45.22475" lon="4.23761">
        <ele>753.33</ele>
        <time>2011-10-08T07:47:40Z</time>
      </trkpt>
      <trkpt lat="45.2248" lon="4.23754">
        <ele>753.81</ele>
        <time>2011-10-08T07:47:47Z</time>
      </trkpt>
      <trkpt lat="45.22498" lon="4.23734">
        <ele>754.77</ele>
        <time>2011-10-08T07:47:59Z</time>
      </trkpt>
      <trkpt lat="45.22509" lon="4.2372">
        <ele>757.66</ele>
        <time>2011-10-08T07:48:09Z</time>
      </trkpt>
      <trkpt lat="45.22518" lon="4.23709">
        <ele>759.1</ele>
        <time>2011-10-08T07:48:20Z</time>
      </trkpt>
      <trkpt lat="45.22521" lon="4.23703">
        <ele>760.06</ele>
        <time>2011-10-08T07:48:25Z</time>
      </trkpt>
      <trkpt lat="45.22521" lon="4.23699">
        <ele>760.06</ele>
        <time>2011-10-08T07:48:27Z</time>
      </trkpt>
      <trkpt lat="45.22531" lon="4.23686">
        <ele>762.46</ele>
        <time>2011-10-08T07:48:37Z</time>
      </trkpt>
      <trkpt lat="45.22534" lon="4.23681">
        <ele>762.94</ele>
        <time>2011-10-08T07:48:40Z</time>
      </trkpt>
      <trkpt lat="45.22535" lon="4.23678">
        <ele>762.94</ele>
        <time>2011-10-08T07:48:43Z</time>
      </trkpt>
      <trkpt lat="45.22542" lon="4.23671">
        <ele>762.94</ele>
        <time>2011-10-08T07:48:47Z</time>
      </trkpt>
      <trkpt lat="45.22553" lon="4.2366">
        <ele>764.87</ele>
        <time>2011-10-08T07:48:53Z</time>
      </trkpt>
      <trkpt lat="45.22575" lon="4.23649">
        <ele>768.71</ele>
        <time>2011-10-08T07:49:04Z</time>
      </trkpt>
      <trkpt lat="45.22582" lon="4.23644">
        <ele>769.19</ele>
        <time>2011-10-08T07:49:07Z</time>
      </trkpt>
      <trkpt lat="45.226" lon="4.23631">
        <ele>770.15</ele>
        <time>2011-10-08T07:49:17Z</time>
      </trkpt>
      <trkpt lat="45.22636" lon="4.23626">
        <ele>772.08</ele>
        <time>2011-10-08T07:49:32Z</time>
      </trkpt>
      <trkpt lat="45.22666" lon="4.23644">
        <ele>775.44</ele>
        <time>2011-10-08T07:49:48Z</time>
      </trkpt>
      <trkpt lat="45.2269" lon="4.23664">
        <ele>778.32</ele>
        <time>2011-10-08T07:50:01Z</time>
      </trkpt>
      <trkpt lat="45.22715" lon="4.23678">
        <ele>781.21</ele>
        <time>2011-10-08T07:50:15Z</time>
      </trkpt>
      <trkpt lat="45.22722" lon="4.23676">
        <ele>782.17</ele>
        <time>2011-10-08T07:50:19Z</time>
      </trkpt>
      <trkpt lat="45.22745" lon="4.2366">
        <ele>785.53</ele>
        <time>2011-10-08T07:50:33Z</time>
      </trkpt>
      <trkpt lat="45.22769" lon="4.23649">
        <ele>788.42</ele>
        <time>2011-10-08T07:50:47Z</time>
      </trkpt>
      <trkpt lat="45.22803" lon="4.23663">
        <ele>789.86</ele>
        <time>2011-10-08T07:51:01Z</time>
      </trkpt>
      <trkpt lat="45.22839" lon="4.23682">
        <ele>790.34</ele>
        <time>2011-10-08T07:51:13Z</time>
      </trkpt>
      <trkpt lat="45.22846" lon="4.23661">
        <ele>790.34</ele>
        <time>2011-10-08T07:51:19Z</time>
      </trkpt>
      <trkpt lat="45.2284" lon="4.23586">
        <ele>791.78</ele>
        <time>2011-10-08T07:51:33Z</time>
      </trkpt>
      <trkpt lat="45.22831" lon="4.23551">
        <ele>793.22</ele>
        <time>2011-10-08T07:51:42Z</time>
      </trkpt>
      <trkpt lat="45.22807" lon="4.23501">
        <ele>793.22</ele>
        <time>2011-10-08T07:51:53Z</time>
      </trkpt>
      <trkpt lat="45.22801" lon="4.23482">
        <ele>793.22</ele>
        <time>2011-10-08T07:51:57Z</time>
      </trkpt>
      <trkpt lat="45.22799" lon="4.23476">
        <ele>793.22</ele>
        <time>2011-10-08T07:51:58Z</time>
      </trkpt>
      <trkpt lat="45.22791" lon="4.23426">
        <ele>792.26</ele>
        <time>2011-10-08T07:52:06Z</time>
      </trkpt>
      <trkpt lat="45.22785" lon="4.23358">
        <ele>792.26</ele>
        <time>2011-10-08T07:52:15Z</time>
      </trkpt>
      <trkpt lat="45.22783" lon="4.23351">
        <ele>791.78</ele>
        <time>2011-10-08T07:52:16Z</time>
      </trkpt>
      <trkpt lat="45.22781" lon="4.23344">
        <ele>791.78</ele>
        <time>2011-10-08T07:52:17Z</time>
      </trkpt>
      <trkpt lat="45.22774" lon="4.23329">
        <ele>791.78</ele>
        <time>2011-10-08T07:52:19Z</time>
      </trkpt>
      <trkpt lat="45.22771" lon="4.23323">
        <ele>791.78</ele>
        <time>2011-10-08T07:52:20Z</time>
      </trkpt>
      <trkpt lat="45.22767" lon="4.23317">
        <ele>791.78</ele>
        <time>2011-10-08T07:52:21Z</time>
      </trkpt>
      <trkpt lat="45.22763" lon="4.23312">
        <ele>791.78</ele>
        <time>2011-10-08T07:52:22Z</time>
      </trkpt>
      <trkpt lat="45.22759" lon="4.23307">
        <ele>791.3</ele>
        <time>2011-10-08T07:52:23Z</time>
      </trkpt>
      <trkpt lat="45.22752" lon="4.23296">
        <ele>791.3</ele>
        <time>2011-10-08T07:52:25Z</time>
      </trkpt>
      <trkpt lat="45.22748" lon="4.23289">
        <ele>791.3</ele>
        <time>2011-10-08T07:52:26Z</time>
      </trkpt>
      <trkpt lat="45.22738" lon="4.23266">
        <ele>789.86</ele>
        <time>2011-10-08T07:52:29Z</time>
      </trkpt>
      <trkpt lat="45.22718" lon="4.23199">
        <ele>787.94</ele>
        <time>2011-10-08T07:52:37Z</time>
      </trkpt>
      <trkpt lat="45.22718" lon="4.23191">
        <ele>787.94</ele>
        <time>2011-10-08T07:52:38Z</time>
      </trkpt>
      <trkpt lat="45.2272" lon="4.23185">
        <ele>787.46</ele>
        <time>2011-10-08T07:52:39Z</time>
      </trkpt>
      <trkpt lat="45.22722" lon="4.2318">
        <ele>787.46</ele>
        <time>2011-10-08T07:52:40Z</time>
      </trkpt>
      <trkpt lat="45.22726" lon="4.23176">
        <ele>787.94</ele>
        <time>2011-10-08T07:52:41Z</time>
      </trkpt>
      <trkpt lat="45.22729" lon="4.23172">
        <ele>787.94</ele>
        <time>2011-10-08T07:52:42Z</time>
      </trkpt>
      <trkpt lat="45.22732" lon="4.23169">
        <ele>788.42</ele>
        <time>2011-10-08T07:52:43Z</time>
      </trkpt>
      <trkpt lat="45.22735" lon="4.23165">
        <ele>788.42</ele>
        <time>2011-10-08T07:52:44Z</time>
      </trkpt>
      <trkpt lat="45.22785" lon="4.23114">
        <ele>789.38</ele>
        <time>2011-10-08T07:52:58Z</time>
      </trkpt>
      <trkpt lat="45.22788" lon="4.23109">
        <ele>788.9</ele>
        <time>2011-10-08T07:52:59Z</time>
      </trkpt>
      <trkpt lat="45.22792" lon="4.23105">
        <ele>788.42</ele>
        <time>2011-10-08T07:53:00Z</time>
      </trkpt>
      <trkpt lat="45.22796" lon="4.23099">
        <ele>787.94</ele>
        <time>2011-10-08T07:53:01Z</time>
      </trkpt>
      <trkpt lat="45.228" lon="4.23093">
        <ele>787.46</ele>
        <time>2011-10-08T07:53:02Z</time>
      </trkpt>
      <trkpt lat="45.22805" lon="4.23089">
        <ele>786.98</ele>
        <time>2011-10-08T07:53:03Z</time>
      </trkpt>
      <trkpt lat="45.22811" lon="4.23086">
        <ele>786.5</ele>
        <time>2011-10-08T07:53:04Z</time>
      </trkpt>
      <trkpt lat="45.22817" lon="4.23082">
        <ele>785.53</ele>
        <time>2011-10-08T07:53:05Z</time>
      </trkpt>
      <trkpt lat="45.22823" lon="4.23078">
        <ele>785.05</ele>
        <time>2011-10-08T07:53:06Z</time>
      </trkpt>
      <trkpt lat="45.22829" lon="4.23072">
        <ele>784.57</ele>
        <time>2011-10-08T07:53:07Z</time>
      </trkpt>
      <trkpt lat="45.22842" lon="4.2306">
        <ele>783.13</ele>
        <time>2011-10-08T07:53:09Z</time>
      </trkpt>
      <trkpt lat="45.22847" lon="4.23052">
        <ele>782.65</ele>
        <time>2011-10-08T07:53:10Z</time>
      </trkpt>
      <trkpt lat="45.22852" lon="4.23043">
        <ele>781.69</ele>
        <time>2011-10-08T07:53:11Z</time>
      </trkpt>
      <trkpt lat="45.22857" lon="4.23033">
        <ele>781.21</ele>
        <time>2011-10-08T07:53:12Z</time>
      </trkpt>
      <trkpt lat="45.2286" lon="4.23023">
        <ele>780.25</ele>
        <time>2011-10-08T07:53:13Z</time>
      </trkpt>
      <trkpt lat="45.22863" lon="4.23013">
        <ele>779.77</ele>
        <time>2011-10-08T07:53:14Z</time>
      </trkpt>
      <trkpt lat="45.22867" lon="4.23004">
        <ele>779.29</ele>
        <time>2011-10-08T07:53:15Z</time>
      </trkpt>
      <trkpt lat="45.22881" lon="4.22973">
        <ele>776.4</ele>
        <time>2011-10-08T07:53:19Z</time>
      </trkpt>
      <trkpt lat="45.22883" lon="4.22964">
        <ele>775.44</ele>
        <time>2011-10-08T07:53:20Z</time>
      </trkpt>
      <trkpt lat="45.22884" lon="4.22953">
        <ele>774.48</ele>
        <time>2011-10-08T07:53:21Z</time>
      </trkpt>
      <trkpt lat="45.22885" lon="4.22941">
        <ele>773.52</ele>
        <time>2011-10-08T07:53:22Z</time>
      </trkpt>
      <trkpt lat="45.22886" lon="4.2293">
        <ele>773.04</ele>
        <time>2011-10-08T07:53:23Z</time>
      </trkpt>
      <trkpt lat="45.22888" lon="4.22919">
        <ele>772.56</ele>
        <time>2011-10-08T07:53:24Z</time>
      </trkpt>
      <trkpt lat="45.22889" lon="4.22909">
        <ele>772.08</ele>
        <time>2011-10-08T07:53:25Z</time>
      </trkpt>
      <trkpt lat="45.22887" lon="4.229">
        <ele>772.08</ele>
        <time>2011-10-08T07:53:26Z</time>
      </trkpt>
      <trkpt lat="45.22885" lon="4.22893">
        <ele>772.08</ele>
        <time>2011-10-08T07:53:27Z</time>
      </trkpt>
      <trkpt lat="45.22882" lon="4.22886">
        <ele>772.08</ele>
        <time>2011-10-08T07:53:28Z</time>
      </trkpt>
      <trkpt lat="45.22879" lon="4.22881">
        <ele>772.08</ele>
        <time>2011-10-08T07:53:29Z</time>
      </trkpt>
      <trkpt lat="45.22875" lon="4.22876">
        <ele>772.08</ele>
        <time>2011-10-08T07:53:30Z</time>
      </trkpt>
      <trkpt lat="45.22872" lon="4.22871">
        <ele>772.56</ele>
        <time>2011-10-08T07:53:31Z</time>
      </trkpt>
      <trkpt lat="45.22869" lon="4.22866">
        <ele>772.56</ele>
        <time>2011-10-08T07:53:32Z</time>
      </trkpt>
      <trkpt lat="45.22866" lon="4.22861">
        <ele>773.04</ele>
        <time>2011-10-08T07:53:33Z</time>
      </trkpt>
      <trkpt lat="45.22863" lon="4.22858">
        <ele>773.04</ele>
        <time>2011-10-08T07:53:34Z</time>
      </trkpt>
      <trkpt lat="45.22859" lon="4.22853">
        <ele>773.52</ele>
        <time>2011-10-08T07:53:36Z</time>
      </trkpt>
      <trkpt lat="45.22856" lon="4.22852">
        <ele>774</ele>
        <time>2011-10-08T07:53:37Z</time>
      </trkpt>
      <trkpt lat="45.22829" lon="4.22852">
        <ele>775.44</ele>
        <time>2011-10-08T07:53:44Z</time>
      </trkpt>
      <trkpt lat="45.22821" lon="4.22851">
        <ele>775.92</ele>
        <time>2011-10-08T07:53:46Z</time>
      </trkpt>
      <trkpt lat="45.22816" lon="4.2285">
        <ele>776.4</ele>
        <time>2011-10-08T07:53:47Z</time>
      </trkpt>
      <trkpt lat="45.22812" lon="4.22848">
        <ele>776.4</ele>
        <time>2011-10-08T07:53:48Z</time>
      </trkpt>
      <trkpt lat="45.22781" lon="4.22828">
        <ele>774.96</ele>
        <time>2011-10-08T07:53:57Z</time>
      </trkpt>
      <trkpt lat="45.2275" lon="4.22813">
        <ele>773.04</ele>
        <time>2011-10-08T07:54:04Z</time>
      </trkpt>
      <trkpt lat="45.22746" lon="4.2281">
        <ele>772.56</ele>
        <time>2011-10-08T07:54:05Z</time>
      </trkpt>
      <trkpt lat="45.22741" lon="4.22808">
        <ele>772.56</ele>
        <time>2011-10-08T07:54:06Z</time>
      </trkpt>
      <trkpt lat="45.22735" lon="4.22805">
        <ele>772.56</ele>
        <time>2011-10-08T07:54:07Z</time>
      </trkpt>
      <trkpt lat="45.2273" lon="4.22803">
        <ele>772.56</ele>
        <time>2011-10-08T07:54:08Z</time>
      </trkpt>
      <trkpt lat="45.22719" lon="4.228">
        <ele>772.56</ele>
        <time>2011-10-08T07:54:10Z</time>
      </trkpt>
      <trkpt lat="45.22683" lon="4.22795">
        <ele>771.11</ele>
        <time>2011-10-08T07:54:17Z</time>
      </trkpt>
      <trkpt lat="45.22639" lon="4.22792">
        <ele>769.67</ele>
        <time>2011-10-08T07:54:25Z</time>
      </trkpt>
      <trkpt lat="45.22635" lon="4.22789">
        <ele>769.19</ele>
        <time>2011-10-08T07:54:26Z</time>
      </trkpt>
      <trkpt lat="45.22631" lon="4.22785">
        <ele>768.71</ele>
        <time>2011-10-08T07:54:27Z</time>
      </trkpt>
      <trkpt lat="45.22627" lon="4.22781">
        <ele>768.71</ele>
        <time>2011-10-08T07:54:28Z</time>
      </trkpt>
      <trkpt lat="45.22624" lon="4.22776">
        <ele>768.23</ele>
        <time>2011-10-08T07:54:29Z</time>
      </trkpt>
      <trkpt lat="45.22623" lon="4.2277">
        <ele>768.23</ele>
        <time>2011-10-08T07:54:30Z</time>
      </trkpt>
      <trkpt lat="45.22622" lon="4.22763">
        <ele>767.75</ele>
        <time>2011-10-08T07:54:31Z</time>
      </trkpt>
      <trkpt lat="45.22619" lon="4.2275">
        <ele>767.75</ele>
        <time>2011-10-08T07:54:33Z</time>
      </trkpt>
      <trkpt lat="45.22616" lon="4.22743">
        <ele>767.27</ele>
        <time>2011-10-08T07:54:34Z</time>
      </trkpt>
      <trkpt lat="45.22612" lon="4.22736">
        <ele>766.79</ele>
        <time>2011-10-08T07:54:35Z</time>
      </trkpt>
      <trkpt lat="45.22605" lon="4.22722">
        <ele>766.31</ele>
        <time>2011-10-08T07:54:37Z</time>
      </trkpt>
      <trkpt lat="45.22601" lon="4.22715">
        <ele>765.83</ele>
        <time>2011-10-08T07:54:38Z</time>
      </trkpt>
      <trkpt lat="45.22596" lon="4.2271">
        <ele>765.83</ele>
        <time>2011-10-08T07:54:39Z</time>
      </trkpt>
      <trkpt lat="45.22582" lon="4.22698">
        <ele>765.83</ele>
        <time>2011-10-08T07:54:42Z</time>
      </trkpt>
      <trkpt lat="45.22577" lon="4.22696">
        <ele>765.35</ele>
        <time>2011-10-08T07:54:43Z</time>
      </trkpt>
      <trkpt lat="45.22571" lon="4.22696">
        <ele>765.83</ele>
        <time>2011-10-08T07:54:44Z</time>
      </trkpt>
      <trkpt lat="45.22556" lon="4.22697">
        <ele>765.35</ele>
        <time>2011-10-08T07:54:47Z</time>
      </trkpt>
      <trkpt lat="45.2254" lon="4.22701">
        <ele>766.31</ele>
        <time>2011-10-08T07:54:52Z</time>
      </trkpt>
      <trkpt lat="45.22507" lon="4.22695">
        <ele>763.42</ele>
        <time>2011-10-08T07:55:01Z</time>
      </trkpt>
      <trkpt lat="45.22502" lon="4.22692">
        <ele>762.94</ele>
        <time>2011-10-08T07:55:02Z</time>
      </trkpt>
      <trkpt lat="45.22496" lon="4.22691">
        <ele>762.94</ele>
        <time>2011-10-08T07:55:03Z</time>
      </trkpt>
      <trkpt lat="45.2249" lon="4.22691">
        <ele>762.46</ele>
        <time>2011-10-08T07:55:04Z</time>
      </trkpt>
      <trkpt lat="45.22484" lon="4.22691">
        <ele>762.46</ele>
        <time>2011-10-08T07:55:05Z</time>
      </trkpt>
      <trkpt lat="45.22478" lon="4.2269">
        <ele>761.98</ele>
        <time>2011-10-08T07:55:06Z</time>
      </trkpt>
      <trkpt lat="45.22465" lon="4.22688">
        <ele>761.5</ele>
        <time>2011-10-08T07:55:08Z</time>
      </trkpt>
      <trkpt lat="45.22458" lon="4.22686">
        <ele>761.5</ele>
        <time>2011-10-08T07:55:09Z</time>
      </trkpt>
      <trkpt lat="45.22452" lon="4.22684">
        <ele>761.5</ele>
        <time>2011-10-08T07:55:10Z</time>
      </trkpt>
      <trkpt lat="45.22445" lon="4.22684">
        <ele>761.02</ele>
        <time>2011-10-08T07:55:11Z</time>
      </trkpt>
      <trkpt lat="45.22437" lon="4.22685">
        <ele>761.02</ele>
        <time>2011-10-08T07:55:12Z</time>
      </trkpt>
      <trkpt lat="45.2243" lon="4.22686">
        <ele>760.54</ele>
        <time>2011-10-08T07:55:13Z</time>
      </trkpt>
      <trkpt lat="45.22386" lon="4.22694">
        <ele>758.62</ele>
        <time>2011-10-08T07:55:19Z</time>
      </trkpt>
      <trkpt lat="45.22381" lon="4.227">
        <ele>758.14</ele>
        <time>2011-10-08T07:55:20Z</time>
      </trkpt>
      <trkpt lat="45.22378" lon="4.22708">
        <ele>758.14</ele>
        <time>2011-10-08T07:55:21Z</time>
      </trkpt>
      <trkpt lat="45.22376" lon="4.22715">
        <ele>758.14</ele>
        <time>2011-10-08T07:55:22Z</time>
      </trkpt>
      <trkpt lat="45.22374" lon="4.22722">
        <ele>758.62</ele>
        <time>2011-10-08T07:55:23Z</time>
      </trkpt>
      <trkpt lat="45.22373" lon="4.22728">
        <ele>758.62</ele>
        <time>2011-10-08T07:55:24Z</time>
      </trkpt>
      <trkpt lat="45.22371" lon="4.22733">
        <ele>758.62</ele>
        <time>2011-10-08T07:55:25Z</time>
      </trkpt>
      <trkpt lat="45.22369" lon="4.22736">
        <ele>758.14</ele>
        <time>2011-10-08T07:55:26Z</time>
      </trkpt>
      <trkpt lat="45.22367" lon="4.22739">
        <ele>758.14</ele>
        <time>2011-10-08T07:55:27Z</time>
      </trkpt>
      <trkpt lat="45.22366" lon="4.22741">
        <ele>758.14</ele>
        <time>2011-10-08T07:55:28Z</time>
      </trkpt>
      <trkpt lat="45.22364" lon="4.22744">
        <ele>758.14</ele>
        <time>2011-10-08T07:55:29Z</time>
      </trkpt>
      <trkpt lat="45.22363" lon="4.22747">
        <ele>758.14</ele>
        <time>2011-10-08T07:55:30Z</time>
      </trkpt>
      <trkpt lat="45.22361" lon="4.2275">
        <ele>758.62</ele>
        <time>2011-10-08T07:55:31Z</time>
      </trkpt>
      <trkpt lat="45.22359" lon="4.22753">
        <ele>758.62</ele>
        <time>2011-10-08T07:55:32Z</time>
      </trkpt>
      <trkpt lat="45.22357" lon="4.22755">
        <ele>758.62</ele>
        <time>2011-10-08T07:55:33Z</time>
      </trkpt>
      <trkpt lat="45.22355" lon="4.22758">
        <ele>758.62</ele>
        <time>2011-10-08T07:55:34Z</time>
      </trkpt>
      <trkpt lat="45.22345" lon="4.22772">
        <ele>758.14</ele>
        <time>2011-10-08T07:55:38Z</time>
      </trkpt>
      <trkpt lat="45.22315" lon="4.228">
        <ele>757.66</ele>
        <time>2011-10-08T07:55:45Z</time>
      </trkpt>
      <trkpt lat="45.22268" lon="4.22823">
        <ele>755.25</ele>
        <time>2011-10-08T07:55:54Z</time>
      </trkpt>
      <trkpt lat="45.22244" lon="4.22835">
        <ele>753.33</ele>
        <time>2011-10-08T07:55:58Z</time>
      </trkpt>
      <trkpt lat="45.22239" lon="4.22839">
        <ele>752.85</ele>
        <time>2011-10-08T07:55:59Z</time>
      </trkpt>
      <trkpt lat="45.22203" lon="4.22866">
        <ele>752.85</ele>
        <time>2011-10-08T07:56:07Z</time>
      </trkpt>
      <trkpt lat="45.22181" lon="4.22872">
        <ele>751.89</ele>
        <time>2011-10-08T07:56:11Z</time>
      </trkpt>
      <trkpt lat="45.22177" lon="4.22872">
        <ele>751.41</ele>
        <time>2011-10-08T07:56:12Z</time>
      </trkpt>
      <trkpt lat="45.22173" lon="4.2287">
        <ele>751.41</ele>
        <time>2011-10-08T07:56:13Z</time>
      </trkpt>
      <trkpt lat="45.22164" lon="4.22862">
        <ele>750.45</ele>
        <time>2011-10-08T07:56:16Z</time>
      </trkpt>
      <trkpt lat="45.22139" lon="4.22843">
        <ele>745.64</ele>
        <time>2011-10-08T07:56:22Z</time>
      </trkpt>
      <trkpt lat="45.22135" lon="4.22837">
        <ele>744.68</ele>
        <time>2011-10-08T07:56:23Z</time>
      </trkpt>
      <trkpt lat="45.22131" lon="4.22829">
        <ele>744.2</ele>
        <time>2011-10-08T07:56:24Z</time>
      </trkpt>
      <trkpt lat="45.22126" lon="4.22813">
        <ele>742.76</ele>
        <time>2011-10-08T07:56:26Z</time>
      </trkpt>
      <trkpt lat="45.22124" lon="4.22804">
        <ele>741.79</ele>
        <time>2011-10-08T07:56:27Z</time>
      </trkpt>
      <trkpt lat="45.22123" lon="4.22797">
        <ele>740.83</ele>
        <time>2011-10-08T07:56:28Z</time>
      </trkpt>
      <trkpt lat="45.22123" lon="4.2279">
        <ele>739.87</ele>
        <time>2011-10-08T07:56:29Z</time>
      </trkpt>
      <trkpt lat="45.22123" lon="4.22783">
        <ele>738.91</ele>
        <time>2011-10-08T07:56:30Z</time>
      </trkpt>
      <trkpt lat="45.22122" lon="4.22769">
        <ele>738.91</ele>
        <time>2011-10-08T07:56:32Z</time>
      </trkpt>
      <trkpt lat="45.22118" lon="4.22742">
        <ele>738.91</ele>
        <time>2011-10-08T07:56:37Z</time>
      </trkpt>
      <trkpt lat="45.22117" lon="4.22739">
        <ele>738.91</ele>
        <time>2011-10-08T07:56:38Z</time>
      </trkpt>
      <trkpt lat="45.22111" lon="4.22695">
        <ele>738.91</ele>
        <time>2011-10-08T07:56:48Z</time>
      </trkpt>
      <trkpt lat="45.22112" lon="4.22656">
        <ele>737.95</ele>
        <time>2011-10-08T07:56:57Z</time>
      </trkpt>
      <trkpt lat="45.22113" lon="4.22652">
        <ele>737.95</ele>
        <time>2011-10-08T07:56:58Z</time>
      </trkpt>
      <trkpt lat="45.22112" lon="4.22647">
        <ele>737.47</ele>
        <time>2011-10-08T07:56:59Z</time>
      </trkpt>
      <trkpt lat="45.2211" lon="4.22641">
        <ele>738.43</ele>
        <time>2011-10-08T07:57:00Z</time>
      </trkpt>
      <trkpt lat="45.22108" lon="4.22638">
        <ele>738.43</ele>
        <time>2011-10-08T07:57:01Z</time>
      </trkpt>
      <trkpt lat="45.22105" lon="4.22635">
        <ele>738.43</ele>
        <time>2011-10-08T07:57:02Z</time>
      </trkpt>
      <trkpt lat="45.22102" lon="4.22633">
        <ele>738.91</ele>
        <time>2011-10-08T07:57:03Z</time>
      </trkpt>
      <trkpt lat="45.22098" lon="4.22632">
        <ele>739.39</ele>
        <time>2011-10-08T07:57:04Z</time>
      </trkpt>
      <trkpt lat="45.22095" lon="4.22632">
        <ele>739.39</ele>
        <time>2011-10-08T07:57:05Z</time>
      </trkpt>
      <trkpt lat="45.22091" lon="4.22631">
        <ele>739.39</ele>
        <time>2011-10-08T07:57:06Z</time>
      </trkpt>
      <trkpt lat="45.2206" lon="4.22626">
        <ele>742.28</ele>
        <time>2011-10-08T07:57:16Z</time>
      </trkpt>
      <trkpt lat="45.22059" lon="4.22624">
        <ele>742.28</ele>
        <time>2011-10-08T07:57:17Z</time>
      </trkpt>
      <trkpt lat="45.22057" lon="4.22622">
        <ele>743.24</ele>
        <time>2011-10-08T07:57:18Z</time>
      </trkpt>
      <trkpt lat="45.22055" lon="4.2262">
        <ele>743.72</ele>
        <time>2011-10-08T07:57:19Z</time>
      </trkpt>
      <trkpt lat="45.22053" lon="4.22617">
        <ele>744.68</ele>
        <time>2011-10-08T07:57:20Z</time>
      </trkpt>
      <trkpt lat="45.2205" lon="4.22615">
        <ele>745.64</ele>
        <time>2011-10-08T07:57:21Z</time>
      </trkpt>
      <trkpt lat="45.22035" lon="4.22602">
        <ele>749</ele>
        <time>2011-10-08T07:57:31Z</time>
      </trkpt>
      <trkpt lat="45.2203" lon="4.22597">
        <ele>750.93</ele>
        <time>2011-10-08T07:57:34Z</time>
      </trkpt>
      <trkpt lat="45.22029" lon="4.22594">
        <ele>751.89</ele>
        <time>2011-10-08T07:57:35Z</time>
      </trkpt>
      <trkpt lat="45.22029" lon="4.22587">
        <ele>754.77</ele>
        <time>2011-10-08T07:57:38Z</time>
      </trkpt>
      <trkpt lat="45.2203" lon="4.22584">
        <ele>755.25</ele>
        <time>2011-10-08T07:57:39Z</time>
      </trkpt>
      <trkpt lat="45.22041" lon="4.22563">
        <ele>761.5</ele>
        <time>2011-10-08T07:57:50Z</time>
      </trkpt>
      <trkpt lat="45.2205" lon="4.22536">
        <ele>765.83</ele>
        <time>2011-10-08T07:58:01Z</time>
      </trkpt>
      <trkpt lat="45.22065" lon="4.22506">
        <ele>765.35</ele>
        <time>2011-10-08T07:58:09Z</time>
      </trkpt>
      <trkpt lat="45.22073" lon="4.22488">
        <ele>764.39</ele>
        <time>2011-10-08T07:58:12Z</time>
      </trkpt>
      <trkpt lat="45.22075" lon="4.22482">
        <ele>763.9</ele>
        <time>2011-10-08T07:58:13Z</time>
      </trkpt>
      <trkpt lat="45.22075" lon="4.22474">
        <ele>763.9</ele>
        <time>2011-10-08T07:58:14Z</time>
      </trkpt>
      <trkpt lat="45.22075" lon="4.22465">
        <ele>762.94</ele>
        <time>2011-10-08T07:58:15Z</time>
      </trkpt>
      <trkpt lat="45.22074" lon="4.22457">
        <ele>762.46</ele>
        <time>2011-10-08T07:58:16Z</time>
      </trkpt>
      <trkpt lat="45.22074" lon="4.22448">
        <ele>761.98</ele>
        <time>2011-10-08T07:58:17Z</time>
      </trkpt>
      <trkpt lat="45.22076" lon="4.2244">
        <ele>761.5</ele>
        <time>2011-10-08T07:58:18Z</time>
      </trkpt>
      <trkpt lat="45.22079" lon="4.22432">
        <ele>760.54</ele>
        <time>2011-10-08T07:58:19Z</time>
      </trkpt>
      <trkpt lat="45.22083" lon="4.22424">
        <ele>759.58</ele>
        <time>2011-10-08T07:58:20Z</time>
      </trkpt>
      <trkpt lat="45.22088" lon="4.22417">
        <ele>759.1</ele>
        <time>2011-10-08T07:58:21Z</time>
      </trkpt>
      <trkpt lat="45.22117" lon="4.22352">
        <ele>759.58</ele>
        <time>2011-10-08T07:58:31Z</time>
      </trkpt>
      <trkpt lat="45.22118" lon="4.22346">
        <ele>759.58</ele>
        <time>2011-10-08T07:58:32Z</time>
      </trkpt>
      <trkpt lat="45.2212" lon="4.22333">
        <ele>759.1</ele>
        <time>2011-10-08T07:58:34Z</time>
      </trkpt>
      <trkpt lat="45.22121" lon="4.22326">
        <ele>758.62</ele>
        <time>2011-10-08T07:58:35Z</time>
      </trkpt>
      <trkpt lat="45.22122" lon="4.2231">
        <ele>757.18</ele>
        <time>2011-10-08T07:58:37Z</time>
      </trkpt>
      <trkpt lat="45.22123" lon="4.22302">
        <ele>756.69</ele>
        <time>2011-10-08T07:58:38Z</time>
      </trkpt>
      <trkpt lat="45.22126" lon="4.22294">
        <ele>756.21</ele>
        <time>2011-10-08T07:58:39Z</time>
      </trkpt>
      <trkpt lat="45.22129" lon="4.22287">
        <ele>755.73</ele>
        <time>2011-10-08T07:58:40Z</time>
      </trkpt>
      <trkpt lat="45.22133" lon="4.22279">
        <ele>755.25</ele>
        <time>2011-10-08T07:58:41Z</time>
      </trkpt>
      <trkpt lat="45.22138" lon="4.22272">
        <ele>754.29</ele>
        <time>2011-10-08T07:58:42Z</time>
      </trkpt>
      <trkpt lat="45.22146" lon="4.22255">
        <ele>752.85</ele>
        <time>2011-10-08T07:58:44Z</time>
      </trkpt>
      <trkpt lat="45.22147" lon="4.22246">
        <ele>752.37</ele>
        <time>2011-10-08T07:58:45Z</time>
      </trkpt>
      <trkpt lat="45.22147" lon="4.22236">
        <ele>751.41</ele>
        <time>2011-10-08T07:58:46Z</time>
      </trkpt>
      <trkpt lat="45.22146" lon="4.22225">
        <ele>750.45</ele>
        <time>2011-10-08T07:58:47Z</time>
      </trkpt>
      <trkpt lat="45.22144" lon="4.22215">
        <ele>749.97</ele>
        <time>2011-10-08T07:58:48Z</time>
      </trkpt>
      <trkpt lat="45.22143" lon="4.22199">
        <ele>748.52</ele>
        <time>2011-10-08T07:58:50Z</time>
      </trkpt>
      <trkpt lat="45.22144" lon="4.22194">
        <ele>748.04</ele>
        <time>2011-10-08T07:58:51Z</time>
      </trkpt>
      <trkpt lat="45.22146" lon="4.22191">
        <ele>747.56</ele>
        <time>2011-10-08T07:58:52Z</time>
      </trkpt>
      <trkpt lat="45.22149" lon="4.22189">
        <ele>748.04</ele>
        <time>2011-10-08T07:58:53Z</time>
      </trkpt>
      <trkpt lat="45.22153" lon="4.22189">
        <ele>748.04</ele>
        <time>2011-10-08T07:58:54Z</time>
      </trkpt>
      <trkpt lat="45.22157" lon="4.22188">
        <ele>748.52</ele>
        <time>2011-10-08T07:58:55Z</time>
      </trkpt>
      <trkpt lat="45.2218" lon="4.22179">
        <ele>750.45</ele>
        <time>2011-10-08T07:59:01Z</time>
      </trkpt>
      <trkpt lat="45.22203" lon="4.2216">
        <ele>751.41</ele>
        <time>2011-10-08T07:59:07Z</time>
      </trkpt>
      <trkpt lat="45.22207" lon="4.22156">
        <ele>750.93</ele>
        <time>2011-10-08T07:59:08Z</time>
      </trkpt>
      <trkpt lat="45.22225" lon="4.22135">
        <ele>751.89</ele>
        <time>2011-10-08T07:59:13Z</time>
      </trkpt>
      <trkpt lat="45.22228" lon="4.22132">
        <ele>751.89</ele>
        <time>2011-10-08T07:59:14Z</time>
      </trkpt>
      <trkpt lat="45.22238" lon="4.22122">
        <ele>752.37</ele>
        <time>2011-10-08T07:59:17Z</time>
      </trkpt>
      <trkpt lat="45.22242" lon="4.22119">
        <ele>752.37</ele>
        <time>2011-10-08T07:59:18Z</time>
      </trkpt>
      <trkpt lat="45.22285" lon="4.22077">
        <ele>755.25</ele>
        <time>2011-10-08T07:59:32Z</time>
      </trkpt>
      <trkpt lat="45.2232" lon="4.22071">
        <ele>759.1</ele>
        <time>2011-10-08T07:59:43Z</time>
      </trkpt>
      <trkpt lat="45.22359" lon="4.22097">
        <ele>762.46</ele>
        <time>2011-10-08T07:59:57Z</time>
      </trkpt>
      <trkpt lat="45.22396" lon="4.22113">
        <ele>763.42</ele>
        <time>2011-10-08T08:00:09Z</time>
      </trkpt>
      <trkpt lat="45.22415" lon="4.22084">
        <ele>762.94</ele>
        <time>2011-10-08T08:00:18Z</time>
      </trkpt>
      <trkpt lat="45.22411" lon="4.22069">
        <ele>761.98</ele>
        <time>2011-10-08T08:00:21Z</time>
      </trkpt>
      <trkpt lat="45.22409" lon="4.22064">
        <ele>762.46</ele>
        <time>2011-10-08T08:00:22Z</time>
      </trkpt>
      <trkpt lat="45.22404" lon="4.22055">
        <ele>762.46</ele>
        <time>2011-10-08T08:00:24Z</time>
      </trkpt>
      <trkpt lat="45.22401" lon="4.2205">
        <ele>762.46</ele>
        <time>2011-10-08T08:00:25Z</time>
      </trkpt>
      <trkpt lat="45.22394" lon="4.22034">
        <ele>762.46</ele>
        <time>2011-10-08T08:00:28Z</time>
      </trkpt>
      <trkpt lat="45.22393" lon="4.22029">
        <ele>762.46</ele>
        <time>2011-10-08T08:00:29Z</time>
      </trkpt>
      <trkpt lat="45.22388" lon="4.22011">
        <ele>762.46</ele>
        <time>2011-10-08T08:00:32Z</time>
      </trkpt>
      <trkpt lat="45.22385" lon="4.2196">
        <ele>764.87</ele>
        <time>2011-10-08T08:00:43Z</time>
      </trkpt>
      <trkpt lat="45.2239" lon="4.21899">
        <ele>768.71</ele>
        <time>2011-10-08T08:00:57Z</time>
      </trkpt>
      <trkpt lat="45.22403" lon="4.21842">
        <ele>770.63</ele>
        <time>2011-10-08T08:01:10Z</time>
      </trkpt>
      <trkpt lat="45.22428" lon="4.2178">
        <ele>771.11</ele>
        <time>2011-10-08T08:01:23Z</time>
      </trkpt>
      <trkpt lat="45.22431" lon="4.21775">
        <ele>771.11</ele>
        <time>2011-10-08T08:01:24Z</time>
      </trkpt>
      <trkpt lat="45.22455" lon="4.21744">
        <ele>772.08</ele>
        <time>2011-10-08T08:01:32Z</time>
      </trkpt>
      <trkpt lat="45.22471" lon="4.21719">
        <ele>773.04</ele>
        <time>2011-10-08T08:01:38Z</time>
      </trkpt>
      <trkpt lat="45.22473" lon="4.21714">
        <ele>773.04</ele>
        <time>2011-10-08T08:01:39Z</time>
      </trkpt>
      <trkpt lat="45.22475" lon="4.21709">
        <ele>773.04</ele>
        <time>2011-10-08T08:01:40Z</time>
      </trkpt>
      <trkpt lat="45.22488" lon="4.21648">
        <ele>774</ele>
        <time>2011-10-08T08:01:54Z</time>
      </trkpt>
      <trkpt lat="45.22488" lon="4.21642">
        <ele>774</ele>
        <time>2011-10-08T08:02:04Z</time>
      </trkpt>
      <trkpt lat="45.22488" lon="4.21642">
        <ele>773.52</ele>
        <time>2011-10-08T08:04:09Z</time>
      </trkpt>
      <trkpt lat="45.2249" lon="4.21641">
        <ele>774.48</ele>
        <time>2011-10-08T08:05:45Z</time>
      </trkpt>
      <trkpt lat="45.2249" lon="4.2164">
        <ele>774.48</ele>
        <time>2011-10-08T08:05:46Z</time>
      </trkpt>
      <trkpt lat="45.22491" lon="4.21639">
        <ele>774.48</ele>
        <time>2011-10-08T08:05:47Z</time>
      </trkpt>
      <trkpt lat="45.22493" lon="4.21638">
        <ele>774.48</ele>
        <time>2011-10-08T08:05:48Z</time>
      </trkpt>
      <trkpt lat="45.22494" lon="4.21636">
        <ele>774.48</ele>
        <time>2011-10-08T08:05:49Z</time>
      </trkpt>
      <trkpt lat="45.22496" lon="4.21634">
        <ele>774.48</ele>
        <time>2011-10-08T08:05:50Z</time>
      </trkpt>
      <trkpt lat="45.22522" lon="4.21603">
        <ele>774.96</ele>
        <time>2011-10-08T08:06:01Z</time>
      </trkpt>
      <trkpt lat="45.22561" lon="4.21569">
        <ele>777.36</ele>
        <time>2011-10-08T08:06:14Z</time>
      </trkpt>
      <trkpt lat="45.22604" lon="4.21519">
        <ele>778.81</ele>
        <time>2011-10-08T08:06:29Z</time>
      </trkpt>
      <trkpt lat="45.22639" lon="4.21476">
        <ele>783.13</ele>
        <time>2011-10-08T08:06:42Z</time>
      </trkpt>
      <trkpt lat="45.22664" lon="4.21418">
        <ele>782.17</ele>
        <time>2011-10-08T08:06:55Z</time>
      </trkpt>
      <trkpt lat="45.22681" lon="4.21371">
        <ele>781.69</ele>
        <time>2011-10-08T08:07:04Z</time>
      </trkpt>
      <trkpt lat="45.22683" lon="4.21366">
        <ele>781.69</ele>
        <time>2011-10-08T08:07:05Z</time>
      </trkpt>
      <trkpt lat="45.22695" lon="4.21332">
        <ele>781.21</ele>
        <time>2011-10-08T08:07:11Z</time>
      </trkpt>
      <trkpt lat="45.22709" lon="4.21297">
        <ele>779.77</ele>
        <time>2011-10-08T08:07:16Z</time>
      </trkpt>
      <trkpt lat="45.2272" lon="4.21274">
        <ele>778.81</ele>
        <time>2011-10-08T08:07:19Z</time>
      </trkpt>
      <trkpt lat="45.22725" lon="4.21267">
        <ele>778.32</ele>
        <time>2011-10-08T08:07:20Z</time>
      </trkpt>
      <trkpt lat="45.22753" lon="4.2123">
        <ele>775.92</ele>
        <time>2011-10-08T08:07:26Z</time>
      </trkpt>
      <trkpt lat="45.22792" lon="4.2118">
        <ele>774.96</ele>
        <time>2011-10-08T08:07:34Z</time>
      </trkpt>
      <trkpt lat="45.22798" lon="4.21176">
        <ele>774.96</ele>
        <time>2011-10-08T08:07:35Z</time>
      </trkpt>
      <trkpt lat="45.22803" lon="4.21171">
        <ele>774.48</ele>
        <time>2011-10-08T08:07:36Z</time>
      </trkpt>
      <trkpt lat="45.2283" lon="4.21148">
        <ele>774</ele>
        <time>2011-10-08T08:07:41Z</time>
      </trkpt>
      <trkpt lat="45.22835" lon="4.21143">
        <ele>774</ele>
        <time>2011-10-08T08:07:42Z</time>
      </trkpt>
      <trkpt lat="45.22861" lon="4.21121">
        <ele>774</ele>
        <time>2011-10-08T08:07:47Z</time>
      </trkpt>
      <trkpt lat="45.22866" lon="4.21118">
        <ele>774</ele>
        <time>2011-10-08T08:07:48Z</time>
      </trkpt>
      <trkpt lat="45.22871" lon="4.21116">
        <ele>774</ele>
        <time>2011-10-08T08:07:49Z</time>
      </trkpt>
      <trkpt lat="45.22892" lon="4.21108">
        <ele>773.52</ele>
        <time>2011-10-08T08:07:53Z</time>
      </trkpt>
      <trkpt lat="45.22902" lon="4.21103">
        <ele>773.52</ele>
        <time>2011-10-08T08:07:55Z</time>
      </trkpt>
      <trkpt lat="45.22907" lon="4.21101">
        <ele>773.52</ele>
        <time>2011-10-08T08:07:56Z</time>
      </trkpt>
      <trkpt lat="45.22912" lon="4.211">
        <ele>773.52</ele>
        <time>2011-10-08T08:07:57Z</time>
      </trkpt>
      <trkpt lat="45.22921" lon="4.21098">
        <ele>774</ele>
        <time>2011-10-08T08:07:59Z</time>
      </trkpt>
      <trkpt lat="45.22925" lon="4.21096">
        <ele>774</ele>
        <time>2011-10-08T08:08:00Z</time>
      </trkpt>
      <trkpt lat="45.22933" lon="4.21092">
        <ele>774.48</ele>
        <time>2011-10-08T08:08:02Z</time>
      </trkpt>
      <trkpt lat="45.22937" lon="4.21089">
        <ele>774.48</ele>
        <time>2011-10-08T08:08:03Z</time>
      </trkpt>
      <trkpt lat="45.22941" lon="4.21085">
        <ele>774.96</ele>
        <time>2011-10-08T08:08:04Z</time>
      </trkpt>
      <trkpt lat="45.22944" lon="4.21081">
        <ele>774.96</ele>
        <time>2011-10-08T08:08:05Z</time>
      </trkpt>
      <trkpt lat="45.22947" lon="4.21077">
        <ele>774.96</ele>
        <time>2011-10-08T08:08:06Z</time>
      </trkpt>
      <trkpt lat="45.22975" lon="4.21028">
        <ele>774</ele>
        <time>2011-10-08T08:08:16Z</time>
      </trkpt>
      <trkpt lat="45.22979" lon="4.21024">
        <ele>773.52</ele>
        <time>2011-10-08T08:08:17Z</time>
      </trkpt>
      <trkpt lat="45.22983" lon="4.21018">
        <ele>773.04</ele>
        <time>2011-10-08T08:08:18Z</time>
      </trkpt>
      <trkpt lat="45.22986" lon="4.21012">
        <ele>772.56</ele>
        <time>2011-10-08T08:08:19Z</time>
      </trkpt>
      <trkpt lat="45.2299" lon="4.21006">
        <ele>772.08</ele>
        <time>2011-10-08T08:08:20Z</time>
      </trkpt>
      <trkpt lat="45.22995" lon="4.21001">
        <ele>771.6</ele>
        <time>2011-10-08T08:08:21Z</time>
      </trkpt>
      <trkpt lat="45.23" lon="4.20997">
        <ele>771.6</ele>
        <time>2011-10-08T08:08:22Z</time>
      </trkpt>
      <trkpt lat="45.23005" lon="4.20993">
        <ele>771.11</ele>
        <time>2011-10-08T08:08:23Z</time>
      </trkpt>
      <trkpt lat="45.2301" lon="4.20988">
        <ele>770.63</ele>
        <time>2011-10-08T08:08:24Z</time>
      </trkpt>
      <trkpt lat="45.23015" lon="4.20983">
        <ele>770.15</ele>
        <time>2011-10-08T08:08:25Z</time>
      </trkpt>
      <trkpt lat="45.2302" lon="4.20977">
        <ele>770.15</ele>
        <time>2011-10-08T08:08:26Z</time>
      </trkpt>
      <trkpt lat="45.23024" lon="4.2097">
        <ele>770.15</ele>
        <time>2011-10-08T08:08:27Z</time>
      </trkpt>
      <trkpt lat="45.23033" lon="4.20958">
        <ele>769.67</ele>
        <time>2011-10-08T08:08:29Z</time>
      </trkpt>
      <trkpt lat="45.23038" lon="4.20953">
        <ele>769.67</ele>
        <time>2011-10-08T08:08:30Z</time>
      </trkpt>
      <trkpt lat="45.23044" lon="4.2095">
        <ele>769.67</ele>
        <time>2011-10-08T08:08:31Z</time>
      </trkpt>
      <trkpt lat="45.23091" lon="4.20926">
        <ele>769.19</ele>
        <time>2011-10-08T08:08:39Z</time>
      </trkpt>
      <trkpt lat="45.23097" lon="4.20925">
        <ele>769.19</ele>
        <time>2011-10-08T08:08:40Z</time>
      </trkpt>
      <trkpt lat="45.23102" lon="4.20925">
        <ele>769.19</ele>
        <time>2011-10-08T08:08:41Z</time>
      </trkpt>
      <trkpt lat="45.23107" lon="4.20927">
        <ele>769.19</ele>
        <time>2011-10-08T08:08:42Z</time>
      </trkpt>
      <trkpt lat="45.23112" lon="4.20929">
        <ele>769.19</ele>
        <time>2011-10-08T08:08:43Z</time>
      </trkpt>
      <trkpt lat="45.23145" lon="4.20947">
        <ele>769.67</ele>
        <time>2011-10-08T08:08:50Z</time>
      </trkpt>
      <trkpt lat="45.23183" lon="4.20943">
        <ele>770.15</ele>
        <time>2011-10-08T08:09:00Z</time>
      </trkpt>
      <trkpt lat="45.23186" lon="4.20942">
        <ele>770.15</ele>
        <time>2011-10-08T08:09:01Z</time>
      </trkpt>
      <trkpt lat="45.2319" lon="4.20943">
        <ele>770.63</ele>
        <time>2011-10-08T08:09:02Z</time>
      </trkpt>
      <trkpt lat="45.23224" lon="4.20936">
        <ele>772.08</ele>
        <time>2011-10-08T08:09:11Z</time>
      </trkpt>
      <trkpt lat="45.23252" lon="4.20918">
        <ele>772.08</ele>
        <time>2011-10-08T08:09:18Z</time>
      </trkpt>
      <trkpt lat="45.23329" lon="4.20876">
        <ele>772.56</ele>
        <time>2011-10-08T08:09:36Z</time>
      </trkpt>
      <trkpt lat="45.2337" lon="4.20848">
        <ele>771.11</ele>
        <time>2011-10-08T08:09:44Z</time>
      </trkpt>
      <trkpt lat="45.23379" lon="4.20838">
        <ele>771.11</ele>
        <time>2011-10-08T08:09:46Z</time>
      </trkpt>
      <trkpt lat="45.23387" lon="4.20827">
        <ele>771.11</ele>
        <time>2011-10-08T08:09:48Z</time>
      </trkpt>
      <trkpt lat="45.23396" lon="4.20808">
        <ele>771.11</ele>
        <time>2011-10-08T08:09:51Z</time>
      </trkpt>
      <trkpt lat="45.23399" lon="4.20802">
        <ele>771.11</ele>
        <time>2011-10-08T08:09:52Z</time>
      </trkpt>
      <trkpt lat="45.23423" lon="4.20744">
        <ele>773.52</ele>
        <time>2011-10-08T08:10:04Z</time>
      </trkpt>
      <trkpt lat="45.23458" lon="4.20756">
        <ele>775.92</ele>
        <time>2011-10-08T08:10:16Z</time>
      </trkpt>
      <trkpt lat="45.23486" lon="4.20768">
        <ele>777.84</ele>
        <time>2011-10-08T08:10:27Z</time>
      </trkpt>
      <trkpt lat="45.23488" lon="4.2077">
        <ele>778.32</ele>
        <time>2011-10-08T08:10:28Z</time>
      </trkpt>
      <trkpt lat="45.23489" lon="4.20773">
        <ele>778.32</ele>
        <time>2011-10-08T08:10:29Z</time>
      </trkpt>
      <trkpt lat="45.2349" lon="4.20776">
        <ele>778.32</ele>
        <time>2011-10-08T08:10:30Z</time>
      </trkpt>
      <trkpt lat="45.2349" lon="4.20781">
        <ele>778.32</ele>
        <time>2011-10-08T08:10:31Z</time>
      </trkpt>
      <trkpt lat="45.2349" lon="4.20785">
        <ele>778.81</ele>
        <time>2011-10-08T08:10:32Z</time>
      </trkpt>
      <trkpt lat="45.23493" lon="4.20805">
        <ele>779.77</ele>
        <time>2011-10-08T08:10:37Z</time>
      </trkpt>
      <trkpt lat="45.23495" lon="4.20806">
        <ele>780.25</ele>
        <time>2011-10-08T08:10:38Z</time>
      </trkpt>
      <trkpt lat="45.23498" lon="4.20806">
        <ele>780.25</ele>
        <time>2011-10-08T08:10:39Z</time>
      </trkpt>
      <trkpt lat="45.23501" lon="4.20805">
        <ele>780.25</ele>
        <time>2011-10-08T08:10:40Z</time>
      </trkpt>
      <trkpt lat="45.23503" lon="4.20804">
        <ele>780.25</ele>
        <time>2011-10-08T08:10:41Z</time>
      </trkpt>
      <trkpt lat="45.23505" lon="4.20802">
        <ele>780.25</ele>
        <time>2011-10-08T08:10:42Z</time>
      </trkpt>
      <trkpt lat="45.23539" lon="4.20798">
        <ele>782.17</ele>
        <time>2011-10-08T08:10:54Z</time>
      </trkpt>
      <trkpt lat="45.23575" lon="4.20794">
        <ele>784.09</ele>
        <time>2011-10-08T08:11:06Z</time>
      </trkpt>
      <trkpt lat="45.23619" lon="4.20788">
        <ele>786.02</ele>
        <time>2011-10-08T08:11:20Z</time>
      </trkpt>
      <trkpt lat="45.23655" lon="4.20782">
        <ele>787.46</ele>
        <time>2011-10-08T08:11:31Z</time>
      </trkpt>
      <trkpt lat="45.23687" lon="4.20768">
        <ele>789.38</ele>
        <time>2011-10-08T08:11:42Z</time>
      </trkpt>
      <trkpt lat="45.23688" lon="4.20764">
        <ele>789.38</ele>
        <time>2011-10-08T08:11:43Z</time>
      </trkpt>
      <trkpt lat="45.23688" lon="4.20759">
        <ele>788.9</ele>
        <time>2011-10-08T08:11:44Z</time>
      </trkpt>
      <trkpt lat="45.23688" lon="4.20754">
        <ele>788.9</ele>
        <time>2011-10-08T08:11:45Z</time>
      </trkpt>
      <trkpt lat="45.23687" lon="4.20749">
        <ele>788.42</ele>
        <time>2011-10-08T08:11:46Z</time>
      </trkpt>
      <trkpt lat="45.23687" lon="4.20745">
        <ele>788.42</ele>
        <time>2011-10-08T08:11:47Z</time>
      </trkpt>
      <trkpt lat="45.23686" lon="4.20739">
        <ele>788.42</ele>
        <time>2011-10-08T08:11:48Z</time>
      </trkpt>
      <trkpt lat="45.23685" lon="4.20733">
        <ele>787.94</ele>
        <time>2011-10-08T08:11:49Z</time>
      </trkpt>
      <trkpt lat="45.23661" lon="4.20633">
        <ele>785.53</ele>
        <time>2011-10-08T08:12:01Z</time>
      </trkpt>
      <trkpt lat="45.23648" lon="4.20502">
        <ele>775.92</ele>
        <time>2011-10-08T08:12:11Z</time>
      </trkpt>
      <trkpt lat="45.23643" lon="4.20462">
        <ele>771.6</ele>
        <time>2011-10-08T08:12:17Z</time>
      </trkpt>
      <trkpt lat="45.23641" lon="4.20456">
        <ele>771.11</ele>
        <time>2011-10-08T08:12:18Z</time>
      </trkpt>
      <trkpt lat="45.23637" lon="4.20433">
        <ele>770.15</ele>
        <time>2011-10-08T08:12:21Z</time>
      </trkpt>
      <trkpt lat="45.23636" lon="4.20424">
        <ele>769.67</ele>
        <time>2011-10-08T08:12:22Z</time>
      </trkpt>
      <trkpt lat="45.23623" lon="4.20372">
        <ele>768.71</ele>
        <time>2011-10-08T08:12:28Z</time>
      </trkpt>
      <trkpt lat="45.23623" lon="4.20363">
        <ele>768.71</ele>
        <time>2011-10-08T08:12:29Z</time>
      </trkpt>
      <trkpt lat="45.23624" lon="4.20354">
        <ele>768.71</ele>
        <time>2011-10-08T08:12:30Z</time>
      </trkpt>
      <trkpt lat="45.23626" lon="4.20345">
        <ele>768.71</ele>
        <time>2011-10-08T08:12:31Z</time>
      </trkpt>
      <trkpt lat="45.23628" lon="4.20337">
        <ele>768.71</ele>
        <time>2011-10-08T08:12:32Z</time>
      </trkpt>
      <trkpt lat="45.23627" lon="4.20235">
        <ele>768.23</ele>
        <time>2011-10-08T08:12:44Z</time>
      </trkpt>
      <trkpt lat="45.23616" lon="4.20174">
        <ele>769.19</ele>
        <time>2011-10-08T08:12:52Z</time>
      </trkpt>
      <trkpt lat="45.23613" lon="4.20171">
        <ele>769.19</ele>
        <time>2011-10-08T08:12:53Z</time>
      </trkpt>
      <trkpt lat="45.2361" lon="4.20169">
        <ele>769.67</ele>
        <time>2011-10-08T08:12:54Z</time>
      </trkpt>
      <trkpt lat="45.23607" lon="4.20165">
        <ele>770.15</ele>
        <time>2011-10-08T08:12:55Z</time>
      </trkpt>
      <trkpt lat="45.23604" lon="4.20161">
        <ele>770.15</ele>
        <time>2011-10-08T08:12:56Z</time>
      </trkpt>
      <trkpt lat="45.23595" lon="4.20153">
        <ele>771.11</ele>
        <time>2011-10-08T08:12:59Z</time>
      </trkpt>
      <trkpt lat="45.23584" lon="4.20154">
        <ele>771.6</ele>
        <time>2011-10-08T08:13:02Z</time>
      </trkpt>
      <trkpt lat="45.2358" lon="4.20156">
        <ele>771.6</ele>
        <time>2011-10-08T08:13:03Z</time>
      </trkpt>
      <trkpt lat="45.23574" lon="4.20156">
        <ele>771.6</ele>
        <time>2011-10-08T08:13:04Z</time>
      </trkpt>
      <trkpt lat="45.23569" lon="4.20155">
        <ele>771.6</ele>
        <time>2011-10-08T08:13:05Z</time>
      </trkpt>
      <trkpt lat="45.23563" lon="4.20155">
        <ele>771.6</ele>
        <time>2011-10-08T08:13:06Z</time>
      </trkpt>
      <trkpt lat="45.23502" lon="4.20161">
        <ele>771.6</ele>
        <time>2011-10-08T08:13:17Z</time>
      </trkpt>
      <trkpt lat="45.23473" lon="4.20156">
        <ele>773.04</ele>
        <time>2011-10-08T08:13:23Z</time>
      </trkpt>
      <trkpt lat="45.23464" lon="4.20154">
        <ele>773.52</ele>
        <time>2011-10-08T08:13:25Z</time>
      </trkpt>
      <trkpt lat="45.2346" lon="4.20154">
        <ele>774</ele>
        <time>2011-10-08T08:13:26Z</time>
      </trkpt>
      <trkpt lat="45.23451" lon="4.20153">
        <ele>774.48</ele>
        <time>2011-10-08T08:13:28Z</time>
      </trkpt>
      <trkpt lat="45.23434" lon="4.2015">
        <ele>774.48</ele>
        <time>2011-10-08T08:13:32Z</time>
      </trkpt>
      <trkpt lat="45.23426" lon="4.20148">
        <ele>774.96</ele>
        <time>2011-10-08T08:13:34Z</time>
      </trkpt>
      <trkpt lat="45.23422" lon="4.20147">
        <ele>774.96</ele>
        <time>2011-10-08T08:13:35Z</time>
      </trkpt>
      <trkpt lat="45.23418" lon="4.20146">
        <ele>775.44</ele>
        <time>2011-10-08T08:13:36Z</time>
      </trkpt>
      <trkpt lat="45.2341" lon="4.20142">
        <ele>775.92</ele>
        <time>2011-10-08T08:13:38Z</time>
      </trkpt>
      <trkpt lat="45.23405" lon="4.2014">
        <ele>775.44</ele>
        <time>2011-10-08T08:13:39Z</time>
      </trkpt>
      <trkpt lat="45.23401" lon="4.20136">
        <ele>774.96</ele>
        <time>2011-10-08T08:13:40Z</time>
      </trkpt>
      <trkpt lat="45.23398" lon="4.2013">
        <ele>774</ele>
        <time>2011-10-08T08:13:41Z</time>
      </trkpt>
      <trkpt lat="45.23395" lon="4.20124">
        <ele>773.52</ele>
        <time>2011-10-08T08:13:42Z</time>
      </trkpt>
      <trkpt lat="45.23394" lon="4.20117">
        <ele>772.56</ele>
        <time>2011-10-08T08:13:43Z</time>
      </trkpt>
      <trkpt lat="45.23392" lon="4.2011">
        <ele>771.6</ele>
        <time>2011-10-08T08:13:44Z</time>
      </trkpt>
      <trkpt lat="45.23391" lon="4.20101">
        <ele>771.11</ele>
        <time>2011-10-08T08:13:45Z</time>
      </trkpt>
      <trkpt lat="45.23391" lon="4.20092">
        <ele>770.15</ele>
        <time>2011-10-08T08:13:46Z</time>
      </trkpt>
      <trkpt lat="45.2339" lon="4.20082">
        <ele>769.67</ele>
        <time>2011-10-08T08:13:47Z</time>
      </trkpt>
      <trkpt lat="45.23389" lon="4.2006">
        <ele>768.71</ele>
        <time>2011-10-08T08:13:49Z</time>
      </trkpt>
      <trkpt lat="45.23388" lon="4.20049">
        <ele>767.75</ele>
        <time>2011-10-08T08:13:50Z</time>
      </trkpt>
      <trkpt lat="45.23382" lon="4.20026">
        <ele>766.31</ele>
        <time>2011-10-08T08:13:52Z</time>
      </trkpt>
      <trkpt lat="45.23377" lon="4.20016">
        <ele>765.35</ele>
        <time>2011-10-08T08:13:53Z</time>
      </trkpt>
      <trkpt lat="45.23372" lon="4.20007">
        <ele>764.39</ele>
        <time>2011-10-08T08:13:54Z</time>
      </trkpt>
      <trkpt lat="45.23364" lon="4.19994">
        <ele>763.42</ele>
        <time>2011-10-08T08:13:56Z</time>
      </trkpt>
      <trkpt lat="45.23361" lon="4.19986">
        <ele>762.94</ele>
        <time>2011-10-08T08:13:57Z</time>
      </trkpt>
      <trkpt lat="45.23358" lon="4.19977">
        <ele>762.46</ele>
        <time>2011-10-08T08:13:58Z</time>
      </trkpt>
      <trkpt lat="45.23356" lon="4.19967">
        <ele>761.98</ele>
        <time>2011-10-08T08:13:59Z</time>
      </trkpt>
      <trkpt lat="45.23355" lon="4.19957">
        <ele>761.98</ele>
        <time>2011-10-08T08:14:00Z</time>
      </trkpt>
      <trkpt lat="45.23354" lon="4.19947">
        <ele>761.98</ele>
        <time>2011-10-08T08:14:01Z</time>
      </trkpt>
      <trkpt lat="45.23348" lon="4.19833">
        <ele>757.18</ele>
        <time>2011-10-08T08:14:11Z</time>
      </trkpt>
      <trkpt lat="45.23347" lon="4.19827">
        <ele>756.69</ele>
        <time>2011-10-08T08:14:12Z</time>
      </trkpt>
      <trkpt lat="45.23344" lon="4.19823">
        <ele>756.21</ele>
        <time>2011-10-08T08:14:13Z</time>
      </trkpt>
      <trkpt lat="45.23341" lon="4.19822">
        <ele>755.73</ele>
        <time>2011-10-08T08:14:14Z</time>
      </trkpt>
      <trkpt lat="45.23336" lon="4.19821">
        <ele>755.25</ele>
        <time>2011-10-08T08:14:15Z</time>
      </trkpt>
      <trkpt lat="45.23332" lon="4.19821">
        <ele>754.77</ele>
        <time>2011-10-08T08:14:16Z</time>
      </trkpt>
      <trkpt lat="45.23326" lon="4.19821">
        <ele>754.77</ele>
        <time>2011-10-08T08:14:17Z</time>
      </trkpt>
      <trkpt lat="45.23321" lon="4.1982">
        <ele>754.29</ele>
        <time>2011-10-08T08:14:18Z</time>
      </trkpt>
      <trkpt lat="45.23235" lon="4.19792">
        <ele>750.93</ele>
        <time>2011-10-08T08:14:32Z</time>
      </trkpt>
      <trkpt lat="45.23229" lon="4.19788">
        <ele>750.93</ele>
        <time>2011-10-08T08:14:33Z</time>
      </trkpt>
      <trkpt lat="45.23224" lon="4.19783">
        <ele>750.45</ele>
        <time>2011-10-08T08:14:34Z</time>
      </trkpt>
      <trkpt lat="45.23219" lon="4.19777">
        <ele>749.97</ele>
        <time>2011-10-08T08:14:35Z</time>
      </trkpt>
      <trkpt lat="45.23214" lon="4.19771">
        <ele>749.49</ele>
        <time>2011-10-08T08:14:36Z</time>
      </trkpt>
      <trkpt lat="45.23209" lon="4.19766">
        <ele>749</ele>
        <time>2011-10-08T08:14:37Z</time>
      </trkpt>
      <trkpt lat="45.23204" lon="4.19761">
        <ele>749</ele>
        <time>2011-10-08T08:14:38Z</time>
      </trkpt>
      <trkpt lat="45.23183" lon="4.19746">
        <ele>749</ele>
        <time>2011-10-08T08:14:42Z</time>
      </trkpt>
      <trkpt lat="45.23178" lon="4.19744">
        <ele>749</ele>
        <time>2011-10-08T08:14:43Z</time>
      </trkpt>
      <trkpt lat="45.23172" lon="4.19742">
        <ele>748.52</ele>
        <time>2011-10-08T08:14:44Z</time>
      </trkpt>
      <trkpt lat="45.23166" lon="4.19741">
        <ele>748.52</ele>
        <time>2011-10-08T08:14:45Z</time>
      </trkpt>
      <trkpt lat="45.2316" lon="4.19744">
        <ele>748.04</ele>
        <time>2011-10-08T08:14:46Z</time>
      </trkpt>
      <trkpt lat="45.23154" lon="4.19747">
        <ele>747.56</ele>
        <time>2011-10-08T08:14:47Z</time>
      </trkpt>
      <trkpt lat="45.23142" lon="4.19754">
        <ele>746.6</ele>
        <time>2011-10-08T08:14:49Z</time>
      </trkpt>
      <trkpt lat="45.23096" lon="4.19784">
        <ele>742.76</ele>
        <time>2011-10-08T08:14:57Z</time>
      </trkpt>
      <trkpt lat="45.2309" lon="4.19787">
        <ele>742.28</ele>
        <time>2011-10-08T08:14:58Z</time>
      </trkpt>
      <trkpt lat="45.23071" lon="4.19797">
        <ele>740.35</ele>
        <time>2011-10-08T08:15:01Z</time>
      </trkpt>
      <trkpt lat="45.23044" lon="4.19804">
        <ele>738.43</ele>
        <time>2011-10-08T08:15:05Z</time>
      </trkpt>
      <trkpt lat="45.23039" lon="4.19805">
        <ele>737.95</ele>
        <time>2011-10-08T08:15:06Z</time>
      </trkpt>
      <trkpt lat="45.23034" lon="4.19805">
        <ele>737.47</ele>
        <time>2011-10-08T08:15:07Z</time>
      </trkpt>
      <trkpt lat="45.23022" lon="4.19804">
        <ele>735.55</ele>
        <time>2011-10-08T08:15:09Z</time>
      </trkpt>
      <trkpt lat="45.23016" lon="4.19803">
        <ele>735.07</ele>
        <time>2011-10-08T08:15:10Z</time>
      </trkpt>
      <trkpt lat="45.2301" lon="4.19801">
        <ele>734.58</ele>
        <time>2011-10-08T08:15:11Z</time>
      </trkpt>
      <trkpt lat="45.22998" lon="4.19797">
        <ele>734.1</ele>
        <time>2011-10-08T08:15:13Z</time>
      </trkpt>
      <trkpt lat="45.22993" lon="4.19794">
        <ele>734.1</ele>
        <time>2011-10-08T08:15:14Z</time>
      </trkpt>
      <trkpt lat="45.22988" lon="4.19791">
        <ele>733.62</ele>
        <time>2011-10-08T08:15:15Z</time>
      </trkpt>
      <trkpt lat="45.22954" lon="4.1977">
        <ele>731.22</ele>
        <time>2011-10-08T08:15:21Z</time>
      </trkpt>
      <trkpt lat="45.22949" lon="4.19766">
        <ele>730.74</ele>
        <time>2011-10-08T08:15:22Z</time>
      </trkpt>
      <trkpt lat="45.22925" lon="4.19742">
        <ele>729.3</ele>
        <time>2011-10-08T08:15:27Z</time>
      </trkpt>
      <trkpt lat="45.22915" lon="4.1973">
        <ele>728.82</ele>
        <time>2011-10-08T08:15:30Z</time>
      </trkpt>
      <trkpt lat="45.22914" lon="4.19725">
        <ele>728.34</ele>
        <time>2011-10-08T08:15:31Z</time>
      </trkpt>
      <trkpt lat="45.22915" lon="4.1972">
        <ele>727.37</ele>
        <time>2011-10-08T08:15:32Z</time>
      </trkpt>
      <trkpt lat="45.22916" lon="4.19715">
        <ele>726.89</ele>
        <time>2011-10-08T08:15:33Z</time>
      </trkpt>
      <trkpt lat="45.22916" lon="4.1971">
        <ele>725.93</ele>
        <time>2011-10-08T08:15:34Z</time>
      </trkpt>
      <trkpt lat="45.22917" lon="4.19705">
        <ele>725.45</ele>
        <time>2011-10-08T08:15:35Z</time>
      </trkpt>
      <trkpt lat="45.22919" lon="4.19702">
        <ele>724.49</ele>
        <time>2011-10-08T08:15:36Z</time>
      </trkpt>
      <trkpt lat="45.22921" lon="4.197">
        <ele>724.49</ele>
        <time>2011-10-08T08:15:37Z</time>
      </trkpt>
      <trkpt lat="45.22924" lon="4.19698">
        <ele>723.53</ele>
        <time>2011-10-08T08:15:38Z</time>
      </trkpt>
      <trkpt lat="45.22926" lon="4.19696">
        <ele>723.05</ele>
        <time>2011-10-08T08:15:39Z</time>
      </trkpt>
      <trkpt lat="45.22927" lon="4.1969">
        <ele>722.09</ele>
        <time>2011-10-08T08:15:40Z</time>
      </trkpt>
      <trkpt lat="45.22929" lon="4.19685">
        <ele>721.13</ele>
        <time>2011-10-08T08:15:41Z</time>
      </trkpt>
      <trkpt lat="45.2293" lon="4.1968">
        <ele>720.16</ele>
        <time>2011-10-08T08:15:42Z</time>
      </trkpt>
      <trkpt lat="45.22932" lon="4.19675">
        <ele>719.68</ele>
        <time>2011-10-08T08:15:43Z</time>
      </trkpt>
      <trkpt lat="45.22935" lon="4.19669">
        <ele>719.2</ele>
        <time>2011-10-08T08:15:44Z</time>
      </trkpt>
      <trkpt lat="45.22937" lon="4.19664">
        <ele>718.72</ele>
        <time>2011-10-08T08:15:45Z</time>
      </trkpt>
      <trkpt lat="45.2294" lon="4.19658">
        <ele>718.24</ele>
        <time>2011-10-08T08:15:46Z</time>
      </trkpt>
      <trkpt lat="45.22941" lon="4.19652">
        <ele>718.24</ele>
        <time>2011-10-08T08:15:47Z</time>
      </trkpt>
      <trkpt lat="45.22943" lon="4.19646">
        <ele>717.76</ele>
        <time>2011-10-08T08:15:48Z</time>
      </trkpt>
      <trkpt lat="45.22943" lon="4.19641">
        <ele>717.76</ele>
        <time>2011-10-08T08:15:49Z</time>
      </trkpt>
      <trkpt lat="45.2294" lon="4.1963">
        <ele>717.28</ele>
        <time>2011-10-08T08:15:51Z</time>
      </trkpt>
      <trkpt lat="45.22936" lon="4.19625">
        <ele>716.8</ele>
        <time>2011-10-08T08:15:52Z</time>
      </trkpt>
      <trkpt lat="45.22932" lon="4.19618">
        <ele>716.8</ele>
        <time>2011-10-08T08:15:53Z</time>
      </trkpt>
      <trkpt lat="45.22927" lon="4.19613">
        <ele>715.84</ele>
        <time>2011-10-08T08:15:54Z</time>
      </trkpt>
      <trkpt lat="45.22923" lon="4.19609">
        <ele>715.36</ele>
        <time>2011-10-08T08:15:55Z</time>
      </trkpt>
      <trkpt lat="45.22919" lon="4.19606">
        <ele>714.88</ele>
        <time>2011-10-08T08:15:56Z</time>
      </trkpt>
      <trkpt lat="45.22892" lon="4.19591">
        <ele>713.44</ele>
        <time>2011-10-08T08:16:04Z</time>
      </trkpt>
      <trkpt lat="45.22866" lon="4.1957">
        <ele>717.28</ele>
        <time>2011-10-08T08:16:14Z</time>
      </trkpt>
      <trkpt lat="45.22854" lon="4.19548">
        <ele>717.76</ele>
        <time>2011-10-08T08:16:24Z</time>
      </trkpt>
      <trkpt lat="45.22853" lon="4.19546">
        <ele>717.28</ele>
        <time>2011-10-08T08:16:25Z</time>
      </trkpt>
      <trkpt lat="45.22852" lon="4.19544">
        <ele>717.28</ele>
        <time>2011-10-08T08:16:26Z</time>
      </trkpt>
      <trkpt lat="45.22851" lon="4.19543">
        <ele>717.28</ele>
        <time>2011-10-08T08:16:27Z</time>
      </trkpt>
      <trkpt lat="45.22849" lon="4.19539">
        <ele>717.76</ele>
        <time>2011-10-08T08:16:29Z</time>
      </trkpt>
      <trkpt lat="45.22848" lon="4.19537">
        <ele>717.76</ele>
        <time>2011-10-08T08:16:30Z</time>
      </trkpt>
      <trkpt lat="45.22848" lon="4.19534">
        <ele>718.24</ele>
        <time>2011-10-08T08:16:31Z</time>
      </trkpt>
      <trkpt lat="45.22849" lon="4.19532">
        <ele>718.72</ele>
        <time>2011-10-08T08:16:32Z</time>
      </trkpt>
      <trkpt lat="45.22849" lon="4.19529">
        <ele>718.72</ele>
        <time>2011-10-08T08:16:33Z</time>
      </trkpt>
      <trkpt lat="45.2285" lon="4.19526">
        <ele>719.2</ele>
        <time>2011-10-08T08:16:35Z</time>
      </trkpt>
      <trkpt lat="45.22851" lon="4.19525">
        <ele>719.68</ele>
        <time>2011-10-08T08:16:36Z</time>
      </trkpt>
      <trkpt lat="45.2286" lon="4.19511">
        <ele>722.57</ele>
        <time>2011-10-08T08:16:46Z</time>
      </trkpt>
      <trkpt lat="45.22873" lon="4.19496">
        <ele>726.41</ele>
        <time>2011-10-08T08:16:57Z</time>
      </trkpt>
      <trkpt lat="45.22893" lon="4.19475">
        <ele>733.14</ele>
        <time>2011-10-08T08:17:09Z</time>
      </trkpt>
      <trkpt lat="45.229" lon="4.19465">
        <ele>735.07</ele>
        <time>2011-10-08T08:17:14Z</time>
      </trkpt>
      <trkpt lat="45.22901" lon="4.19464">
        <ele>735.55</ele>
        <time>2011-10-08T08:17:15Z</time>
      </trkpt>
      <trkpt lat="45.22901" lon="4.19462">
        <ele>736.03</ele>
        <time>2011-10-08T08:17:16Z</time>
      </trkpt>
      <trkpt lat="45.22902" lon="4.19459">
        <ele>736.51</ele>
        <time>2011-10-08T08:17:17Z</time>
      </trkpt>
      <trkpt lat="45.22902" lon="4.19457">
        <ele>736.99</ele>
        <time>2011-10-08T08:17:18Z</time>
      </trkpt>
      <trkpt lat="45.22903" lon="4.19455">
        <ele>736.99</ele>
        <time>2011-10-08T08:17:19Z</time>
      </trkpt>
      <trkpt lat="45.22908" lon="4.19427">
        <ele>738.91</ele>
        <time>2011-10-08T08:17:32Z</time>
      </trkpt>
      <trkpt lat="45.22911" lon="4.19404">
        <ele>741.31</ele>
        <time>2011-10-08T08:17:42Z</time>
      </trkpt>
      <trkpt lat="45.22911" lon="4.19402">
        <ele>741.79</ele>
        <time>2011-10-08T08:17:43Z</time>
      </trkpt>
      <trkpt lat="45.22911" lon="4.194">
        <ele>741.79</ele>
        <time>2011-10-08T08:17:44Z</time>
      </trkpt>
      <trkpt lat="45.2291" lon="4.19397">
        <ele>742.28</ele>
        <time>2011-10-08T08:17:45Z</time>
      </trkpt>
      <trkpt lat="45.2291" lon="4.19395">
        <ele>742.28</ele>
        <time>2011-10-08T08:17:46Z</time>
      </trkpt>
      <trkpt lat="45.2291" lon="4.19392">
        <ele>742.28</ele>
        <time>2011-10-08T08:17:47Z</time>
      </trkpt>
      <trkpt lat="45.2291" lon="4.1939">
        <ele>742.28</ele>
        <time>2011-10-08T08:17:48Z</time>
      </trkpt>
      <trkpt lat="45.2291" lon="4.19388">
        <ele>742.76</ele>
        <time>2011-10-08T08:17:49Z</time>
      </trkpt>
      <trkpt lat="45.2291" lon="4.19385">
        <ele>742.76</ele>
        <time>2011-10-08T08:17:50Z</time>
      </trkpt>
      <trkpt lat="45.2291" lon="4.1938">
        <ele>743.24</ele>
        <time>2011-10-08T08:17:52Z</time>
      </trkpt>
      <trkpt lat="45.2291" lon="4.19371">
        <ele>743.72</ele>
        <time>2011-10-08T08:17:56Z</time>
      </trkpt>
      <trkpt lat="45.22911" lon="4.19369">
        <ele>743.24</ele>
        <time>2011-10-08T08:17:57Z</time>
      </trkpt>
      <trkpt lat="45.22912" lon="4.19367">
        <ele>743.24</ele>
        <time>2011-10-08T08:17:58Z</time>
      </trkpt>
      <trkpt lat="45.22913" lon="4.19366">
        <ele>743.72</ele>
        <time>2011-10-08T08:17:59Z</time>
      </trkpt>
      <trkpt lat="45.22915" lon="4.19365">
        <ele>743.72</ele>
        <time>2011-10-08T08:18:00Z</time>
      </trkpt>
      <trkpt lat="45.22916" lon="4.19364">
        <ele>744.2</ele>
        <time>2011-10-08T08:18:01Z</time>
      </trkpt>
      <trkpt lat="45.22918" lon="4.19364">
        <ele>744.2</ele>
        <time>2011-10-08T08:18:02Z</time>
      </trkpt>
      <trkpt lat="45.22919" lon="4.19364">
        <ele>744.68</ele>
        <time>2011-10-08T08:18:03Z</time>
      </trkpt>
      <trkpt lat="45.22922" lon="4.19363">
        <ele>746.12</ele>
        <time>2011-10-08T08:18:05Z</time>
      </trkpt>
      <trkpt lat="45.22924" lon="4.19362">
        <ele>746.12</ele>
        <time>2011-10-08T08:18:06Z</time>
      </trkpt>
      <trkpt lat="45.22925" lon="4.19361">
        <ele>746.12</ele>
        <time>2011-10-08T08:18:07Z</time>
      </trkpt>
      <trkpt lat="45.22927" lon="4.19359">
        <ele>746.12</ele>
        <time>2011-10-08T08:18:08Z</time>
      </trkpt>
      <trkpt lat="45.22928" lon="4.19358">
        <ele>746.6</ele>
        <time>2011-10-08T08:18:09Z</time>
      </trkpt>
      <trkpt lat="45.2293" lon="4.19356">
        <ele>746.6</ele>
        <time>2011-10-08T08:18:10Z</time>
      </trkpt>
      <trkpt lat="45.22931" lon="4.19355">
        <ele>746.6</ele>
        <time>2011-10-08T08:18:11Z</time>
      </trkpt>
      <trkpt lat="45.22932" lon="4.19353">
        <ele>746.6</ele>
        <time>2011-10-08T08:18:12Z</time>
      </trkpt>
      <trkpt lat="45.22933" lon="4.1935">
        <ele>746.6</ele>
        <time>2011-10-08T08:18:13Z</time>
      </trkpt>
      <trkpt lat="45.22936" lon="4.19343">
        <ele>747.08</ele>
        <time>2011-10-08T08:18:17Z</time>
      </trkpt>
      <trkpt lat="45.22937" lon="4.19342">
        <ele>747.08</ele>
        <time>2011-10-08T08:18:18Z</time>
      </trkpt>
      <trkpt lat="45.2295" lon="4.1932">
        <ele>750.93</ele>
        <time>2011-10-08T08:18:31Z</time>
      </trkpt>
      <trkpt lat="45.22958" lon="4.19312">
        <ele>752.37</ele>
        <time>2011-10-08T08:18:36Z</time>
      </trkpt>
      <trkpt lat="45.22959" lon="4.19309">
        <ele>752.37</ele>
        <time>2011-10-08T08:18:37Z</time>
      </trkpt>
      <trkpt lat="45.2296" lon="4.19307">
        <ele>752.37</ele>
        <time>2011-10-08T08:18:38Z</time>
      </trkpt>
      <trkpt lat="45.22961" lon="4.19304">
        <ele>751.89</ele>
        <time>2011-10-08T08:18:39Z</time>
      </trkpt>
      <trkpt lat="45.22962" lon="4.19302">
        <ele>751.89</ele>
        <time>2011-10-08T08:18:40Z</time>
      </trkpt>
      <trkpt lat="45.22964" lon="4.19299">
        <ele>752.37</ele>
        <time>2011-10-08T08:18:41Z</time>
      </trkpt>
      <trkpt lat="45.22987" lon="4.19263">
        <ele>751.41</ele>
        <time>2011-10-08T08:18:52Z</time>
      </trkpt>
      <trkpt lat="45.23018" lon="4.19199">
        <ele>750.93</ele>
        <time>2011-10-08T08:19:03Z</time>
      </trkpt>
      <trkpt lat="45.2303" lon="4.19171">
        <ele>751.41</ele>
        <time>2011-10-08T08:19:07Z</time>
      </trkpt>
      <trkpt lat="45.23076" lon="4.19095">
        <ele>749.49</ele>
        <time>2011-10-08T08:19:17Z</time>
      </trkpt>
      <trkpt lat="45.23081" lon="4.19088">
        <ele>749.49</ele>
        <time>2011-10-08T08:19:18Z</time>
      </trkpt>
      <trkpt lat="45.23087" lon="4.19081">
        <ele>749.97</ele>
        <time>2011-10-08T08:19:19Z</time>
      </trkpt>
      <trkpt lat="45.23094" lon="4.19076">
        <ele>749.97</ele>
        <time>2011-10-08T08:19:20Z</time>
      </trkpt>
      <trkpt lat="45.23101" lon="4.19072">
        <ele>749.49</ele>
        <time>2011-10-08T08:19:21Z</time>
      </trkpt>
      <trkpt lat="45.23108" lon="4.19069">
        <ele>749</ele>
        <time>2011-10-08T08:19:22Z</time>
      </trkpt>
      <trkpt lat="45.23114" lon="4.19067">
        <ele>749</ele>
        <time>2011-10-08T08:19:23Z</time>
      </trkpt>
      <trkpt lat="45.23117" lon="4.19064">
        <ele>748.52</ele>
        <time>2011-10-08T08:19:24Z</time>
      </trkpt>
      <trkpt lat="45.23118" lon="4.1906">
        <ele>748.04</ele>
        <time>2011-10-08T08:19:25Z</time>
      </trkpt>
      <trkpt lat="45.23118" lon="4.19054">
        <ele>747.56</ele>
        <time>2011-10-08T08:19:26Z</time>
      </trkpt>
      <trkpt lat="45.23116" lon="4.19048">
        <ele>747.08</ele>
        <time>2011-10-08T08:19:27Z</time>
      </trkpt>
      <trkpt lat="45.23113" lon="4.19041">
        <ele>746.12</ele>
        <time>2011-10-08T08:19:28Z</time>
      </trkpt>
      <trkpt lat="45.2311" lon="4.19035">
        <ele>746.12</ele>
        <time>2011-10-08T08:19:29Z</time>
      </trkpt>
      <trkpt lat="45.23108" lon="4.19028">
        <ele>745.64</ele>
        <time>2011-10-08T08:19:30Z</time>
      </trkpt>
      <trkpt lat="45.23105" lon="4.1902">
        <ele>745.16</ele>
        <time>2011-10-08T08:19:31Z</time>
      </trkpt>
      <trkpt lat="45.23091" lon="4.18981">
        <ele>743.24</ele>
        <time>2011-10-08T08:19:36Z</time>
      </trkpt>
      <trkpt lat="45.23089" lon="4.18971">
        <ele>742.76</ele>
        <time>2011-10-08T08:19:37Z</time>
      </trkpt>
      <trkpt lat="45.23084" lon="4.18925">
        <ele>741.31</ele>
        <time>2011-10-08T08:19:42Z</time>
      </trkpt>
      <trkpt lat="45.2308" lon="4.18919">
        <ele>741.31</ele>
        <time>2011-10-08T08:19:43Z</time>
      </trkpt>
      <trkpt lat="45.23074" lon="4.18915">
        <ele>740.83</ele>
        <time>2011-10-08T08:19:44Z</time>
      </trkpt>
      <trkpt lat="45.23068" lon="4.18913">
        <ele>740.35</ele>
        <time>2011-10-08T08:19:45Z</time>
      </trkpt>
      <trkpt lat="45.23061" lon="4.18913">
        <ele>739.87</ele>
        <time>2011-10-08T08:19:46Z</time>
      </trkpt>
      <trkpt lat="45.23053" lon="4.18913">
        <ele>739.87</ele>
        <time>2011-10-08T08:19:47Z</time>
      </trkpt>
      <trkpt lat="45.23045" lon="4.18914">
        <ele>739.39</ele>
        <time>2011-10-08T08:19:48Z</time>
      </trkpt>
      <trkpt lat="45.23037" lon="4.18916">
        <ele>738.91</ele>
        <time>2011-10-08T08:19:49Z</time>
      </trkpt>
      <trkpt lat="45.23028" lon="4.18916">
        <ele>738.91</ele>
        <time>2011-10-08T08:19:50Z</time>
      </trkpt>
      <trkpt lat="45.2299" lon="4.18911">
        <ele>736.03</ele>
        <time>2011-10-08T08:19:54Z</time>
      </trkpt>
      <trkpt lat="45.22979" lon="4.18906">
        <ele>735.07</ele>
        <time>2011-10-08T08:19:55Z</time>
      </trkpt>
      <trkpt lat="45.22969" lon="4.189">
        <ele>733.62</ele>
        <time>2011-10-08T08:19:56Z</time>
      </trkpt>
      <trkpt lat="45.2296" lon="4.18894">
        <ele>732.18</ele>
        <time>2011-10-08T08:19:57Z</time>
      </trkpt>
      <trkpt lat="45.22951" lon="4.18886">
        <ele>731.22</ele>
        <time>2011-10-08T08:19:58Z</time>
      </trkpt>
      <trkpt lat="45.22934" lon="4.18873">
        <ele>728.82</ele>
        <time>2011-10-08T08:20:00Z</time>
      </trkpt>
      <trkpt lat="45.22926" lon="4.18869">
        <ele>727.37</ele>
        <time>2011-10-08T08:20:01Z</time>
      </trkpt>
      <trkpt lat="45.22917" lon="4.18867">
        <ele>726.41</ele>
        <time>2011-10-08T08:20:02Z</time>
      </trkpt>
      <trkpt lat="45.22909" lon="4.18866">
        <ele>725.45</ele>
        <time>2011-10-08T08:20:03Z</time>
      </trkpt>
      <trkpt lat="45.22901" lon="4.18868">
        <ele>724.01</ele>
        <time>2011-10-08T08:20:04Z</time>
      </trkpt>
      <trkpt lat="45.22892" lon="4.18871">
        <ele>722.57</ele>
        <time>2011-10-08T08:20:05Z</time>
      </trkpt>
      <trkpt lat="45.22885" lon="4.18876">
        <ele>721.13</ele>
        <time>2011-10-08T08:20:06Z</time>
      </trkpt>
      <trkpt lat="45.22877" lon="4.18882">
        <ele>719.68</ele>
        <time>2011-10-08T08:20:07Z</time>
      </trkpt>
      <trkpt lat="45.2287" lon="4.1889">
        <ele>717.76</ele>
        <time>2011-10-08T08:20:08Z</time>
      </trkpt>
      <trkpt lat="45.22865" lon="4.18899">
        <ele>716.32</ele>
        <time>2011-10-08T08:20:09Z</time>
      </trkpt>
      <trkpt lat="45.22861" lon="4.18909">
        <ele>714.4</ele>
        <time>2011-10-08T08:20:10Z</time>
      </trkpt>
      <trkpt lat="45.22857" lon="4.18917">
        <ele>712.95</ele>
        <time>2011-10-08T08:20:11Z</time>
      </trkpt>
      <trkpt lat="45.22853" lon="4.18923">
        <ele>711.51</ele>
        <time>2011-10-08T08:20:12Z</time>
      </trkpt>
      <trkpt lat="45.22849" lon="4.18924">
        <ele>710.07</ele>
        <time>2011-10-08T08:20:13Z</time>
      </trkpt>
      <trkpt lat="45.22845" lon="4.18922">
        <ele>708.63</ele>
        <time>2011-10-08T08:20:14Z</time>
      </trkpt>
      <trkpt lat="45.22841" lon="4.18918">
        <ele>707.19</ele>
        <time>2011-10-08T08:20:15Z</time>
      </trkpt>
      <trkpt lat="45.22838" lon="4.18911">
        <ele>705.75</ele>
        <time>2011-10-08T08:20:16Z</time>
      </trkpt>
      <trkpt lat="45.22835" lon="4.18904">
        <ele>704.3</ele>
        <time>2011-10-08T08:20:17Z</time>
      </trkpt>
      <trkpt lat="45.22833" lon="4.18894">
        <ele>702.86</ele>
        <time>2011-10-08T08:20:18Z</time>
      </trkpt>
      <trkpt lat="45.22831" lon="4.18884">
        <ele>701.42</ele>
        <time>2011-10-08T08:20:19Z</time>
      </trkpt>
      <trkpt lat="45.22832" lon="4.18872">
        <ele>699.5</ele>
        <time>2011-10-08T08:20:20Z</time>
      </trkpt>
      <trkpt lat="45.22832" lon="4.1886">
        <ele>698.05</ele>
        <time>2011-10-08T08:20:21Z</time>
      </trkpt>
      <trkpt lat="45.22834" lon="4.18839">
        <ele>694.69</ele>
        <time>2011-10-08T08:20:23Z</time>
      </trkpt>
      <trkpt lat="45.22839" lon="4.18809">
        <ele>691.33</ele>
        <time>2011-10-08T08:20:26Z</time>
      </trkpt>
      <trkpt lat="45.22838" lon="4.18776">
        <ele>686.04</ele>
        <time>2011-10-08T08:20:30Z</time>
      </trkpt>
      <trkpt lat="45.22836" lon="4.18769">
        <ele>684.6</ele>
        <time>2011-10-08T08:20:31Z</time>
      </trkpt>
      <trkpt lat="45.22832" lon="4.18761">
        <ele>683.15</ele>
        <time>2011-10-08T08:20:32Z</time>
      </trkpt>
      <trkpt lat="45.22827" lon="4.18754">
        <ele>681.23</ele>
        <time>2011-10-08T08:20:33Z</time>
      </trkpt>
      <trkpt lat="45.22821" lon="4.18746">
        <ele>680.27</ele>
        <time>2011-10-08T08:20:34Z</time>
      </trkpt>
      <trkpt lat="45.22803" lon="4.18719">
        <ele>676.42</ele>
        <time>2011-10-08T08:20:37Z</time>
      </trkpt>
      <trkpt lat="45.22797" lon="4.18709">
        <ele>675.46</ele>
        <time>2011-10-08T08:20:38Z</time>
      </trkpt>
      <trkpt lat="45.22757" lon="4.18654">
        <ele>668.73</ele>
        <time>2011-10-08T08:20:45Z</time>
      </trkpt>
      <trkpt lat="45.22756" lon="4.18649">
        <ele>668.25</ele>
        <time>2011-10-08T08:20:46Z</time>
      </trkpt>
      <trkpt lat="45.22757" lon="4.18644">
        <ele>667.77</ele>
        <time>2011-10-08T08:20:47Z</time>
      </trkpt>
      <trkpt lat="45.22759" lon="4.18639">
        <ele>667.77</ele>
        <time>2011-10-08T08:20:48Z</time>
      </trkpt>
      <trkpt lat="45.22763" lon="4.18634">
        <ele>667.29</ele>
        <time>2011-10-08T08:20:49Z</time>
      </trkpt>
      <trkpt lat="45.22769" lon="4.1863">
        <ele>666.81</ele>
        <time>2011-10-08T08:20:50Z</time>
      </trkpt>
      <trkpt lat="45.22775" lon="4.18626">
        <ele>666.33</ele>
        <time>2011-10-08T08:20:51Z</time>
      </trkpt>
      <trkpt lat="45.22803" lon="4.18611">
        <ele>663.45</ele>
        <time>2011-10-08T08:20:55Z</time>
      </trkpt>
      <trkpt lat="45.2281" lon="4.18609">
        <ele>662.97</ele>
        <time>2011-10-08T08:20:56Z</time>
      </trkpt>
      <trkpt lat="45.22817" lon="4.18608">
        <ele>662.49</ele>
        <time>2011-10-08T08:20:57Z</time>
      </trkpt>
      <trkpt lat="45.22823" lon="4.18611">
        <ele>661.52</ele>
        <time>2011-10-08T08:20:58Z</time>
      </trkpt>
      <trkpt lat="45.22827" lon="4.18616">
        <ele>661.04</ele>
        <time>2011-10-08T08:20:59Z</time>
      </trkpt>
      <trkpt lat="45.22831" lon="4.18622">
        <ele>660.56</ele>
        <time>2011-10-08T08:21:00Z</time>
      </trkpt>
      <trkpt lat="45.22834" lon="4.1863">
        <ele>659.6</ele>
        <time>2011-10-08T08:21:01Z</time>
      </trkpt>
      <trkpt lat="45.22836" lon="4.18638">
        <ele>658.64</ele>
        <time>2011-10-08T08:21:02Z</time>
      </trkpt>
      <trkpt lat="45.22846" lon="4.18673">
        <ele>654.31</ele>
        <time>2011-10-08T08:21:06Z</time>
      </trkpt>
      <trkpt lat="45.22849" lon="4.18678">
        <ele>653.35</ele>
        <time>2011-10-08T08:21:07Z</time>
      </trkpt>
      <trkpt lat="45.22852" lon="4.18682">
        <ele>651.91</ele>
        <time>2011-10-08T08:21:08Z</time>
      </trkpt>
      <trkpt lat="45.22855" lon="4.18685">
        <ele>650.95</ele>
        <time>2011-10-08T08:21:09Z</time>
      </trkpt>
      <trkpt lat="45.2286" lon="4.18684">
        <ele>649.99</ele>
        <time>2011-10-08T08:21:10Z</time>
      </trkpt>
      <trkpt lat="45.22866" lon="4.1868">
        <ele>649.03</ele>
        <time>2011-10-08T08:21:11Z</time>
      </trkpt>
      <trkpt lat="45.22871" lon="4.18674">
        <ele>648.07</ele>
        <time>2011-10-08T08:21:12Z</time>
      </trkpt>
      <trkpt lat="45.22876" lon="4.18666">
        <ele>647.1</ele>
        <time>2011-10-08T08:21:13Z</time>
      </trkpt>
      <trkpt lat="45.22881" lon="4.18657">
        <ele>645.66</ele>
        <time>2011-10-08T08:21:14Z</time>
      </trkpt>
      <trkpt lat="45.22886" lon="4.18647">
        <ele>644.7</ele>
        <time>2011-10-08T08:21:15Z</time>
      </trkpt>
      <trkpt lat="45.22921" lon="4.18582">
        <ele>638.45</ele>
        <time>2011-10-08T08:21:22Z</time>
      </trkpt>
      <trkpt lat="45.2293" lon="4.18567">
        <ele>636.53</ele>
        <time>2011-10-08T08:21:24Z</time>
      </trkpt>
      <trkpt lat="45.22934" lon="4.1856">
        <ele>636.05</ele>
        <time>2011-10-08T08:21:25Z</time>
      </trkpt>
      <trkpt lat="45.22942" lon="4.18544">
        <ele>634.13</ele>
        <time>2011-10-08T08:21:27Z</time>
      </trkpt>
      <trkpt lat="45.22945" lon="4.18535">
        <ele>633.17</ele>
        <time>2011-10-08T08:21:28Z</time>
      </trkpt>
      <trkpt lat="45.22948" lon="4.18526">
        <ele>632.68</ele>
        <time>2011-10-08T08:21:29Z</time>
      </trkpt>
      <trkpt lat="45.2295" lon="4.18517">
        <ele>631.72</ele>
        <time>2011-10-08T08:21:30Z</time>
      </trkpt>
      <trkpt lat="45.22952" lon="4.18506">
        <ele>631.24</ele>
        <time>2011-10-08T08:21:31Z</time>
      </trkpt>
      <trkpt lat="45.22954" lon="4.18495">
        <ele>630.76</ele>
        <time>2011-10-08T08:21:32Z</time>
      </trkpt>
      <trkpt lat="45.22955" lon="4.18484">
        <ele>630.28</ele>
        <time>2011-10-08T08:21:33Z</time>
      </trkpt>
      <trkpt lat="45.22956" lon="4.18473">
        <ele>630.28</ele>
        <time>2011-10-08T08:21:34Z</time>
      </trkpt>
      <trkpt lat="45.22957" lon="4.18462">
        <ele>629.8</ele>
        <time>2011-10-08T08:21:35Z</time>
      </trkpt>
      <trkpt lat="45.22959" lon="4.18452">
        <ele>629.32</ele>
        <time>2011-10-08T08:21:36Z</time>
      </trkpt>
      <trkpt lat="45.22964" lon="4.18423">
        <ele>628.36</ele>
        <time>2011-10-08T08:21:39Z</time>
      </trkpt>
      <trkpt lat="45.22967" lon="4.18414">
        <ele>628.36</ele>
        <time>2011-10-08T08:21:40Z</time>
      </trkpt>
      <trkpt lat="45.2297" lon="4.18406">
        <ele>628.36</ele>
        <time>2011-10-08T08:21:41Z</time>
      </trkpt>
      <trkpt lat="45.22979" lon="4.18391">
        <ele>628.36</ele>
        <time>2011-10-08T08:21:43Z</time>
      </trkpt>
      <trkpt lat="45.22984" lon="4.18383">
        <ele>628.84</ele>
        <time>2011-10-08T08:21:44Z</time>
      </trkpt>
      <trkpt lat="45.22988" lon="4.18376">
        <ele>628.36</ele>
        <time>2011-10-08T08:21:45Z</time>
      </trkpt>
      <trkpt lat="45.22991" lon="4.18367">
        <ele>627.88</ele>
        <time>2011-10-08T08:21:46Z</time>
      </trkpt>
      <trkpt lat="45.22992" lon="4.18359">
        <ele>627.88</ele>
        <time>2011-10-08T08:21:47Z</time>
      </trkpt>
      <trkpt lat="45.22992" lon="4.18351">
        <ele>627.4</ele>
        <time>2011-10-08T08:21:48Z</time>
      </trkpt>
      <trkpt lat="45.22992" lon="4.18345">
        <ele>627.4</ele>
        <time>2011-10-08T08:21:49Z</time>
      </trkpt>
      <trkpt lat="45.22991" lon="4.18341">
        <ele>627.4</ele>
        <time>2011-10-08T08:21:50Z</time>
      </trkpt>
      <trkpt lat="45.22984" lon="4.18308">
        <ele>635.09</ele>
        <time>2011-10-08T08:22:01Z</time>
      </trkpt>
      <trkpt lat="45.22983" lon="4.18303">
        <ele>637.01</ele>
        <time>2011-10-08T08:22:03Z</time>
      </trkpt>
      <trkpt lat="45.22983" lon="4.18301">
        <ele>637.97</ele>
        <time>2011-10-08T08:22:04Z</time>
      </trkpt>
      <trkpt lat="45.22984" lon="4.18298">
        <ele>638.93</ele>
        <time>2011-10-08T08:22:05Z</time>
      </trkpt>
      <trkpt lat="45.22984" lon="4.18296">
        <ele>639.89</ele>
        <time>2011-10-08T08:22:06Z</time>
      </trkpt>
      <trkpt lat="45.22985" lon="4.18294">
        <ele>640.38</ele>
        <time>2011-10-08T08:22:07Z</time>
      </trkpt>
      <trkpt lat="45.22986" lon="4.18289">
        <ele>641.82</ele>
        <time>2011-10-08T08:22:11Z</time>
      </trkpt>
      <trkpt lat="45.22987" lon="4.18288">
        <ele>642.3</ele>
        <time>2011-10-08T08:22:12Z</time>
      </trkpt>
      <trkpt lat="45.22989" lon="4.18287">
        <ele>642.78</ele>
        <time>2011-10-08T08:22:13Z</time>
      </trkpt>
      <trkpt lat="45.2299" lon="4.18286">
        <ele>643.74</ele>
        <time>2011-10-08T08:22:14Z</time>
      </trkpt>
      <trkpt lat="45.2299" lon="4.18285">
        <ele>644.22</ele>
        <time>2011-10-08T08:22:15Z</time>
      </trkpt>
      <trkpt lat="45.23006" lon="4.18263">
        <ele>651.91</ele>
        <time>2011-10-08T08:22:29Z</time>
      </trkpt>
      <trkpt lat="45.23015" lon="4.18248">
        <ele>660.56</ele>
        <time>2011-10-08T08:22:40Z</time>
      </trkpt>
      <trkpt lat="45.23016" lon="4.18246">
        <ele>661.04</ele>
        <time>2011-10-08T08:22:41Z</time>
      </trkpt>
      <trkpt lat="45.23017" lon="4.18244">
        <ele>661.52</ele>
        <time>2011-10-08T08:22:42Z</time>
      </trkpt>
      <trkpt lat="45.23024" lon="4.18232">
        <ele>664.89</ele>
        <time>2011-10-08T08:22:49Z</time>
      </trkpt>
      <trkpt lat="45.23025" lon="4.1823">
        <ele>665.37</ele>
        <time>2011-10-08T08:22:50Z</time>
      </trkpt>
      <trkpt lat="45.23026" lon="4.18227">
        <ele>665.37</ele>
        <time>2011-10-08T08:22:51Z</time>
      </trkpt>
      <trkpt lat="45.23026" lon="4.18225">
        <ele>665.85</ele>
        <time>2011-10-08T08:22:52Z</time>
      </trkpt>
      <trkpt lat="45.2303" lon="4.18213">
        <ele>665.85</ele>
        <time>2011-10-08T08:22:58Z</time>
      </trkpt>
      <trkpt lat="45.23031" lon="4.1821">
        <ele>665.85</ele>
        <time>2011-10-08T08:22:59Z</time>
      </trkpt>
      <trkpt lat="45.23032" lon="4.182">
        <ele>665.37</ele>
        <time>2011-10-08T08:23:02Z</time>
      </trkpt>
      <trkpt lat="45.23032" lon="4.18197">
        <ele>665.37</ele>
        <time>2011-10-08T08:23:03Z</time>
      </trkpt>
      <trkpt lat="45.23032" lon="4.18194">
        <ele>664.89</ele>
        <time>2011-10-08T08:23:04Z</time>
      </trkpt>
      <trkpt lat="45.23033" lon="4.18191">
        <ele>664.41</ele>
        <time>2011-10-08T08:23:05Z</time>
      </trkpt>
      <trkpt lat="45.23033" lon="4.18188">
        <ele>663.93</ele>
        <time>2011-10-08T08:23:06Z</time>
      </trkpt>
      <trkpt lat="45.23034" lon="4.18185">
        <ele>663.93</ele>
        <time>2011-10-08T08:23:07Z</time>
      </trkpt>
      <trkpt lat="45.23034" lon="4.18181">
        <ele>663.93</ele>
        <time>2011-10-08T08:23:08Z</time>
      </trkpt>
      <trkpt lat="45.23034" lon="4.1816">
        <ele>662.97</ele>
        <time>2011-10-08T08:23:12Z</time>
      </trkpt>
      <trkpt lat="45.23034" lon="4.18153">
        <ele>662.49</ele>
        <time>2011-10-08T08:23:13Z</time>
      </trkpt>
      <trkpt lat="45.23037" lon="4.18132">
        <ele>660.56</ele>
        <time>2011-10-08T08:23:16Z</time>
      </trkpt>
      <trkpt lat="45.23039" lon="4.18124">
        <ele>659.6</ele>
        <time>2011-10-08T08:23:17Z</time>
      </trkpt>
      <trkpt lat="45.2304" lon="4.18115">
        <ele>659.12</ele>
        <time>2011-10-08T08:23:18Z</time>
      </trkpt>
      <trkpt lat="45.23043" lon="4.18097">
        <ele>658.16</ele>
        <time>2011-10-08T08:23:20Z</time>
      </trkpt>
      <trkpt lat="45.23049" lon="4.18081">
        <ele>657.2</ele>
        <time>2011-10-08T08:23:22Z</time>
      </trkpt>
      <trkpt lat="45.23053" lon="4.18072">
        <ele>656.24</ele>
        <time>2011-10-08T08:23:23Z</time>
      </trkpt>
      <trkpt lat="45.23056" lon="4.18064">
        <ele>655.76</ele>
        <time>2011-10-08T08:23:24Z</time>
      </trkpt>
      <trkpt lat="45.23058" lon="4.18056">
        <ele>655.28</ele>
        <time>2011-10-08T08:23:25Z</time>
      </trkpt>
      <trkpt lat="45.2306" lon="4.18047">
        <ele>654.31</ele>
        <time>2011-10-08T08:23:26Z</time>
      </trkpt>
      <trkpt lat="45.2306" lon="4.18039">
        <ele>653.83</ele>
        <time>2011-10-08T08:23:27Z</time>
      </trkpt>
      <trkpt lat="45.2306" lon="4.18032">
        <ele>653.35</ele>
        <time>2011-10-08T08:23:28Z</time>
      </trkpt>
      <trkpt lat="45.2306" lon="4.18026">
        <ele>652.87</ele>
        <time>2011-10-08T08:23:29Z</time>
      </trkpt>
      <trkpt lat="45.2306" lon="4.1802">
        <ele>651.91</ele>
        <time>2011-10-08T08:23:30Z</time>
      </trkpt>
      <trkpt lat="45.23061" lon="4.18015">
        <ele>651.43</ele>
        <time>2011-10-08T08:23:31Z</time>
      </trkpt>
      <trkpt lat="45.23061" lon="4.18011">
        <ele>650.95</ele>
        <time>2011-10-08T08:23:32Z</time>
      </trkpt>
      <trkpt lat="45.23061" lon="4.18008">
        <ele>650.95</ele>
        <time>2011-10-08T08:23:33Z</time>
      </trkpt>
      <trkpt lat="45.2306" lon="4.17998">
        <ele>650.95</ele>
        <time>2011-10-08T08:23:37Z</time>
      </trkpt>
      <trkpt lat="45.2306" lon="4.17996">
        <ele>650.47</ele>
        <time>2011-10-08T08:23:38Z</time>
      </trkpt>
      <trkpt lat="45.23059" lon="4.17993">
        <ele>650.47</ele>
        <time>2011-10-08T08:23:39Z</time>
      </trkpt>
      <trkpt lat="45.23057" lon="4.1798">
        <ele>649.99</ele>
        <time>2011-10-08T08:23:44Z</time>
      </trkpt>
      <trkpt lat="45.23056" lon="4.17975">
        <ele>649.99</ele>
        <time>2011-10-08T08:23:46Z</time>
      </trkpt>
      <trkpt lat="45.23055" lon="4.17973">
        <ele>649.99</ele>
        <time>2011-10-08T08:23:47Z</time>
      </trkpt>
      <trkpt lat="45.23054" lon="4.1797">
        <ele>649.99</ele>
        <time>2011-10-08T08:23:48Z</time>
      </trkpt>
      <trkpt lat="45.23046" lon="4.1795">
        <ele>652.87</ele>
        <time>2011-10-08T08:23:58Z</time>
      </trkpt>
      <trkpt lat="45.23046" lon="4.17948">
        <ele>653.35</ele>
        <time>2011-10-08T08:23:59Z</time>
      </trkpt>
      <trkpt lat="45.23044" lon="4.17947">
        <ele>653.35</ele>
        <time>2011-10-08T08:24:00Z</time>
      </trkpt>
      <trkpt lat="45.23043" lon="4.17945">
        <ele>653.83</ele>
        <time>2011-10-08T08:24:01Z</time>
      </trkpt>
      <trkpt lat="45.23042" lon="4.17944">
        <ele>654.31</ele>
        <time>2011-10-08T08:24:02Z</time>
      </trkpt>
      <trkpt lat="45.2303" lon="4.17932">
        <ele>656.24</ele>
        <time>2011-10-08T08:24:12Z</time>
      </trkpt>
      <trkpt lat="45.23029" lon="4.17931">
        <ele>656.72</ele>
        <time>2011-10-08T08:24:13Z</time>
      </trkpt>
      <trkpt lat="45.23026" lon="4.17923">
        <ele>660.56</ele>
        <time>2011-10-08T08:24:17Z</time>
      </trkpt>
      <trkpt lat="45.23025" lon="4.17912">
        <ele>664.89</ele>
        <time>2011-10-08T08:24:23Z</time>
      </trkpt>
      <trkpt lat="45.23025" lon="4.1791">
        <ele>665.37</ele>
        <time>2011-10-08T08:24:24Z</time>
      </trkpt>
      <trkpt lat="45.23025" lon="4.17908">
        <ele>665.85</ele>
        <time>2011-10-08T08:24:25Z</time>
      </trkpt>
      <trkpt lat="45.23025" lon="4.17906">
        <ele>666.33</ele>
        <time>2011-10-08T08:24:26Z</time>
      </trkpt>
      <trkpt lat="45.23025" lon="4.17904">
        <ele>666.81</ele>
        <time>2011-10-08T08:24:27Z</time>
      </trkpt>
      <trkpt lat="45.23026" lon="4.17902">
        <ele>666.81</ele>
        <time>2011-10-08T08:24:28Z</time>
      </trkpt>
      <trkpt lat="45.23026" lon="4.179">
        <ele>667.29</ele>
        <time>2011-10-08T08:24:29Z</time>
      </trkpt>
      <trkpt lat="45.23026" lon="4.17898">
        <ele>667.77</ele>
        <time>2011-10-08T08:24:30Z</time>
      </trkpt>
      <trkpt lat="45.23026" lon="4.17896">
        <ele>668.25</ele>
        <time>2011-10-08T08:24:31Z</time>
      </trkpt>
      <trkpt lat="45.23026" lon="4.17892">
        <ele>668.73</ele>
        <time>2011-10-08T08:24:33Z</time>
      </trkpt>
      <trkpt lat="45.23027" lon="4.17891">
        <ele>668.73</ele>
        <time>2011-10-08T08:24:34Z</time>
      </trkpt>
      <trkpt lat="45.23027" lon="4.17889">
        <ele>669.22</ele>
        <time>2011-10-08T08:24:35Z</time>
      </trkpt>
      <trkpt lat="45.23026" lon="4.17885">
        <ele>669.7</ele>
        <time>2011-10-08T08:24:37Z</time>
      </trkpt>
      <trkpt lat="45.23025" lon="4.17884">
        <ele>670.18</ele>
        <time>2011-10-08T08:24:38Z</time>
      </trkpt>
      <trkpt lat="45.23025" lon="4.17881">
        <ele>670.66</ele>
        <time>2011-10-08T08:24:39Z</time>
      </trkpt>
      <trkpt lat="45.23025" lon="4.1788">
        <ele>671.14</ele>
        <time>2011-10-08T08:24:40Z</time>
      </trkpt>
      <trkpt lat="45.23025" lon="4.17878">
        <ele>671.14</ele>
        <time>2011-10-08T08:24:41Z</time>
      </trkpt>
      <trkpt lat="45.23024" lon="4.17876">
        <ele>671.62</ele>
        <time>2011-10-08T08:24:42Z</time>
      </trkpt>
      <trkpt lat="45.23023" lon="4.17874">
        <ele>672.1</ele>
        <time>2011-10-08T08:24:43Z</time>
      </trkpt>
      <trkpt lat="45.23021" lon="4.17871">
        <ele>672.58</ele>
        <time>2011-10-08T08:24:45Z</time>
      </trkpt>
      <trkpt lat="45.2302" lon="4.17869">
        <ele>673.06</ele>
        <time>2011-10-08T08:24:46Z</time>
      </trkpt>
      <trkpt lat="45.2302" lon="4.17866">
        <ele>673.06</ele>
        <time>2011-10-08T08:24:47Z</time>
      </trkpt>
      <trkpt lat="45.23019" lon="4.17864">
        <ele>673.54</ele>
        <time>2011-10-08T08:24:48Z</time>
      </trkpt>
      <trkpt lat="45.23018" lon="4.17863">
        <ele>674.02</ele>
        <time>2011-10-08T08:24:49Z</time>
      </trkpt>
      <trkpt lat="45.23017" lon="4.17861">
        <ele>674.02</ele>
        <time>2011-10-08T08:24:50Z</time>
      </trkpt>
      <trkpt lat="45.23016" lon="4.17859">
        <ele>674.5</ele>
        <time>2011-10-08T08:24:51Z</time>
      </trkpt>
      <trkpt lat="45.23015" lon="4.17857">
        <ele>674.98</ele>
        <time>2011-10-08T08:24:52Z</time>
      </trkpt>
      <trkpt lat="45.23012" lon="4.17836">
        <ele>676.42</ele>
        <time>2011-10-08T08:25:03Z</time>
      </trkpt>
      <trkpt lat="45.23013" lon="4.17834">
        <ele>676.42</ele>
        <time>2011-10-08T08:25:04Z</time>
      </trkpt>
      <trkpt lat="45.23014" lon="4.17832">
        <ele>676.91</ele>
        <time>2011-10-08T08:25:05Z</time>
      </trkpt>
      <trkpt lat="45.23015" lon="4.1783">
        <ele>676.91</ele>
        <time>2011-10-08T08:25:06Z</time>
      </trkpt>
      <trkpt lat="45.23016" lon="4.1783">
        <ele>677.39</ele>
        <time>2011-10-08T08:25:07Z</time>
      </trkpt>
      <trkpt lat="45.23017" lon="4.17828">
        <ele>677.87</ele>
        <time>2011-10-08T08:25:08Z</time>
      </trkpt>
      <trkpt lat="45.23019" lon="4.17827">
        <ele>678.35</ele>
        <time>2011-10-08T08:25:09Z</time>
      </trkpt>
      <trkpt lat="45.2302" lon="4.17826">
        <ele>679.31</ele>
        <time>2011-10-08T08:25:10Z</time>
      </trkpt>
      <trkpt lat="45.23021" lon="4.17826">
        <ele>679.79</ele>
        <time>2011-10-08T08:25:11Z</time>
      </trkpt>
      <trkpt lat="45.23023" lon="4.17826">
        <ele>680.27</ele>
        <time>2011-10-08T08:25:12Z</time>
      </trkpt>
      <trkpt lat="45.23024" lon="4.17826">
        <ele>680.75</ele>
        <time>2011-10-08T08:25:13Z</time>
      </trkpt>
      <trkpt lat="45.23026" lon="4.17825">
        <ele>681.23</ele>
        <time>2011-10-08T08:25:14Z</time>
      </trkpt>
      <trkpt lat="45.23027" lon="4.17824">
        <ele>681.23</ele>
        <time>2011-10-08T08:25:15Z</time>
      </trkpt>
      <trkpt lat="45.23028" lon="4.17824">
        <ele>681.23</ele>
        <time>2011-10-08T08:25:16Z</time>
      </trkpt>
      <trkpt lat="45.23031" lon="4.17824">
        <ele>681.71</ele>
        <time>2011-10-08T08:25:18Z</time>
      </trkpt>
      <trkpt lat="45.23033" lon="4.17824">
        <ele>682.19</ele>
        <time>2011-10-08T08:25:19Z</time>
      </trkpt>
      <trkpt lat="45.23034" lon="4.17823">
        <ele>682.67</ele>
        <time>2011-10-08T08:25:20Z</time>
      </trkpt>
      <trkpt lat="45.23035" lon="4.17824">
        <ele>683.15</ele>
        <time>2011-10-08T08:25:21Z</time>
      </trkpt>
      <trkpt lat="45.23036" lon="4.17824">
        <ele>683.15</ele>
        <time>2011-10-08T08:25:22Z</time>
      </trkpt>
      <trkpt lat="45.23038" lon="4.17825">
        <ele>683.63</ele>
        <time>2011-10-08T08:25:23Z</time>
      </trkpt>
      <trkpt lat="45.2304" lon="4.17825">
        <ele>683.63</ele>
        <time>2011-10-08T08:25:24Z</time>
      </trkpt>
      <trkpt lat="45.23056" lon="4.1783">
        <ele>687</ele>
        <time>2011-10-08T08:25:34Z</time>
      </trkpt>
      <trkpt lat="45.23067" lon="4.17834">
        <ele>688.92</ele>
        <time>2011-10-08T08:25:42Z</time>
      </trkpt>
      <trkpt lat="45.23068" lon="4.17835">
        <ele>689.4</ele>
        <time>2011-10-08T08:25:43Z</time>
      </trkpt>
      <trkpt lat="45.2307" lon="4.17836">
        <ele>689.4</ele>
        <time>2011-10-08T08:25:44Z</time>
      </trkpt>
      <trkpt lat="45.23072" lon="4.17837">
        <ele>689.88</ele>
        <time>2011-10-08T08:25:45Z</time>
      </trkpt>
      <trkpt lat="45.23073" lon="4.17837">
        <ele>689.88</ele>
        <time>2011-10-08T08:25:46Z</time>
      </trkpt>
      <trkpt lat="45.23075" lon="4.17837">
        <ele>690.36</ele>
        <time>2011-10-08T08:25:47Z</time>
      </trkpt>
      <trkpt lat="45.23077" lon="4.17837">
        <ele>690.36</ele>
        <time>2011-10-08T08:25:48Z</time>
      </trkpt>
      <trkpt lat="45.23078" lon="4.17838">
        <ele>690.36</ele>
        <time>2011-10-08T08:25:49Z</time>
      </trkpt>
      <trkpt lat="45.2308" lon="4.17837">
        <ele>690.36</ele>
        <time>2011-10-08T08:25:50Z</time>
      </trkpt>
      <trkpt lat="45.23082" lon="4.17835">
        <ele>689.88</ele>
        <time>2011-10-08T08:25:51Z</time>
      </trkpt>
      <trkpt lat="45.23084" lon="4.17832">
        <ele>689.88</ele>
        <time>2011-10-08T08:25:52Z</time>
      </trkpt>
      <trkpt lat="45.23085" lon="4.17828">
        <ele>689.88</ele>
        <time>2011-10-08T08:25:53Z</time>
      </trkpt>
      <trkpt lat="45.23085" lon="4.17824">
        <ele>689.88</ele>
        <time>2011-10-08T08:25:54Z</time>
      </trkpt>
      <trkpt lat="45.23086" lon="4.17821">
        <ele>689.88</ele>
        <time>2011-10-08T08:25:55Z</time>
      </trkpt>
      <trkpt lat="45.23085" lon="4.17817">
        <ele>689.4</ele>
        <time>2011-10-08T08:25:56Z</time>
      </trkpt>
      <trkpt lat="45.23085" lon="4.17814">
        <ele>688.92</ele>
        <time>2011-10-08T08:25:57Z</time>
      </trkpt>
      <trkpt lat="45.23085" lon="4.1781">
        <ele>688.92</ele>
        <time>2011-10-08T08:25:58Z</time>
      </trkpt>
      <trkpt lat="45.23086" lon="4.17805">
        <ele>687.96</ele>
        <time>2011-10-08T08:25:59Z</time>
      </trkpt>
      <trkpt lat="45.23086" lon="4.178">
        <ele>687.48</ele>
        <time>2011-10-08T08:26:00Z</time>
      </trkpt>
      <trkpt lat="45.23087" lon="4.17794">
        <ele>687.48</ele>
        <time>2011-10-08T08:26:01Z</time>
      </trkpt>
      <trkpt lat="45.23087" lon="4.17787">
        <ele>687</ele>
        <time>2011-10-08T08:26:02Z</time>
      </trkpt>
      <trkpt lat="45.23088" lon="4.17773">
        <ele>686.52</ele>
        <time>2011-10-08T08:26:04Z</time>
      </trkpt>
      <trkpt lat="45.23088" lon="4.17765">
        <ele>686.52</ele>
        <time>2011-10-08T08:26:05Z</time>
      </trkpt>
      <trkpt lat="45.23089" lon="4.17758">
        <ele>686.04</ele>
        <time>2011-10-08T08:26:06Z</time>
      </trkpt>
      <trkpt lat="45.23096" lon="4.17652">
        <ele>682.19</ele>
        <time>2011-10-08T08:26:17Z</time>
      </trkpt>
      <trkpt lat="45.23099" lon="4.1763">
        <ele>681.23</ele>
        <time>2011-10-08T08:26:19Z</time>
      </trkpt>
      <trkpt lat="45.23102" lon="4.17606">
        <ele>679.79</ele>
        <time>2011-10-08T08:26:21Z</time>
      </trkpt>
      <trkpt lat="45.23108" lon="4.17539">
        <ele>676.91</ele>
        <time>2011-10-08T08:26:26Z</time>
      </trkpt>
      <trkpt lat="45.2311" lon="4.17499">
        <ele>675.94</ele>
        <time>2011-10-08T08:26:30Z</time>
      </trkpt>
      <trkpt lat="45.23111" lon="4.1749">
        <ele>675.46</ele>
        <time>2011-10-08T08:26:31Z</time>
      </trkpt>
      <trkpt lat="45.23111" lon="4.17482">
        <ele>675.46</ele>
        <time>2011-10-08T08:26:32Z</time>
      </trkpt>
      <trkpt lat="45.23113" lon="4.17473">
        <ele>674.98</ele>
        <time>2011-10-08T08:26:33Z</time>
      </trkpt>
      <trkpt lat="45.23114" lon="4.17464">
        <ele>674.5</ele>
        <time>2011-10-08T08:26:34Z</time>
      </trkpt>
      <trkpt lat="45.23114" lon="4.17455">
        <ele>674.02</ele>
        <time>2011-10-08T08:26:35Z</time>
      </trkpt>
      <trkpt lat="45.23113" lon="4.17448">
        <ele>674.02</ele>
        <time>2011-10-08T08:26:36Z</time>
      </trkpt>
      <trkpt lat="45.23113" lon="4.17445">
        <ele>673.54</ele>
        <time>2011-10-08T08:26:38Z</time>
      </trkpt>
      <trkpt lat="45.23114" lon="4.17446">
        <ele>673.54</ele>
        <time>2011-10-08T08:26:39Z</time>
      </trkpt>
      <trkpt lat="45.23115" lon="4.17455">
        <ele>673.06</ele>
        <time>2011-10-08T08:26:46Z</time>
      </trkpt>
      <trkpt lat="45.23114" lon="4.17457">
        <ele>673.06</ele>
        <time>2011-10-08T08:26:47Z</time>
      </trkpt>
      <trkpt lat="45.23115" lon="4.1746">
        <ele>673.54</ele>
        <time>2011-10-08T08:26:48Z</time>
      </trkpt>
      <trkpt lat="45.23115" lon="4.17463">
        <ele>673.54</ele>
        <time>2011-10-08T08:26:49Z</time>
      </trkpt>
      <trkpt lat="45.23115" lon="4.17465">
        <ele>674.02</ele>
        <time>2011-10-08T08:26:50Z</time>
      </trkpt>
      <trkpt lat="45.23115" lon="4.17468">
        <ele>674.5</ele>
        <time>2011-10-08T08:26:51Z</time>
      </trkpt>
      <trkpt lat="45.23115" lon="4.17472">
        <ele>674.5</ele>
        <time>2011-10-08T08:26:52Z</time>
      </trkpt>
      <trkpt lat="45.23115" lon="4.17475">
        <ele>674.98</ele>
        <time>2011-10-08T08:26:53Z</time>
      </trkpt>
      <trkpt lat="45.23114" lon="4.17477">
        <ele>674.5</ele>
        <time>2011-10-08T08:26:54Z</time>
      </trkpt>
      <trkpt lat="45.23114" lon="4.17478">
        <ele>674.5</ele>
        <time>2011-10-08T08:26:55Z</time>
      </trkpt>
      <trkpt lat="45.23113" lon="4.1748">
        <ele>674.5</ele>
        <time>2011-10-08T08:26:56Z</time>
      </trkpt>
      <trkpt lat="45.23113" lon="4.17483">
        <ele>674.5</ele>
        <time>2011-10-08T08:26:57Z</time>
      </trkpt>
      <trkpt lat="45.23112" lon="4.17484">
        <ele>674.5</ele>
        <time>2011-10-08T08:26:58Z</time>
      </trkpt>
      <trkpt lat="45.2311" lon="4.17486">
        <ele>674.5</ele>
        <time>2011-10-08T08:26:59Z</time>
      </trkpt>
      <trkpt lat="45.23108" lon="4.17485">
        <ele>674.5</ele>
        <time>2011-10-08T08:27:00Z</time>
      </trkpt>
      <trkpt lat="45.23106" lon="4.17482">
        <ele>674.5</ele>
        <time>2011-10-08T08:27:01Z</time>
      </trkpt>
      <trkpt lat="45.23105" lon="4.17479">
        <ele>674.02</ele>
        <time>2011-10-08T08:27:02Z</time>
      </trkpt>
      <trkpt lat="45.23104" lon="4.17475">
        <ele>674.02</ele>
        <time>2011-10-08T08:27:03Z</time>
      </trkpt>
      <trkpt lat="45.23102" lon="4.17471">
        <ele>674.02</ele>
        <time>2011-10-08T08:27:04Z</time>
      </trkpt>
      <trkpt lat="45.23092" lon="4.17462">
        <ele>671.14</ele>
        <time>2011-10-08T08:27:07Z</time>
      </trkpt>
      <trkpt lat="45.23071" lon="4.17458">
        <ele>664.89</ele>
        <time>2011-10-08T08:27:13Z</time>
      </trkpt>
      <trkpt lat="45.23069" lon="4.17456">
        <ele>663.93</ele>
        <time>2011-10-08T08:27:14Z</time>
      </trkpt>
      <trkpt lat="45.23068" lon="4.17452">
        <ele>662.97</ele>
        <time>2011-10-08T08:27:15Z</time>
      </trkpt>
      <trkpt lat="45.23067" lon="4.17447">
        <ele>661.04</ele>
        <time>2011-10-08T08:27:16Z</time>
      </trkpt>
      <trkpt lat="45.23067" lon="4.1744">
        <ele>660.08</ele>
        <time>2011-10-08T08:27:17Z</time>
      </trkpt>
      <trkpt lat="45.23067" lon="4.17432">
        <ele>658.16</ele>
        <time>2011-10-08T08:27:18Z</time>
      </trkpt>
      <trkpt lat="45.23065" lon="4.17423">
        <ele>656.72</ele>
        <time>2011-10-08T08:27:19Z</time>
      </trkpt>
      <trkpt lat="45.23062" lon="4.17416">
        <ele>655.28</ele>
        <time>2011-10-08T08:27:20Z</time>
      </trkpt>
      <trkpt lat="45.23059" lon="4.1741">
        <ele>653.83</ele>
        <time>2011-10-08T08:27:21Z</time>
      </trkpt>
      <trkpt lat="45.23055" lon="4.17405">
        <ele>652.39</ele>
        <time>2011-10-08T08:27:22Z</time>
      </trkpt>
      <trkpt lat="45.23048" lon="4.1739">
        <ele>642.78</ele>
        <time>2011-10-08T08:27:30Z</time>
      </trkpt>
      <trkpt lat="45.23035" lon="4.17373">
        <ele>636.53</ele>
        <time>2011-10-08T08:27:39Z</time>
      </trkpt>
      <trkpt lat="45.23021" lon="4.17357">
        <ele>637.97</ele>
        <time>2011-10-08T08:27:43Z</time>
      </trkpt>
      <trkpt lat="45.23017" lon="4.17351">
        <ele>637.97</ele>
        <time>2011-10-08T08:27:44Z</time>
      </trkpt>
      <trkpt lat="45.23014" lon="4.17344">
        <ele>637.49</ele>
        <time>2011-10-08T08:27:45Z</time>
      </trkpt>
      <trkpt lat="45.23009" lon="4.1733">
        <ele>637.97</ele>
        <time>2011-10-08T08:27:47Z</time>
      </trkpt>
      <trkpt lat="45.23007" lon="4.17322">
        <ele>637.49</ele>
        <time>2011-10-08T08:27:48Z</time>
      </trkpt>
      <trkpt lat="45.23006" lon="4.17315">
        <ele>637.49</ele>
        <time>2011-10-08T08:27:49Z</time>
      </trkpt>
      <trkpt lat="45.23007" lon="4.17308">
        <ele>637.01</ele>
        <time>2011-10-08T08:27:50Z</time>
      </trkpt>
      <trkpt lat="45.23008" lon="4.17302">
        <ele>637.01</ele>
        <time>2011-10-08T08:27:51Z</time>
      </trkpt>
      <trkpt lat="45.23009" lon="4.17295">
        <ele>636.53</ele>
        <time>2011-10-08T08:27:52Z</time>
      </trkpt>
      <trkpt lat="45.23012" lon="4.17273">
        <ele>635.09</ele>
        <time>2011-10-08T08:27:55Z</time>
      </trkpt>
      <trkpt lat="45.23015" lon="4.17248">
        <ele>633.17</ele>
        <time>2011-10-08T08:27:58Z</time>
      </trkpt>
      <trkpt lat="45.23014" lon="4.1724">
        <ele>632.68</ele>
        <time>2011-10-08T08:27:59Z</time>
      </trkpt>
      <trkpt lat="45.23014" lon="4.17233">
        <ele>632.2</ele>
        <time>2011-10-08T08:28:00Z</time>
      </trkpt>
      <trkpt lat="45.23014" lon="4.17225">
        <ele>631.24</ele>
        <time>2011-10-08T08:28:01Z</time>
      </trkpt>
      <trkpt lat="45.23012" lon="4.17218">
        <ele>630.28</ele>
        <time>2011-10-08T08:28:02Z</time>
      </trkpt>
      <trkpt lat="45.23009" lon="4.17213">
        <ele>629.8</ele>
        <time>2011-10-08T08:28:03Z</time>
      </trkpt>
      <trkpt lat="45.23005" lon="4.17208">
        <ele>628.84</ele>
        <time>2011-10-08T08:28:04Z</time>
      </trkpt>
      <trkpt lat="45.23" lon="4.17203">
        <ele>627.88</ele>
        <time>2011-10-08T08:28:05Z</time>
      </trkpt>
      <trkpt lat="45.22996" lon="4.17197">
        <ele>626.92</ele>
        <time>2011-10-08T08:28:06Z</time>
      </trkpt>
      <trkpt lat="45.22994" lon="4.1719">
        <ele>626.92</ele>
        <time>2011-10-08T08:28:07Z</time>
      </trkpt>
      <trkpt lat="45.22993" lon="4.17183">
        <ele>626.92</ele>
        <time>2011-10-08T08:28:08Z</time>
      </trkpt>
      <trkpt lat="45.22993" lon="4.17178">
        <ele>626.44</ele>
        <time>2011-10-08T08:28:09Z</time>
      </trkpt>
      <trkpt lat="45.22995" lon="4.17172">
        <ele>626.44</ele>
        <time>2011-10-08T08:28:10Z</time>
      </trkpt>
      <trkpt lat="45.22995" lon="4.17167">
        <ele>625.96</ele>
        <time>2011-10-08T08:28:11Z</time>
      </trkpt>
      <trkpt lat="45.22996" lon="4.17162">
        <ele>625.96</ele>
        <time>2011-10-08T08:28:12Z</time>
      </trkpt>
      <trkpt lat="45.22996" lon="4.17158">
        <ele>626.44</ele>
        <time>2011-10-08T08:28:13Z</time>
      </trkpt>
      <trkpt lat="45.22995" lon="4.17153">
        <ele>626.44</ele>
        <time>2011-10-08T08:28:14Z</time>
      </trkpt>
      <trkpt lat="45.22994" lon="4.1715">
        <ele>626.44</ele>
        <time>2011-10-08T08:28:15Z</time>
      </trkpt>
      <trkpt lat="45.22994" lon="4.17147">
        <ele>626.44</ele>
        <time>2011-10-08T08:28:16Z</time>
      </trkpt>
      <trkpt lat="45.22989" lon="4.17114">
        <ele>624.99</ele>
        <time>2011-10-08T08:28:24Z</time>
      </trkpt>
      <trkpt lat="45.22984" lon="4.1708">
        <ele>623.55</ele>
        <time>2011-10-08T08:28:32Z</time>
      </trkpt>
      <trkpt lat="45.22984" lon="4.17074">
        <ele>623.07</ele>
        <time>2011-10-08T08:28:33Z</time>
      </trkpt>
      <trkpt lat="45.22984" lon="4.17068">
        <ele>622.59</ele>
        <time>2011-10-08T08:28:34Z</time>
      </trkpt>
      <trkpt lat="45.22984" lon="4.17064">
        <ele>622.11</ele>
        <time>2011-10-08T08:28:35Z</time>
      </trkpt>
      <trkpt lat="45.22985" lon="4.1706">
        <ele>621.63</ele>
        <time>2011-10-08T08:28:36Z</time>
      </trkpt>
      <trkpt lat="45.22985" lon="4.17056">
        <ele>621.15</ele>
        <time>2011-10-08T08:28:37Z</time>
      </trkpt>
      <trkpt lat="45.22985" lon="4.17038">
        <ele>621.15</ele>
        <time>2011-10-08T08:28:42Z</time>
      </trkpt>
      <trkpt lat="45.22984" lon="4.17034">
        <ele>621.63</ele>
        <time>2011-10-08T08:28:43Z</time>
      </trkpt>
      <trkpt lat="45.22984" lon="4.1703">
        <ele>621.15</ele>
        <time>2011-10-08T08:28:44Z</time>
      </trkpt>
      <trkpt lat="45.22983" lon="4.17027">
        <ele>620.19</ele>
        <time>2011-10-08T08:28:45Z</time>
      </trkpt>
      <trkpt lat="45.22982" lon="4.17023">
        <ele>620.67</ele>
        <time>2011-10-08T08:28:46Z</time>
      </trkpt>
      <trkpt lat="45.22981" lon="4.16982">
        <ele>630.76</ele>
        <time>2011-10-08T08:28:56Z</time>
      </trkpt>
      <trkpt lat="45.22981" lon="4.16978">
        <ele>631.24</ele>
        <time>2011-10-08T08:28:57Z</time>
      </trkpt>
      <trkpt lat="45.22981" lon="4.16974">
        <ele>631.72</ele>
        <time>2011-10-08T08:28:58Z</time>
      </trkpt>
      <trkpt lat="45.22982" lon="4.16949">
        <ele>635.09</ele>
        <time>2011-10-08T08:29:05Z</time>
      </trkpt>
      <trkpt lat="45.22982" lon="4.16945">
        <ele>635.09</ele>
        <time>2011-10-08T08:29:06Z</time>
      </trkpt>
      <trkpt lat="45.22983" lon="4.16941">
        <ele>635.57</ele>
        <time>2011-10-08T08:29:07Z</time>
      </trkpt>
      <trkpt lat="45.22983" lon="4.16938">
        <ele>635.57</ele>
        <time>2011-10-08T08:29:08Z</time>
      </trkpt>
      <trkpt lat="45.22984" lon="4.16936">
        <ele>636.05</ele>
        <time>2011-10-08T08:29:09Z</time>
      </trkpt>
      <trkpt lat="45.22984" lon="4.16933">
        <ele>636.53</ele>
        <time>2011-10-08T08:29:10Z</time>
      </trkpt>
      <trkpt lat="45.22985" lon="4.1692">
        <ele>638.93</ele>
        <time>2011-10-08T08:29:18Z</time>
      </trkpt>
      <trkpt lat="45.22984" lon="4.16919">
        <ele>638.93</ele>
        <time>2011-10-08T08:29:19Z</time>
      </trkpt>
      <trkpt lat="45.22983" lon="4.16916">
        <ele>639.41</ele>
        <time>2011-10-08T08:29:20Z</time>
      </trkpt>
      <trkpt lat="45.22982" lon="4.16914">
        <ele>639.41</ele>
        <time>2011-10-08T08:29:21Z</time>
      </trkpt>
      <trkpt lat="45.22981" lon="4.1691">
        <ele>640.38</ele>
        <time>2011-10-08T08:29:22Z</time>
      </trkpt>
      <trkpt lat="45.22981" lon="4.16909">
        <ele>640.38</ele>
        <time>2011-10-08T08:29:23Z</time>
      </trkpt>
      <trkpt lat="45.22982" lon="4.16907">
        <ele>640.86</ele>
        <time>2011-10-08T08:29:24Z</time>
      </trkpt>
      <trkpt lat="45.22982" lon="4.16905">
        <ele>641.34</ele>
        <time>2011-10-08T08:29:25Z</time>
      </trkpt>
      <trkpt lat="45.22991" lon="4.16878">
        <ele>643.74</ele>
        <time>2011-10-08T08:29:35Z</time>
      </trkpt>
      <trkpt lat="45.22993" lon="4.16872">
        <ele>643.74</ele>
        <time>2011-10-08T08:29:37Z</time>
      </trkpt>
      <trkpt lat="45.23003" lon="4.16843">
        <ele>645.18</ele>
        <time>2011-10-08T08:29:43Z</time>
      </trkpt>
      <trkpt lat="45.2301" lon="4.16828">
        <ele>645.66</ele>
        <time>2011-10-08T08:29:46Z</time>
      </trkpt>
      <trkpt lat="45.23012" lon="4.16825">
        <ele>645.66</ele>
        <time>2011-10-08T08:29:47Z</time>
      </trkpt>
      <trkpt lat="45.23013" lon="4.16823">
        <ele>645.66</ele>
        <time>2011-10-08T08:29:48Z</time>
      </trkpt>
      <trkpt lat="45.23017" lon="4.16813">
        <ele>649.99</ele>
        <time>2011-10-08T08:29:52Z</time>
      </trkpt>
      <trkpt lat="45.23019" lon="4.16813">
        <ele>649.99</ele>
        <time>2011-10-08T08:29:53Z</time>
      </trkpt>
      <trkpt lat="45.23024" lon="4.16812">
        <ele>652.87</ele>
        <time>2011-10-08T08:29:58Z</time>
      </trkpt>
      <trkpt lat="45.23025" lon="4.16814">
        <ele>653.35</ele>
        <time>2011-10-08T08:29:59Z</time>
      </trkpt>
      <trkpt lat="45.23028" lon="4.16815">
        <ele>654.8</ele>
        <time>2011-10-08T08:30:02Z</time>
      </trkpt>
      <trkpt lat="45.23041" lon="4.16812">
        <ele>657.68</ele>
        <time>2011-10-08T08:30:09Z</time>
      </trkpt>
      <trkpt lat="45.23053" lon="4.16809">
        <ele>660.08</ele>
        <time>2011-10-08T08:30:17Z</time>
      </trkpt>
      <trkpt lat="45.23055" lon="4.16807">
        <ele>662.01</ele>
        <time>2011-10-08T08:30:19Z</time>
      </trkpt>
      <trkpt lat="45.23056" lon="4.16807">
        <ele>662.97</ele>
        <time>2011-10-08T08:30:20Z</time>
      </trkpt>
      <trkpt lat="45.23058" lon="4.16807">
        <ele>664.41</ele>
        <time>2011-10-08T08:30:21Z</time>
      </trkpt>
      <trkpt lat="45.23061" lon="4.16806">
        <ele>665.37</ele>
        <time>2011-10-08T08:30:22Z</time>
      </trkpt>
      <trkpt lat="45.23064" lon="4.16805">
        <ele>665.85</ele>
        <time>2011-10-08T08:30:23Z</time>
      </trkpt>
      <trkpt lat="45.23079" lon="4.16805">
        <ele>671.62</ele>
        <time>2011-10-08T08:30:35Z</time>
      </trkpt>
      <trkpt lat="45.23091" lon="4.16809">
        <ele>676.91</ele>
        <time>2011-10-08T08:30:46Z</time>
      </trkpt>
      <trkpt lat="45.23092" lon="4.1681">
        <ele>676.91</ele>
        <time>2011-10-08T08:30:47Z</time>
      </trkpt>
      <trkpt lat="45.23094" lon="4.1681">
        <ele>677.39</ele>
        <time>2011-10-08T08:30:48Z</time>
      </trkpt>
      <trkpt lat="45.23096" lon="4.1681">
        <ele>677.87</ele>
        <time>2011-10-08T08:30:49Z</time>
      </trkpt>
      <trkpt lat="45.23098" lon="4.1681">
        <ele>677.87</ele>
        <time>2011-10-08T08:30:50Z</time>
      </trkpt>
      <trkpt lat="45.23105" lon="4.16815">
        <ele>678.83</ele>
        <time>2011-10-08T08:31:00Z</time>
      </trkpt>
      <trkpt lat="45.23115" lon="4.16814">
        <ele>680.27</ele>
        <time>2011-10-08T08:31:11Z</time>
      </trkpt>
      <trkpt lat="45.23128" lon="4.16809">
        <ele>685.56</ele>
        <time>2011-10-08T08:31:22Z</time>
      </trkpt>
      <trkpt lat="45.23139" lon="4.16803">
        <ele>689.4</ele>
        <time>2011-10-08T08:31:34Z</time>
      </trkpt>
      <trkpt lat="45.23148" lon="4.16797">
        <ele>690.36</ele>
        <time>2011-10-08T08:31:42Z</time>
      </trkpt>
      <trkpt lat="45.23149" lon="4.16796">
        <ele>690.36</ele>
        <time>2011-10-08T08:31:43Z</time>
      </trkpt>
      <trkpt lat="45.23163" lon="4.1679">
        <ele>693.25</ele>
        <time>2011-10-08T08:31:55Z</time>
      </trkpt>
      <trkpt lat="45.2317" lon="4.16785">
        <ele>696.61</ele>
        <time>2011-10-08T08:32:02Z</time>
      </trkpt>
      <trkpt lat="45.23176" lon="4.16781">
        <ele>698.53</ele>
        <time>2011-10-08T08:32:06Z</time>
      </trkpt>
      <trkpt lat="45.23189" lon="4.16776">
        <ele>699.98</ele>
        <time>2011-10-08T08:32:16Z</time>
      </trkpt>
      <trkpt lat="45.23195" lon="4.16776">
        <ele>700.46</ele>
        <time>2011-10-08T08:32:21Z</time>
      </trkpt>
      <trkpt lat="45.232" lon="4.16776">
        <ele>700.46</ele>
        <time>2011-10-08T08:32:25Z</time>
      </trkpt>
      <trkpt lat="45.23201" lon="4.16776">
        <ele>700.46</ele>
        <time>2011-10-08T08:32:26Z</time>
      </trkpt>
      <trkpt lat="45.23203" lon="4.16776">
        <ele>700.46</ele>
        <time>2011-10-08T08:32:27Z</time>
      </trkpt>
      <trkpt lat="45.23204" lon="4.16777">
        <ele>700.46</ele>
        <time>2011-10-08T08:32:28Z</time>
      </trkpt>
      <trkpt lat="45.23215" lon="4.16783">
        <ele>699.5</ele>
        <time>2011-10-08T08:32:38Z</time>
      </trkpt>
      <trkpt lat="45.23216" lon="4.16782">
        <ele>699.5</ele>
        <time>2011-10-08T08:32:39Z</time>
      </trkpt>
      <trkpt lat="45.23217" lon="4.1678">
        <ele>699.5</ele>
        <time>2011-10-08T08:32:40Z</time>
      </trkpt>
      <trkpt lat="45.23218" lon="4.16778">
        <ele>699.5</ele>
        <time>2011-10-08T08:32:41Z</time>
      </trkpt>
      <trkpt lat="45.23219" lon="4.16775">
        <ele>699.5</ele>
        <time>2011-10-08T08:32:42Z</time>
      </trkpt>
      <trkpt lat="45.23219" lon="4.16772">
        <ele>699.98</ele>
        <time>2011-10-08T08:32:43Z</time>
      </trkpt>
      <trkpt lat="45.2322" lon="4.16769">
        <ele>699.98</ele>
        <time>2011-10-08T08:32:44Z</time>
      </trkpt>
      <trkpt lat="45.23221" lon="4.16765">
        <ele>699.98</ele>
        <time>2011-10-08T08:32:45Z</time>
      </trkpt>
      <trkpt lat="45.23226" lon="4.16743">
        <ele>699.5</ele>
        <time>2011-10-08T08:32:49Z</time>
      </trkpt>
      <trkpt lat="45.23228" lon="4.16736">
        <ele>699.02</ele>
        <time>2011-10-08T08:32:50Z</time>
      </trkpt>
      <trkpt lat="45.2323" lon="4.16729">
        <ele>699.02</ele>
        <time>2011-10-08T08:32:51Z</time>
      </trkpt>
      <trkpt lat="45.23233" lon="4.16722">
        <ele>699.02</ele>
        <time>2011-10-08T08:32:52Z</time>
      </trkpt>
      <trkpt lat="45.23236" lon="4.16715">
        <ele>699.02</ele>
        <time>2011-10-08T08:32:53Z</time>
      </trkpt>
      <trkpt lat="45.23241" lon="4.16707">
        <ele>698.53</ele>
        <time>2011-10-08T08:32:54Z</time>
      </trkpt>
      <trkpt lat="45.23246" lon="4.16699">
        <ele>698.53</ele>
        <time>2011-10-08T08:32:55Z</time>
      </trkpt>
      <trkpt lat="45.23251" lon="4.16691">
        <ele>698.05</ele>
        <time>2011-10-08T08:32:56Z</time>
      </trkpt>
      <trkpt lat="45.23255" lon="4.16684">
        <ele>698.05</ele>
        <time>2011-10-08T08:32:57Z</time>
      </trkpt>
      <trkpt lat="45.2328" lon="4.16655">
        <ele>696.61</ele>
        <time>2011-10-08T08:33:02Z</time>
      </trkpt>
      <trkpt lat="45.23285" lon="4.16651">
        <ele>696.61</ele>
        <time>2011-10-08T08:33:03Z</time>
      </trkpt>
      <trkpt lat="45.2329" lon="4.16647">
        <ele>696.61</ele>
        <time>2011-10-08T08:33:04Z</time>
      </trkpt>
      <trkpt lat="45.23294" lon="4.16643">
        <ele>696.61</ele>
        <time>2011-10-08T08:33:05Z</time>
      </trkpt>
      <trkpt lat="45.23299" lon="4.16637">
        <ele>696.13</ele>
        <time>2011-10-08T08:33:06Z</time>
      </trkpt>
      <trkpt lat="45.23301" lon="4.1663">
        <ele>695.65</ele>
        <time>2011-10-08T08:33:07Z</time>
      </trkpt>
      <trkpt lat="45.23302" lon="4.16623">
        <ele>695.17</ele>
        <time>2011-10-08T08:33:08Z</time>
      </trkpt>
      <trkpt lat="45.2329" lon="4.1659">
        <ele>693.25</ele>
        <time>2011-10-08T08:33:14Z</time>
      </trkpt>
      <trkpt lat="45.23281" lon="4.16581">
        <ele>692.77</ele>
        <time>2011-10-08T08:33:16Z</time>
      </trkpt>
      <trkpt lat="45.2325" lon="4.16559">
        <ele>690.36</ele>
        <time>2011-10-08T08:33:23Z</time>
      </trkpt>
      <trkpt lat="45.23226" lon="4.16542">
        <ele>687.48</ele>
        <time>2011-10-08T08:33:28Z</time>
      </trkpt>
      <trkpt lat="45.23203" lon="4.16519">
        <ele>684.6</ele>
        <time>2011-10-08T08:33:33Z</time>
      </trkpt>
      <trkpt lat="45.23178" lon="4.16497">
        <ele>681.23</ele>
        <time>2011-10-08T08:33:38Z</time>
      </trkpt>
      <trkpt lat="45.23168" lon="4.16483">
        <ele>678.83</ele>
        <time>2011-10-08T08:33:41Z</time>
      </trkpt>
      <trkpt lat="45.23143" lon="4.16448">
        <ele>671.62</ele>
        <time>2011-10-08T08:33:50Z</time>
      </trkpt>
      <trkpt lat="45.23121" lon="4.16406">
        <ele>663.93</ele>
        <time>2011-10-08T08:34:00Z</time>
      </trkpt>
      <trkpt lat="45.2312" lon="4.16394">
        <ele>661.04</ele>
        <time>2011-10-08T08:34:03Z</time>
      </trkpt>
      <trkpt lat="45.2312" lon="4.16387">
        <ele>658.64</ele>
        <time>2011-10-08T08:34:05Z</time>
      </trkpt>
      <trkpt lat="45.23123" lon="4.16365">
        <ele>648.55</ele>
        <time>2011-10-08T08:34:12Z</time>
      </trkpt>
      <trkpt lat="45.23123" lon="4.16326">
        <ele>636.53</ele>
        <time>2011-10-08T08:34:24Z</time>
      </trkpt>
      <trkpt lat="45.23124" lon="4.16309">
        <ele>632.2</ele>
        <time>2011-10-08T08:34:29Z</time>
      </trkpt>
      <trkpt lat="45.23123" lon="4.16294">
        <ele>629.8</ele>
        <time>2011-10-08T08:34:34Z</time>
      </trkpt>
      <trkpt lat="45.23125" lon="4.1628">
        <ele>627.88</ele>
        <time>2011-10-08T08:34:40Z</time>
      </trkpt>
      <trkpt lat="45.23131" lon="4.16269">
        <ele>629.8</ele>
        <time>2011-10-08T08:34:46Z</time>
      </trkpt>
      <trkpt lat="45.23135" lon="4.16268">
        <ele>633.17</ele>
        <time>2011-10-08T08:34:52Z</time>
      </trkpt>
      <trkpt lat="45.23144" lon="4.16242">
        <ele>642.78</ele>
        <time>2011-10-08T08:35:06Z</time>
      </trkpt>
      <trkpt lat="45.23152" lon="4.16229">
        <ele>651.91</ele>
        <time>2011-10-08T08:35:14Z</time>
      </trkpt>
      <trkpt lat="45.23158" lon="4.1622">
        <ele>656.24</ele>
        <time>2011-10-08T08:35:19Z</time>
      </trkpt>
      <trkpt lat="45.23162" lon="4.16215">
        <ele>657.68</ele>
        <time>2011-10-08T08:35:22Z</time>
      </trkpt>
      <trkpt lat="45.23163" lon="4.16212">
        <ele>658.64</ele>
        <time>2011-10-08T08:35:24Z</time>
      </trkpt>
      <trkpt lat="45.23167" lon="4.162">
        <ele>661.52</ele>
        <time>2011-10-08T08:35:29Z</time>
      </trkpt>
      <trkpt lat="45.2318" lon="4.16174">
        <ele>663.45</ele>
        <time>2011-10-08T08:35:41Z</time>
      </trkpt>
      <trkpt lat="45.23181" lon="4.16166">
        <ele>663.93</ele>
        <time>2011-10-08T08:35:44Z</time>
      </trkpt>
      <trkpt lat="45.23208" lon="4.16142">
        <ele>664.41</ele>
        <time>2011-10-08T08:35:56Z</time>
      </trkpt>
      <trkpt lat="45.23235" lon="4.16141">
        <ele>666.33</ele>
        <time>2011-10-08T08:36:06Z</time>
      </trkpt>
      <trkpt lat="45.2326" lon="4.16135">
        <ele>673.06</ele>
        <time>2011-10-08T08:36:19Z</time>
      </trkpt>
      <trkpt lat="45.23265" lon="4.16136">
        <ele>675.94</ele>
        <time>2011-10-08T08:36:23Z</time>
      </trkpt>
      <trkpt lat="45.23281" lon="4.16137">
        <ele>680.27</ele>
        <time>2011-10-08T08:36:35Z</time>
      </trkpt>
      <trkpt lat="45.23294" lon="4.16147">
        <ele>679.79</ele>
        <time>2011-10-08T08:36:45Z</time>
      </trkpt>
      <trkpt lat="45.23303" lon="4.16156">
        <ele>677.87</ele>
        <time>2011-10-08T08:36:55Z</time>
      </trkpt>
      <trkpt lat="45.23328" lon="4.16161">
        <ele>682.67</ele>
        <time>2011-10-08T08:37:07Z</time>
      </trkpt>
      <trkpt lat="45.23332" lon="4.16163">
        <ele>684.12</ele>
        <time>2011-10-08T08:37:10Z</time>
      </trkpt>
      <trkpt lat="45.23342" lon="4.16162">
        <ele>687</ele>
        <time>2011-10-08T08:37:14Z</time>
      </trkpt>
      <trkpt lat="45.23355" lon="4.16169">
        <ele>690.84</ele>
        <time>2011-10-08T08:37:21Z</time>
      </trkpt>
      <trkpt lat="45.23361" lon="4.16176">
        <ele>691.81</ele>
        <time>2011-10-08T08:37:25Z</time>
      </trkpt>
      <trkpt lat="45.23374" lon="4.16201">
        <ele>690.84</ele>
        <time>2011-10-08T08:37:38Z</time>
      </trkpt>
      <trkpt lat="45.23375" lon="4.16212">
        <ele>688.92</ele>
        <time>2011-10-08T08:37:45Z</time>
      </trkpt>
      <trkpt lat="45.23412" lon="4.16234">
        <ele>690.36</ele>
        <time>2011-10-08T08:37:57Z</time>
      </trkpt>
      <trkpt lat="45.23438" lon="4.16236">
        <ele>695.17</ele>
        <time>2011-10-08T08:38:06Z</time>
      </trkpt>
      <trkpt lat="45.23448" lon="4.16243">
        <ele>696.13</ele>
        <time>2011-10-08T08:38:11Z</time>
      </trkpt>
      <trkpt lat="45.23456" lon="4.16253">
        <ele>697.57</ele>
        <time>2011-10-08T08:38:16Z</time>
      </trkpt>
      <trkpt lat="45.23465" lon="4.16274">
        <ele>697.57</ele>
        <time>2011-10-08T08:38:26Z</time>
      </trkpt>
      <trkpt lat="45.23478" lon="4.16291">
        <ele>700.94</ele>
        <time>2011-10-08T08:38:35Z</time>
      </trkpt>
      <trkpt lat="45.2348" lon="4.16292">
        <ele>701.42</ele>
        <time>2011-10-08T08:38:36Z</time>
      </trkpt>
      <trkpt lat="45.23489" lon="4.16306">
        <ele>702.38</ele>
        <time>2011-10-08T08:38:43Z</time>
      </trkpt>
      <trkpt lat="45.23494" lon="4.16319">
        <ele>703.34</ele>
        <time>2011-10-08T08:38:49Z</time>
      </trkpt>
      <trkpt lat="45.23498" lon="4.1633">
        <ele>704.3</ele>
        <time>2011-10-08T08:38:54Z</time>
      </trkpt>
      <trkpt lat="45.235" lon="4.16339">
        <ele>704.3</ele>
        <time>2011-10-08T08:38:58Z</time>
      </trkpt>
      <trkpt lat="45.23502" lon="4.16365">
        <ele>704.3</ele>
        <time>2011-10-08T08:39:11Z</time>
      </trkpt>
      <trkpt lat="45.23504" lon="4.1639">
        <ele>706.71</ele>
        <time>2011-10-08T08:39:23Z</time>
      </trkpt>
      <trkpt lat="45.23508" lon="4.16412">
        <ele>707.67</ele>
        <time>2011-10-08T08:39:34Z</time>
      </trkpt>
      <trkpt lat="45.23509" lon="4.1642">
        <ele>708.15</ele>
        <time>2011-10-08T08:39:38Z</time>
      </trkpt>
      <trkpt lat="45.2351" lon="4.16428">
        <ele>707.67</ele>
        <time>2011-10-08T08:39:42Z</time>
      </trkpt>
      <trkpt lat="45.23517" lon="4.16453">
        <ele>708.15</ele>
        <time>2011-10-08T08:39:52Z</time>
      </trkpt>
      <trkpt lat="45.23518" lon="4.16458">
        <ele>708.15</ele>
        <time>2011-10-08T08:39:54Z</time>
      </trkpt>
      <trkpt lat="45.2352" lon="4.16474">
        <ele>710.55</ele>
        <time>2011-10-08T08:39:59Z</time>
      </trkpt>
      <trkpt lat="45.2354" lon="4.16514">
        <ele>713.44</ele>
        <time>2011-10-08T08:40:09Z</time>
      </trkpt>
      <trkpt lat="45.23555" lon="4.16566">
        <ele>714.88</ele>
        <time>2011-10-08T08:40:20Z</time>
      </trkpt>
      <trkpt lat="45.23563" lon="4.16607">
        <ele>712.95</ele>
        <time>2011-10-08T08:40:29Z</time>
      </trkpt>
      <trkpt lat="45.23569" lon="4.1664">
        <ele>710.07</ele>
        <time>2011-10-08T08:40:38Z</time>
      </trkpt>
      <trkpt lat="45.23572" lon="4.16668">
        <ele>706.71</ele>
        <time>2011-10-08T08:40:46Z</time>
      </trkpt>
      <trkpt lat="45.23573" lon="4.16694">
        <ele>706.71</ele>
        <time>2011-10-08T08:40:53Z</time>
      </trkpt>
      <trkpt lat="45.23576" lon="4.16713">
        <ele>710.07</ele>
        <time>2011-10-08T08:40:59Z</time>
      </trkpt>
      <trkpt lat="45.23582" lon="4.16748">
        <ele>720.65</ele>
        <time>2011-10-08T08:41:09Z</time>
      </trkpt>
      <trkpt lat="45.23587" lon="4.1676">
        <ele>723.53</ele>
        <time>2011-10-08T08:41:14Z</time>
      </trkpt>
      <trkpt lat="45.23591" lon="4.16762">
        <ele>724.97</ele>
        <time>2011-10-08T08:41:16Z</time>
      </trkpt>
      <trkpt lat="45.23614" lon="4.16739">
        <ele>724.49</ele>
        <time>2011-10-08T08:41:25Z</time>
      </trkpt>
      <trkpt lat="45.23632" lon="4.1672">
        <ele>723.05</ele>
        <time>2011-10-08T08:41:30Z</time>
      </trkpt>
      <trkpt lat="45.2364" lon="4.16708">
        <ele>722.57</ele>
        <time>2011-10-08T08:41:32Z</time>
      </trkpt>
      <trkpt lat="45.2365" lon="4.167">
        <ele>721.61</ele>
        <time>2011-10-08T08:41:34Z</time>
      </trkpt>
      <trkpt lat="45.23656" lon="4.16696">
        <ele>720.65</ele>
        <time>2011-10-08T08:41:35Z</time>
      </trkpt>
      <trkpt lat="45.23661" lon="4.16691">
        <ele>720.16</ele>
        <time>2011-10-08T08:41:36Z</time>
      </trkpt>
      <trkpt lat="45.23666" lon="4.16685">
        <ele>719.68</ele>
        <time>2011-10-08T08:41:37Z</time>
      </trkpt>
      <trkpt lat="45.2367" lon="4.16679">
        <ele>719.2</ele>
        <time>2011-10-08T08:41:38Z</time>
      </trkpt>
      <trkpt lat="45.23674" lon="4.16672">
        <ele>718.72</ele>
        <time>2011-10-08T08:41:39Z</time>
      </trkpt>
      <trkpt lat="45.23679" lon="4.16664">
        <ele>718.24</ele>
        <time>2011-10-08T08:41:40Z</time>
      </trkpt>
      <trkpt lat="45.23696" lon="4.16635">
        <ele>715.84</ele>
        <time>2011-10-08T08:41:44Z</time>
      </trkpt>
      <trkpt lat="45.237" lon="4.16629">
        <ele>714.88</ele>
        <time>2011-10-08T08:41:45Z</time>
      </trkpt>
      <trkpt lat="45.23706" lon="4.16624">
        <ele>713.92</ele>
        <time>2011-10-08T08:41:46Z</time>
      </trkpt>
      <trkpt lat="45.2373" lon="4.16611">
        <ele>711.03</ele>
        <time>2011-10-08T08:41:50Z</time>
      </trkpt>
      <trkpt lat="45.23736" lon="4.16611">
        <ele>710.55</ele>
        <time>2011-10-08T08:41:51Z</time>
      </trkpt>
      <trkpt lat="45.23753" lon="4.1661">
        <ele>708.15</ele>
        <time>2011-10-08T08:41:54Z</time>
      </trkpt>
      <trkpt lat="45.23757" lon="4.16608">
        <ele>706.71</ele>
        <time>2011-10-08T08:41:55Z</time>
      </trkpt>
      <trkpt lat="45.23766" lon="4.16603">
        <ele>704.78</ele>
        <time>2011-10-08T08:41:57Z</time>
      </trkpt>
      <trkpt lat="45.2377" lon="4.166">
        <ele>704.3</ele>
        <time>2011-10-08T08:41:58Z</time>
      </trkpt>
      <trkpt lat="45.23774" lon="4.16597">
        <ele>703.34</ele>
        <time>2011-10-08T08:41:59Z</time>
      </trkpt>
      <trkpt lat="45.23778" lon="4.16594">
        <ele>703.34</ele>
        <time>2011-10-08T08:42:00Z</time>
      </trkpt>
      <trkpt lat="45.23782" lon="4.1659">
        <ele>703.34</ele>
        <time>2011-10-08T08:42:01Z</time>
      </trkpt>
      <trkpt lat="45.23787" lon="4.16585">
        <ele>703.34</ele>
        <time>2011-10-08T08:42:02Z</time>
      </trkpt>
      <trkpt lat="45.2379" lon="4.1658">
        <ele>703.34</ele>
        <time>2011-10-08T08:42:03Z</time>
      </trkpt>
      <trkpt lat="45.23793" lon="4.16575">
        <ele>702.38</ele>
        <time>2011-10-08T08:42:04Z</time>
      </trkpt>
      <trkpt lat="45.23796" lon="4.1657">
        <ele>701.42</ele>
        <time>2011-10-08T08:42:05Z</time>
      </trkpt>
      <trkpt lat="45.23799" lon="4.16567">
        <ele>700.94</ele>
        <time>2011-10-08T08:42:06Z</time>
      </trkpt>
      <trkpt lat="45.23803" lon="4.16564">
        <ele>699.98</ele>
        <time>2011-10-08T08:42:07Z</time>
      </trkpt>
      <trkpt lat="45.23807" lon="4.16559">
        <ele>699.5</ele>
        <time>2011-10-08T08:42:08Z</time>
      </trkpt>
      <trkpt lat="45.2381" lon="4.16554">
        <ele>699.5</ele>
        <time>2011-10-08T08:42:09Z</time>
      </trkpt>
      <trkpt lat="45.23813" lon="4.16548">
        <ele>699.02</ele>
        <time>2011-10-08T08:42:10Z</time>
      </trkpt>
      <trkpt lat="45.23823" lon="4.16533">
        <ele>698.53</ele>
        <time>2011-10-08T08:42:13Z</time>
      </trkpt>
      <trkpt lat="45.2385" lon="4.16524">
        <ele>697.09</ele>
        <time>2011-10-08T08:42:20Z</time>
      </trkpt>
      <trkpt lat="45.2386" lon="4.16512">
        <ele>696.13</ele>
        <time>2011-10-08T08:42:23Z</time>
      </trkpt>
      <trkpt lat="45.23871" lon="4.16487">
        <ele>694.69</ele>
        <time>2011-10-08T08:42:27Z</time>
      </trkpt>
      <trkpt lat="45.23903" lon="4.16453">
        <ele>692.29</ele>
        <time>2011-10-08T08:42:37Z</time>
      </trkpt>
      <trkpt lat="45.23906" lon="4.16448">
        <ele>691.81</ele>
        <time>2011-10-08T08:42:39Z</time>
      </trkpt>
      <trkpt lat="45.23946" lon="4.16442">
        <ele>691.81</ele>
        <time>2011-10-08T08:42:50Z</time>
      </trkpt>
      <trkpt lat="45.23958" lon="4.16435">
        <ele>691.33</ele>
        <time>2011-10-08T08:42:54Z</time>
      </trkpt>
      <trkpt lat="45.23969" lon="4.16422">
        <ele>692.77</ele>
        <time>2011-10-08T08:43:04Z</time>
      </trkpt>
      <trkpt lat="45.23974" lon="4.16413">
        <ele>696.61</ele>
        <time>2011-10-08T08:43:14Z</time>
      </trkpt>
      <trkpt lat="45.23977" lon="4.16401">
        <ele>698.53</ele>
        <time>2011-10-08T08:43:26Z</time>
      </trkpt>
      <trkpt lat="45.23978" lon="4.16399">
        <ele>698.05</ele>
        <time>2011-10-08T08:43:27Z</time>
      </trkpt>
      <trkpt lat="45.23981" lon="4.16386">
        <ele>695.65</ele>
        <time>2011-10-08T08:43:39Z</time>
      </trkpt>
      <trkpt lat="45.23985" lon="4.16373">
        <ele>697.57</ele>
        <time>2011-10-08T08:43:51Z</time>
      </trkpt>
      <trkpt lat="45.23987" lon="4.16363">
        <ele>698.05</ele>
        <time>2011-10-08T08:44:01Z</time>
      </trkpt>
      <trkpt lat="45.23991" lon="4.16349">
        <ele>697.57</ele>
        <time>2011-10-08T08:44:14Z</time>
      </trkpt>
      <trkpt lat="45.23997" lon="4.1633">
        <ele>699.02</ele>
        <time>2011-10-08T08:44:26Z</time>
      </trkpt>
      <trkpt lat="45.24001" lon="4.16319">
        <ele>695.65</ele>
        <time>2011-10-08T08:44:34Z</time>
      </trkpt>
      <trkpt lat="45.24004" lon="4.16293">
        <ele>689.88</ele>
        <time>2011-10-08T08:44:42Z</time>
      </trkpt>
      <trkpt lat="45.24022" lon="4.16283">
        <ele>691.81</ele>
        <time>2011-10-08T08:44:55Z</time>
      </trkpt>
      <trkpt lat="45.24049" lon="4.16274">
        <ele>695.65</ele>
        <time>2011-10-08T08:45:10Z</time>
      </trkpt>
      <trkpt lat="45.24074" lon="4.16266">
        <ele>698.05</ele>
        <time>2011-10-08T08:45:21Z</time>
      </trkpt>
      <trkpt lat="45.24107" lon="4.16245">
        <ele>694.69</ele>
        <time>2011-10-08T08:45:30Z</time>
      </trkpt>
      <trkpt lat="45.24115" lon="4.16239">
        <ele>693.73</ele>
        <time>2011-10-08T08:45:32Z</time>
      </trkpt>
      <trkpt lat="45.24161" lon="4.16206">
        <ele>688.44</ele>
        <time>2011-10-08T08:45:43Z</time>
      </trkpt>
      <trkpt lat="45.2418" lon="4.16193">
        <ele>685.56</ele>
        <time>2011-10-08T08:45:48Z</time>
      </trkpt>
      <trkpt lat="45.24184" lon="4.16189">
        <ele>684.6</ele>
        <time>2011-10-08T08:45:49Z</time>
      </trkpt>
      <trkpt lat="45.24188" lon="4.16185">
        <ele>684.12</ele>
        <time>2011-10-08T08:45:50Z</time>
      </trkpt>
      <trkpt lat="45.24192" lon="4.16181">
        <ele>683.15</ele>
        <time>2011-10-08T08:45:51Z</time>
      </trkpt>
      <trkpt lat="45.24195" lon="4.16178">
        <ele>682.19</ele>
        <time>2011-10-08T08:45:52Z</time>
      </trkpt>
      <trkpt lat="45.24197" lon="4.16175">
        <ele>681.23</ele>
        <time>2011-10-08T08:45:53Z</time>
      </trkpt>
      <trkpt lat="45.24201" lon="4.16172">
        <ele>680.75</ele>
        <time>2011-10-08T08:45:54Z</time>
      </trkpt>
      <trkpt lat="45.24204" lon="4.16169">
        <ele>679.79</ele>
        <time>2011-10-08T08:45:55Z</time>
      </trkpt>
      <trkpt lat="45.24212" lon="4.16164">
        <ele>678.35</ele>
        <time>2011-10-08T08:45:57Z</time>
      </trkpt>
      <trkpt lat="45.24216" lon="4.1616">
        <ele>677.39</ele>
        <time>2011-10-08T08:45:58Z</time>
      </trkpt>
      <trkpt lat="45.24222" lon="4.16155">
        <ele>676.42</ele>
        <time>2011-10-08T08:45:59Z</time>
      </trkpt>
      <trkpt lat="45.24276" lon="4.16094">
        <ele>667.29</ele>
        <time>2011-10-08T08:46:08Z</time>
      </trkpt>
      <trkpt lat="45.24281" lon="4.1609">
        <ele>666.33</ele>
        <time>2011-10-08T08:46:09Z</time>
      </trkpt>
      <trkpt lat="45.24286" lon="4.16086">
        <ele>665.85</ele>
        <time>2011-10-08T08:46:10Z</time>
      </trkpt>
      <trkpt lat="45.24308" lon="4.1606">
        <ele>665.37</ele>
        <time>2011-10-08T08:46:20Z</time>
      </trkpt>
      <trkpt lat="45.24322" lon="4.16044">
        <ele>668.25</ele>
        <time>2011-10-08T08:46:29Z</time>
      </trkpt>
      <trkpt lat="45.24324" lon="4.16043">
        <ele>668.73</ele>
        <time>2011-10-08T08:46:30Z</time>
      </trkpt>
      <trkpt lat="45.24325" lon="4.16041">
        <ele>668.73</ele>
        <time>2011-10-08T08:46:31Z</time>
      </trkpt>
      <trkpt lat="45.24327" lon="4.1604">
        <ele>669.22</ele>
        <time>2011-10-08T08:46:32Z</time>
      </trkpt>
      <trkpt lat="45.24328" lon="4.16038">
        <ele>669.7</ele>
        <time>2011-10-08T08:46:33Z</time>
      </trkpt>
      <trkpt lat="45.24329" lon="4.16037">
        <ele>669.7</ele>
        <time>2011-10-08T08:46:34Z</time>
      </trkpt>
      <trkpt lat="45.2433" lon="4.16035">
        <ele>670.18</ele>
        <time>2011-10-08T08:46:35Z</time>
      </trkpt>
      <trkpt lat="45.24331" lon="4.16034">
        <ele>671.14</ele>
        <time>2011-10-08T08:46:36Z</time>
      </trkpt>
      <trkpt lat="45.24332" lon="4.16033">
        <ele>672.1</ele>
        <time>2011-10-08T08:46:37Z</time>
      </trkpt>
      <trkpt lat="45.24333" lon="4.16031">
        <ele>672.58</ele>
        <time>2011-10-08T08:46:38Z</time>
      </trkpt>
      <trkpt lat="45.24334" lon="4.16029">
        <ele>672.58</ele>
        <time>2011-10-08T08:46:39Z</time>
      </trkpt>
      <trkpt lat="45.24335" lon="4.16028">
        <ele>672.58</ele>
        <time>2011-10-08T08:46:40Z</time>
      </trkpt>
      <trkpt lat="45.24337" lon="4.16027">
        <ele>672.1</ele>
        <time>2011-10-08T08:46:41Z</time>
      </trkpt>
      <trkpt lat="45.24355" lon="4.1601">
        <ele>675.46</ele>
        <time>2011-10-08T08:46:56Z</time>
      </trkpt>
      <trkpt lat="45.24369" lon="4.15993">
        <ele>676.42</ele>
        <time>2011-10-08T08:47:10Z</time>
      </trkpt>
      <trkpt lat="45.24371" lon="4.15992">
        <ele>676.42</ele>
        <time>2011-10-08T08:47:12Z</time>
      </trkpt>
      <trkpt lat="45.24375" lon="4.15989">
        <ele>677.39</ele>
        <time>2011-10-08T08:47:15Z</time>
      </trkpt>
      <trkpt lat="45.24376" lon="4.15987">
        <ele>677.87</ele>
        <time>2011-10-08T08:47:16Z</time>
      </trkpt>
      <trkpt lat="45.24377" lon="4.15986">
        <ele>678.35</ele>
        <time>2011-10-08T08:47:17Z</time>
      </trkpt>
      <trkpt lat="45.24379" lon="4.15984">
        <ele>678.35</ele>
        <time>2011-10-08T08:47:19Z</time>
      </trkpt>
      <trkpt lat="45.2438" lon="4.15983">
        <ele>678.35</ele>
        <time>2011-10-08T08:47:20Z</time>
      </trkpt>
      <trkpt lat="45.24381" lon="4.15982">
        <ele>678.35</ele>
        <time>2011-10-08T08:47:21Z</time>
      </trkpt>
      <trkpt lat="45.24382" lon="4.1598">
        <ele>678.83</ele>
        <time>2011-10-08T08:47:22Z</time>
      </trkpt>
      <trkpt lat="45.24383" lon="4.1598">
        <ele>678.83</ele>
        <time>2011-10-08T08:47:23Z</time>
      </trkpt>
      <trkpt lat="45.24385" lon="4.15979">
        <ele>679.31</ele>
        <time>2011-10-08T08:47:24Z</time>
      </trkpt>
      <trkpt lat="45.24386" lon="4.15978">
        <ele>679.31</ele>
        <time>2011-10-08T08:47:25Z</time>
      </trkpt>
      <trkpt lat="45.24387" lon="4.15977">
        <ele>678.83</ele>
        <time>2011-10-08T08:47:26Z</time>
      </trkpt>
      <trkpt lat="45.24391" lon="4.15972">
        <ele>680.27</ele>
        <time>2011-10-08T08:47:30Z</time>
      </trkpt>
      <trkpt lat="45.24392" lon="4.15971">
        <ele>680.75</ele>
        <time>2011-10-08T08:47:31Z</time>
      </trkpt>
      <trkpt lat="45.24393" lon="4.1597">
        <ele>681.23</ele>
        <time>2011-10-08T08:47:32Z</time>
      </trkpt>
      <trkpt lat="45.24394" lon="4.15968">
        <ele>681.71</ele>
        <time>2011-10-08T08:47:33Z</time>
      </trkpt>
      <trkpt lat="45.24395" lon="4.15966">
        <ele>682.67</ele>
        <time>2011-10-08T08:47:34Z</time>
      </trkpt>
      <trkpt lat="45.24396" lon="4.15964">
        <ele>683.63</ele>
        <time>2011-10-08T08:47:35Z</time>
      </trkpt>
      <trkpt lat="45.24398" lon="4.15962">
        <ele>684.6</ele>
        <time>2011-10-08T08:47:36Z</time>
      </trkpt>
      <trkpt lat="45.24404" lon="4.15955">
        <ele>688.44</ele>
        <time>2011-10-08T08:47:40Z</time>
      </trkpt>
      <trkpt lat="45.24405" lon="4.15954">
        <ele>688.92</ele>
        <time>2011-10-08T08:47:41Z</time>
      </trkpt>
      <trkpt lat="45.24406" lon="4.15952">
        <ele>688.92</ele>
        <time>2011-10-08T08:47:42Z</time>
      </trkpt>
      <trkpt lat="45.24417" lon="4.15936">
        <ele>694.21</ele>
        <time>2011-10-08T08:47:52Z</time>
      </trkpt>
      <trkpt lat="45.24419" lon="4.15935">
        <ele>694.21</ele>
        <time>2011-10-08T08:47:53Z</time>
      </trkpt>
      <trkpt lat="45.2442" lon="4.15934">
        <ele>695.17</ele>
        <time>2011-10-08T08:47:54Z</time>
      </trkpt>
      <trkpt lat="45.24422" lon="4.15932">
        <ele>695.17</ele>
        <time>2011-10-08T08:47:55Z</time>
      </trkpt>
      <trkpt lat="45.24422" lon="4.15931">
        <ele>695.65</ele>
        <time>2011-10-08T08:47:56Z</time>
      </trkpt>
      <trkpt lat="45.24423" lon="4.15929">
        <ele>695.17</ele>
        <time>2011-10-08T08:47:57Z</time>
      </trkpt>
      <trkpt lat="45.24424" lon="4.15928">
        <ele>696.13</ele>
        <time>2011-10-08T08:47:58Z</time>
      </trkpt>
      <trkpt lat="45.24425" lon="4.15926">
        <ele>696.61</ele>
        <time>2011-10-08T08:47:59Z</time>
      </trkpt>
      <trkpt lat="45.24427" lon="4.15924">
        <ele>696.61</ele>
        <time>2011-10-08T08:48:00Z</time>
      </trkpt>
      <trkpt lat="45.24428" lon="4.15922">
        <ele>696.61</ele>
        <time>2011-10-08T08:48:01Z</time>
      </trkpt>
      <trkpt lat="45.2443" lon="4.1592">
        <ele>696.61</ele>
        <time>2011-10-08T08:48:02Z</time>
      </trkpt>
      <trkpt lat="45.24432" lon="4.15918">
        <ele>697.09</ele>
        <time>2011-10-08T08:48:03Z</time>
      </trkpt>
      <trkpt lat="45.24434" lon="4.15917">
        <ele>696.61</ele>
        <time>2011-10-08T08:48:04Z</time>
      </trkpt>
      <trkpt lat="45.24436" lon="4.15914">
        <ele>697.09</ele>
        <time>2011-10-08T08:48:05Z</time>
      </trkpt>
      <trkpt lat="45.24467" lon="4.15889">
        <ele>697.09</ele>
        <time>2011-10-08T08:48:17Z</time>
      </trkpt>
      <trkpt lat="45.24511" lon="4.15861">
        <ele>697.09</ele>
        <time>2011-10-08T08:48:31Z</time>
      </trkpt>
      <trkpt lat="45.24556" lon="4.15831">
        <ele>697.57</ele>
        <time>2011-10-08T08:48:45Z</time>
      </trkpt>
      <trkpt lat="45.24584" lon="4.15819">
        <ele>696.13</ele>
        <time>2011-10-08T08:48:53Z</time>
      </trkpt>
      <trkpt lat="45.2465" lon="4.15809">
        <ele>696.13</ele>
        <time>2011-10-08T08:49:06Z</time>
      </trkpt>
      <trkpt lat="45.24656" lon="4.15811">
        <ele>696.13</ele>
        <time>2011-10-08T08:49:07Z</time>
      </trkpt>
      <trkpt lat="45.2466" lon="4.15813">
        <ele>696.61</ele>
        <time>2011-10-08T08:49:08Z</time>
      </trkpt>
      <trkpt lat="45.24664" lon="4.15817">
        <ele>696.61</ele>
        <time>2011-10-08T08:49:09Z</time>
      </trkpt>
      <trkpt lat="45.24666" lon="4.15821">
        <ele>697.09</ele>
        <time>2011-10-08T08:49:10Z</time>
      </trkpt>
      <trkpt lat="45.24667" lon="4.15824">
        <ele>697.09</ele>
        <time>2011-10-08T08:49:11Z</time>
      </trkpt>
      <trkpt lat="45.24676" lon="4.15851">
        <ele>699.98</ele>
        <time>2011-10-08T08:49:24Z</time>
      </trkpt>
      <trkpt lat="45.24677" lon="4.15862">
        <ele>702.38</ele>
        <time>2011-10-08T08:49:30Z</time>
      </trkpt>
      <trkpt lat="45.24678" lon="4.15864">
        <ele>702.86</ele>
        <time>2011-10-08T08:49:31Z</time>
      </trkpt>
      <trkpt lat="45.24678" lon="4.15866">
        <ele>702.38</ele>
        <time>2011-10-08T08:49:32Z</time>
      </trkpt>
      <trkpt lat="45.24678" lon="4.15868">
        <ele>702.86</ele>
        <time>2011-10-08T08:49:33Z</time>
      </trkpt>
      <trkpt lat="45.24679" lon="4.1587">
        <ele>702.86</ele>
        <time>2011-10-08T08:49:34Z</time>
      </trkpt>
      <trkpt lat="45.24679" lon="4.15872">
        <ele>702.86</ele>
        <time>2011-10-08T08:49:35Z</time>
      </trkpt>
      <trkpt lat="45.24679" lon="4.15874">
        <ele>702.86</ele>
        <time>2011-10-08T08:49:36Z</time>
      </trkpt>
      <trkpt lat="45.24679" lon="4.15876">
        <ele>702.86</ele>
        <time>2011-10-08T08:49:37Z</time>
      </trkpt>
      <trkpt lat="45.24679" lon="4.15878">
        <ele>703.34</ele>
        <time>2011-10-08T08:49:38Z</time>
      </trkpt>
      <trkpt lat="45.2468" lon="4.15882">
        <ele>703.82</ele>
        <time>2011-10-08T08:49:40Z</time>
      </trkpt>
      <trkpt lat="45.2468" lon="4.15883">
        <ele>704.3</ele>
        <time>2011-10-08T08:49:41Z</time>
      </trkpt>
      <trkpt lat="45.24679" lon="4.15885">
        <ele>703.82</ele>
        <time>2011-10-08T08:49:42Z</time>
      </trkpt>
      <trkpt lat="45.24679" lon="4.15887">
        <ele>703.82</ele>
        <time>2011-10-08T08:49:43Z</time>
      </trkpt>
      <trkpt lat="45.2468" lon="4.15889">
        <ele>703.82</ele>
        <time>2011-10-08T08:49:44Z</time>
      </trkpt>
      <trkpt lat="45.2468" lon="4.1589">
        <ele>703.82</ele>
        <time>2011-10-08T08:49:45Z</time>
      </trkpt>
      <trkpt lat="45.2468" lon="4.15892">
        <ele>703.82</ele>
        <time>2011-10-08T08:49:46Z</time>
      </trkpt>
      <trkpt lat="45.24679" lon="4.15894">
        <ele>703.82</ele>
        <time>2011-10-08T08:49:47Z</time>
      </trkpt>
      <trkpt lat="45.24679" lon="4.15896">
        <ele>704.3</ele>
        <time>2011-10-08T08:49:48Z</time>
      </trkpt>
      <trkpt lat="45.24676" lon="4.15921">
        <ele>706.71</ele>
        <time>2011-10-08T08:50:00Z</time>
      </trkpt>
      <trkpt lat="45.24683" lon="4.15938">
        <ele>707.19</ele>
        <time>2011-10-08T08:50:08Z</time>
      </trkpt>
      <trkpt lat="45.24684" lon="4.15941">
        <ele>707.19</ele>
        <time>2011-10-08T08:50:09Z</time>
      </trkpt>
      <trkpt lat="45.24685" lon="4.15944">
        <ele>707.67</ele>
        <time>2011-10-08T08:50:10Z</time>
      </trkpt>
      <trkpt lat="45.24686" lon="4.15947">
        <ele>708.15</ele>
        <time>2011-10-08T08:50:11Z</time>
      </trkpt>
      <trkpt lat="45.24687" lon="4.1595">
        <ele>708.63</ele>
        <time>2011-10-08T08:50:12Z</time>
      </trkpt>
      <trkpt lat="45.24688" lon="4.15953">
        <ele>708.63</ele>
        <time>2011-10-08T08:50:13Z</time>
      </trkpt>
      <trkpt lat="45.24689" lon="4.15956">
        <ele>709.11</ele>
        <time>2011-10-08T08:50:14Z</time>
      </trkpt>
      <trkpt lat="45.2469" lon="4.1596">
        <ele>708.63</ele>
        <time>2011-10-08T08:50:15Z</time>
      </trkpt>
      <trkpt lat="45.24707" lon="4.16021">
        <ele>710.55</ele>
        <time>2011-10-08T08:50:31Z</time>
      </trkpt>
      <trkpt lat="45.24707" lon="4.16059">
        <ele>713.44</ele>
        <time>2011-10-08T08:50:44Z</time>
      </trkpt>
      <trkpt lat="45.24709" lon="4.16095">
        <ele>714.4</ele>
        <time>2011-10-08T08:50:55Z</time>
      </trkpt>
      <trkpt lat="45.2471" lon="4.16139">
        <ele>714.88</ele>
        <time>2011-10-08T08:51:10Z</time>
      </trkpt>
      <trkpt lat="45.24712" lon="4.1619">
        <ele>718.72</ele>
        <time>2011-10-08T08:51:26Z</time>
      </trkpt>
      <trkpt lat="45.24712" lon="4.16196">
        <ele>719.2</ele>
        <time>2011-10-08T08:51:28Z</time>
      </trkpt>
      <trkpt lat="45.24712" lon="4.16199">
        <ele>719.2</ele>
        <time>2011-10-08T08:51:29Z</time>
      </trkpt>
      <trkpt lat="45.24712" lon="4.16202">
        <ele>719.68</ele>
        <time>2011-10-08T08:51:30Z</time>
      </trkpt>
      <trkpt lat="45.24712" lon="4.16204">
        <ele>719.68</ele>
        <time>2011-10-08T08:51:31Z</time>
      </trkpt>
      <trkpt lat="45.24711" lon="4.16207">
        <ele>720.16</ele>
        <time>2011-10-08T08:51:32Z</time>
      </trkpt>
      <trkpt lat="45.24705" lon="4.16244">
        <ele>720.65</ele>
        <time>2011-10-08T08:51:44Z</time>
      </trkpt>
      <trkpt lat="45.24689" lon="4.16293">
        <ele>720.65</ele>
        <time>2011-10-08T08:51:56Z</time>
      </trkpt>
      <trkpt lat="45.24674" lon="4.16332">
        <ele>720.65</ele>
        <time>2011-10-08T08:52:07Z</time>
      </trkpt>
      <trkpt lat="45.24667" lon="4.16351">
        <ele>719.68</ele>
        <time>2011-10-08T08:52:12Z</time>
      </trkpt>
      <trkpt lat="45.24664" lon="4.16356">
        <ele>719.2</ele>
        <time>2011-10-08T08:52:13Z</time>
      </trkpt>
      <trkpt lat="45.2465" lon="4.16394">
        <ele>715.36</ele>
        <time>2011-10-08T08:52:19Z</time>
      </trkpt>
      <trkpt lat="45.24649" lon="4.16399">
        <ele>715.36</ele>
        <time>2011-10-08T08:52:20Z</time>
      </trkpt>
      <trkpt lat="45.24647" lon="4.16404">
        <ele>715.36</ele>
        <time>2011-10-08T08:52:21Z</time>
      </trkpt>
      <trkpt lat="45.24643" lon="4.16416">
        <ele>714.88</ele>
        <time>2011-10-08T08:52:23Z</time>
      </trkpt>
      <trkpt lat="45.24635" lon="4.1646">
        <ele>717.28</ele>
        <time>2011-10-08T08:52:33Z</time>
      </trkpt>
      <trkpt lat="45.24633" lon="4.16478">
        <ele>720.16</ele>
        <time>2011-10-08T08:52:39Z</time>
      </trkpt>
      <trkpt lat="45.24632" lon="4.16481">
        <ele>720.65</ele>
        <time>2011-10-08T08:52:40Z</time>
      </trkpt>
      <trkpt lat="45.24632" lon="4.16485">
        <ele>721.13</ele>
        <time>2011-10-08T08:52:41Z</time>
      </trkpt>
      <trkpt lat="45.24631" lon="4.16489">
        <ele>721.61</ele>
        <time>2011-10-08T08:52:42Z</time>
      </trkpt>
      <trkpt lat="45.2463" lon="4.16493">
        <ele>721.61</ele>
        <time>2011-10-08T08:52:43Z</time>
      </trkpt>
      <trkpt lat="45.24624" lon="4.16532">
        <ele>721.61</ele>
        <time>2011-10-08T08:52:53Z</time>
      </trkpt>
      <trkpt lat="45.24613" lon="4.16601">
        <ele>723.53</ele>
        <time>2011-10-08T08:53:08Z</time>
      </trkpt>
      <trkpt lat="45.24604" lon="4.16643">
        <ele>723.53</ele>
        <time>2011-10-08T08:53:16Z</time>
      </trkpt>
      <trkpt lat="45.24603" lon="4.16649">
        <ele>723.53</ele>
        <time>2011-10-08T08:53:17Z</time>
      </trkpt>
      <trkpt lat="45.24601" lon="4.16662">
        <ele>723.05</ele>
        <time>2011-10-08T08:53:19Z</time>
      </trkpt>
      <trkpt lat="45.24599" lon="4.16669">
        <ele>723.05</ele>
        <time>2011-10-08T08:53:20Z</time>
      </trkpt>
      <trkpt lat="45.24591" lon="4.16695">
        <ele>721.61</ele>
        <time>2011-10-08T08:53:24Z</time>
      </trkpt>
      <trkpt lat="45.2459" lon="4.16712">
        <ele>720.65</ele>
        <time>2011-10-08T08:53:27Z</time>
      </trkpt>
      <trkpt lat="45.24592" lon="4.16719">
        <ele>720.65</ele>
        <time>2011-10-08T08:53:28Z</time>
      </trkpt>
      <trkpt lat="45.24596" lon="4.16733">
        <ele>719.68</ele>
        <time>2011-10-08T08:53:30Z</time>
      </trkpt>
      <trkpt lat="45.24622" lon="4.16758">
        <ele>720.16</ele>
        <time>2011-10-08T08:53:38Z</time>
      </trkpt>
      <trkpt lat="45.24644" lon="4.16777">
        <ele>725.45</ele>
        <time>2011-10-08T08:53:50Z</time>
      </trkpt>
      <trkpt lat="45.24645" lon="4.16779">
        <ele>725.93</ele>
        <time>2011-10-08T08:53:51Z</time>
      </trkpt>
      <trkpt lat="45.24646" lon="4.1678">
        <ele>726.41</ele>
        <time>2011-10-08T08:53:52Z</time>
      </trkpt>
      <trkpt lat="45.24651" lon="4.16791">
        <ele>731.22</ele>
        <time>2011-10-08T08:54:01Z</time>
      </trkpt>
      <trkpt lat="45.24656" lon="4.16804">
        <ele>734.58</ele>
        <time>2011-10-08T08:54:14Z</time>
      </trkpt>
      <trkpt lat="45.24659" lon="4.16821">
        <ele>737.47</ele>
        <time>2011-10-08T08:54:29Z</time>
      </trkpt>
      <trkpt lat="45.24659" lon="4.16825">
        <ele>737.95</ele>
        <time>2011-10-08T08:54:41Z</time>
      </trkpt>
      <trkpt lat="45.24656" lon="4.16847">
        <ele>739.39</ele>
        <time>2011-10-08T08:54:53Z</time>
      </trkpt>
      <trkpt lat="45.24656" lon="4.16849">
        <ele>739.39</ele>
        <time>2011-10-08T08:54:54Z</time>
      </trkpt>
      <trkpt lat="45.24656" lon="4.16851">
        <ele>739.39</ele>
        <time>2011-10-08T08:54:55Z</time>
      </trkpt>
      <trkpt lat="45.24655" lon="4.16853">
        <ele>739.39</ele>
        <time>2011-10-08T08:54:56Z</time>
      </trkpt>
      <trkpt lat="45.24655" lon="4.16855">
        <ele>739.39</ele>
        <time>2011-10-08T08:54:57Z</time>
      </trkpt>
      <trkpt lat="45.24655" lon="4.16857">
        <ele>739.39</ele>
        <time>2011-10-08T08:54:58Z</time>
      </trkpt>
      <trkpt lat="45.24655" lon="4.16859">
        <ele>739.39</ele>
        <time>2011-10-08T08:54:59Z</time>
      </trkpt>
      <trkpt lat="45.24661" lon="4.16889">
        <ele>740.83</ele>
        <time>2011-10-08T08:55:12Z</time>
      </trkpt>
      <trkpt lat="45.24692" lon="4.16919">
        <ele>741.31</ele>
        <time>2011-10-08T08:55:26Z</time>
      </trkpt>
      <trkpt lat="45.24708" lon="4.16942">
        <ele>743.24</ele>
        <time>2011-10-08T08:55:40Z</time>
      </trkpt>
      <trkpt lat="45.2472" lon="4.16961">
        <ele>745.16</ele>
        <time>2011-10-08T08:55:55Z</time>
      </trkpt>
      <trkpt lat="45.24721" lon="4.16962">
        <ele>745.64</ele>
        <time>2011-10-08T08:55:56Z</time>
      </trkpt>
      <trkpt lat="45.24722" lon="4.16964">
        <ele>745.64</ele>
        <time>2011-10-08T08:55:57Z</time>
      </trkpt>
      <trkpt lat="45.24723" lon="4.16965">
        <ele>745.64</ele>
        <time>2011-10-08T08:55:58Z</time>
      </trkpt>
      <trkpt lat="45.24724" lon="4.16966">
        <ele>745.64</ele>
        <time>2011-10-08T08:55:59Z</time>
      </trkpt>
      <trkpt lat="45.24725" lon="4.16967">
        <ele>746.12</ele>
        <time>2011-10-08T08:56:00Z</time>
      </trkpt>
      <trkpt lat="45.24726" lon="4.16969">
        <ele>746.12</ele>
        <time>2011-10-08T08:56:01Z</time>
      </trkpt>
      <trkpt lat="45.24727" lon="4.1697">
        <ele>746.12</ele>
        <time>2011-10-08T08:56:02Z</time>
      </trkpt>
      <trkpt lat="45.24728" lon="4.16971">
        <ele>746.12</ele>
        <time>2011-10-08T08:56:03Z</time>
      </trkpt>
      <trkpt lat="45.24729" lon="4.16973">
        <ele>746.12</ele>
        <time>2011-10-08T08:56:04Z</time>
      </trkpt>
      <trkpt lat="45.2473" lon="4.16974">
        <ele>746.6</ele>
        <time>2011-10-08T08:56:05Z</time>
      </trkpt>
      <trkpt lat="45.24731" lon="4.16975">
        <ele>746.6</ele>
        <time>2011-10-08T08:56:06Z</time>
      </trkpt>
      <trkpt lat="45.24732" lon="4.16977">
        <ele>746.6</ele>
        <time>2011-10-08T08:56:07Z</time>
      </trkpt>
      <trkpt lat="45.24733" lon="4.16978">
        <ele>747.08</ele>
        <time>2011-10-08T08:56:08Z</time>
      </trkpt>
      <trkpt lat="45.24734" lon="4.16979">
        <ele>747.08</ele>
        <time>2011-10-08T08:56:09Z</time>
      </trkpt>
      <trkpt lat="45.24735" lon="4.1698">
        <ele>747.56</ele>
        <time>2011-10-08T08:56:10Z</time>
      </trkpt>
      <trkpt lat="45.24736" lon="4.16982">
        <ele>748.52</ele>
        <time>2011-10-08T08:56:11Z</time>
      </trkpt>
      <trkpt lat="45.24737" lon="4.16983">
        <ele>748.52</ele>
        <time>2011-10-08T08:56:12Z</time>
      </trkpt>
      <trkpt lat="45.24739" lon="4.16984">
        <ele>749</ele>
        <time>2011-10-08T08:56:13Z</time>
      </trkpt>
      <trkpt lat="45.2474" lon="4.16985">
        <ele>749</ele>
        <time>2011-10-08T08:56:14Z</time>
      </trkpt>
      <trkpt lat="45.24741" lon="4.16986">
        <ele>749</ele>
        <time>2011-10-08T08:56:15Z</time>
      </trkpt>
      <trkpt lat="45.24746" lon="4.16992">
        <ele>749.97</ele>
        <time>2011-10-08T08:56:21Z</time>
      </trkpt>
      <trkpt lat="45.24747" lon="4.16994">
        <ele>749.97</ele>
        <time>2011-10-08T08:56:22Z</time>
      </trkpt>
      <trkpt lat="45.24748" lon="4.16996">
        <ele>749.97</ele>
        <time>2011-10-08T08:56:23Z</time>
      </trkpt>
      <trkpt lat="45.24772" lon="4.17018">
        <ele>751.41</ele>
        <time>2011-10-08T08:56:38Z</time>
      </trkpt>
      <trkpt lat="45.24795" lon="4.17033">
        <ele>754.29</ele>
        <time>2011-10-08T08:56:52Z</time>
      </trkpt>
      <trkpt lat="45.24819" lon="4.17045">
        <ele>756.69</ele>
        <time>2011-10-08T08:57:05Z</time>
      </trkpt>
      <trkpt lat="45.24821" lon="4.17046">
        <ele>756.69</ele>
        <time>2011-10-08T08:57:06Z</time>
      </trkpt>
      <trkpt lat="45.24823" lon="4.17047">
        <ele>757.18</ele>
        <time>2011-10-08T08:57:07Z</time>
      </trkpt>
      <trkpt lat="45.24825" lon="4.17048">
        <ele>757.18</ele>
        <time>2011-10-08T08:57:08Z</time>
      </trkpt>
      <trkpt lat="45.24828" lon="4.17049">
        <ele>757.18</ele>
        <time>2011-10-08T08:57:09Z</time>
      </trkpt>
      <trkpt lat="45.24848" lon="4.17056">
        <ele>757.18</ele>
        <time>2011-10-08T08:57:18Z</time>
      </trkpt>
      <trkpt lat="45.2485" lon="4.17055">
        <ele>756.69</ele>
        <time>2011-10-08T08:57:19Z</time>
      </trkpt>
      <trkpt lat="45.24853" lon="4.17053">
        <ele>756.21</ele>
        <time>2011-10-08T08:57:20Z</time>
      </trkpt>
      <trkpt lat="45.24855" lon="4.17051">
        <ele>756.21</ele>
        <time>2011-10-08T08:57:21Z</time>
      </trkpt>
      <trkpt lat="45.24857" lon="4.17048">
        <ele>756.21</ele>
        <time>2011-10-08T08:57:22Z</time>
      </trkpt>
      <trkpt lat="45.24869" lon="4.17035">
        <ele>755.73</ele>
        <time>2011-10-08T08:57:27Z</time>
      </trkpt>
      <trkpt lat="45.24872" lon="4.17034">
        <ele>756.21</ele>
        <time>2011-10-08T08:57:28Z</time>
      </trkpt>
      <trkpt lat="45.24875" lon="4.17036">
        <ele>756.21</ele>
        <time>2011-10-08T08:57:29Z</time>
      </trkpt>
      <trkpt lat="45.24907" lon="4.17059">
        <ele>755.25</ele>
        <time>2011-10-08T08:57:37Z</time>
      </trkpt>
      <trkpt lat="45.24922" lon="4.17069">
        <ele>755.25</ele>
        <time>2011-10-08T08:57:40Z</time>
      </trkpt>
      <trkpt lat="45.24927" lon="4.17072">
        <ele>754.77</ele>
        <time>2011-10-08T08:57:41Z</time>
      </trkpt>
      <trkpt lat="45.24938" lon="4.17077">
        <ele>753.81</ele>
        <time>2011-10-08T08:57:43Z</time>
      </trkpt>
      <trkpt lat="45.24963" lon="4.17101">
        <ele>752.85</ele>
        <time>2011-10-08T08:57:48Z</time>
      </trkpt>
      <trkpt lat="45.24967" lon="4.17108">
        <ele>752.85</ele>
        <time>2011-10-08T08:57:49Z</time>
      </trkpt>
      <trkpt lat="45.2497" lon="4.17115">
        <ele>752.85</ele>
        <time>2011-10-08T08:57:50Z</time>
      </trkpt>
      <trkpt lat="45.24976" lon="4.1713">
        <ele>752.37</ele>
        <time>2011-10-08T08:57:52Z</time>
      </trkpt>
      <trkpt lat="45.24977" lon="4.17137">
        <ele>752.37</ele>
        <time>2011-10-08T08:57:53Z</time>
      </trkpt>
      <trkpt lat="45.24983" lon="4.17167">
        <ele>751.89</ele>
        <time>2011-10-08T08:57:57Z</time>
      </trkpt>
      <trkpt lat="45.24984" lon="4.17174">
        <ele>752.37</ele>
        <time>2011-10-08T08:57:58Z</time>
      </trkpt>
      <trkpt lat="45.24994" lon="4.17202">
        <ele>752.85</ele>
        <time>2011-10-08T08:58:03Z</time>
      </trkpt>
      <trkpt lat="45.24997" lon="4.17205">
        <ele>752.37</ele>
        <time>2011-10-08T08:58:04Z</time>
      </trkpt>
      <trkpt lat="45.25001" lon="4.17205">
        <ele>752.37</ele>
        <time>2011-10-08T08:58:05Z</time>
      </trkpt>
      <trkpt lat="45.25006" lon="4.17203">
        <ele>751.41</ele>
        <time>2011-10-08T08:58:06Z</time>
      </trkpt>
      <trkpt lat="45.25011" lon="4.172">
        <ele>750.93</ele>
        <time>2011-10-08T08:58:07Z</time>
      </trkpt>
      <trkpt lat="45.25016" lon="4.17199">
        <ele>750.93</ele>
        <time>2011-10-08T08:58:08Z</time>
      </trkpt>
      <trkpt lat="45.2502" lon="4.172">
        <ele>750.93</ele>
        <time>2011-10-08T08:58:09Z</time>
      </trkpt>
      <trkpt lat="45.25023" lon="4.17204">
        <ele>750.93</ele>
        <time>2011-10-08T08:58:10Z</time>
      </trkpt>
      <trkpt lat="45.25024" lon="4.17207">
        <ele>750.93</ele>
        <time>2011-10-08T08:58:11Z</time>
      </trkpt>
      <trkpt lat="45.25024" lon="4.1721">
        <ele>750.93</ele>
        <time>2011-10-08T08:58:12Z</time>
      </trkpt>
      <trkpt lat="45.25024" lon="4.17212">
        <ele>750.45</ele>
        <time>2011-10-08T08:58:13Z</time>
      </trkpt>
      <trkpt lat="45.25023" lon="4.17214">
        <ele>750.45</ele>
        <time>2011-10-08T08:58:14Z</time>
      </trkpt>
      <trkpt lat="45.25022" lon="4.17216">
        <ele>749.97</ele>
        <time>2011-10-08T08:58:15Z</time>
      </trkpt>
      <trkpt lat="45.2502" lon="4.17216">
        <ele>749.49</ele>
        <time>2011-10-08T08:58:17Z</time>
      </trkpt>
      <trkpt lat="45.25017" lon="4.17213">
        <ele>748.04</ele>
        <time>2011-10-08T08:58:27Z</time>
      </trkpt>
      <trkpt lat="45.25017" lon="4.17213">
        <ele>748.04</ele>
        <time>2011-10-08T08:59:09Z</time>
      </trkpt>
      <trkpt lat="45.25018" lon="4.17212">
        <ele>749</ele>
        <time>2011-10-08T08:59:54Z</time>
      </trkpt>
      <trkpt lat="45.25019" lon="4.17211">
        <ele>749</ele>
        <time>2011-10-08T08:59:55Z</time>
      </trkpt>
      <trkpt lat="45.2502" lon="4.17209">
        <ele>749</ele>
        <time>2011-10-08T08:59:56Z</time>
      </trkpt>
      <trkpt lat="45.25022" lon="4.17203">
        <ele>748.04</ele>
        <time>2011-10-08T09:00:03Z</time>
      </trkpt>
      <trkpt lat="45.25024" lon="4.17201">
        <ele>747.56</ele>
        <time>2011-10-08T09:00:04Z</time>
      </trkpt>
      <trkpt lat="45.25025" lon="4.17199">
        <ele>747.08</ele>
        <time>2011-10-08T09:00:05Z</time>
      </trkpt>
      <trkpt lat="45.25027" lon="4.17197">
        <ele>746.6</ele>
        <time>2011-10-08T09:00:06Z</time>
      </trkpt>
      <trkpt lat="45.2503" lon="4.17195">
        <ele>746.6</ele>
        <time>2011-10-08T09:00:07Z</time>
      </trkpt>
      <trkpt lat="45.25033" lon="4.17192">
        <ele>746.6</ele>
        <time>2011-10-08T09:00:08Z</time>
      </trkpt>
      <trkpt lat="45.25037" lon="4.1719">
        <ele>746.6</ele>
        <time>2011-10-08T09:00:09Z</time>
      </trkpt>
      <trkpt lat="45.25048" lon="4.17183">
        <ele>747.08</ele>
        <time>2011-10-08T09:00:12Z</time>
      </trkpt>
      <trkpt lat="45.25103" lon="4.17148">
        <ele>744.68</ele>
        <time>2011-10-08T09:00:24Z</time>
      </trkpt>
      <trkpt lat="45.25106" lon="4.17144">
        <ele>744.2</ele>
        <time>2011-10-08T09:00:25Z</time>
      </trkpt>
      <trkpt lat="45.25107" lon="4.17137">
        <ele>743.72</ele>
        <time>2011-10-08T09:00:26Z</time>
      </trkpt>
      <trkpt lat="45.25107" lon="4.17131">
        <ele>743.24</ele>
        <time>2011-10-08T09:00:27Z</time>
      </trkpt>
      <trkpt lat="45.25106" lon="4.17125">
        <ele>743.24</ele>
        <time>2011-10-08T09:00:28Z</time>
      </trkpt>
      <trkpt lat="45.25105" lon="4.17118">
        <ele>743.24</ele>
        <time>2011-10-08T09:00:29Z</time>
      </trkpt>
      <trkpt lat="45.25103" lon="4.17112">
        <ele>743.24</ele>
        <time>2011-10-08T09:00:30Z</time>
      </trkpt>
      <trkpt lat="45.25098" lon="4.17094">
        <ele>743.24</ele>
        <time>2011-10-08T09:00:33Z</time>
      </trkpt>
      <trkpt lat="45.25093" lon="4.17073">
        <ele>742.76</ele>
        <time>2011-10-08T09:00:36Z</time>
      </trkpt>
      <trkpt lat="45.25092" lon="4.17066">
        <ele>742.76</ele>
        <time>2011-10-08T09:00:37Z</time>
      </trkpt>
      <trkpt lat="45.25088" lon="4.17045">
        <ele>743.24</ele>
        <time>2011-10-08T09:00:40Z</time>
      </trkpt>
      <trkpt lat="45.25088" lon="4.17038">
        <ele>743.24</ele>
        <time>2011-10-08T09:00:41Z</time>
      </trkpt>
      <trkpt lat="45.25088" lon="4.17031">
        <ele>743.24</ele>
        <time>2011-10-08T09:00:42Z</time>
      </trkpt>
      <trkpt lat="45.25088" lon="4.16997">
        <ele>743.72</ele>
        <time>2011-10-08T09:00:47Z</time>
      </trkpt>
      <trkpt lat="45.25088" lon="4.16991">
        <ele>743.72</ele>
        <time>2011-10-08T09:00:48Z</time>
      </trkpt>
      <trkpt lat="45.25087" lon="4.16985">
        <ele>744.2</ele>
        <time>2011-10-08T09:00:49Z</time>
      </trkpt>
      <trkpt lat="45.25086" lon="4.16972">
        <ele>744.2</ele>
        <time>2011-10-08T09:00:51Z</time>
      </trkpt>
      <trkpt lat="45.25086" lon="4.16966">
        <ele>744.2</ele>
        <time>2011-10-08T09:00:52Z</time>
      </trkpt>
      <trkpt lat="45.25085" lon="4.1696">
        <ele>744.2</ele>
        <time>2011-10-08T09:00:53Z</time>
      </trkpt>
      <trkpt lat="45.25085" lon="4.16954">
        <ele>744.68</ele>
        <time>2011-10-08T09:00:54Z</time>
      </trkpt>
      <trkpt lat="45.25085" lon="4.16948">
        <ele>744.68</ele>
        <time>2011-10-08T09:00:55Z</time>
      </trkpt>
      <trkpt lat="45.25078" lon="4.16893">
        <ele>745.64</ele>
        <time>2011-10-08T09:01:04Z</time>
      </trkpt>
      <trkpt lat="45.25074" lon="4.16857">
        <ele>746.12</ele>
        <time>2011-10-08T09:01:14Z</time>
      </trkpt>
      <trkpt lat="45.25074" lon="4.16848">
        <ele>746.6</ele>
        <time>2011-10-08T09:01:17Z</time>
      </trkpt>
      <trkpt lat="45.25088" lon="4.16805">
        <ele>746.6</ele>
        <time>2011-10-08T09:01:30Z</time>
      </trkpt>
      <trkpt lat="45.251" lon="4.16764">
        <ele>749</ele>
        <time>2011-10-08T09:01:44Z</time>
      </trkpt>
      <trkpt lat="45.25113" lon="4.16732">
        <ele>751.89</ele>
        <time>2011-10-08T09:01:57Z</time>
      </trkpt>
      <trkpt lat="45.25127" lon="4.167">
        <ele>753.33</ele>
        <time>2011-10-08T09:02:10Z</time>
      </trkpt>
      <trkpt lat="45.25141" lon="4.1667">
        <ele>754.77</ele>
        <time>2011-10-08T09:02:22Z</time>
      </trkpt>
      <trkpt lat="45.25161" lon="4.16632">
        <ele>756.21</ele>
        <time>2011-10-08T09:02:35Z</time>
      </trkpt>
      <trkpt lat="45.25181" lon="4.16591">
        <ele>758.62</ele>
        <time>2011-10-08T09:02:49Z</time>
      </trkpt>
      <trkpt lat="45.25182" lon="4.16587">
        <ele>758.14</ele>
        <time>2011-10-08T09:02:51Z</time>
      </trkpt>
      <trkpt lat="45.25184" lon="4.16585">
        <ele>758.14</ele>
        <time>2011-10-08T09:02:52Z</time>
      </trkpt>
      <trkpt lat="45.25185" lon="4.16582">
        <ele>757.66</ele>
        <time>2011-10-08T09:02:53Z</time>
      </trkpt>
      <trkpt lat="45.25186" lon="4.1658">
        <ele>757.66</ele>
        <time>2011-10-08T09:02:54Z</time>
      </trkpt>
      <trkpt lat="45.25187" lon="4.16577">
        <ele>757.18</ele>
        <time>2011-10-08T09:02:55Z</time>
      </trkpt>
      <trkpt lat="45.2519" lon="4.16565">
        <ele>753.81</ele>
        <time>2011-10-08T09:03:01Z</time>
      </trkpt>
      <trkpt lat="45.2519" lon="4.16563">
        <ele>753.81</ele>
        <time>2011-10-08T09:03:02Z</time>
      </trkpt>
      <trkpt lat="45.25191" lon="4.16557">
        <ele>752.85</ele>
        <time>2011-10-08T09:03:04Z</time>
      </trkpt>
      <trkpt lat="45.25191" lon="4.16555">
        <ele>752.37</ele>
        <time>2011-10-08T09:03:05Z</time>
      </trkpt>
      <trkpt lat="45.25192" lon="4.1655">
        <ele>751.89</ele>
        <time>2011-10-08T09:03:07Z</time>
      </trkpt>
      <trkpt lat="45.25192" lon="4.16543">
        <ele>751.89</ele>
        <time>2011-10-08T09:03:10Z</time>
      </trkpt>
      <trkpt lat="45.25193" lon="4.1654">
        <ele>751.41</ele>
        <time>2011-10-08T09:03:11Z</time>
      </trkpt>
      <trkpt lat="45.25195" lon="4.16538">
        <ele>751.41</ele>
        <time>2011-10-08T09:03:12Z</time>
      </trkpt>
      <trkpt lat="45.25195" lon="4.16535">
        <ele>751.41</ele>
        <time>2011-10-08T09:03:13Z</time>
      </trkpt>
      <trkpt lat="45.25196" lon="4.16533">
        <ele>751.41</ele>
        <time>2011-10-08T09:03:14Z</time>
      </trkpt>
      <trkpt lat="45.25197" lon="4.16531">
        <ele>750.93</ele>
        <time>2011-10-08T09:03:15Z</time>
      </trkpt>
      <trkpt lat="45.25197" lon="4.16528">
        <ele>750.45</ele>
        <time>2011-10-08T09:03:16Z</time>
      </trkpt>
      <trkpt lat="45.252" lon="4.16517">
        <ele>750.45</ele>
        <time>2011-10-08T09:03:20Z</time>
      </trkpt>
      <trkpt lat="45.25199" lon="4.16507">
        <ele>750.93</ele>
        <time>2011-10-08T09:03:23Z</time>
      </trkpt>
      <trkpt lat="45.25201" lon="4.16502">
        <ele>751.41</ele>
        <time>2011-10-08T09:03:25Z</time>
      </trkpt>
      <trkpt lat="45.25204" lon="4.16495">
        <ele>752.37</ele>
        <time>2011-10-08T09:03:29Z</time>
      </trkpt>
      <trkpt lat="45.2521" lon="4.16479">
        <ele>753.81</ele>
        <time>2011-10-08T09:03:34Z</time>
      </trkpt>
      <trkpt lat="45.25223" lon="4.16448">
        <ele>754.77</ele>
        <time>2011-10-08T09:03:45Z</time>
      </trkpt>
      <trkpt lat="45.25236" lon="4.1641">
        <ele>758.62</ele>
        <time>2011-10-08T09:03:56Z</time>
      </trkpt>
      <trkpt lat="45.25242" lon="4.16378">
        <ele>759.58</ele>
        <time>2011-10-08T09:04:07Z</time>
      </trkpt>
      <trkpt lat="45.25248" lon="4.1636">
        <ele>760.54</ele>
        <time>2011-10-08T09:04:12Z</time>
      </trkpt>
      <trkpt lat="45.2526" lon="4.16338">
        <ele>761.02</ele>
        <time>2011-10-08T09:04:17Z</time>
      </trkpt>
      <trkpt lat="45.25268" lon="4.16329">
        <ele>760.54</ele>
        <time>2011-10-08T09:04:19Z</time>
      </trkpt>
      <trkpt lat="45.25279" lon="4.16313">
        <ele>759.58</ele>
        <time>2011-10-08T09:04:22Z</time>
      </trkpt>
      <trkpt lat="45.25288" lon="4.16296">
        <ele>759.1</ele>
        <time>2011-10-08T09:04:25Z</time>
      </trkpt>
      <trkpt lat="45.2531" lon="4.16256">
        <ele>760.54</ele>
        <time>2011-10-08T09:04:33Z</time>
      </trkpt>
      <trkpt lat="45.25316" lon="4.16245">
        <ele>760.54</ele>
        <time>2011-10-08T09:04:35Z</time>
      </trkpt>
      <trkpt lat="45.2534" lon="4.16196">
        <ele>760.54</ele>
        <time>2011-10-08T09:04:43Z</time>
      </trkpt>
      <trkpt lat="45.25343" lon="4.16189">
        <ele>760.54</ele>
        <time>2011-10-08T09:04:44Z</time>
      </trkpt>
      <trkpt lat="45.25347" lon="4.16182">
        <ele>760.06</ele>
        <time>2011-10-08T09:04:45Z</time>
      </trkpt>
      <trkpt lat="45.2535" lon="4.16177">
        <ele>760.06</ele>
        <time>2011-10-08T09:04:46Z</time>
      </trkpt>
      <trkpt lat="45.25353" lon="4.16171">
        <ele>760.06</ele>
        <time>2011-10-08T09:04:47Z</time>
      </trkpt>
      <trkpt lat="45.25361" lon="4.16156">
        <ele>760.06</ele>
        <time>2011-10-08T09:04:50Z</time>
      </trkpt>
      <trkpt lat="45.25364" lon="4.16151">
        <ele>759.58</ele>
        <time>2011-10-08T09:04:51Z</time>
      </trkpt>
      <trkpt lat="45.25387" lon="4.16114">
        <ele>760.54</ele>
        <time>2011-10-08T09:05:00Z</time>
      </trkpt>
      <trkpt lat="45.25394" lon="4.16107">
        <ele>760.06</ele>
        <time>2011-10-08T09:05:02Z</time>
      </trkpt>
      <trkpt lat="45.25414" lon="4.1609">
        <ele>757.66</ele>
        <time>2011-10-08T09:05:07Z</time>
      </trkpt>
      <trkpt lat="45.25431" lon="4.16081">
        <ele>751.89</ele>
        <time>2011-10-08T09:05:16Z</time>
      </trkpt>
      <trkpt lat="45.25432" lon="4.16081">
        <ele>750.93</ele>
        <time>2011-10-08T09:05:17Z</time>
      </trkpt>
      <trkpt lat="45.25441" lon="4.16076">
        <ele>747.56</ele>
        <time>2011-10-08T09:05:21Z</time>
      </trkpt>
      <trkpt lat="45.25474" lon="4.16026">
        <ele>739.39</ele>
        <time>2011-10-08T09:05:33Z</time>
      </trkpt>
      <trkpt lat="45.25478" lon="4.16021">
        <ele>738.43</ele>
        <time>2011-10-08T09:05:34Z</time>
      </trkpt>
      <trkpt lat="45.25481" lon="4.16015">
        <ele>737.47</ele>
        <time>2011-10-08T09:05:35Z</time>
      </trkpt>
      <trkpt lat="45.25485" lon="4.1601">
        <ele>736.99</ele>
        <time>2011-10-08T09:05:36Z</time>
      </trkpt>
      <trkpt lat="45.25489" lon="4.16006">
        <ele>736.03</ele>
        <time>2011-10-08T09:05:37Z</time>
      </trkpt>
      <trkpt lat="45.25493" lon="4.16004">
        <ele>735.55</ele>
        <time>2011-10-08T09:05:38Z</time>
      </trkpt>
      <trkpt lat="45.25509" lon="4.15995">
        <ele>736.99</ele>
        <time>2011-10-08T09:05:45Z</time>
      </trkpt>
      <trkpt lat="45.25511" lon="4.15996">
        <ele>736.99</ele>
        <time>2011-10-08T09:05:46Z</time>
      </trkpt>
      <trkpt lat="45.25512" lon="4.15997">
        <ele>736.99</ele>
        <time>2011-10-08T09:05:47Z</time>
      </trkpt>
      <trkpt lat="45.25514" lon="4.15998">
        <ele>736.51</ele>
        <time>2011-10-08T09:05:48Z</time>
      </trkpt>
      <trkpt lat="45.25516" lon="4.16">
        <ele>736.03</ele>
        <time>2011-10-08T09:05:49Z</time>
      </trkpt>
      <trkpt lat="45.25518" lon="4.16004">
        <ele>735.07</ele>
        <time>2011-10-08T09:05:51Z</time>
      </trkpt>
      <trkpt lat="45.25521" lon="4.16005">
        <ele>734.58</ele>
        <time>2011-10-08T09:05:54Z</time>
      </trkpt>
      <trkpt lat="45.25522" lon="4.16007">
        <ele>734.1</ele>
        <time>2011-10-08T09:05:55Z</time>
      </trkpt>
      <trkpt lat="45.25525" lon="4.16008">
        <ele>733.62</ele>
        <time>2011-10-08T09:05:56Z</time>
      </trkpt>
      <trkpt lat="45.25538" lon="4.16019">
        <ele>731.22</ele>
        <time>2011-10-08T09:06:02Z</time>
      </trkpt>
      <trkpt lat="45.2554" lon="4.16021">
        <ele>730.74</ele>
        <time>2011-10-08T09:06:03Z</time>
      </trkpt>
      <trkpt lat="45.25542" lon="4.16024">
        <ele>730.26</ele>
        <time>2011-10-08T09:06:04Z</time>
      </trkpt>
      <trkpt lat="45.25546" lon="4.16027">
        <ele>729.78</ele>
        <time>2011-10-08T09:06:05Z</time>
      </trkpt>
      <trkpt lat="45.2556" lon="4.16043">
        <ele>728.34</ele>
        <time>2011-10-08T09:06:11Z</time>
      </trkpt>
      <trkpt lat="45.25584" lon="4.16027">
        <ele>727.86</ele>
        <time>2011-10-08T09:06:19Z</time>
      </trkpt>
      <trkpt lat="45.25587" lon="4.16023">
        <ele>728.34</ele>
        <time>2011-10-08T09:06:20Z</time>
      </trkpt>
      <trkpt lat="45.25596" lon="4.16012">
        <ele>728.34</ele>
        <time>2011-10-08T09:06:23Z</time>
      </trkpt>
      <trkpt lat="45.25615" lon="4.15988">
        <ele>728.82</ele>
        <time>2011-10-08T09:06:28Z</time>
      </trkpt>
      <trkpt lat="45.2564" lon="4.15953">
        <ele>725.93</ele>
        <time>2011-10-08T09:06:36Z</time>
      </trkpt>
      <trkpt lat="45.25642" lon="4.15948">
        <ele>725.45</ele>
        <time>2011-10-08T09:06:38Z</time>
      </trkpt>
      <trkpt lat="45.25646" lon="4.15926">
        <ele>723.53</ele>
        <time>2011-10-08T09:06:46Z</time>
      </trkpt>
      <trkpt lat="45.25647" lon="4.15919">
        <ele>723.05</ele>
        <time>2011-10-08T09:06:48Z</time>
      </trkpt>
      <trkpt lat="45.25666" lon="4.15883">
        <ele>721.13</ele>
        <time>2011-10-08T09:06:57Z</time>
      </trkpt>
      <trkpt lat="45.25693" lon="4.15862">
        <ele>719.68</ele>
        <time>2011-10-08T09:07:03Z</time>
      </trkpt>
      <trkpt lat="45.25713" lon="4.15845">
        <ele>717.76</ele>
        <time>2011-10-08T09:07:07Z</time>
      </trkpt>
      <trkpt lat="45.25747" lon="4.15815">
        <ele>713.92</ele>
        <time>2011-10-08T09:07:13Z</time>
      </trkpt>
      <trkpt lat="45.25781" lon="4.15787">
        <ele>705.75</ele>
        <time>2011-10-08T09:07:22Z</time>
      </trkpt>
      <trkpt lat="45.25788" lon="4.15787">
        <ele>703.82</ele>
        <time>2011-10-08T09:07:24Z</time>
      </trkpt>
      <trkpt lat="45.25795" lon="4.15787">
        <ele>701.9</ele>
        <time>2011-10-08T09:07:26Z</time>
      </trkpt>
      <trkpt lat="45.25809" lon="4.15798">
        <ele>699.98</ele>
        <time>2011-10-08T09:07:31Z</time>
      </trkpt>
      <trkpt lat="45.2583" lon="4.15813">
        <ele>699.5</ele>
        <time>2011-10-08T09:07:36Z</time>
      </trkpt>
      <trkpt lat="45.25863" lon="4.15837">
        <ele>698.05</ele>
        <time>2011-10-08T09:07:42Z</time>
      </trkpt>
      <trkpt lat="45.2588" lon="4.15851">
        <ele>697.09</ele>
        <time>2011-10-08T09:07:45Z</time>
      </trkpt>
      <trkpt lat="45.25905" lon="4.15867">
        <ele>696.13</ele>
        <time>2011-10-08T09:07:49Z</time>
      </trkpt>
      <trkpt lat="45.25926" lon="4.1587">
        <ele>694.69</ele>
        <time>2011-10-08T09:07:52Z</time>
      </trkpt>
      <trkpt lat="45.25946" lon="4.15865">
        <ele>693.25</ele>
        <time>2011-10-08T09:07:56Z</time>
      </trkpt>
      <trkpt lat="45.25948" lon="4.15864">
        <ele>692.29</ele>
        <time>2011-10-08T09:07:57Z</time>
      </trkpt>
      <trkpt lat="45.25948" lon="4.15862">
        <ele>691.33</ele>
        <time>2011-10-08T09:07:58Z</time>
      </trkpt>
      <trkpt lat="45.25948" lon="4.1586">
        <ele>689.88</ele>
        <time>2011-10-08T09:07:59Z</time>
      </trkpt>
      <trkpt lat="45.25947" lon="4.15858">
        <ele>688.92</ele>
        <time>2011-10-08T09:08:00Z</time>
      </trkpt>
      <trkpt lat="45.25943" lon="4.15847">
        <ele>684.12</ele>
        <time>2011-10-08T09:08:04Z</time>
      </trkpt>
      <trkpt lat="45.25942" lon="4.15843">
        <ele>682.67</ele>
        <time>2011-10-08T09:08:05Z</time>
      </trkpt>
      <trkpt lat="45.25941" lon="4.1584">
        <ele>681.71</ele>
        <time>2011-10-08T09:08:06Z</time>
      </trkpt>
      <trkpt lat="45.25938" lon="4.15826">
        <ele>677.39</ele>
        <time>2011-10-08T09:08:10Z</time>
      </trkpt>
      <trkpt lat="45.25938" lon="4.15822">
        <ele>676.42</ele>
        <time>2011-10-08T09:08:11Z</time>
      </trkpt>
      <trkpt lat="45.25938" lon="4.15818">
        <ele>675.46</ele>
        <time>2011-10-08T09:08:12Z</time>
      </trkpt>
      <trkpt lat="45.25938" lon="4.15813">
        <ele>674.5</ele>
        <time>2011-10-08T09:08:13Z</time>
      </trkpt>
      <trkpt lat="45.25938" lon="4.15808">
        <ele>674.02</ele>
        <time>2011-10-08T09:08:14Z</time>
      </trkpt>
      <trkpt lat="45.25938" lon="4.15802">
        <ele>673.06</ele>
        <time>2011-10-08T09:08:15Z</time>
      </trkpt>
      <trkpt lat="45.25938" lon="4.15797">
        <ele>672.1</ele>
        <time>2011-10-08T09:08:16Z</time>
      </trkpt>
      <trkpt lat="45.25939" lon="4.15792">
        <ele>671.62</ele>
        <time>2011-10-08T09:08:17Z</time>
      </trkpt>
      <trkpt lat="45.25941" lon="4.15788">
        <ele>671.14</ele>
        <time>2011-10-08T09:08:18Z</time>
      </trkpt>
      <trkpt lat="45.25941" lon="4.15783">
        <ele>670.18</ele>
        <time>2011-10-08T09:08:19Z</time>
      </trkpt>
      <trkpt lat="45.25942" lon="4.15764">
        <ele>667.29</ele>
        <time>2011-10-08T09:08:22Z</time>
      </trkpt>
      <trkpt lat="45.25942" lon="4.15742">
        <ele>664.89</ele>
        <time>2011-10-08T09:08:25Z</time>
      </trkpt>
      <trkpt lat="45.25943" lon="4.15734">
        <ele>663.93</ele>
        <time>2011-10-08T09:08:26Z</time>
      </trkpt>
      <trkpt lat="45.25945" lon="4.15728">
        <ele>662.97</ele>
        <time>2011-10-08T09:08:27Z</time>
      </trkpt>
      <trkpt lat="45.25948" lon="4.15723">
        <ele>662.49</ele>
        <time>2011-10-08T09:08:28Z</time>
      </trkpt>
      <trkpt lat="45.25952" lon="4.1572">
        <ele>662.01</ele>
        <time>2011-10-08T09:08:29Z</time>
      </trkpt>
      <trkpt lat="45.25962" lon="4.15707">
        <ele>661.04</ele>
        <time>2011-10-08T09:08:32Z</time>
      </trkpt>
      <trkpt lat="45.25965" lon="4.15703">
        <ele>660.08</ele>
        <time>2011-10-08T09:08:33Z</time>
      </trkpt>
      <trkpt lat="45.25967" lon="4.15698">
        <ele>659.12</ele>
        <time>2011-10-08T09:08:34Z</time>
      </trkpt>
      <trkpt lat="45.25968" lon="4.15693">
        <ele>658.16</ele>
        <time>2011-10-08T09:08:35Z</time>
      </trkpt>
      <trkpt lat="45.25968" lon="4.15688">
        <ele>656.72</ele>
        <time>2011-10-08T09:08:36Z</time>
      </trkpt>
      <trkpt lat="45.2597" lon="4.15682">
        <ele>656.24</ele>
        <time>2011-10-08T09:08:37Z</time>
      </trkpt>
      <trkpt lat="45.25972" lon="4.15678">
        <ele>654.8</ele>
        <time>2011-10-08T09:08:38Z</time>
      </trkpt>
      <trkpt lat="45.25975" lon="4.15671">
        <ele>652.87</ele>
        <time>2011-10-08T09:08:40Z</time>
      </trkpt>
      <trkpt lat="45.25976" lon="4.15667">
        <ele>652.87</ele>
        <time>2011-10-08T09:08:41Z</time>
      </trkpt>
      <trkpt lat="45.25977" lon="4.15665">
        <ele>652.87</ele>
        <time>2011-10-08T09:08:42Z</time>
      </trkpt>
      <trkpt lat="45.25981" lon="4.15647">
        <ele>660.08</ele>
        <time>2011-10-08T09:08:51Z</time>
      </trkpt>
      <trkpt lat="45.25982" lon="4.15644">
        <ele>660.56</ele>
        <time>2011-10-08T09:08:52Z</time>
      </trkpt>
      <trkpt lat="45.25984" lon="4.15641">
        <ele>661.04</ele>
        <time>2011-10-08T09:08:53Z</time>
      </trkpt>
      <trkpt lat="45.26001" lon="4.15614">
        <ele>660.08</ele>
        <time>2011-10-08T09:09:00Z</time>
      </trkpt>
      <trkpt lat="45.26003" lon="4.15609">
        <ele>659.6</ele>
        <time>2011-10-08T09:09:01Z</time>
      </trkpt>
      <trkpt lat="45.26006" lon="4.15605">
        <ele>659.12</ele>
        <time>2011-10-08T09:09:02Z</time>
      </trkpt>
      <trkpt lat="45.26038" lon="4.15556">
        <ele>652.39</ele>
        <time>2011-10-08T09:09:13Z</time>
      </trkpt>
      <trkpt lat="45.26044" lon="4.15537">
        <ele>651.91</ele>
        <time>2011-10-08T09:09:17Z</time>
      </trkpt>
      <trkpt lat="45.26044" lon="4.15533">
        <ele>651.91</ele>
        <time>2011-10-08T09:09:18Z</time>
      </trkpt>
      <trkpt lat="45.26043" lon="4.15528">
        <ele>650.95</ele>
        <time>2011-10-08T09:09:19Z</time>
      </trkpt>
      <trkpt lat="45.26043" lon="4.15523">
        <ele>650.95</ele>
        <time>2011-10-08T09:09:20Z</time>
      </trkpt>
      <trkpt lat="45.26043" lon="4.15519">
        <ele>650.95</ele>
        <time>2011-10-08T09:09:21Z</time>
      </trkpt>
      <trkpt lat="45.26045" lon="4.15516">
        <ele>650.95</ele>
        <time>2011-10-08T09:09:22Z</time>
      </trkpt>
      <trkpt lat="45.26046" lon="4.15513">
        <ele>650.47</ele>
        <time>2011-10-08T09:09:23Z</time>
      </trkpt>
      <trkpt lat="45.26047" lon="4.15511">
        <ele>650.95</ele>
        <time>2011-10-08T09:09:24Z</time>
      </trkpt>
      <trkpt lat="45.26048" lon="4.15509">
        <ele>650.47</ele>
        <time>2011-10-08T09:09:25Z</time>
      </trkpt>
      <trkpt lat="45.2605" lon="4.15504">
        <ele>649.51</ele>
        <time>2011-10-08T09:09:27Z</time>
      </trkpt>
      <trkpt lat="45.26053" lon="4.15469">
        <ele>646.62</ele>
        <time>2011-10-08T09:09:35Z</time>
      </trkpt>
      <trkpt lat="45.26053" lon="4.15463">
        <ele>646.14</ele>
        <time>2011-10-08T09:09:36Z</time>
      </trkpt>
      <trkpt lat="45.26053" lon="4.15457">
        <ele>645.66</ele>
        <time>2011-10-08T09:09:37Z</time>
      </trkpt>
      <trkpt lat="45.26052" lon="4.15445">
        <ele>644.7</ele>
        <time>2011-10-08T09:09:39Z</time>
      </trkpt>
      <trkpt lat="45.26041" lon="4.15401">
        <ele>641.34</ele>
        <time>2011-10-08T09:09:46Z</time>
      </trkpt>
      <trkpt lat="45.26039" lon="4.15394">
        <ele>640.86</ele>
        <time>2011-10-08T09:09:47Z</time>
      </trkpt>
      <trkpt lat="45.2603" lon="4.15354">
        <ele>637.97</ele>
        <time>2011-10-08T09:09:55Z</time>
      </trkpt>
      <trkpt lat="45.26025" lon="4.15338">
        <ele>636.53</ele>
        <time>2011-10-08T09:09:59Z</time>
      </trkpt>
      <trkpt lat="45.26025" lon="4.15335">
        <ele>636.53</ele>
        <time>2011-10-08T09:10:00Z</time>
      </trkpt>
      <trkpt lat="45.2603" lon="4.15335">
        <ele>635.57</ele>
        <time>2011-10-08T09:10:04Z</time>
      </trkpt>
      <trkpt lat="45.26051" lon="4.15354">
        <ele>642.78</ele>
        <time>2011-10-08T09:10:14Z</time>
      </trkpt>
      <trkpt lat="45.26055" lon="4.15358">
        <ele>642.78</ele>
        <time>2011-10-08T09:10:15Z</time>
      </trkpt>
      <trkpt lat="45.26058" lon="4.15361">
        <ele>643.26</ele>
        <time>2011-10-08T09:10:16Z</time>
      </trkpt>
      <trkpt lat="45.26061" lon="4.15364">
        <ele>643.26</ele>
        <time>2011-10-08T09:10:17Z</time>
      </trkpt>
      <trkpt lat="45.26064" lon="4.15368">
        <ele>643.74</ele>
        <time>2011-10-08T09:10:18Z</time>
      </trkpt>
      <trkpt lat="45.26067" lon="4.15372">
        <ele>643.26</ele>
        <time>2011-10-08T09:10:19Z</time>
      </trkpt>
      <trkpt lat="45.2607" lon="4.15376">
        <ele>642.78</ele>
        <time>2011-10-08T09:10:20Z</time>
      </trkpt>
      <trkpt lat="45.2608" lon="4.1539">
        <ele>641.82</ele>
        <time>2011-10-08T09:10:23Z</time>
      </trkpt>
      <trkpt lat="45.261" lon="4.15437">
        <ele>637.01</ele>
        <time>2011-10-08T09:10:32Z</time>
      </trkpt>
      <trkpt lat="45.26101" lon="4.15443">
        <ele>636.05</ele>
        <time>2011-10-08T09:10:33Z</time>
      </trkpt>
      <trkpt lat="45.26118" lon="4.15499">
        <ele>636.05</ele>
        <time>2011-10-08T09:10:43Z</time>
      </trkpt>
      <trkpt lat="45.26118" lon="4.15505">
        <ele>636.05</ele>
        <time>2011-10-08T09:10:44Z</time>
      </trkpt>
      <trkpt lat="45.26117" lon="4.1551">
        <ele>635.57</ele>
        <time>2011-10-08T09:10:45Z</time>
      </trkpt>
      <trkpt lat="45.26114" lon="4.1552">
        <ele>635.09</ele>
        <time>2011-10-08T09:10:47Z</time>
      </trkpt>
      <trkpt lat="45.26112" lon="4.15523">
        <ele>634.61</ele>
        <time>2011-10-08T09:10:48Z</time>
      </trkpt>
      <trkpt lat="45.26111" lon="4.15527">
        <ele>634.61</ele>
        <time>2011-10-08T09:10:49Z</time>
      </trkpt>
      <trkpt lat="45.26109" lon="4.1553">
        <ele>634.61</ele>
        <time>2011-10-08T09:10:50Z</time>
      </trkpt>
      <trkpt lat="45.26109" lon="4.15535">
        <ele>634.61</ele>
        <time>2011-10-08T09:10:51Z</time>
      </trkpt>
      <trkpt lat="45.26109" lon="4.15539">
        <ele>634.61</ele>
        <time>2011-10-08T09:10:52Z</time>
      </trkpt>
      <trkpt lat="45.26109" lon="4.15543">
        <ele>634.61</ele>
        <time>2011-10-08T09:10:53Z</time>
      </trkpt>
      <trkpt lat="45.26108" lon="4.15547">
        <ele>634.61</ele>
        <time>2011-10-08T09:10:54Z</time>
      </trkpt>
      <trkpt lat="45.26107" lon="4.15551">
        <ele>634.61</ele>
        <time>2011-10-08T09:10:55Z</time>
      </trkpt>
      <trkpt lat="45.26089" lon="4.15588">
        <ele>633.17</ele>
        <time>2011-10-08T09:11:04Z</time>
      </trkpt>
      <trkpt lat="45.26087" lon="4.15591">
        <ele>632.68</ele>
        <time>2011-10-08T09:11:05Z</time>
      </trkpt>
      <trkpt lat="45.26095" lon="4.15596">
        <ele>631.72</ele>
        <time>2011-10-08T09:11:08Z</time>
      </trkpt>
      <trkpt lat="45.26118" lon="4.156">
        <ele>630.28</ele>
        <time>2011-10-08T09:11:12Z</time>
      </trkpt>
      <trkpt lat="45.26138" lon="4.15602">
        <ele>627.88</ele>
        <time>2011-10-08T09:11:15Z</time>
      </trkpt>
      <trkpt lat="45.26156" lon="4.15608">
        <ele>626.44</ele>
        <time>2011-10-08T09:11:18Z</time>
      </trkpt>
      <trkpt lat="45.26162" lon="4.1561">
        <ele>625.96</ele>
        <time>2011-10-08T09:11:19Z</time>
      </trkpt>
      <trkpt lat="45.26166" lon="4.15611">
        <ele>625.47</ele>
        <time>2011-10-08T09:11:20Z</time>
      </trkpt>
      <trkpt lat="45.26171" lon="4.15612">
        <ele>625.47</ele>
        <time>2011-10-08T09:11:21Z</time>
      </trkpt>
      <trkpt lat="45.26175" lon="4.15614">
        <ele>625.47</ele>
        <time>2011-10-08T09:11:22Z</time>
      </trkpt>
      <trkpt lat="45.2618" lon="4.15615">
        <ele>624.99</ele>
        <time>2011-10-08T09:11:23Z</time>
      </trkpt>
      <trkpt lat="45.26184" lon="4.15617">
        <ele>624.51</ele>
        <time>2011-10-08T09:11:24Z</time>
      </trkpt>
      <trkpt lat="45.26214" lon="4.15635">
        <ele>624.51</ele>
        <time>2011-10-08T09:11:32Z</time>
      </trkpt>
      <trkpt lat="45.26241" lon="4.15655">
        <ele>623.55</ele>
        <time>2011-10-08T09:11:40Z</time>
      </trkpt>
      <trkpt lat="45.26259" lon="4.1568">
        <ele>622.59</ele>
        <time>2011-10-08T09:11:48Z</time>
      </trkpt>
      <trkpt lat="45.26259" lon="4.15683">
        <ele>622.59</ele>
        <time>2011-10-08T09:11:49Z</time>
      </trkpt>
      <trkpt lat="45.26261" lon="4.15684">
        <ele>622.11</ele>
        <time>2011-10-08T09:11:51Z</time>
      </trkpt>
      <trkpt lat="45.26263" lon="4.15683">
        <ele>622.11</ele>
        <time>2011-10-08T09:11:52Z</time>
      </trkpt>
      <trkpt lat="45.26265" lon="4.15681">
        <ele>621.63</ele>
        <time>2011-10-08T09:11:53Z</time>
      </trkpt>
      <trkpt lat="45.26266" lon="4.15679">
        <ele>621.15</ele>
        <time>2011-10-08T09:11:54Z</time>
      </trkpt>
      <trkpt lat="45.26265" lon="4.15647">
        <ele>614.42</ele>
        <time>2011-10-08T09:12:03Z</time>
      </trkpt>
      <trkpt lat="45.26264" lon="4.15641">
        <ele>613.46</ele>
        <time>2011-10-08T09:12:04Z</time>
      </trkpt>
      <trkpt lat="45.26264" lon="4.15636">
        <ele>612.5</ele>
        <time>2011-10-08T09:12:05Z</time>
      </trkpt>
      <trkpt lat="45.26265" lon="4.15631">
        <ele>611.54</ele>
        <time>2011-10-08T09:12:06Z</time>
      </trkpt>
      <trkpt lat="45.26268" lon="4.15627">
        <ele>611.54</ele>
        <time>2011-10-08T09:12:07Z</time>
      </trkpt>
      <trkpt lat="45.26272" lon="4.15627">
        <ele>611.06</ele>
        <time>2011-10-08T09:12:08Z</time>
      </trkpt>
      <trkpt lat="45.26275" lon="4.15628">
        <ele>611.54</ele>
        <time>2011-10-08T09:12:09Z</time>
      </trkpt>
      <trkpt lat="45.26278" lon="4.15631">
        <ele>611.06</ele>
        <time>2011-10-08T09:12:10Z</time>
      </trkpt>
      <trkpt lat="45.26281" lon="4.15634">
        <ele>611.06</ele>
        <time>2011-10-08T09:12:11Z</time>
      </trkpt>
      <trkpt lat="45.26291" lon="4.15637">
        <ele>610.57</ele>
        <time>2011-10-08T09:12:13Z</time>
      </trkpt>
      <trkpt lat="45.26297" lon="4.15642">
        <ele>610.57</ele>
        <time>2011-10-08T09:12:15Z</time>
      </trkpt>
      <trkpt lat="45.26301" lon="4.15643">
        <ele>609.61</ele>
        <time>2011-10-08T09:12:17Z</time>
      </trkpt>
      <trkpt lat="45.26302" lon="4.15623">
        <ele>600</ele>
        <time>2011-10-08T09:12:26Z</time>
      </trkpt>
      <trkpt lat="45.26293" lon="4.15614">
        <ele>595.67</ele>
        <time>2011-10-08T09:12:29Z</time>
      </trkpt>
      <trkpt lat="45.2629" lon="4.15609">
        <ele>594.23</ele>
        <time>2011-10-08T09:12:30Z</time>
      </trkpt>
      <trkpt lat="45.26288" lon="4.15604">
        <ele>592.79</ele>
        <time>2011-10-08T09:12:31Z</time>
      </trkpt>
      <trkpt lat="45.26286" lon="4.156">
        <ele>591.35</ele>
        <time>2011-10-08T09:12:32Z</time>
      </trkpt>
      <trkpt lat="45.26284" lon="4.15598">
        <ele>589.91</ele>
        <time>2011-10-08T09:12:33Z</time>
      </trkpt>
      <trkpt lat="45.26281" lon="4.15596">
        <ele>588.46</ele>
        <time>2011-10-08T09:12:34Z</time>
      </trkpt>
      <trkpt lat="45.26261" lon="4.15571">
        <ele>576.45</ele>
        <time>2011-10-08T09:12:42Z</time>
      </trkpt>
      <trkpt lat="45.26258" lon="4.1557">
        <ele>575.01</ele>
        <time>2011-10-08T09:12:43Z</time>
      </trkpt>
      <trkpt lat="45.26255" lon="4.15568">
        <ele>574.04</ele>
        <time>2011-10-08T09:12:44Z</time>
      </trkpt>
      <trkpt lat="45.26227" lon="4.15553">
        <ele>565.39</ele>
        <time>2011-10-08T09:12:52Z</time>
      </trkpt>
      <trkpt lat="45.26223" lon="4.15551">
        <ele>563.95</ele>
        <time>2011-10-08T09:12:53Z</time>
      </trkpt>
      <trkpt lat="45.26222" lon="4.15548">
        <ele>562.51</ele>
        <time>2011-10-08T09:12:54Z</time>
      </trkpt>
      <trkpt lat="45.26223" lon="4.15543">
        <ele>561.55</ele>
        <time>2011-10-08T09:12:55Z</time>
      </trkpt>
      <trkpt lat="45.26224" lon="4.1554">
        <ele>560.59</ele>
        <time>2011-10-08T09:12:56Z</time>
      </trkpt>
      <trkpt lat="45.26226" lon="4.15537">
        <ele>560.11</ele>
        <time>2011-10-08T09:12:57Z</time>
      </trkpt>
      <trkpt lat="45.26227" lon="4.15535">
        <ele>559.14</ele>
        <time>2011-10-08T09:12:58Z</time>
      </trkpt>
      <trkpt lat="45.26228" lon="4.15532">
        <ele>559.14</ele>
        <time>2011-10-08T09:12:59Z</time>
      </trkpt>
      <trkpt lat="45.26229" lon="4.15528">
        <ele>558.66</ele>
        <time>2011-10-08T09:13:00Z</time>
      </trkpt>
      <trkpt lat="45.26229" lon="4.15524">
        <ele>557.7</ele>
        <time>2011-10-08T09:13:01Z</time>
      </trkpt>
      <trkpt lat="45.26231" lon="4.15515">
        <ele>556.74</ele>
        <time>2011-10-08T09:13:03Z</time>
      </trkpt>
      <trkpt lat="45.26232" lon="4.15509">
        <ele>555.3</ele>
        <time>2011-10-08T09:13:04Z</time>
      </trkpt>
      <trkpt lat="45.26233" lon="4.15504">
        <ele>553.86</ele>
        <time>2011-10-08T09:13:05Z</time>
      </trkpt>
      <trkpt lat="45.26234" lon="4.15499">
        <ele>552.9</ele>
        <time>2011-10-08T09:13:06Z</time>
      </trkpt>
      <trkpt lat="45.26235" lon="4.15495">
        <ele>551.93</ele>
        <time>2011-10-08T09:13:07Z</time>
      </trkpt>
      <trkpt lat="45.26236" lon="4.15489">
        <ele>550.01</ele>
        <time>2011-10-08T09:13:09Z</time>
      </trkpt>
      <trkpt lat="45.26237" lon="4.15486">
        <ele>549.05</ele>
        <time>2011-10-08T09:13:10Z</time>
      </trkpt>
      <trkpt lat="45.26238" lon="4.15481">
        <ele>548.09</ele>
        <time>2011-10-08T09:13:11Z</time>
      </trkpt>
      <trkpt lat="45.26238" lon="4.15477">
        <ele>546.65</ele>
        <time>2011-10-08T09:13:12Z</time>
      </trkpt>
      <trkpt lat="45.26239" lon="4.15473">
        <ele>545.69</ele>
        <time>2011-10-08T09:13:13Z</time>
      </trkpt>
      <trkpt lat="45.26242" lon="4.1547">
        <ele>544.24</ele>
        <time>2011-10-08T09:13:14Z</time>
      </trkpt>
      <trkpt lat="45.26244" lon="4.15467">
        <ele>542.8</ele>
        <time>2011-10-08T09:13:15Z</time>
      </trkpt>
      <trkpt lat="45.26248" lon="4.15464">
        <ele>541.84</ele>
        <time>2011-10-08T09:13:16Z</time>
      </trkpt>
      <trkpt lat="45.26252" lon="4.15461">
        <ele>540.88</ele>
        <time>2011-10-08T09:13:17Z</time>
      </trkpt>
      <trkpt lat="45.2628" lon="4.15442">
        <ele>538.48</ele>
        <time>2011-10-08T09:13:26Z</time>
      </trkpt>
      <trkpt lat="45.26292" lon="4.1543">
        <ele>539.44</ele>
        <time>2011-10-08T09:13:34Z</time>
      </trkpt>
      <trkpt lat="45.26294" lon="4.15428">
        <ele>539.44</ele>
        <time>2011-10-08T09:13:35Z</time>
      </trkpt>
      <trkpt lat="45.26296" lon="4.15425">
        <ele>539.44</ele>
        <time>2011-10-08T09:13:36Z</time>
      </trkpt>
      <trkpt lat="45.26321" lon="4.15398">
        <ele>539.44</ele>
        <time>2011-10-08T09:13:45Z</time>
      </trkpt>
      <trkpt lat="45.26353" lon="4.15363">
        <ele>540.4</ele>
        <time>2011-10-08T09:13:55Z</time>
      </trkpt>
      <trkpt lat="45.26363" lon="4.15349">
        <ele>544.72</ele>
        <time>2011-10-08T09:13:59Z</time>
      </trkpt>
      <trkpt lat="45.26364" lon="4.15345">
        <ele>545.69</ele>
        <time>2011-10-08T09:14:00Z</time>
      </trkpt>
      <trkpt lat="45.26364" lon="4.1534">
        <ele>546.17</ele>
        <time>2011-10-08T09:14:01Z</time>
      </trkpt>
      <trkpt lat="45.26363" lon="4.15335">
        <ele>547.13</ele>
        <time>2011-10-08T09:14:02Z</time>
      </trkpt>
      <trkpt lat="45.26362" lon="4.15329">
        <ele>547.61</ele>
        <time>2011-10-08T09:14:03Z</time>
      </trkpt>
      <trkpt lat="45.2636" lon="4.15324">
        <ele>548.57</ele>
        <time>2011-10-08T09:14:04Z</time>
      </trkpt>
      <trkpt lat="45.26349" lon="4.15259">
        <ele>552.41</ele>
        <time>2011-10-08T09:14:15Z</time>
      </trkpt>
      <trkpt lat="45.26348" lon="4.15241">
        <ele>552.41</ele>
        <time>2011-10-08T09:14:18Z</time>
      </trkpt>
      <trkpt lat="45.2635" lon="4.15235">
        <ele>552.41</ele>
        <time>2011-10-08T09:14:19Z</time>
      </trkpt>
      <trkpt lat="45.26352" lon="4.15229">
        <ele>552.41</ele>
        <time>2011-10-08T09:14:20Z</time>
      </trkpt>
      <trkpt lat="45.26355" lon="4.15222">
        <ele>552.9</ele>
        <time>2011-10-08T09:14:21Z</time>
      </trkpt>
      <trkpt lat="45.26358" lon="4.15217">
        <ele>552.9</ele>
        <time>2011-10-08T09:14:22Z</time>
      </trkpt>
      <trkpt lat="45.26362" lon="4.15213">
        <ele>552.9</ele>
        <time>2011-10-08T09:14:23Z</time>
      </trkpt>
      <trkpt lat="45.26367" lon="4.1521">
        <ele>552.9</ele>
        <time>2011-10-08T09:14:24Z</time>
      </trkpt>
      <trkpt lat="45.26372" lon="4.15209">
        <ele>552.9</ele>
        <time>2011-10-08T09:14:25Z</time>
      </trkpt>
      <trkpt lat="45.26377" lon="4.15209">
        <ele>552.9</ele>
        <time>2011-10-08T09:14:26Z</time>
      </trkpt>
      <trkpt lat="45.26382" lon="4.1521">
        <ele>552.9</ele>
        <time>2011-10-08T09:14:27Z</time>
      </trkpt>
      <trkpt lat="45.26395" lon="4.15213">
        <ele>553.86</ele>
        <time>2011-10-08T09:14:30Z</time>
      </trkpt>
      <trkpt lat="45.26408" lon="4.15211">
        <ele>555.3</ele>
        <time>2011-10-08T09:14:33Z</time>
      </trkpt>
      <trkpt lat="45.26426" lon="4.15207">
        <ele>557.22</ele>
        <time>2011-10-08T09:14:37Z</time>
      </trkpt>
      <trkpt lat="45.2644" lon="4.15201">
        <ele>557.7</ele>
        <time>2011-10-08T09:14:40Z</time>
      </trkpt>
      <trkpt lat="45.26443" lon="4.152">
        <ele>558.18</ele>
        <time>2011-10-08T09:14:41Z</time>
      </trkpt>
      <trkpt lat="45.26455" lon="4.15194">
        <ele>559.14</ele>
        <time>2011-10-08T09:14:44Z</time>
      </trkpt>
      <trkpt lat="45.26459" lon="4.15191">
        <ele>559.62</ele>
        <time>2011-10-08T09:14:45Z</time>
      </trkpt>
      <trkpt lat="45.26475" lon="4.15183">
        <ele>560.11</ele>
        <time>2011-10-08T09:14:49Z</time>
      </trkpt>
      <trkpt lat="45.2651" lon="4.1515">
        <ele>560.11</ele>
        <time>2011-10-08T09:14:58Z</time>
      </trkpt>
      <trkpt lat="45.26528" lon="4.15125">
        <ele>558.18</ele>
        <time>2011-10-08T09:15:02Z</time>
      </trkpt>
      <trkpt lat="45.26532" lon="4.15118">
        <ele>557.7</ele>
        <time>2011-10-08T09:15:03Z</time>
      </trkpt>
      <trkpt lat="45.26535" lon="4.15109">
        <ele>557.22</ele>
        <time>2011-10-08T09:15:04Z</time>
      </trkpt>
      <trkpt lat="45.26537" lon="4.151">
        <ele>556.74</ele>
        <time>2011-10-08T09:15:05Z</time>
      </trkpt>
      <trkpt lat="45.26539" lon="4.1509">
        <ele>556.26</ele>
        <time>2011-10-08T09:15:06Z</time>
      </trkpt>
      <trkpt lat="45.26539" lon="4.1508">
        <ele>556.26</ele>
        <time>2011-10-08T09:15:07Z</time>
      </trkpt>
      <trkpt lat="45.26539" lon="4.1507">
        <ele>555.78</ele>
        <time>2011-10-08T09:15:08Z</time>
      </trkpt>
      <trkpt lat="45.26538" lon="4.1506">
        <ele>555.3</ele>
        <time>2011-10-08T09:15:09Z</time>
      </trkpt>
      <trkpt lat="45.26537" lon="4.1505">
        <ele>554.34</ele>
        <time>2011-10-08T09:15:10Z</time>
      </trkpt>
      <trkpt lat="45.26537" lon="4.15041">
        <ele>553.86</ele>
        <time>2011-10-08T09:15:11Z</time>
      </trkpt>
      <trkpt lat="45.26537" lon="4.15021">
        <ele>552.9</ele>
        <time>2011-10-08T09:15:13Z</time>
      </trkpt>
      <trkpt lat="45.26538" lon="4.15012">
        <ele>552.41</ele>
        <time>2011-10-08T09:15:14Z</time>
      </trkpt>
      <trkpt lat="45.26539" lon="4.15003">
        <ele>551.93</ele>
        <time>2011-10-08T09:15:15Z</time>
      </trkpt>
      <trkpt lat="45.26542" lon="4.14996">
        <ele>551.45</ele>
        <time>2011-10-08T09:15:16Z</time>
      </trkpt>
      <trkpt lat="45.26544" lon="4.1499">
        <ele>551.45</ele>
        <time>2011-10-08T09:15:17Z</time>
      </trkpt>
      <trkpt lat="45.26574" lon="4.14936">
        <ele>550.49</ele>
        <time>2011-10-08T09:15:29Z</time>
      </trkpt>
      <trkpt lat="45.26606" lon="4.14901">
        <ele>556.74</ele>
        <time>2011-10-08T09:15:41Z</time>
      </trkpt>
      <trkpt lat="45.26642" lon="4.14871">
        <ele>559.14</ele>
        <time>2011-10-08T09:15:55Z</time>
      </trkpt>
      <trkpt lat="45.26682" lon="4.14842">
        <ele>562.99</ele>
        <time>2011-10-08T09:16:11Z</time>
      </trkpt>
      <trkpt lat="45.26723" lon="4.14834">
        <ele>566.35</ele>
        <time>2011-10-08T09:16:26Z</time>
      </trkpt>
      <trkpt lat="45.2676" lon="4.1484">
        <ele>568.76</ele>
        <time>2011-10-08T09:16:39Z</time>
      </trkpt>
      <trkpt lat="45.26806" lon="4.1486">
        <ele>572.6</ele>
        <time>2011-10-08T09:16:55Z</time>
      </trkpt>
      <trkpt lat="45.26846" lon="4.14873">
        <ele>573.08</ele>
        <time>2011-10-08T09:17:09Z</time>
      </trkpt>
      <trkpt lat="45.26857" lon="4.14864">
        <ele>572.6</ele>
        <time>2011-10-08T09:17:13Z</time>
      </trkpt>
      <trkpt lat="45.26863" lon="4.14863">
        <ele>572.12</ele>
        <time>2011-10-08T09:17:14Z</time>
      </trkpt>
      <trkpt lat="45.26869" lon="4.14863">
        <ele>571.64</ele>
        <time>2011-10-08T09:17:15Z</time>
      </trkpt>
      <trkpt lat="45.26874" lon="4.14866">
        <ele>571.64</ele>
        <time>2011-10-08T09:17:16Z</time>
      </trkpt>
      <trkpt lat="45.26879" lon="4.1487">
        <ele>571.16</ele>
        <time>2011-10-08T09:17:17Z</time>
      </trkpt>
      <trkpt lat="45.26884" lon="4.14875">
        <ele>571.16</ele>
        <time>2011-10-08T09:17:18Z</time>
      </trkpt>
      <trkpt lat="45.26893" lon="4.14883">
        <ele>571.16</ele>
        <time>2011-10-08T09:17:20Z</time>
      </trkpt>
      <trkpt lat="45.26898" lon="4.14887">
        <ele>570.68</ele>
        <time>2011-10-08T09:17:21Z</time>
      </trkpt>
      <trkpt lat="45.26902" lon="4.14891">
        <ele>570.68</ele>
        <time>2011-10-08T09:17:22Z</time>
      </trkpt>
      <trkpt lat="45.26979" lon="4.14923">
        <ele>570.68</ele>
        <time>2011-10-08T09:17:36Z</time>
      </trkpt>
      <trkpt lat="45.27061" lon="4.14968">
        <ele>570.68</ele>
        <time>2011-10-08T09:17:51Z</time>
      </trkpt>
      <trkpt lat="45.27081" lon="4.14981">
        <ele>570.2</ele>
        <time>2011-10-08T09:17:55Z</time>
      </trkpt>
      <trkpt lat="45.27087" lon="4.14982">
        <ele>570.2</ele>
        <time>2011-10-08T09:17:56Z</time>
      </trkpt>
      <trkpt lat="45.27093" lon="4.14982">
        <ele>570.2</ele>
        <time>2011-10-08T09:17:57Z</time>
      </trkpt>
      <trkpt lat="45.27099" lon="4.1498">
        <ele>569.72</ele>
        <time>2011-10-08T09:17:58Z</time>
      </trkpt>
      <trkpt lat="45.27106" lon="4.14978">
        <ele>569.24</ele>
        <time>2011-10-08T09:17:59Z</time>
      </trkpt>
      <trkpt lat="45.27121" lon="4.14974">
        <ele>568.76</ele>
        <time>2011-10-08T09:18:01Z</time>
      </trkpt>
      <trkpt lat="45.27129" lon="4.14973">
        <ele>568.28</ele>
        <time>2011-10-08T09:18:02Z</time>
      </trkpt>
      <trkpt lat="45.27179" lon="4.14973">
        <ele>564.91</ele>
        <time>2011-10-08T09:18:08Z</time>
      </trkpt>
      <trkpt lat="45.27187" lon="4.14969">
        <ele>564.91</ele>
        <time>2011-10-08T09:18:09Z</time>
      </trkpt>
      <trkpt lat="45.27195" lon="4.14965">
        <ele>564.43</ele>
        <time>2011-10-08T09:18:10Z</time>
      </trkpt>
      <trkpt lat="45.27226" lon="4.14947">
        <ele>562.51</ele>
        <time>2011-10-08T09:18:14Z</time>
      </trkpt>
      <trkpt lat="45.27233" lon="4.14944">
        <ele>562.03</ele>
        <time>2011-10-08T09:18:15Z</time>
      </trkpt>
      <trkpt lat="45.27257" lon="4.1494">
        <ele>561.07</ele>
        <time>2011-10-08T09:18:18Z</time>
      </trkpt>
      <trkpt lat="45.27264" lon="4.14941">
        <ele>560.59</ele>
        <time>2011-10-08T09:18:19Z</time>
      </trkpt>
      <trkpt lat="45.27272" lon="4.14943">
        <ele>560.59</ele>
        <time>2011-10-08T09:18:20Z</time>
      </trkpt>
      <trkpt lat="45.273" lon="4.14954">
        <ele>560.11</ele>
        <time>2011-10-08T09:18:24Z</time>
      </trkpt>
      <trkpt lat="45.27307" lon="4.14955">
        <ele>559.62</ele>
        <time>2011-10-08T09:18:25Z</time>
      </trkpt>
      <trkpt lat="45.27314" lon="4.14955">
        <ele>559.62</ele>
        <time>2011-10-08T09:18:26Z</time>
      </trkpt>
      <trkpt lat="45.27334" lon="4.14952">
        <ele>559.62</ele>
        <time>2011-10-08T09:18:29Z</time>
      </trkpt>
      <trkpt lat="45.2734" lon="4.14949">
        <ele>559.62</ele>
        <time>2011-10-08T09:18:30Z</time>
      </trkpt>
      <trkpt lat="45.27345" lon="4.14946">
        <ele>559.62</ele>
        <time>2011-10-08T09:18:31Z</time>
      </trkpt>
      <trkpt lat="45.27356" lon="4.1494">
        <ele>559.14</ele>
        <time>2011-10-08T09:18:33Z</time>
      </trkpt>
      <trkpt lat="45.2736" lon="4.14936">
        <ele>558.66</ele>
        <time>2011-10-08T09:18:34Z</time>
      </trkpt>
      <trkpt lat="45.27365" lon="4.14933">
        <ele>558.66</ele>
        <time>2011-10-08T09:18:35Z</time>
      </trkpt>
      <trkpt lat="45.27369" lon="4.1493">
        <ele>559.14</ele>
        <time>2011-10-08T09:18:36Z</time>
      </trkpt>
      <trkpt lat="45.27373" lon="4.14927">
        <ele>559.14</ele>
        <time>2011-10-08T09:18:37Z</time>
      </trkpt>
      <trkpt lat="45.27381" lon="4.14923">
        <ele>560.11</ele>
        <time>2011-10-08T09:18:39Z</time>
      </trkpt>
      <trkpt lat="45.27419" lon="4.14917">
        <ele>563.95</ele>
        <time>2011-10-08T09:18:51Z</time>
      </trkpt>
      <trkpt lat="45.2743" lon="4.14914">
        <ele>564.43</ele>
        <time>2011-10-08T09:18:55Z</time>
      </trkpt>
      <trkpt lat="45.27432" lon="4.14912">
        <ele>564.43</ele>
        <time>2011-10-08T09:18:56Z</time>
      </trkpt>
      <trkpt lat="45.27455" lon="4.14883">
        <ele>563.95</ele>
        <time>2011-10-08T09:19:07Z</time>
      </trkpt>
      <trkpt lat="45.27476" lon="4.14859">
        <ele>565.39</ele>
        <time>2011-10-08T09:19:21Z</time>
      </trkpt>
      <trkpt lat="45.27493" lon="4.14839">
        <ele>568.76</ele>
        <time>2011-10-08T09:19:33Z</time>
      </trkpt>
      <trkpt lat="45.27495" lon="4.1484">
        <ele>570.2</ele>
        <time>2011-10-08T09:19:35Z</time>
      </trkpt>
      <trkpt lat="45.27496" lon="4.14842">
        <ele>570.68</ele>
        <time>2011-10-08T09:19:36Z</time>
      </trkpt>
      <trkpt lat="45.27496" lon="4.14844">
        <ele>571.16</ele>
        <time>2011-10-08T09:19:37Z</time>
      </trkpt>
      <trkpt lat="45.27496" lon="4.14845">
        <ele>571.64</ele>
        <time>2011-10-08T09:19:38Z</time>
      </trkpt>
      <trkpt lat="45.27495" lon="4.14847">
        <ele>571.64</ele>
        <time>2011-10-08T09:19:39Z</time>
      </trkpt>
      <trkpt lat="45.27494" lon="4.14848">
        <ele>571.64</ele>
        <time>2011-10-08T09:19:40Z</time>
      </trkpt>
      <trkpt lat="45.27493" lon="4.1485">
        <ele>571.64</ele>
        <time>2011-10-08T09:19:41Z</time>
      </trkpt>
      <trkpt lat="45.27492" lon="4.14851">
        <ele>572.12</ele>
        <time>2011-10-08T09:19:42Z</time>
      </trkpt>
      <trkpt lat="45.27489" lon="4.14855">
        <ele>572.6</ele>
        <time>2011-10-08T09:19:45Z</time>
      </trkpt>
      <trkpt lat="45.27489" lon="4.14857">
        <ele>572.6</ele>
        <time>2011-10-08T09:19:46Z</time>
      </trkpt>
      <trkpt lat="45.27488" lon="4.14859">
        <ele>573.08</ele>
        <time>2011-10-08T09:19:47Z</time>
      </trkpt>
      <trkpt lat="45.27488" lon="4.1486">
        <ele>573.08</ele>
        <time>2011-10-08T09:19:48Z</time>
      </trkpt>
      <trkpt lat="45.27487" lon="4.14867">
        <ele>574.04</ele>
        <time>2011-10-08T09:19:52Z</time>
      </trkpt>
      <trkpt lat="45.27486" lon="4.14869">
        <ele>574.53</ele>
        <time>2011-10-08T09:19:53Z</time>
      </trkpt>
      <trkpt lat="45.27485" lon="4.14871">
        <ele>575.01</ele>
        <time>2011-10-08T09:19:54Z</time>
      </trkpt>
      <trkpt lat="45.27485" lon="4.14873">
        <ele>575.49</ele>
        <time>2011-10-08T09:19:55Z</time>
      </trkpt>
      <trkpt lat="45.27499" lon="4.14868">
        <ele>577.89</ele>
        <time>2011-10-08T09:20:08Z</time>
      </trkpt>
      <trkpt lat="45.27502" lon="4.14867">
        <ele>578.37</ele>
        <time>2011-10-08T09:20:11Z</time>
      </trkpt>
      <trkpt lat="45.27504" lon="4.14882">
        <ele>580.77</ele>
        <time>2011-10-08T09:20:22Z</time>
      </trkpt>
      <trkpt lat="45.27503" lon="4.14892">
        <ele>580.77</ele>
        <time>2011-10-08T09:20:28Z</time>
      </trkpt>
      <trkpt lat="45.27502" lon="4.14898">
        <ele>582.22</ele>
        <time>2011-10-08T09:20:32Z</time>
      </trkpt>
      <trkpt lat="45.27499" lon="4.14922">
        <ele>583.18</ele>
        <time>2011-10-08T09:20:46Z</time>
      </trkpt>
      <trkpt lat="45.27499" lon="4.14924">
        <ele>583.66</ele>
        <time>2011-10-08T09:20:47Z</time>
      </trkpt>
      <trkpt lat="45.27498" lon="4.14927">
        <ele>583.66</ele>
        <time>2011-10-08T09:20:49Z</time>
      </trkpt>
      <trkpt lat="45.275" lon="4.14944">
        <ele>583.66</ele>
        <time>2011-10-08T09:20:58Z</time>
      </trkpt>
      <trkpt lat="45.27499" lon="4.14952">
        <ele>584.62</ele>
        <time>2011-10-08T09:21:02Z</time>
      </trkpt>
      <trkpt lat="45.27499" lon="4.1497">
        <ele>586.06</ele>
        <time>2011-10-08T09:21:11Z</time>
      </trkpt>
      <trkpt lat="45.27499" lon="4.14974">
        <ele>587.02</ele>
        <time>2011-10-08T09:21:13Z</time>
      </trkpt>
      <trkpt lat="45.27498" lon="4.14986">
        <ele>587.5</ele>
        <time>2011-10-08T09:21:19Z</time>
      </trkpt>
      <trkpt lat="45.27501" lon="4.14999">
        <ele>587.5</ele>
        <time>2011-10-08T09:21:26Z</time>
      </trkpt>
      <trkpt lat="45.27502" lon="4.15007">
        <ele>587.02</ele>
        <time>2011-10-08T09:21:30Z</time>
      </trkpt>
      <trkpt lat="45.27506" lon="4.15017">
        <ele>587.98</ele>
        <time>2011-10-08T09:21:36Z</time>
      </trkpt>
      <trkpt lat="45.27511" lon="4.15038">
        <ele>590.39</ele>
        <time>2011-10-08T09:21:48Z</time>
      </trkpt>
      <trkpt lat="45.27511" lon="4.15047">
        <ele>590.87</ele>
        <time>2011-10-08T09:21:53Z</time>
      </trkpt>
      <trkpt lat="45.27519" lon="4.15069">
        <ele>593.27</ele>
        <time>2011-10-08T09:22:07Z</time>
      </trkpt>
      <trkpt lat="45.27521" lon="4.15075">
        <ele>595.19</ele>
        <time>2011-10-08T09:22:11Z</time>
      </trkpt>
      <trkpt lat="45.27536" lon="4.15092">
        <ele>599.52</ele>
        <time>2011-10-08T09:22:24Z</time>
      </trkpt>
      <trkpt lat="45.27548" lon="4.15106">
        <ele>602.4</ele>
        <time>2011-10-08T09:22:38Z</time>
      </trkpt>
      <trkpt lat="45.27563" lon="4.15109">
        <ele>602.88</ele>
        <time>2011-10-08T09:22:50Z</time>
      </trkpt>
      <trkpt lat="45.27575" lon="4.15112">
        <ele>609.61</ele>
        <time>2011-10-08T09:23:00Z</time>
      </trkpt>
      <trkpt lat="45.27578" lon="4.15114">
        <ele>613.46</ele>
        <time>2011-10-08T09:23:03Z</time>
      </trkpt>
      <trkpt lat="45.27579" lon="4.15123">
        <ele>620.19</ele>
        <time>2011-10-08T09:23:12Z</time>
      </trkpt>
      <trkpt lat="45.27576" lon="4.15131">
        <ele>621.15</ele>
        <time>2011-10-08T09:23:18Z</time>
      </trkpt>
      <trkpt lat="45.27571" lon="4.15149">
        <ele>621.63</ele>
        <time>2011-10-08T09:23:30Z</time>
      </trkpt>
      <trkpt lat="45.2756" lon="4.15172">
        <ele>624.03</ele>
        <time>2011-10-08T09:23:43Z</time>
      </trkpt>
      <trkpt lat="45.27554" lon="4.15188">
        <ele>624.51</ele>
        <time>2011-10-08T09:23:50Z</time>
      </trkpt>
      <trkpt lat="45.27551" lon="4.152">
        <ele>625.47</ele>
        <time>2011-10-08T09:23:55Z</time>
      </trkpt>
      <trkpt lat="45.27547" lon="4.15227">
        <ele>627.4</ele>
        <time>2011-10-08T09:24:10Z</time>
      </trkpt>
      <trkpt lat="45.27547" lon="4.15242">
        <ele>630.76</ele>
        <time>2011-10-08T09:24:18Z</time>
      </trkpt>
      <trkpt lat="45.27546" lon="4.15245">
        <ele>631.24</ele>
        <time>2011-10-08T09:24:20Z</time>
      </trkpt>
      <trkpt lat="45.27543" lon="4.15269">
        <ele>630.28</ele>
        <time>2011-10-08T09:24:34Z</time>
      </trkpt>
      <trkpt lat="45.27543" lon="4.15271">
        <ele>630.76</ele>
        <time>2011-10-08T09:24:35Z</time>
      </trkpt>
      <trkpt lat="45.27546" lon="4.1528">
        <ele>630.76</ele>
        <time>2011-10-08T09:24:40Z</time>
      </trkpt>
      <trkpt lat="45.27549" lon="4.1529">
        <ele>630.76</ele>
        <time>2011-10-08T09:24:46Z</time>
      </trkpt>
      <trkpt lat="45.27552" lon="4.15297">
        <ele>631.24</ele>
        <time>2011-10-08T09:24:50Z</time>
      </trkpt>
      <trkpt lat="45.27564" lon="4.15323">
        <ele>633.17</ele>
        <time>2011-10-08T09:25:06Z</time>
      </trkpt>
      <trkpt lat="45.27582" lon="4.1535">
        <ele>635.57</ele>
        <time>2011-10-08T09:25:21Z</time>
      </trkpt>
      <trkpt lat="45.27606" lon="4.15376">
        <ele>635.57</ele>
        <time>2011-10-08T09:25:34Z</time>
      </trkpt>
      <trkpt lat="45.2764" lon="4.15409">
        <ele>634.61</ele>
        <time>2011-10-08T09:25:47Z</time>
      </trkpt>
      <trkpt lat="45.27669" lon="4.15467">
        <ele>631.72</ele>
        <time>2011-10-08T09:25:58Z</time>
      </trkpt>
      <trkpt lat="45.27687" lon="4.15507">
        <ele>629.8</ele>
        <time>2011-10-08T09:26:05Z</time>
      </trkpt>
      <trkpt lat="45.27691" lon="4.15506">
        <ele>629.8</ele>
        <time>2011-10-08T09:26:06Z</time>
      </trkpt>
      <trkpt lat="45.27695" lon="4.15504">
        <ele>629.32</ele>
        <time>2011-10-08T09:26:07Z</time>
      </trkpt>
      <trkpt lat="45.27704" lon="4.15498">
        <ele>629.32</ele>
        <time>2011-10-08T09:26:09Z</time>
      </trkpt>
      <trkpt lat="45.27717" lon="4.15492">
        <ele>629.32</ele>
        <time>2011-10-08T09:26:12Z</time>
      </trkpt>
      <trkpt lat="45.27761" lon="4.15483">
        <ele>629.32</ele>
        <time>2011-10-08T09:26:21Z</time>
      </trkpt>
      <trkpt lat="45.2779" lon="4.15485">
        <ele>630.28</ele>
        <time>2011-10-08T09:26:27Z</time>
      </trkpt>
      <trkpt lat="45.27795" lon="4.15484">
        <ele>630.28</ele>
        <time>2011-10-08T09:26:28Z</time>
      </trkpt>
      <trkpt lat="45.27799" lon="4.15481">
        <ele>629.8</ele>
        <time>2011-10-08T09:26:29Z</time>
      </trkpt>
      <trkpt lat="45.27804" lon="4.15478">
        <ele>630.28</ele>
        <time>2011-10-08T09:26:30Z</time>
      </trkpt>
      <trkpt lat="45.27807" lon="4.15473">
        <ele>630.28</ele>
        <time>2011-10-08T09:26:31Z</time>
      </trkpt>
      <trkpt lat="45.2781" lon="4.15468">
        <ele>630.28</ele>
        <time>2011-10-08T09:26:32Z</time>
      </trkpt>
      <trkpt lat="45.27846" lon="4.15404">
        <ele>631.72</ele>
        <time>2011-10-08T09:26:47Z</time>
      </trkpt>
      <trkpt lat="45.2786" lon="4.15348">
        <ele>632.68</ele>
        <time>2011-10-08T09:26:59Z</time>
      </trkpt>
      <trkpt lat="45.2787" lon="4.15282">
        <ele>633.17</ele>
        <time>2011-10-08T09:27:14Z</time>
      </trkpt>
      <trkpt lat="45.27881" lon="4.15229">
        <ele>632.2</ele>
        <time>2011-10-08T09:27:25Z</time>
      </trkpt>
      <trkpt lat="45.27911" lon="4.15148">
        <ele>628.84</ele>
        <time>2011-10-08T09:27:37Z</time>
      </trkpt>
      <trkpt lat="45.27922" lon="4.15101">
        <ele>626.92</ele>
        <time>2011-10-08T09:27:42Z</time>
      </trkpt>
      <trkpt lat="45.27922" lon="4.15092">
        <ele>626.44</ele>
        <time>2011-10-08T09:27:43Z</time>
      </trkpt>
      <trkpt lat="45.27921" lon="4.15083">
        <ele>625.47</ele>
        <time>2011-10-08T09:27:44Z</time>
      </trkpt>
      <trkpt lat="45.27919" lon="4.15059">
        <ele>623.55</ele>
        <time>2011-10-08T09:27:48Z</time>
      </trkpt>
      <trkpt lat="45.27922" lon="4.15056">
        <ele>623.07</ele>
        <time>2011-10-08T09:27:49Z</time>
      </trkpt>
      <trkpt lat="45.27926" lon="4.15056">
        <ele>622.59</ele>
        <time>2011-10-08T09:27:50Z</time>
      </trkpt>
      <trkpt lat="45.27931" lon="4.15058">
        <ele>622.59</ele>
        <time>2011-10-08T09:27:51Z</time>
      </trkpt>
      <trkpt lat="45.27935" lon="4.1506">
        <ele>622.59</ele>
        <time>2011-10-08T09:27:52Z</time>
      </trkpt>
      <trkpt lat="45.27939" lon="4.15063">
        <ele>622.11</ele>
        <time>2011-10-08T09:27:53Z</time>
      </trkpt>
      <trkpt lat="45.27943" lon="4.15065">
        <ele>622.11</ele>
        <time>2011-10-08T09:27:54Z</time>
      </trkpt>
      <trkpt lat="45.27948" lon="4.15067">
        <ele>622.11</ele>
        <time>2011-10-08T09:27:55Z</time>
      </trkpt>
      <trkpt lat="45.27958" lon="4.1507">
        <ele>622.11</ele>
        <time>2011-10-08T09:27:57Z</time>
      </trkpt>
      <trkpt lat="45.27983" lon="4.15072">
        <ele>622.59</ele>
        <time>2011-10-08T09:28:02Z</time>
      </trkpt>
      <trkpt lat="45.27989" lon="4.15071">
        <ele>622.59</ele>
        <time>2011-10-08T09:28:03Z</time>
      </trkpt>
      <trkpt lat="45.27994" lon="4.15071">
        <ele>622.59</ele>
        <time>2011-10-08T09:28:04Z</time>
      </trkpt>
      <trkpt lat="45.27998" lon="4.1507">
        <ele>622.59</ele>
        <time>2011-10-08T09:28:05Z</time>
      </trkpt>
      <trkpt lat="45.28003" lon="4.1507">
        <ele>623.07</ele>
        <time>2011-10-08T09:28:06Z</time>
      </trkpt>
      <trkpt lat="45.28008" lon="4.1507">
        <ele>623.07</ele>
        <time>2011-10-08T09:28:07Z</time>
      </trkpt>
      <trkpt lat="45.28013" lon="4.1507">
        <ele>623.07</ele>
        <time>2011-10-08T09:28:08Z</time>
      </trkpt>
      <trkpt lat="45.28019" lon="4.1507">
        <ele>623.07</ele>
        <time>2011-10-08T09:28:09Z</time>
      </trkpt>
      <trkpt lat="45.28024" lon="4.1507">
        <ele>623.55</ele>
        <time>2011-10-08T09:28:10Z</time>
      </trkpt>
      <trkpt lat="45.28029" lon="4.15069">
        <ele>623.07</ele>
        <time>2011-10-08T09:28:11Z</time>
      </trkpt>
      <trkpt lat="45.28045" lon="4.15065">
        <ele>623.07</ele>
        <time>2011-10-08T09:28:14Z</time>
      </trkpt>
      <trkpt lat="45.2805" lon="4.15064">
        <ele>623.55</ele>
        <time>2011-10-08T09:28:15Z</time>
      </trkpt>
      <trkpt lat="45.28092" lon="4.15052">
        <ele>624.03</ele>
        <time>2011-10-08T09:28:23Z</time>
      </trkpt>
      <trkpt lat="45.28097" lon="4.1505">
        <ele>624.03</ele>
        <time>2011-10-08T09:28:24Z</time>
      </trkpt>
      <trkpt lat="45.28121" lon="4.15043">
        <ele>624.51</ele>
        <time>2011-10-08T09:28:30Z</time>
      </trkpt>
      <trkpt lat="45.28125" lon="4.15042">
        <ele>624.51</ele>
        <time>2011-10-08T09:28:31Z</time>
      </trkpt>
      <trkpt lat="45.28129" lon="4.1504">
        <ele>624.51</ele>
        <time>2011-10-08T09:28:32Z</time>
      </trkpt>
      <trkpt lat="45.28133" lon="4.15038">
        <ele>624.51</ele>
        <time>2011-10-08T09:28:33Z</time>
      </trkpt>
      <trkpt lat="45.28137" lon="4.15036">
        <ele>624.51</ele>
        <time>2011-10-08T09:28:34Z</time>
      </trkpt>
      <trkpt lat="45.2814" lon="4.15033">
        <ele>624.51</ele>
        <time>2011-10-08T09:28:35Z</time>
      </trkpt>
      <trkpt lat="45.28144" lon="4.15031">
        <ele>624.51</ele>
        <time>2011-10-08T09:28:36Z</time>
      </trkpt>
      <trkpt lat="45.28147" lon="4.15029">
        <ele>624.51</ele>
        <time>2011-10-08T09:28:37Z</time>
      </trkpt>
      <trkpt lat="45.28169" lon="4.15026">
        <ele>623.55</ele>
        <time>2011-10-08T09:28:43Z</time>
      </trkpt>
      <trkpt lat="45.28173" lon="4.15027">
        <ele>623.55</ele>
        <time>2011-10-08T09:28:44Z</time>
      </trkpt>
      <trkpt lat="45.28198" lon="4.15025">
        <ele>623.07</ele>
        <time>2011-10-08T09:28:51Z</time>
      </trkpt>
      <trkpt lat="45.28202" lon="4.15023">
        <ele>623.07</ele>
        <time>2011-10-08T09:28:52Z</time>
      </trkpt>
      <trkpt lat="45.28206" lon="4.15022">
        <ele>623.07</ele>
        <time>2011-10-08T09:28:53Z</time>
      </trkpt>
      <trkpt lat="45.28211" lon="4.15022">
        <ele>623.07</ele>
        <time>2011-10-08T09:28:54Z</time>
      </trkpt>
      <trkpt lat="45.28215" lon="4.15022">
        <ele>623.55</ele>
        <time>2011-10-08T09:28:55Z</time>
      </trkpt>
      <trkpt lat="45.28244" lon="4.15026">
        <ele>622.11</ele>
        <time>2011-10-08T09:29:02Z</time>
      </trkpt>
      <trkpt lat="45.28248" lon="4.15026">
        <ele>622.11</ele>
        <time>2011-10-08T09:29:03Z</time>
      </trkpt>
      <trkpt lat="45.28291" lon="4.15025">
        <ele>623.07</ele>
        <time>2011-10-08T09:29:15Z</time>
      </trkpt>
      <trkpt lat="45.28327" lon="4.15029">
        <ele>622.11</ele>
        <time>2011-10-08T09:29:24Z</time>
      </trkpt>
      <trkpt lat="45.28331" lon="4.15029">
        <ele>622.11</ele>
        <time>2011-10-08T09:29:25Z</time>
      </trkpt>
      <trkpt lat="45.28336" lon="4.1503">
        <ele>621.63</ele>
        <time>2011-10-08T09:29:26Z</time>
      </trkpt>
      <trkpt lat="45.28342" lon="4.15031">
        <ele>621.63</ele>
        <time>2011-10-08T09:29:27Z</time>
      </trkpt>
      <trkpt lat="45.28347" lon="4.15031">
        <ele>621.15</ele>
        <time>2011-10-08T09:29:28Z</time>
      </trkpt>
      <trkpt lat="45.28413" lon="4.15032">
        <ele>617.3</ele>
        <time>2011-10-08T09:29:38Z</time>
      </trkpt>
      <trkpt lat="45.28442" lon="4.15034">
        <ele>615.86</ele>
        <time>2011-10-08T09:29:42Z</time>
      </trkpt>
      <trkpt lat="45.28449" lon="4.15036">
        <ele>615.38</ele>
        <time>2011-10-08T09:29:43Z</time>
      </trkpt>
      <trkpt lat="45.28457" lon="4.15039">
        <ele>615.38</ele>
        <time>2011-10-08T09:29:44Z</time>
      </trkpt>
      <trkpt lat="45.28464" lon="4.15043">
        <ele>615.38</ele>
        <time>2011-10-08T09:29:45Z</time>
      </trkpt>
      <trkpt lat="45.2847" lon="4.15049">
        <ele>614.9</ele>
        <time>2011-10-08T09:29:46Z</time>
      </trkpt>
      <trkpt lat="45.28475" lon="4.15055">
        <ele>614.9</ele>
        <time>2011-10-08T09:29:47Z</time>
      </trkpt>
      <trkpt lat="45.28485" lon="4.15063">
        <ele>614.42</ele>
        <time>2011-10-08T09:29:49Z</time>
      </trkpt>
      <trkpt lat="45.2849" lon="4.15063">
        <ele>613.94</ele>
        <time>2011-10-08T09:29:50Z</time>
      </trkpt>
      <trkpt lat="45.28496" lon="4.15063">
        <ele>613.46</ele>
        <time>2011-10-08T09:29:51Z</time>
      </trkpt>
      <trkpt lat="45.28518" lon="4.15059">
        <ele>610.57</ele>
        <time>2011-10-08T09:29:54Z</time>
      </trkpt>
      <trkpt lat="45.28526" lon="4.15056">
        <ele>609.61</ele>
        <time>2011-10-08T09:29:55Z</time>
      </trkpt>
      <trkpt lat="45.28533" lon="4.1505">
        <ele>608.65</ele>
        <time>2011-10-08T09:29:56Z</time>
      </trkpt>
      <trkpt lat="45.2863" lon="4.14968">
        <ele>597.6</ele>
        <time>2011-10-08T09:30:07Z</time>
      </trkpt>
      <trkpt lat="45.28766" lon="4.14898">
        <ele>584.62</ele>
        <time>2011-10-08T09:30:20Z</time>
      </trkpt>
      <trkpt lat="45.28839" lon="4.14846">
        <ele>576.45</ele>
        <time>2011-10-08T09:30:29Z</time>
      </trkpt>
      <trkpt lat="45.28847" lon="4.14844">
        <ele>575.49</ele>
        <time>2011-10-08T09:30:30Z</time>
      </trkpt>
      <trkpt lat="45.28853" lon="4.14844">
        <ele>575.01</ele>
        <time>2011-10-08T09:30:31Z</time>
      </trkpt>
      <trkpt lat="45.2886" lon="4.14845">
        <ele>574.04</ele>
        <time>2011-10-08T09:30:32Z</time>
      </trkpt>
      <trkpt lat="45.28866" lon="4.14848">
        <ele>573.08</ele>
        <time>2011-10-08T09:30:33Z</time>
      </trkpt>
      <trkpt lat="45.28872" lon="4.14852">
        <ele>572.12</ele>
        <time>2011-10-08T09:30:34Z</time>
      </trkpt>
      <trkpt lat="45.28876" lon="4.14857">
        <ele>571.64</ele>
        <time>2011-10-08T09:30:35Z</time>
      </trkpt>
      <trkpt lat="45.2888" lon="4.14861">
        <ele>570.68</ele>
        <time>2011-10-08T09:30:36Z</time>
      </trkpt>
      <trkpt lat="45.28886" lon="4.14866">
        <ele>570.2</ele>
        <time>2011-10-08T09:30:38Z</time>
      </trkpt>
      <trkpt lat="45.28889" lon="4.14866">
        <ele>570.2</ele>
        <time>2011-10-08T09:30:39Z</time>
      </trkpt>
      <trkpt lat="45.28892" lon="4.14864">
        <ele>569.72</ele>
        <time>2011-10-08T09:30:40Z</time>
      </trkpt>
      <trkpt lat="45.28895" lon="4.14863">
        <ele>569.24</ele>
        <time>2011-10-08T09:30:41Z</time>
      </trkpt>
      <trkpt lat="45.28899" lon="4.14861">
        <ele>568.76</ele>
        <time>2011-10-08T09:30:42Z</time>
      </trkpt>
      <trkpt lat="45.28903" lon="4.14859">
        <ele>568.28</ele>
        <time>2011-10-08T09:30:43Z</time>
      </trkpt>
      <trkpt lat="45.28906" lon="4.14855">
        <ele>567.32</ele>
        <time>2011-10-08T09:30:44Z</time>
      </trkpt>
      <trkpt lat="45.28907" lon="4.14852">
        <ele>566.83</ele>
        <time>2011-10-08T09:30:45Z</time>
      </trkpt>
      <trkpt lat="45.28906" lon="4.14849">
        <ele>565.87</ele>
        <time>2011-10-08T09:30:46Z</time>
      </trkpt>
      <trkpt lat="45.28905" lon="4.14847">
        <ele>564.43</ele>
        <time>2011-10-08T09:30:51Z</time>
      </trkpt>
      <trkpt lat="45.28904" lon="4.14847">
        <ele>564.91</ele>
        <time>2011-10-08T09:31:10Z</time>
      </trkpt>
      <trkpt lat="45.28904" lon="4.14847">
        <ele>564.43</ele>
        <time>2011-10-08T09:32:45Z</time>
      </trkpt>
      <trkpt lat="45.28906" lon="4.14846">
        <ele>564.91</ele>
        <time>2011-10-08T09:34:14Z</time>
      </trkpt>
      <trkpt lat="45.28908" lon="4.14846">
        <ele>565.39</ele>
        <time>2011-10-08T09:34:16Z</time>
      </trkpt>
      <trkpt lat="45.28909" lon="4.14844">
        <ele>564.91</ele>
        <time>2011-10-08T09:34:17Z</time>
      </trkpt>
      <trkpt lat="45.28909" lon="4.14841">
        <ele>564.43</ele>
        <time>2011-10-08T09:34:18Z</time>
      </trkpt>
      <trkpt lat="45.2891" lon="4.14839">
        <ele>563.95</ele>
        <time>2011-10-08T09:34:19Z</time>
      </trkpt>
      <trkpt lat="45.28912" lon="4.14836">
        <ele>563.47</ele>
        <time>2011-10-08T09:34:20Z</time>
      </trkpt>
      <trkpt lat="45.28914" lon="4.14832">
        <ele>563.47</ele>
        <time>2011-10-08T09:34:21Z</time>
      </trkpt>
      <trkpt lat="45.28916" lon="4.14827">
        <ele>563.47</ele>
        <time>2011-10-08T09:34:22Z</time>
      </trkpt>
      <trkpt lat="45.28917" lon="4.14823">
        <ele>563.47</ele>
        <time>2011-10-08T09:34:23Z</time>
      </trkpt>
      <trkpt lat="45.28923" lon="4.14812">
        <ele>562.99</ele>
        <time>2011-10-08T09:34:26Z</time>
      </trkpt>
      <trkpt lat="45.28924" lon="4.14808">
        <ele>562.51</ele>
        <time>2011-10-08T09:34:27Z</time>
      </trkpt>
      <trkpt lat="45.28925" lon="4.14804">
        <ele>562.03</ele>
        <time>2011-10-08T09:34:28Z</time>
      </trkpt>
      <trkpt lat="45.28926" lon="4.14801">
        <ele>561.55</ele>
        <time>2011-10-08T09:34:29Z</time>
      </trkpt>
      <trkpt lat="45.28929" lon="4.14797">
        <ele>561.07</ele>
        <time>2011-10-08T09:34:30Z</time>
      </trkpt>
      <trkpt lat="45.28935" lon="4.14788">
        <ele>560.11</ele>
        <time>2011-10-08T09:34:32Z</time>
      </trkpt>
      <trkpt lat="45.2897" lon="4.14741">
        <ele>552.9</ele>
        <time>2011-10-08T09:34:40Z</time>
      </trkpt>
      <trkpt lat="45.28976" lon="4.14737">
        <ele>551.45</ele>
        <time>2011-10-08T09:34:41Z</time>
      </trkpt>
      <trkpt lat="45.28983" lon="4.14734">
        <ele>550.49</ele>
        <time>2011-10-08T09:34:42Z</time>
      </trkpt>
      <trkpt lat="45.2901" lon="4.14727">
        <ele>547.13</ele>
        <time>2011-10-08T09:34:46Z</time>
      </trkpt>
      <trkpt lat="45.29013" lon="4.14722">
        <ele>546.17</ele>
        <time>2011-10-08T09:34:47Z</time>
      </trkpt>
      <trkpt lat="45.29015" lon="4.14716">
        <ele>545.2</ele>
        <time>2011-10-08T09:34:48Z</time>
      </trkpt>
      <trkpt lat="45.29014" lon="4.14708">
        <ele>544.24</ele>
        <time>2011-10-08T09:34:49Z</time>
      </trkpt>
      <trkpt lat="45.29013" lon="4.147">
        <ele>543.28</ele>
        <time>2011-10-08T09:34:50Z</time>
      </trkpt>
      <trkpt lat="45.29013" lon="4.14691">
        <ele>542.32</ele>
        <time>2011-10-08T09:34:51Z</time>
      </trkpt>
      <trkpt lat="45.29014" lon="4.14681">
        <ele>541.36</ele>
        <time>2011-10-08T09:34:52Z</time>
      </trkpt>
      <trkpt lat="45.29017" lon="4.14672">
        <ele>540.4</ele>
        <time>2011-10-08T09:34:53Z</time>
      </trkpt>
      <trkpt lat="45.29021" lon="4.14661">
        <ele>539.44</ele>
        <time>2011-10-08T09:34:54Z</time>
      </trkpt>
      <trkpt lat="45.29052" lon="4.1457">
        <ele>531.75</ele>
        <time>2011-10-08T09:35:02Z</time>
      </trkpt>
      <trkpt lat="45.29062" lon="4.14551">
        <ele>529.34</ele>
        <time>2011-10-08T09:35:05Z</time>
      </trkpt>
      <trkpt lat="45.29064" lon="4.14543">
        <ele>528.86</ele>
        <time>2011-10-08T09:35:06Z</time>
      </trkpt>
      <trkpt lat="45.29064" lon="4.14534">
        <ele>527.9</ele>
        <time>2011-10-08T09:35:07Z</time>
      </trkpt>
      <trkpt lat="45.29064" lon="4.14524">
        <ele>527.9</ele>
        <time>2011-10-08T09:35:08Z</time>
      </trkpt>
      <trkpt lat="45.29062" lon="4.14514">
        <ele>527.42</ele>
        <time>2011-10-08T09:35:09Z</time>
      </trkpt>
      <trkpt lat="45.29038" lon="4.14368">
        <ele>525.02</ele>
        <time>2011-10-08T09:35:23Z</time>
      </trkpt>
      <trkpt lat="45.29033" lon="4.14344">
        <ele>525.5</ele>
        <time>2011-10-08T09:35:26Z</time>
      </trkpt>
      <trkpt lat="45.29032" lon="4.14336">
        <ele>525.98</ele>
        <time>2011-10-08T09:35:27Z</time>
      </trkpt>
      <trkpt lat="45.29028" lon="4.14305">
        <ele>527.42</ele>
        <time>2011-10-08T09:35:31Z</time>
      </trkpt>
      <trkpt lat="45.29028" lon="4.14297">
        <ele>527.9</ele>
        <time>2011-10-08T09:35:32Z</time>
      </trkpt>
      <trkpt lat="45.29028" lon="4.14289">
        <ele>527.9</ele>
        <time>2011-10-08T09:35:33Z</time>
      </trkpt>
      <trkpt lat="45.29029" lon="4.14281">
        <ele>527.9</ele>
        <time>2011-10-08T09:35:34Z</time>
      </trkpt>
      <trkpt lat="45.2903" lon="4.14274">
        <ele>527.9</ele>
        <time>2011-10-08T09:35:35Z</time>
      </trkpt>
      <trkpt lat="45.29034" lon="4.14247">
        <ele>527.9</ele>
        <time>2011-10-08T09:35:39Z</time>
      </trkpt>
      <trkpt lat="45.2904" lon="4.1422">
        <ele>527.9</ele>
        <time>2011-10-08T09:35:43Z</time>
      </trkpt>
      <trkpt lat="45.29066" lon="4.14136">
        <ele>529.34</ele>
        <time>2011-10-08T09:35:58Z</time>
      </trkpt>
      <trkpt lat="45.29089" lon="4.14065">
        <ele>533.19</ele>
        <time>2011-10-08T09:36:13Z</time>
      </trkpt>
      <trkpt lat="45.2911" lon="4.14003">
        <ele>534.15</ele>
        <time>2011-10-08T09:36:26Z</time>
      </trkpt>
      <trkpt lat="45.29126" lon="4.13953">
        <ele>538.48</ele>
        <time>2011-10-08T09:36:38Z</time>
      </trkpt>
      <trkpt lat="45.29143" lon="4.13904">
        <ele>539.92</ele>
        <time>2011-10-08T09:36:50Z</time>
      </trkpt>
      <trkpt lat="45.2916" lon="4.13831">
        <ele>541.36</ele>
        <time>2011-10-08T09:37:06Z</time>
      </trkpt>
      <trkpt lat="45.29151" lon="4.13768">
        <ele>540.88</ele>
        <time>2011-10-08T09:37:18Z</time>
      </trkpt>
      <trkpt lat="45.29148" lon="4.13762">
        <ele>540.88</ele>
        <time>2011-10-08T09:37:19Z</time>
      </trkpt>
      <trkpt lat="45.29146" lon="4.13756">
        <ele>540.88</ele>
        <time>2011-10-08T09:37:20Z</time>
      </trkpt>
      <trkpt lat="45.29137" lon="4.13731">
        <ele>540.88</ele>
        <time>2011-10-08T09:37:24Z</time>
      </trkpt>
      <trkpt lat="45.29136" lon="4.13724">
        <ele>540.88</ele>
        <time>2011-10-08T09:37:25Z</time>
      </trkpt>
      <trkpt lat="45.29135" lon="4.13717">
        <ele>540.88</ele>
        <time>2011-10-08T09:37:26Z</time>
      </trkpt>
      <trkpt lat="45.29135" lon="4.1371">
        <ele>541.36</ele>
        <time>2011-10-08T09:37:27Z</time>
      </trkpt>
      <trkpt lat="45.29136" lon="4.13703">
        <ele>541.36</ele>
        <time>2011-10-08T09:37:28Z</time>
      </trkpt>
      <trkpt lat="45.29137" lon="4.13695">
        <ele>541.36</ele>
        <time>2011-10-08T09:37:29Z</time>
      </trkpt>
      <trkpt lat="45.29139" lon="4.13689">
        <ele>541.36</ele>
        <time>2011-10-08T09:37:30Z</time>
      </trkpt>
      <trkpt lat="45.29141" lon="4.13682">
        <ele>541.36</ele>
        <time>2011-10-08T09:37:31Z</time>
      </trkpt>
      <trkpt lat="45.29143" lon="4.13676">
        <ele>541.36</ele>
        <time>2011-10-08T09:37:32Z</time>
      </trkpt>
      <trkpt lat="45.29146" lon="4.1367">
        <ele>541.36</ele>
        <time>2011-10-08T09:37:33Z</time>
      </trkpt>
      <trkpt lat="45.29148" lon="4.13664">
        <ele>541.36</ele>
        <time>2011-10-08T09:37:34Z</time>
      </trkpt>
      <trkpt lat="45.2915" lon="4.13658">
        <ele>541.84</ele>
        <time>2011-10-08T09:37:35Z</time>
      </trkpt>
      <trkpt lat="45.29152" lon="4.13651">
        <ele>541.84</ele>
        <time>2011-10-08T09:37:36Z</time>
      </trkpt>
      <trkpt lat="45.29153" lon="4.13645">
        <ele>542.32</ele>
        <time>2011-10-08T09:37:37Z</time>
      </trkpt>
      <trkpt lat="45.29153" lon="4.13638">
        <ele>542.32</ele>
        <time>2011-10-08T09:37:38Z</time>
      </trkpt>
      <trkpt lat="45.29154" lon="4.13632">
        <ele>542.32</ele>
        <time>2011-10-08T09:37:39Z</time>
      </trkpt>
      <trkpt lat="45.29153" lon="4.13626">
        <ele>543.28</ele>
        <time>2011-10-08T09:37:40Z</time>
      </trkpt>
      <trkpt lat="45.29153" lon="4.13619">
        <ele>543.76</ele>
        <time>2011-10-08T09:37:41Z</time>
      </trkpt>
      <trkpt lat="45.29152" lon="4.13614">
        <ele>544.24</ele>
        <time>2011-10-08T09:37:42Z</time>
      </trkpt>
      <trkpt lat="45.2915" lon="4.13608">
        <ele>545.2</ele>
        <time>2011-10-08T09:37:43Z</time>
      </trkpt>
      <trkpt lat="45.2915" lon="4.13602">
        <ele>545.2</ele>
        <time>2011-10-08T09:37:44Z</time>
      </trkpt>
      <trkpt lat="45.29148" lon="4.13582">
        <ele>546.65</ele>
        <time>2011-10-08T09:37:47Z</time>
      </trkpt>
      <trkpt lat="45.29148" lon="4.13575">
        <ele>546.65</ele>
        <time>2011-10-08T09:37:48Z</time>
      </trkpt>
      <trkpt lat="45.29148" lon="4.13569">
        <ele>546.65</ele>
        <time>2011-10-08T09:37:49Z</time>
      </trkpt>
      <trkpt lat="45.29144" lon="4.13516">
        <ele>546.65</ele>
        <time>2011-10-08T09:37:57Z</time>
      </trkpt>
      <trkpt lat="45.29143" lon="4.1351">
        <ele>546.65</ele>
        <time>2011-10-08T09:37:58Z</time>
      </trkpt>
      <trkpt lat="45.29136" lon="4.13472">
        <ele>547.61</ele>
        <time>2011-10-08T09:38:04Z</time>
      </trkpt>
      <trkpt lat="45.29134" lon="4.13461">
        <ele>547.61</ele>
        <time>2011-10-08T09:38:06Z</time>
      </trkpt>
      <trkpt lat="45.29133" lon="4.13455">
        <ele>547.61</ele>
        <time>2011-10-08T09:38:07Z</time>
      </trkpt>
      <trkpt lat="45.29131" lon="4.13451">
        <ele>547.61</ele>
        <time>2011-10-08T09:38:08Z</time>
      </trkpt>
      <trkpt lat="45.29127" lon="4.13447">
        <ele>548.09</ele>
        <time>2011-10-08T09:38:09Z</time>
      </trkpt>
      <trkpt lat="45.29124" lon="4.13445">
        <ele>548.09</ele>
        <time>2011-10-08T09:38:10Z</time>
      </trkpt>
      <trkpt lat="45.2912" lon="4.13444">
        <ele>548.57</ele>
        <time>2011-10-08T09:38:11Z</time>
      </trkpt>
      <trkpt lat="45.29115" lon="4.13445">
        <ele>548.57</ele>
        <time>2011-10-08T09:38:12Z</time>
      </trkpt>
      <trkpt lat="45.29111" lon="4.13445">
        <ele>548.57</ele>
        <time>2011-10-08T09:38:13Z</time>
      </trkpt>
      <trkpt lat="45.29106" lon="4.13446">
        <ele>548.57</ele>
        <time>2011-10-08T09:38:14Z</time>
      </trkpt>
      <trkpt lat="45.29102" lon="4.13446">
        <ele>549.05</ele>
        <time>2011-10-08T09:38:15Z</time>
      </trkpt>
      <trkpt lat="45.29098" lon="4.13448">
        <ele>549.05</ele>
        <time>2011-10-08T09:38:16Z</time>
      </trkpt>
      <trkpt lat="45.29093" lon="4.13449">
        <ele>549.53</ele>
        <time>2011-10-08T09:38:17Z</time>
      </trkpt>
      <trkpt lat="45.29085" lon="4.1345">
        <ele>549.53</ele>
        <time>2011-10-08T09:38:19Z</time>
      </trkpt>
      <trkpt lat="45.2905" lon="4.13458">
        <ele>550.01</ele>
        <time>2011-10-08T09:38:26Z</time>
      </trkpt>
      <trkpt lat="45.29045" lon="4.13459">
        <ele>550.01</ele>
        <time>2011-10-08T09:38:27Z</time>
      </trkpt>
      <trkpt lat="45.28988" lon="4.13469">
        <ele>550.49</ele>
        <time>2011-10-08T09:38:38Z</time>
      </trkpt>
      <trkpt lat="45.28982" lon="4.1347">
        <ele>550.49</ele>
        <time>2011-10-08T09:38:39Z</time>
      </trkpt>
      <trkpt lat="45.28926" lon="4.13481">
        <ele>548.57</ele>
        <time>2011-10-08T09:38:48Z</time>
      </trkpt>
      <trkpt lat="45.2892" lon="4.13484">
        <ele>548.57</ele>
        <time>2011-10-08T09:38:49Z</time>
      </trkpt>
      <trkpt lat="45.28915" lon="4.1349">
        <ele>548.09</ele>
        <time>2011-10-08T09:38:50Z</time>
      </trkpt>
      <trkpt lat="45.28906" lon="4.13503">
        <ele>547.61</ele>
        <time>2011-10-08T09:38:52Z</time>
      </trkpt>
      <trkpt lat="45.28824" lon="4.13577">
        <ele>542.8</ele>
        <time>2011-10-08T09:39:06Z</time>
      </trkpt>
      <trkpt lat="45.28816" lon="4.13581">
        <ele>541.84</ele>
        <time>2011-10-08T09:39:07Z</time>
      </trkpt>
      <trkpt lat="45.28808" lon="4.13584">
        <ele>541.36</ele>
        <time>2011-10-08T09:39:08Z</time>
      </trkpt>
      <trkpt lat="45.28793" lon="4.13589">
        <ele>539.44</ele>
        <time>2011-10-08T09:39:10Z</time>
      </trkpt>
      <trkpt lat="45.28786" lon="4.13593">
        <ele>538.48</ele>
        <time>2011-10-08T09:39:11Z</time>
      </trkpt>
      <trkpt lat="45.28779" lon="4.13598">
        <ele>537.99</ele>
        <time>2011-10-08T09:39:12Z</time>
      </trkpt>
      <trkpt lat="45.28773" lon="4.13605">
        <ele>537.03</ele>
        <time>2011-10-08T09:39:13Z</time>
      </trkpt>
      <trkpt lat="45.28768" lon="4.13612">
        <ele>536.55</ele>
        <time>2011-10-08T09:39:14Z</time>
      </trkpt>
      <trkpt lat="45.28733" lon="4.13651">
        <ele>531.75</ele>
        <time>2011-10-08T09:39:20Z</time>
      </trkpt>
      <trkpt lat="45.28728" lon="4.13654">
        <ele>530.79</ele>
        <time>2011-10-08T09:39:21Z</time>
      </trkpt>
      <trkpt lat="45.28722" lon="4.13655">
        <ele>530.3</ele>
        <time>2011-10-08T09:39:22Z</time>
      </trkpt>
      <trkpt lat="45.28716" lon="4.13657">
        <ele>529.34</ele>
        <time>2011-10-08T09:39:23Z</time>
      </trkpt>
      <trkpt lat="45.2871" lon="4.1366">
        <ele>528.38</ele>
        <time>2011-10-08T09:39:24Z</time>
      </trkpt>
      <trkpt lat="45.287" lon="4.13665">
        <ele>525.98</ele>
        <time>2011-10-08T09:39:26Z</time>
      </trkpt>
      <trkpt lat="45.28696" lon="4.1367">
        <ele>525.02</ele>
        <time>2011-10-08T09:39:27Z</time>
      </trkpt>
      <trkpt lat="45.28692" lon="4.13675">
        <ele>523.58</ele>
        <time>2011-10-08T09:39:28Z</time>
      </trkpt>
      <trkpt lat="45.2869" lon="4.1368">
        <ele>522.13</ele>
        <time>2011-10-08T09:39:29Z</time>
      </trkpt>
      <trkpt lat="45.28688" lon="4.13685">
        <ele>521.17</ele>
        <time>2011-10-08T09:39:30Z</time>
      </trkpt>
      <trkpt lat="45.28686" lon="4.13689">
        <ele>519.73</ele>
        <time>2011-10-08T09:39:31Z</time>
      </trkpt>
      <trkpt lat="45.28675" lon="4.13693">
        <ele>516.85</ele>
        <time>2011-10-08T09:39:34Z</time>
      </trkpt>
      <trkpt lat="45.28665" lon="4.13697">
        <ele>514.92</ele>
        <time>2011-10-08T09:39:36Z</time>
      </trkpt>
      <trkpt lat="45.28652" lon="4.1367">
        <ele>513.48</ele>
        <time>2011-10-08T09:39:44Z</time>
      </trkpt>
      <trkpt lat="45.28649" lon="4.13647">
        <ele>513</ele>
        <time>2011-10-08T09:39:48Z</time>
      </trkpt>
      <trkpt lat="45.28649" lon="4.1364">
        <ele>512.52</ele>
        <time>2011-10-08T09:39:49Z</time>
      </trkpt>
      <trkpt lat="45.2865" lon="4.13633">
        <ele>512.52</ele>
        <time>2011-10-08T09:39:50Z</time>
      </trkpt>
      <trkpt lat="45.2865" lon="4.13625">
        <ele>512.04</ele>
        <time>2011-10-08T09:39:51Z</time>
      </trkpt>
      <trkpt lat="45.28651" lon="4.13617">
        <ele>512.04</ele>
        <time>2011-10-08T09:39:52Z</time>
      </trkpt>
      <trkpt lat="45.28656" lon="4.13588">
        <ele>510.6</ele>
        <time>2011-10-08T09:39:56Z</time>
      </trkpt>
      <trkpt lat="45.28657" lon="4.13583">
        <ele>510.12</ele>
        <time>2011-10-08T09:39:57Z</time>
      </trkpt>
      <trkpt lat="45.28657" lon="4.13578">
        <ele>509.64</ele>
        <time>2011-10-08T09:39:58Z</time>
      </trkpt>
      <trkpt lat="45.28656" lon="4.13573">
        <ele>509.16</ele>
        <time>2011-10-08T09:39:59Z</time>
      </trkpt>
      <trkpt lat="45.28654" lon="4.1357">
        <ele>508.19</ele>
        <time>2011-10-08T09:40:00Z</time>
      </trkpt>
      <trkpt lat="45.2865" lon="4.13568">
        <ele>507.71</ele>
        <time>2011-10-08T09:40:01Z</time>
      </trkpt>
      <trkpt lat="45.28647" lon="4.13566">
        <ele>506.75</ele>
        <time>2011-10-08T09:40:02Z</time>
      </trkpt>
      <trkpt lat="45.28627" lon="4.1354">
        <ele>499.54</ele>
        <time>2011-10-08T09:40:09Z</time>
      </trkpt>
      <trkpt lat="45.28623" lon="4.13539">
        <ele>498.58</ele>
        <time>2011-10-08T09:40:10Z</time>
      </trkpt>
      <trkpt lat="45.2862" lon="4.13539">
        <ele>497.62</ele>
        <time>2011-10-08T09:40:11Z</time>
      </trkpt>
      <trkpt lat="45.28594" lon="4.1353">
        <ele>489.45</ele>
        <time>2011-10-08T09:40:20Z</time>
      </trkpt>
      <trkpt lat="45.28592" lon="4.13525">
        <ele>488.01</ele>
        <time>2011-10-08T09:40:21Z</time>
      </trkpt>
      <trkpt lat="45.28592" lon="4.1352">
        <ele>487.05</ele>
        <time>2011-10-08T09:40:22Z</time>
      </trkpt>
      <trkpt lat="45.28593" lon="4.13515">
        <ele>486.08</ele>
        <time>2011-10-08T09:40:23Z</time>
      </trkpt>
      <trkpt lat="45.28595" lon="4.13508">
        <ele>485.6</ele>
        <time>2011-10-08T09:40:24Z</time>
      </trkpt>
      <trkpt lat="45.28597" lon="4.13501">
        <ele>484.64</ele>
        <time>2011-10-08T09:40:25Z</time>
      </trkpt>
      <trkpt lat="45.28599" lon="4.13496">
        <ele>484.16</ele>
        <time>2011-10-08T09:40:26Z</time>
      </trkpt>
      <trkpt lat="45.28601" lon="4.13492">
        <ele>483.68</ele>
        <time>2011-10-08T09:40:27Z</time>
      </trkpt>
      <trkpt lat="45.28603" lon="4.13488">
        <ele>482.72</ele>
        <time>2011-10-08T09:40:28Z</time>
      </trkpt>
      <trkpt lat="45.28604" lon="4.13483">
        <ele>482.24</ele>
        <time>2011-10-08T09:40:29Z</time>
      </trkpt>
      <trkpt lat="45.2861" lon="4.13446">
        <ele>475.03</ele>
        <time>2011-10-08T09:40:37Z</time>
      </trkpt>
      <trkpt lat="45.28607" lon="4.13443">
        <ele>474.55</ele>
        <time>2011-10-08T09:40:38Z</time>
      </trkpt>
      <trkpt lat="45.28604" lon="4.13438">
        <ele>474.07</ele>
        <time>2011-10-08T09:40:39Z</time>
      </trkpt>
      <trkpt lat="45.28602" lon="4.13432">
        <ele>473.11</ele>
        <time>2011-10-08T09:40:40Z</time>
      </trkpt>
      <trkpt lat="45.286" lon="4.13425">
        <ele>471.66</ele>
        <time>2011-10-08T09:40:41Z</time>
      </trkpt>
      <trkpt lat="45.28598" lon="4.13419">
        <ele>470.7</ele>
        <time>2011-10-08T09:40:42Z</time>
      </trkpt>
      <trkpt lat="45.28597" lon="4.13413">
        <ele>469.74</ele>
        <time>2011-10-08T09:40:43Z</time>
      </trkpt>
      <trkpt lat="45.28596" lon="4.13407">
        <ele>468.78</ele>
        <time>2011-10-08T09:40:44Z</time>
      </trkpt>
      <trkpt lat="45.28597" lon="4.13402">
        <ele>467.82</ele>
        <time>2011-10-08T09:40:45Z</time>
      </trkpt>
      <trkpt lat="45.28599" lon="4.13397">
        <ele>467.82</ele>
        <time>2011-10-08T09:40:46Z</time>
      </trkpt>
      <trkpt lat="45.286" lon="4.13392">
        <ele>467.34</ele>
        <time>2011-10-08T09:40:47Z</time>
      </trkpt>
      <trkpt lat="45.28602" lon="4.13386">
        <ele>467.82</ele>
        <time>2011-10-08T09:40:48Z</time>
      </trkpt>
      <trkpt lat="45.28603" lon="4.13381">
        <ele>467.82</ele>
        <time>2011-10-08T09:40:49Z</time>
      </trkpt>
      <trkpt lat="45.28604" lon="4.13375">
        <ele>467.82</ele>
        <time>2011-10-08T09:40:50Z</time>
      </trkpt>
      <trkpt lat="45.28606" lon="4.13368">
        <ele>467.82</ele>
        <time>2011-10-08T09:40:51Z</time>
      </trkpt>
      <trkpt lat="45.28616" lon="4.13331">
        <ele>467.82</ele>
        <time>2011-10-08T09:40:58Z</time>
      </trkpt>
      <trkpt lat="45.28618" lon="4.13328">
        <ele>468.3</ele>
        <time>2011-10-08T09:40:59Z</time>
      </trkpt>
      <trkpt lat="45.28619" lon="4.13327">
        <ele>468.78</ele>
        <time>2011-10-08T09:41:00Z</time>
      </trkpt>
      <trkpt lat="45.2862" lon="4.13325">
        <ele>469.26</ele>
        <time>2011-10-08T09:41:01Z</time>
      </trkpt>
      <trkpt lat="45.28621" lon="4.13322">
        <ele>469.26</ele>
        <time>2011-10-08T09:41:02Z</time>
      </trkpt>
      <trkpt lat="45.28623" lon="4.1332">
        <ele>469.74</ele>
        <time>2011-10-08T09:41:03Z</time>
      </trkpt>
      <trkpt lat="45.28624" lon="4.13318">
        <ele>469.74</ele>
        <time>2011-10-08T09:41:04Z</time>
      </trkpt>
      <trkpt lat="45.28625" lon="4.13315">
        <ele>470.22</ele>
        <time>2011-10-08T09:41:05Z</time>
      </trkpt>
      <trkpt lat="45.28635" lon="4.13301">
        <ele>475.99</ele>
        <time>2011-10-08T09:41:16Z</time>
      </trkpt>
      <trkpt lat="45.28647" lon="4.13292">
        <ele>481.28</ele>
        <time>2011-10-08T09:41:27Z</time>
      </trkpt>
      <trkpt lat="45.28657" lon="4.13287">
        <ele>483.68</ele>
        <time>2011-10-08T09:41:37Z</time>
      </trkpt>
      <trkpt lat="45.28664" lon="4.13282">
        <ele>484.16</ele>
        <time>2011-10-08T09:41:44Z</time>
      </trkpt>
      <trkpt lat="45.28668" lon="4.13275">
        <ele>485.12</ele>
        <time>2011-10-08T09:41:50Z</time>
      </trkpt>
      <trkpt lat="45.28675" lon="4.13266">
        <ele>490.41</ele>
        <time>2011-10-08T09:42:03Z</time>
      </trkpt>
      <trkpt lat="45.28676" lon="4.13264">
        <ele>491.85</ele>
        <time>2011-10-08T09:42:05Z</time>
      </trkpt>
      <trkpt lat="45.28681" lon="4.1326">
        <ele>493.77</ele>
        <time>2011-10-08T09:42:17Z</time>
      </trkpt>
      <trkpt lat="45.2869" lon="4.13253">
        <ele>496.18</ele>
        <time>2011-10-08T09:42:26Z</time>
      </trkpt>
      <trkpt lat="45.28691" lon="4.13253">
        <ele>496.66</ele>
        <time>2011-10-08T09:42:27Z</time>
      </trkpt>
      <trkpt lat="45.28692" lon="4.13252">
        <ele>496.66</ele>
        <time>2011-10-08T09:42:28Z</time>
      </trkpt>
      <trkpt lat="45.28693" lon="4.1325">
        <ele>496.66</ele>
        <time>2011-10-08T09:42:29Z</time>
      </trkpt>
      <trkpt lat="45.28694" lon="4.13249">
        <ele>496.66</ele>
        <time>2011-10-08T09:42:30Z</time>
      </trkpt>
      <trkpt lat="45.28695" lon="4.13248">
        <ele>496.66</ele>
        <time>2011-10-08T09:42:31Z</time>
      </trkpt>
      <trkpt lat="45.28696" lon="4.13247">
        <ele>496.66</ele>
        <time>2011-10-08T09:42:32Z</time>
      </trkpt>
      <trkpt lat="45.28697" lon="4.13246">
        <ele>497.14</ele>
        <time>2011-10-08T09:42:33Z</time>
      </trkpt>
      <trkpt lat="45.28699" lon="4.13242">
        <ele>497.62</ele>
        <time>2011-10-08T09:42:36Z</time>
      </trkpt>
      <trkpt lat="45.287" lon="4.1324">
        <ele>497.62</ele>
        <time>2011-10-08T09:42:37Z</time>
      </trkpt>
      <trkpt lat="45.28701" lon="4.13239">
        <ele>497.62</ele>
        <time>2011-10-08T09:42:38Z</time>
      </trkpt>
      <trkpt lat="45.28702" lon="4.13238">
        <ele>498.1</ele>
        <time>2011-10-08T09:42:39Z</time>
      </trkpt>
      <trkpt lat="45.28702" lon="4.13236">
        <ele>498.58</ele>
        <time>2011-10-08T09:42:40Z</time>
      </trkpt>
      <trkpt lat="45.28703" lon="4.13235">
        <ele>498.58</ele>
        <time>2011-10-08T09:42:41Z</time>
      </trkpt>
      <trkpt lat="45.28704" lon="4.13233">
        <ele>498.58</ele>
        <time>2011-10-08T09:42:42Z</time>
      </trkpt>
      <trkpt lat="45.28705" lon="4.13232">
        <ele>498.58</ele>
        <time>2011-10-08T09:42:43Z</time>
      </trkpt>
      <trkpt lat="45.28714" lon="4.13214">
        <ele>500.98</ele>
        <time>2011-10-08T09:42:55Z</time>
      </trkpt>
      <trkpt lat="45.28715" lon="4.13213">
        <ele>500.98</ele>
        <time>2011-10-08T09:42:56Z</time>
      </trkpt>
      <trkpt lat="45.28716" lon="4.13211">
        <ele>501.46</ele>
        <time>2011-10-08T09:42:57Z</time>
      </trkpt>
      <trkpt lat="45.28717" lon="4.1321">
        <ele>501.95</ele>
        <time>2011-10-08T09:42:58Z</time>
      </trkpt>
      <trkpt lat="45.28718" lon="4.13208">
        <ele>502.43</ele>
        <time>2011-10-08T09:42:59Z</time>
      </trkpt>
      <trkpt lat="45.28719" lon="4.13207">
        <ele>502.91</ele>
        <time>2011-10-08T09:43:00Z</time>
      </trkpt>
      <trkpt lat="45.2872" lon="4.13205">
        <ele>502.91</ele>
        <time>2011-10-08T09:43:01Z</time>
      </trkpt>
      <trkpt lat="45.28731" lon="4.13197">
        <ele>507.23</ele>
        <time>2011-10-08T09:43:14Z</time>
      </trkpt>
      <trkpt lat="45.28739" lon="4.13193">
        <ele>509.16</ele>
        <time>2011-10-08T09:43:23Z</time>
      </trkpt>
      <trkpt lat="45.2874" lon="4.13193">
        <ele>509.64</ele>
        <time>2011-10-08T09:43:24Z</time>
      </trkpt>
      <trkpt lat="45.28746" lon="4.13186">
        <ele>510.12</ele>
        <time>2011-10-08T09:43:31Z</time>
      </trkpt>
      <trkpt lat="45.28745" lon="4.13179">
        <ele>507.71</ele>
        <time>2011-10-08T09:43:36Z</time>
      </trkpt>
      <trkpt lat="45.28744" lon="4.13175">
        <ele>506.27</ele>
        <time>2011-10-08T09:43:38Z</time>
      </trkpt>
      <trkpt lat="45.28743" lon="4.13172">
        <ele>504.83</ele>
        <time>2011-10-08T09:43:40Z</time>
      </trkpt>
      <trkpt lat="45.2876" lon="4.13144">
        <ele>501.95</ele>
        <time>2011-10-08T09:43:50Z</time>
      </trkpt>
      <trkpt lat="45.28778" lon="4.13119">
        <ele>501.46</ele>
        <time>2011-10-08T09:44:00Z</time>
      </trkpt>
      <trkpt lat="45.2881" lon="4.13088">
        <ele>497.14</ele>
        <time>2011-10-08T09:44:11Z</time>
      </trkpt>
      <trkpt lat="45.28817" lon="4.13084">
        <ele>495.22</ele>
        <time>2011-10-08T09:44:13Z</time>
      </trkpt>
      <trkpt lat="45.28821" lon="4.13081">
        <ele>494.26</ele>
        <time>2011-10-08T09:44:14Z</time>
      </trkpt>
      <trkpt lat="45.28839" lon="4.13064">
        <ele>488.49</ele>
        <time>2011-10-08T09:44:22Z</time>
      </trkpt>
      <trkpt lat="45.28841" lon="4.13063">
        <ele>488.49</ele>
        <time>2011-10-08T09:44:23Z</time>
      </trkpt>
      <trkpt lat="45.28843" lon="4.13063">
        <ele>488.49</ele>
        <time>2011-10-08T09:44:24Z</time>
      </trkpt>
      <trkpt lat="45.28844" lon="4.13061">
        <ele>488.49</ele>
        <time>2011-10-08T09:44:25Z</time>
      </trkpt>
      <trkpt lat="45.28846" lon="4.13059">
        <ele>488.97</ele>
        <time>2011-10-08T09:44:26Z</time>
      </trkpt>
      <trkpt lat="45.2885" lon="4.13055">
        <ele>489.45</ele>
        <time>2011-10-08T09:44:27Z</time>
      </trkpt>
      <trkpt lat="45.28853" lon="4.1305">
        <ele>489.45</ele>
        <time>2011-10-08T09:44:28Z</time>
      </trkpt>
      <trkpt lat="45.28878" lon="4.13022">
        <ele>489.93</ele>
        <time>2011-10-08T09:44:37Z</time>
      </trkpt>
      <trkpt lat="45.28881" lon="4.13021">
        <ele>489.93</ele>
        <time>2011-10-08T09:44:38Z</time>
      </trkpt>
      <trkpt lat="45.28901" lon="4.13008">
        <ele>487.05</ele>
        <time>2011-10-08T09:44:49Z</time>
      </trkpt>
      <trkpt lat="45.2891" lon="4.13004">
        <ele>483.68</ele>
        <time>2011-10-08T09:44:55Z</time>
      </trkpt>
      <trkpt lat="45.28912" lon="4.12999">
        <ele>483.68</ele>
        <time>2011-10-08T09:44:56Z</time>
      </trkpt>
      <trkpt lat="45.28928" lon="4.12961">
        <ele>481.28</ele>
        <time>2011-10-08T09:45:05Z</time>
      </trkpt>
      <trkpt lat="45.28954" lon="4.12919">
        <ele>478.87</ele>
        <time>2011-10-08T09:45:16Z</time>
      </trkpt>
      <trkpt lat="45.28962" lon="4.12909">
        <ele>478.39</ele>
        <time>2011-10-08T09:45:19Z</time>
      </trkpt>
      <trkpt lat="45.28965" lon="4.12907">
        <ele>477.91</ele>
        <time>2011-10-08T09:45:20Z</time>
      </trkpt>
      <trkpt lat="45.28991" lon="4.12885">
        <ele>477.91</ele>
        <time>2011-10-08T09:45:29Z</time>
      </trkpt>
      <trkpt lat="45.28996" lon="4.1288">
        <ele>478.87</ele>
        <time>2011-10-08T09:45:33Z</time>
      </trkpt>
      <trkpt lat="45.28996" lon="4.12877">
        <ele>478.87</ele>
        <time>2011-10-08T09:45:34Z</time>
      </trkpt>
      <trkpt lat="45.28996" lon="4.12875">
        <ele>478.87</ele>
        <time>2011-10-08T09:45:35Z</time>
      </trkpt>
      <trkpt lat="45.28994" lon="4.12872">
        <ele>478.39</ele>
        <time>2011-10-08T09:45:36Z</time>
      </trkpt>
      <trkpt lat="45.28992" lon="4.1287">
        <ele>477.91</ele>
        <time>2011-10-08T09:45:37Z</time>
      </trkpt>
      <trkpt lat="45.2898" lon="4.12852">
        <ele>475.03</ele>
        <time>2011-10-08T09:45:42Z</time>
      </trkpt>
      <trkpt lat="45.28977" lon="4.12849">
        <ele>474.07</ele>
        <time>2011-10-08T09:45:43Z</time>
      </trkpt>
      <trkpt lat="45.28975" lon="4.12844">
        <ele>473.59</ele>
        <time>2011-10-08T09:45:44Z</time>
      </trkpt>
      <trkpt lat="45.28973" lon="4.12839">
        <ele>473.11</ele>
        <time>2011-10-08T09:45:45Z</time>
      </trkpt>
      <trkpt lat="45.2897" lon="4.12834">
        <ele>473.11</ele>
        <time>2011-10-08T09:45:46Z</time>
      </trkpt>
      <trkpt lat="45.28968" lon="4.12829">
        <ele>473.11</ele>
        <time>2011-10-08T09:45:47Z</time>
      </trkpt>
      <trkpt lat="45.28967" lon="4.12823">
        <ele>472.63</ele>
        <time>2011-10-08T09:45:48Z</time>
      </trkpt>
      <trkpt lat="45.28967" lon="4.12817">
        <ele>472.63</ele>
        <time>2011-10-08T09:45:49Z</time>
      </trkpt>
      <trkpt lat="45.28967" lon="4.12811">
        <ele>472.14</ele>
        <time>2011-10-08T09:45:50Z</time>
      </trkpt>
      <trkpt lat="45.28969" lon="4.12806">
        <ele>472.14</ele>
        <time>2011-10-08T09:45:51Z</time>
      </trkpt>
      <trkpt lat="45.28986" lon="4.12773">
        <ele>467.34</ele>
        <time>2011-10-08T09:46:00Z</time>
      </trkpt>
      <trkpt lat="45.28988" lon="4.12769">
        <ele>466.86</ele>
        <time>2011-10-08T09:46:01Z</time>
      </trkpt>
      <trkpt lat="45.28989" lon="4.12763">
        <ele>466.38</ele>
        <time>2011-10-08T09:46:02Z</time>
      </trkpt>
      <trkpt lat="45.28991" lon="4.12758">
        <ele>465.9</ele>
        <time>2011-10-08T09:46:03Z</time>
      </trkpt>
      <trkpt lat="45.28993" lon="4.12753">
        <ele>465.42</ele>
        <time>2011-10-08T09:46:04Z</time>
      </trkpt>
      <trkpt lat="45.28994" lon="4.12749">
        <ele>464.93</ele>
        <time>2011-10-08T09:46:05Z</time>
      </trkpt>
      <trkpt lat="45.29003" lon="4.12715">
        <ele>462.05</ele>
        <time>2011-10-08T09:46:12Z</time>
      </trkpt>
      <trkpt lat="45.29002" lon="4.127">
        <ele>462.05</ele>
        <time>2011-10-08T09:46:14Z</time>
      </trkpt>
      <trkpt lat="45.29003" lon="4.1264">
        <ele>464.93</ele>
        <time>2011-10-08T09:46:25Z</time>
      </trkpt>
      <trkpt lat="45.29005" lon="4.12635">
        <ele>464.93</ele>
        <time>2011-10-08T09:46:26Z</time>
      </trkpt>
      <trkpt lat="45.29016" lon="4.12617">
        <ele>464.93</ele>
        <time>2011-10-08T09:46:30Z</time>
      </trkpt>
      <trkpt lat="45.2902" lon="4.12614">
        <ele>465.42</ele>
        <time>2011-10-08T09:46:31Z</time>
      </trkpt>
      <trkpt lat="45.29023" lon="4.12611">
        <ele>465.42</ele>
        <time>2011-10-08T09:46:32Z</time>
      </trkpt>
      <trkpt lat="45.29025" lon="4.12609">
        <ele>465.9</ele>
        <time>2011-10-08T09:46:33Z</time>
      </trkpt>
      <trkpt lat="45.29027" lon="4.12607">
        <ele>466.86</ele>
        <time>2011-10-08T09:46:34Z</time>
      </trkpt>
      <trkpt lat="45.29029" lon="4.12605">
        <ele>467.34</ele>
        <time>2011-10-08T09:46:35Z</time>
      </trkpt>
      <trkpt lat="45.29061" lon="4.12574">
        <ele>466.38</ele>
        <time>2011-10-08T09:46:46Z</time>
      </trkpt>
      <trkpt lat="45.29082" lon="4.12535">
        <ele>462.05</ele>
        <time>2011-10-08T09:46:55Z</time>
      </trkpt>
      <trkpt lat="45.29085" lon="4.12533">
        <ele>462.05</ele>
        <time>2011-10-08T09:46:56Z</time>
      </trkpt>
      <trkpt lat="45.29111" lon="4.1252">
        <ele>462.53</ele>
        <time>2011-10-08T09:47:08Z</time>
      </trkpt>
      <trkpt lat="45.29123" lon="4.12506">
        <ele>462.53</ele>
        <time>2011-10-08T09:47:12Z</time>
      </trkpt>
      <trkpt lat="45.29179" lon="4.12456">
        <ele>462.05</ele>
        <time>2011-10-08T09:47:27Z</time>
      </trkpt>
      <trkpt lat="45.292" lon="4.12449">
        <ele>462.05</ele>
        <time>2011-10-08T09:47:31Z</time>
      </trkpt>
      <trkpt lat="45.29209" lon="4.12442">
        <ele>462.53</ele>
        <time>2011-10-08T09:47:33Z</time>
      </trkpt>
      <trkpt lat="45.29214" lon="4.12439">
        <ele>462.53</ele>
        <time>2011-10-08T09:47:34Z</time>
      </trkpt>
      <trkpt lat="45.29273" lon="4.12378">
        <ele>461.57</ele>
        <time>2011-10-08T09:47:48Z</time>
      </trkpt>
      <trkpt lat="45.29302" lon="4.12358">
        <ele>462.05</ele>
        <time>2011-10-08T09:47:54Z</time>
      </trkpt>
      <trkpt lat="45.29374" lon="4.12327">
        <ele>463.01</ele>
        <time>2011-10-08T09:48:09Z</time>
      </trkpt>
      <trkpt lat="45.29379" lon="4.12325">
        <ele>463.49</ele>
        <time>2011-10-08T09:48:10Z</time>
      </trkpt>
      <trkpt lat="45.29393" lon="4.12322">
        <ele>464.45</ele>
        <time>2011-10-08T09:48:13Z</time>
      </trkpt>
      <trkpt lat="45.29398" lon="4.12322">
        <ele>464.45</ele>
        <time>2011-10-08T09:48:14Z</time>
      </trkpt>
      <trkpt lat="45.29422" lon="4.12318">
        <ele>466.38</ele>
        <time>2011-10-08T09:48:20Z</time>
      </trkpt>
      <trkpt lat="45.29426" lon="4.12316">
        <ele>466.38</ele>
        <time>2011-10-08T09:48:21Z</time>
      </trkpt>
      <trkpt lat="45.2943" lon="4.12314">
        <ele>466.86</ele>
        <time>2011-10-08T09:48:22Z</time>
      </trkpt>
      <trkpt lat="45.29434" lon="4.12312">
        <ele>466.86</ele>
        <time>2011-10-08T09:48:23Z</time>
      </trkpt>
      <trkpt lat="45.29438" lon="4.12311">
        <ele>467.34</ele>
        <time>2011-10-08T09:48:24Z</time>
      </trkpt>
      <trkpt lat="45.29474" lon="4.1229">
        <ele>466.38</ele>
        <time>2011-10-08T09:48:35Z</time>
      </trkpt>
      <trkpt lat="45.29475" lon="4.12287">
        <ele>466.86</ele>
        <time>2011-10-08T09:48:36Z</time>
      </trkpt>
      <trkpt lat="45.29476" lon="4.12282">
        <ele>466.86</ele>
        <time>2011-10-08T09:48:37Z</time>
      </trkpt>
      <trkpt lat="45.29479" lon="4.12197">
        <ele>462.53</ele>
        <time>2011-10-08T09:48:47Z</time>
      </trkpt>
      <trkpt lat="45.29481" lon="4.1206">
        <ele>456.76</ele>
        <time>2011-10-08T09:48:58Z</time>
      </trkpt>
      <trkpt lat="45.29482" lon="4.12041">
        <ele>456.28</ele>
        <time>2011-10-08T09:49:00Z</time>
      </trkpt>
      <trkpt lat="45.29482" lon="4.12033">
        <ele>455.8</ele>
        <time>2011-10-08T09:49:01Z</time>
      </trkpt>
      <trkpt lat="45.29482" lon="4.12025">
        <ele>455.8</ele>
        <time>2011-10-08T09:49:02Z</time>
      </trkpt>
      <trkpt lat="45.29483" lon="4.12018">
        <ele>455.8</ele>
        <time>2011-10-08T09:49:03Z</time>
      </trkpt>
      <trkpt lat="45.29484" lon="4.1201">
        <ele>455.32</ele>
        <time>2011-10-08T09:49:04Z</time>
      </trkpt>
      <trkpt lat="45.29484" lon="4.12003">
        <ele>454.84</ele>
        <time>2011-10-08T09:49:05Z</time>
      </trkpt>
      <trkpt lat="45.29485" lon="4.11981">
        <ele>454.36</ele>
        <time>2011-10-08T09:49:08Z</time>
      </trkpt>
      <trkpt lat="45.29489" lon="4.11966">
        <ele>453.4</ele>
        <time>2011-10-08T09:49:10Z</time>
      </trkpt>
      <trkpt lat="45.29492" lon="4.11958">
        <ele>452.92</ele>
        <time>2011-10-08T09:49:11Z</time>
      </trkpt>
      <trkpt lat="45.29497" lon="4.1195">
        <ele>452.44</ele>
        <time>2011-10-08T09:49:12Z</time>
      </trkpt>
      <trkpt lat="45.29502" lon="4.11944">
        <ele>451.96</ele>
        <time>2011-10-08T09:49:13Z</time>
      </trkpt>
      <trkpt lat="45.29509" lon="4.11941">
        <ele>451.48</ele>
        <time>2011-10-08T09:49:14Z</time>
      </trkpt>
      <trkpt lat="45.29515" lon="4.1194">
        <ele>451</ele>
        <time>2011-10-08T09:49:15Z</time>
      </trkpt>
      <trkpt lat="45.29522" lon="4.11939">
        <ele>451</ele>
        <time>2011-10-08T09:49:16Z</time>
      </trkpt>
      <trkpt lat="45.29528" lon="4.11939">
        <ele>450.52</ele>
        <time>2011-10-08T09:49:17Z</time>
      </trkpt>
      <trkpt lat="45.29534" lon="4.1194">
        <ele>450.52</ele>
        <time>2011-10-08T09:49:18Z</time>
      </trkpt>
      <trkpt lat="45.29539" lon="4.11942">
        <ele>450.52</ele>
        <time>2011-10-08T09:49:19Z</time>
      </trkpt>
      <trkpt lat="45.29544" lon="4.11942">
        <ele>450.52</ele>
        <time>2011-10-08T09:49:20Z</time>
      </trkpt>
      <trkpt lat="45.29548" lon="4.11941">
        <ele>451</ele>
        <time>2011-10-08T09:49:21Z</time>
      </trkpt>
      <trkpt lat="45.29553" lon="4.11941">
        <ele>451</ele>
        <time>2011-10-08T09:49:22Z</time>
      </trkpt>
      <trkpt lat="45.29581" lon="4.1194">
        <ele>452.44</ele>
        <time>2011-10-08T09:49:31Z</time>
      </trkpt>
      <trkpt lat="45.29582" lon="4.11937">
        <ele>451.96</ele>
        <time>2011-10-08T09:49:32Z</time>
      </trkpt>
      <trkpt lat="45.29582" lon="4.11933">
        <ele>451.48</ele>
        <time>2011-10-08T09:49:33Z</time>
      </trkpt>
      <trkpt lat="45.29584" lon="4.11928">
        <ele>451</ele>
        <time>2011-10-08T09:49:34Z</time>
      </trkpt>
      <trkpt lat="45.29585" lon="4.11922">
        <ele>450.52</ele>
        <time>2011-10-08T09:49:35Z</time>
      </trkpt>
      <trkpt lat="45.29586" lon="4.11917">
        <ele>450.03</ele>
        <time>2011-10-08T09:49:36Z</time>
      </trkpt>
      <trkpt lat="45.29587" lon="4.11912">
        <ele>449.55</ele>
        <time>2011-10-08T09:49:37Z</time>
      </trkpt>
      <trkpt lat="45.29588" lon="4.11909">
        <ele>449.07</ele>
        <time>2011-10-08T09:49:38Z</time>
      </trkpt>
      <trkpt lat="45.29589" lon="4.11905">
        <ele>448.59</ele>
        <time>2011-10-08T09:49:39Z</time>
      </trkpt>
      <trkpt lat="45.29592" lon="4.11904">
        <ele>448.11</ele>
        <time>2011-10-08T09:49:40Z</time>
      </trkpt>
      <trkpt lat="45.29596" lon="4.11906">
        <ele>447.63</ele>
        <time>2011-10-08T09:49:41Z</time>
      </trkpt>
      <trkpt lat="45.296" lon="4.11906">
        <ele>447.63</ele>
        <time>2011-10-08T09:49:42Z</time>
      </trkpt>
      <trkpt lat="45.29649" lon="4.11898">
        <ele>449.07</ele>
        <time>2011-10-08T09:49:55Z</time>
      </trkpt>
      <trkpt lat="45.29684" lon="4.11918">
        <ele>451.96</ele>
        <time>2011-10-08T09:50:05Z</time>
      </trkpt>
      <trkpt lat="45.2972" lon="4.11922">
        <ele>454.36</ele>
        <time>2011-10-08T09:50:16Z</time>
      </trkpt>
      <trkpt lat="45.29724" lon="4.1192">
        <ele>454.36</ele>
        <time>2011-10-08T09:50:17Z</time>
      </trkpt>
      <trkpt lat="45.29777" lon="4.11899">
        <ele>451.96</ele>
        <time>2011-10-08T09:50:29Z</time>
      </trkpt>
      <trkpt lat="45.29817" lon="4.11894">
        <ele>451.96</ele>
        <time>2011-10-08T09:50:38Z</time>
      </trkpt>
      <trkpt lat="45.29822" lon="4.11892">
        <ele>451.96</ele>
        <time>2011-10-08T09:50:39Z</time>
      </trkpt>
      <trkpt lat="45.29826" lon="4.1189">
        <ele>451.96</ele>
        <time>2011-10-08T09:50:40Z</time>
      </trkpt>
      <trkpt lat="45.29835" lon="4.11888">
        <ele>452.44</ele>
        <time>2011-10-08T09:50:42Z</time>
      </trkpt>
      <trkpt lat="45.2984" lon="4.11888">
        <ele>452.44</ele>
        <time>2011-10-08T09:50:43Z</time>
      </trkpt>
      <trkpt lat="45.29844" lon="4.11888">
        <ele>451.96</ele>
        <time>2011-10-08T09:50:44Z</time>
      </trkpt>
      <trkpt lat="45.29849" lon="4.11889">
        <ele>451.96</ele>
        <time>2011-10-08T09:50:45Z</time>
      </trkpt>
      <trkpt lat="45.29855" lon="4.11889">
        <ele>451.48</ele>
        <time>2011-10-08T09:50:46Z</time>
      </trkpt>
      <trkpt lat="45.29875" lon="4.11889">
        <ele>451</ele>
        <time>2011-10-08T09:50:50Z</time>
      </trkpt>
      <trkpt lat="45.29902" lon="4.11889">
        <ele>451.96</ele>
        <time>2011-10-08T09:50:55Z</time>
      </trkpt>
      <trkpt lat="45.29926" lon="4.11886">
        <ele>451</ele>
        <time>2011-10-08T09:51:00Z</time>
      </trkpt>
      <trkpt lat="45.29946" lon="4.11888">
        <ele>451</ele>
        <time>2011-10-08T09:51:04Z</time>
      </trkpt>
      <trkpt lat="45.29966" lon="4.11882">
        <ele>450.52</ele>
        <time>2011-10-08T09:51:08Z</time>
      </trkpt>
      <trkpt lat="45.29975" lon="4.11882">
        <ele>450.52</ele>
        <time>2011-10-08T09:51:10Z</time>
      </trkpt>
      <trkpt lat="45.2998" lon="4.11882">
        <ele>450.52</ele>
        <time>2011-10-08T09:51:11Z</time>
      </trkpt>
      <trkpt lat="45.2999" lon="4.11882">
        <ele>450.52</ele>
        <time>2011-10-08T09:51:13Z</time>
      </trkpt>
      <trkpt lat="45.29995" lon="4.11883">
        <ele>451</ele>
        <time>2011-10-08T09:51:14Z</time>
      </trkpt>
      <trkpt lat="45.3" lon="4.11885">
        <ele>451</ele>
        <time>2011-10-08T09:51:15Z</time>
      </trkpt>
      <trkpt lat="45.30005" lon="4.11887">
        <ele>451</ele>
        <time>2011-10-08T09:51:16Z</time>
      </trkpt>
      <trkpt lat="45.3001" lon="4.11888">
        <ele>450.52</ele>
        <time>2011-10-08T09:51:17Z</time>
      </trkpt>
      <trkpt lat="45.30015" lon="4.1189">
        <ele>450.52</ele>
        <time>2011-10-08T09:51:18Z</time>
      </trkpt>
      <trkpt lat="45.30019" lon="4.11892">
        <ele>450.52</ele>
        <time>2011-10-08T09:51:19Z</time>
      </trkpt>
      <trkpt lat="45.30023" lon="4.11895">
        <ele>451</ele>
        <time>2011-10-08T09:51:20Z</time>
      </trkpt>
      <trkpt lat="45.30028" lon="4.11899">
        <ele>451</ele>
        <time>2011-10-08T09:51:21Z</time>
      </trkpt>
      <trkpt lat="45.30032" lon="4.11902">
        <ele>451</ele>
        <time>2011-10-08T09:51:22Z</time>
      </trkpt>
      <trkpt lat="45.30089" lon="4.11946">
        <ele>453.4</ele>
        <time>2011-10-08T09:51:36Z</time>
      </trkpt>
      <trkpt lat="45.30092" lon="4.11949">
        <ele>453.88</ele>
        <time>2011-10-08T09:51:37Z</time>
      </trkpt>
      <trkpt lat="45.30097" lon="4.11951">
        <ele>453.88</ele>
        <time>2011-10-08T09:51:38Z</time>
      </trkpt>
      <trkpt lat="45.30104" lon="4.11957">
        <ele>453.88</ele>
        <time>2011-10-08T09:51:40Z</time>
      </trkpt>
      <trkpt lat="45.30155" lon="4.11999">
        <ele>454.36</ele>
        <time>2011-10-08T09:51:53Z</time>
      </trkpt>
      <trkpt lat="45.30168" lon="4.12017">
        <ele>454.36</ele>
        <time>2011-10-08T09:51:57Z</time>
      </trkpt>
      <trkpt lat="45.30176" lon="4.12025">
        <ele>454.84</ele>
        <time>2011-10-08T09:51:59Z</time>
      </trkpt>
      <trkpt lat="45.30199" lon="4.12052">
        <ele>454.36</ele>
        <time>2011-10-08T09:52:05Z</time>
      </trkpt>
      <trkpt lat="45.30203" lon="4.12057">
        <ele>454.84</ele>
        <time>2011-10-08T09:52:06Z</time>
      </trkpt>
      <trkpt lat="45.30206" lon="4.12061">
        <ele>454.84</ele>
        <time>2011-10-08T09:52:07Z</time>
      </trkpt>
      <trkpt lat="45.30217" lon="4.12073">
        <ele>455.32</ele>
        <time>2011-10-08T09:52:10Z</time>
      </trkpt>
      <trkpt lat="45.30225" lon="4.1208">
        <ele>455.32</ele>
        <time>2011-10-08T09:52:12Z</time>
      </trkpt>
      <trkpt lat="45.30228" lon="4.12085">
        <ele>454.84</ele>
        <time>2011-10-08T09:52:13Z</time>
      </trkpt>
      <trkpt lat="45.30232" lon="4.12089">
        <ele>455.32</ele>
        <time>2011-10-08T09:52:14Z</time>
      </trkpt>
      <trkpt lat="45.30243" lon="4.121">
        <ele>454.84</ele>
        <time>2011-10-08T09:52:17Z</time>
      </trkpt>
      <trkpt lat="45.30247" lon="4.12103">
        <ele>454.36</ele>
        <time>2011-10-08T09:52:18Z</time>
      </trkpt>
      <trkpt lat="45.30251" lon="4.12105">
        <ele>454.84</ele>
        <time>2011-10-08T09:52:19Z</time>
      </trkpt>
      <trkpt lat="45.30255" lon="4.12107">
        <ele>455.32</ele>
        <time>2011-10-08T09:52:20Z</time>
      </trkpt>
      <trkpt lat="45.3026" lon="4.12108">
        <ele>454.84</ele>
        <time>2011-10-08T09:52:21Z</time>
      </trkpt>
      <trkpt lat="45.30307" lon="4.12128">
        <ele>455.8</ele>
        <time>2011-10-08T09:52:32Z</time>
      </trkpt>
      <trkpt lat="45.30311" lon="4.12128">
        <ele>455.8</ele>
        <time>2011-10-08T09:52:33Z</time>
      </trkpt>
      <trkpt lat="45.30318" lon="4.12125">
        <ele>455.8</ele>
        <time>2011-10-08T09:52:35Z</time>
      </trkpt>
      <trkpt lat="45.30319" lon="4.12123">
        <ele>455.32</ele>
        <time>2011-10-08T09:52:36Z</time>
      </trkpt>
      <trkpt lat="45.30321" lon="4.12119">
        <ele>454.84</ele>
        <time>2011-10-08T09:52:37Z</time>
      </trkpt>
      <trkpt lat="45.30321" lon="4.12115">
        <ele>454.36</ele>
        <time>2011-10-08T09:52:38Z</time>
      </trkpt>
      <trkpt lat="45.30322" lon="4.12111">
        <ele>454.36</ele>
        <time>2011-10-08T09:52:39Z</time>
      </trkpt>
      <trkpt lat="45.30323" lon="4.12107">
        <ele>454.36</ele>
        <time>2011-10-08T09:52:40Z</time>
      </trkpt>
      <trkpt lat="45.30325" lon="4.12102">
        <ele>453.88</ele>
        <time>2011-10-08T09:52:41Z</time>
      </trkpt>
      <trkpt lat="45.30327" lon="4.12097">
        <ele>453.88</ele>
        <time>2011-10-08T09:52:42Z</time>
      </trkpt>
      <trkpt lat="45.3033" lon="4.12092">
        <ele>453.4</ele>
        <time>2011-10-08T09:52:43Z</time>
      </trkpt>
      <trkpt lat="45.3034" lon="4.12077">
        <ele>451.48</ele>
        <time>2011-10-08T09:52:46Z</time>
      </trkpt>
      <trkpt lat="45.3035" lon="4.12066">
        <ele>449.07</ele>
        <time>2011-10-08T09:52:48Z</time>
      </trkpt>
      <trkpt lat="45.30364" lon="4.12049">
        <ele>445.71</ele>
        <time>2011-10-08T09:52:51Z</time>
      </trkpt>
      <trkpt lat="45.30369" lon="4.12045">
        <ele>444.75</ele>
        <time>2011-10-08T09:52:52Z</time>
      </trkpt>
      <trkpt lat="45.30373" lon="4.12042">
        <ele>443.79</ele>
        <time>2011-10-08T09:52:53Z</time>
      </trkpt>
      <trkpt lat="45.30378" lon="4.12042">
        <ele>442.82</ele>
        <time>2011-10-08T09:52:54Z</time>
      </trkpt>
      <trkpt lat="45.30383" lon="4.12043">
        <ele>441.86</ele>
        <time>2011-10-08T09:52:55Z</time>
      </trkpt>
      <trkpt lat="45.30423" lon="4.12056">
        <ele>441.38</ele>
        <time>2011-10-08T09:53:03Z</time>
      </trkpt>
      <trkpt lat="45.30433" lon="4.12057">
        <ele>441.38</ele>
        <time>2011-10-08T09:53:05Z</time>
      </trkpt>
      <trkpt lat="45.30448" lon="4.12057">
        <ele>441.86</ele>
        <time>2011-10-08T09:53:08Z</time>
      </trkpt>
      <trkpt lat="45.30453" lon="4.12059">
        <ele>442.34</ele>
        <time>2011-10-08T09:53:09Z</time>
      </trkpt>
      <trkpt lat="45.30458" lon="4.12061">
        <ele>442.34</ele>
        <time>2011-10-08T09:53:10Z</time>
      </trkpt>
      <trkpt lat="45.30468" lon="4.12066">
        <ele>442.82</ele>
        <time>2011-10-08T09:53:12Z</time>
      </trkpt>
      <trkpt lat="45.30473" lon="4.12068">
        <ele>442.34</ele>
        <time>2011-10-08T09:53:13Z</time>
      </trkpt>
      <trkpt lat="45.30488" lon="4.12072">
        <ele>442.34</ele>
        <time>2011-10-08T09:53:16Z</time>
      </trkpt>
      <trkpt lat="45.30493" lon="4.12074">
        <ele>441.86</ele>
        <time>2011-10-08T09:53:17Z</time>
      </trkpt>
      <trkpt lat="45.30502" lon="4.12079">
        <ele>442.34</ele>
        <time>2011-10-08T09:53:19Z</time>
      </trkpt>
      <trkpt lat="45.30506" lon="4.12081">
        <ele>442.34</ele>
        <time>2011-10-08T09:53:20Z</time>
      </trkpt>
      <trkpt lat="45.3051" lon="4.12084">
        <ele>442.82</ele>
        <time>2011-10-08T09:53:21Z</time>
      </trkpt>
      <trkpt lat="45.30515" lon="4.12086">
        <ele>442.82</ele>
        <time>2011-10-08T09:53:22Z</time>
      </trkpt>
      <trkpt lat="45.30519" lon="4.12089">
        <ele>443.31</ele>
        <time>2011-10-08T09:53:23Z</time>
      </trkpt>
      <trkpt lat="45.30523" lon="4.12092">
        <ele>443.31</ele>
        <time>2011-10-08T09:53:24Z</time>
      </trkpt>
      <trkpt lat="45.30527" lon="4.12094">
        <ele>443.31</ele>
        <time>2011-10-08T09:53:25Z</time>
      </trkpt>
      <trkpt lat="45.30531" lon="4.12095">
        <ele>443.31</ele>
        <time>2011-10-08T09:53:26Z</time>
      </trkpt>
      <trkpt lat="45.30536" lon="4.12096">
        <ele>443.31</ele>
        <time>2011-10-08T09:53:27Z</time>
      </trkpt>
      <trkpt lat="45.3054" lon="4.12098">
        <ele>443.79</ele>
        <time>2011-10-08T09:53:28Z</time>
      </trkpt>
      <trkpt lat="45.30545" lon="4.121">
        <ele>443.79</ele>
        <time>2011-10-08T09:53:29Z</time>
      </trkpt>
      <trkpt lat="45.3055" lon="4.12102">
        <ele>443.79</ele>
        <time>2011-10-08T09:53:30Z</time>
      </trkpt>
      <trkpt lat="45.30555" lon="4.12104">
        <ele>443.79</ele>
        <time>2011-10-08T09:53:31Z</time>
      </trkpt>
      <trkpt lat="45.30559" lon="4.12105">
        <ele>443.79</ele>
        <time>2011-10-08T09:53:32Z</time>
      </trkpt>
      <trkpt lat="45.30564" lon="4.12108">
        <ele>444.27</ele>
        <time>2011-10-08T09:53:33Z</time>
      </trkpt>
      <trkpt lat="45.30569" lon="4.12111">
        <ele>444.27</ele>
        <time>2011-10-08T09:53:34Z</time>
      </trkpt>
      <trkpt lat="45.30574" lon="4.12115">
        <ele>443.79</ele>
        <time>2011-10-08T09:53:35Z</time>
      </trkpt>
      <trkpt lat="45.3058" lon="4.12118">
        <ele>444.27</ele>
        <time>2011-10-08T09:53:36Z</time>
      </trkpt>
      <trkpt lat="45.30625" lon="4.12136">
        <ele>444.27</ele>
        <time>2011-10-08T09:53:45Z</time>
      </trkpt>
      <trkpt lat="45.3063" lon="4.12138">
        <ele>443.79</ele>
        <time>2011-10-08T09:53:46Z</time>
      </trkpt>
      <trkpt lat="45.30654" lon="4.1215">
        <ele>443.31</ele>
        <time>2011-10-08T09:53:51Z</time>
      </trkpt>
      <trkpt lat="45.30701" lon="4.12171">
        <ele>443.79</ele>
        <time>2011-10-08T09:54:01Z</time>
      </trkpt>
      <trkpt lat="45.30706" lon="4.12173">
        <ele>443.79</ele>
        <time>2011-10-08T09:54:02Z</time>
      </trkpt>
      <trkpt lat="45.30715" lon="4.12178">
        <ele>443.79</ele>
        <time>2011-10-08T09:54:04Z</time>
      </trkpt>
      <trkpt lat="45.3072" lon="4.12182">
        <ele>443.79</ele>
        <time>2011-10-08T09:54:05Z</time>
      </trkpt>
      <trkpt lat="45.30756" lon="4.12205">
        <ele>443.31</ele>
        <time>2011-10-08T09:54:12Z</time>
      </trkpt>
      <trkpt lat="45.3076" lon="4.12209">
        <ele>443.31</ele>
        <time>2011-10-08T09:54:13Z</time>
      </trkpt>
      <trkpt lat="45.30764" lon="4.12215">
        <ele>443.31</ele>
        <time>2011-10-08T09:54:14Z</time>
      </trkpt>
      <trkpt lat="45.30766" lon="4.12221">
        <ele>443.31</ele>
        <time>2011-10-08T09:54:15Z</time>
      </trkpt>
      <trkpt lat="45.30768" lon="4.12227">
        <ele>443.79</ele>
        <time>2011-10-08T09:54:16Z</time>
      </trkpt>
      <trkpt lat="45.30769" lon="4.12233">
        <ele>443.79</ele>
        <time>2011-10-08T09:54:17Z</time>
      </trkpt>
      <trkpt lat="45.3077" lon="4.12239">
        <ele>443.79</ele>
        <time>2011-10-08T09:54:18Z</time>
      </trkpt>
      <trkpt lat="45.3077" lon="4.12246">
        <ele>443.79</ele>
        <time>2011-10-08T09:54:19Z</time>
      </trkpt>
      <trkpt lat="45.3077" lon="4.12274">
        <ele>443.79</ele>
        <time>2011-10-08T09:54:23Z</time>
      </trkpt>
      <trkpt lat="45.30768" lon="4.12281">
        <ele>444.27</ele>
        <time>2011-10-08T09:54:24Z</time>
      </trkpt>
      <trkpt lat="45.30763" lon="4.12294">
        <ele>444.75</ele>
        <time>2011-10-08T09:54:26Z</time>
      </trkpt>
      <trkpt lat="45.30761" lon="4.123">
        <ele>444.75</ele>
        <time>2011-10-08T09:54:27Z</time>
      </trkpt>
      <trkpt lat="45.30759" lon="4.12307">
        <ele>444.75</ele>
        <time>2011-10-08T09:54:28Z</time>
      </trkpt>
      <trkpt lat="45.30758" lon="4.12313">
        <ele>444.75</ele>
        <time>2011-10-08T09:54:29Z</time>
      </trkpt>
      <trkpt lat="45.30757" lon="4.12321">
        <ele>444.75</ele>
        <time>2011-10-08T09:54:30Z</time>
      </trkpt>
      <trkpt lat="45.30758" lon="4.12327">
        <ele>444.75</ele>
        <time>2011-10-08T09:54:31Z</time>
      </trkpt>
      <trkpt lat="45.3076" lon="4.12334">
        <ele>444.75</ele>
        <time>2011-10-08T09:54:32Z</time>
      </trkpt>
      <trkpt lat="45.30763" lon="4.12338">
        <ele>444.75</ele>
        <time>2011-10-08T09:54:33Z</time>
      </trkpt>
      <trkpt lat="45.30765" lon="4.12343">
        <ele>444.75</ele>
        <time>2011-10-08T09:54:34Z</time>
      </trkpt>
      <trkpt lat="45.30768" lon="4.12347">
        <ele>444.75</ele>
        <time>2011-10-08T09:54:35Z</time>
      </trkpt>
      <trkpt lat="45.30771" lon="4.12352">
        <ele>445.23</ele>
        <time>2011-10-08T09:54:36Z</time>
      </trkpt>
      <trkpt lat="45.30773" lon="4.12357">
        <ele>445.23</ele>
        <time>2011-10-08T09:54:37Z</time>
      </trkpt>
      <trkpt lat="45.30773" lon="4.12363">
        <ele>445.23</ele>
        <time>2011-10-08T09:54:38Z</time>
      </trkpt>
      <trkpt lat="45.30773" lon="4.12369">
        <ele>445.23</ele>
        <time>2011-10-08T09:54:39Z</time>
      </trkpt>
      <trkpt lat="45.30773" lon="4.12375">
        <ele>445.23</ele>
        <time>2011-10-08T09:54:40Z</time>
      </trkpt>
      <trkpt lat="45.30772" lon="4.12381">
        <ele>445.23</ele>
        <time>2011-10-08T09:54:41Z</time>
      </trkpt>
      <trkpt lat="45.30773" lon="4.12388">
        <ele>445.71</ele>
        <time>2011-10-08T09:54:42Z</time>
      </trkpt>
      <trkpt lat="45.30774" lon="4.12395">
        <ele>445.71</ele>
        <time>2011-10-08T09:54:43Z</time>
      </trkpt>
      <trkpt lat="45.30775" lon="4.12402">
        <ele>445.71</ele>
        <time>2011-10-08T09:54:44Z</time>
      </trkpt>
      <trkpt lat="45.30781" lon="4.12433">
        <ele>445.71</ele>
        <time>2011-10-08T09:54:49Z</time>
      </trkpt>
      <trkpt lat="45.30783" lon="4.12438">
        <ele>445.71</ele>
        <time>2011-10-08T09:54:50Z</time>
      </trkpt>
      <trkpt lat="45.30796" lon="4.12499">
        <ele>445.71</ele>
        <time>2011-10-08T09:55:02Z</time>
      </trkpt>
      <trkpt lat="45.30796" lon="4.12505">
        <ele>445.71</ele>
        <time>2011-10-08T09:55:03Z</time>
      </trkpt>
      <trkpt lat="45.30795" lon="4.1251">
        <ele>445.23</ele>
        <time>2011-10-08T09:55:04Z</time>
      </trkpt>
      <trkpt lat="45.30793" lon="4.12515">
        <ele>445.23</ele>
        <time>2011-10-08T09:55:05Z</time>
      </trkpt>
      <trkpt lat="45.30791" lon="4.1252">
        <ele>445.23</ele>
        <time>2011-10-08T09:55:06Z</time>
      </trkpt>
      <trkpt lat="45.30788" lon="4.12524">
        <ele>445.23</ele>
        <time>2011-10-08T09:55:07Z</time>
      </trkpt>
      <trkpt lat="45.30784" lon="4.12528">
        <ele>445.23</ele>
        <time>2011-10-08T09:55:08Z</time>
      </trkpt>
      <trkpt lat="45.3078" lon="4.12531">
        <ele>445.23</ele>
        <time>2011-10-08T09:55:09Z</time>
      </trkpt>
      <trkpt lat="45.30777" lon="4.12535">
        <ele>445.71</ele>
        <time>2011-10-08T09:55:10Z</time>
      </trkpt>
      <trkpt lat="45.30774" lon="4.12539">
        <ele>445.71</ele>
        <time>2011-10-08T09:55:11Z</time>
      </trkpt>
      <trkpt lat="45.30768" lon="4.12547">
        <ele>446.19</ele>
        <time>2011-10-08T09:55:13Z</time>
      </trkpt>
      <trkpt lat="45.30766" lon="4.12552">
        <ele>446.19</ele>
        <time>2011-10-08T09:55:14Z</time>
      </trkpt>
      <trkpt lat="45.30764" lon="4.12557">
        <ele>446.67</ele>
        <time>2011-10-08T09:55:15Z</time>
      </trkpt>
      <trkpt lat="45.3076" lon="4.12573">
        <ele>447.63</ele>
        <time>2011-10-08T09:55:18Z</time>
      </trkpt>
      <trkpt lat="45.3076" lon="4.12577">
        <ele>447.63</ele>
        <time>2011-10-08T09:55:19Z</time>
      </trkpt>
      <trkpt lat="45.30759" lon="4.12579">
        <ele>448.11</ele>
        <time>2011-10-08T09:55:20Z</time>
      </trkpt>
      <trkpt lat="45.30757" lon="4.12581">
        <ele>448.11</ele>
        <time>2011-10-08T09:55:21Z</time>
      </trkpt>
      <trkpt lat="45.30755" lon="4.12584">
        <ele>448.11</ele>
        <time>2011-10-08T09:55:22Z</time>
      </trkpt>
      <trkpt lat="45.30753" lon="4.12588">
        <ele>448.11</ele>
        <time>2011-10-08T09:55:23Z</time>
      </trkpt>
      <trkpt lat="45.30751" lon="4.12592">
        <ele>448.11</ele>
        <time>2011-10-08T09:55:24Z</time>
      </trkpt>
      <trkpt lat="45.30749" lon="4.12597">
        <ele>448.11</ele>
        <time>2011-10-08T09:55:25Z</time>
      </trkpt>
      <trkpt lat="45.30747" lon="4.12601">
        <ele>448.11</ele>
        <time>2011-10-08T09:55:26Z</time>
      </trkpt>
      <trkpt lat="45.30745" lon="4.12606">
        <ele>448.11</ele>
        <time>2011-10-08T09:55:27Z</time>
      </trkpt>
      <trkpt lat="45.30725" lon="4.12648">
        <ele>449.07</ele>
        <time>2011-10-08T09:55:36Z</time>
      </trkpt>
      <trkpt lat="45.30723" lon="4.12654">
        <ele>449.55</ele>
        <time>2011-10-08T09:55:37Z</time>
      </trkpt>
      <trkpt lat="45.30695" lon="4.12724">
        <ele>450.52</ele>
        <time>2011-10-08T09:55:50Z</time>
      </trkpt>
      <trkpt lat="45.30691" lon="4.12737">
        <ele>450.52</ele>
        <time>2011-10-08T09:55:52Z</time>
      </trkpt>
      <trkpt lat="45.30689" lon="4.12744">
        <ele>450.52</ele>
        <time>2011-10-08T09:55:53Z</time>
      </trkpt>
      <trkpt lat="45.30687" lon="4.12751">
        <ele>450.03</ele>
        <time>2011-10-08T09:55:54Z</time>
      </trkpt>
      <trkpt lat="45.3068" lon="4.12771">
        <ele>450.03</ele>
        <time>2011-10-08T09:55:57Z</time>
      </trkpt>
      <trkpt lat="45.30668" lon="4.12808">
        <ele>450.03</ele>
        <time>2011-10-08T09:56:03Z</time>
      </trkpt>
      <trkpt lat="45.30668" lon="4.12815">
        <ele>450.03</ele>
        <time>2011-10-08T09:56:04Z</time>
      </trkpt>
      <trkpt lat="45.30668" lon="4.12822">
        <ele>450.03</ele>
        <time>2011-10-08T09:56:05Z</time>
      </trkpt>
      <trkpt lat="45.30667" lon="4.12829">
        <ele>450.03</ele>
        <time>2011-10-08T09:56:06Z</time>
      </trkpt>
      <trkpt lat="45.30667" lon="4.12836">
        <ele>450.03</ele>
        <time>2011-10-08T09:56:07Z</time>
      </trkpt>
      <trkpt lat="45.30664" lon="4.12877">
        <ele>449.55</ele>
        <time>2011-10-08T09:56:13Z</time>
      </trkpt>
      <trkpt lat="45.30663" lon="4.12884">
        <ele>449.07</ele>
        <time>2011-10-08T09:56:14Z</time>
      </trkpt>
      <trkpt lat="45.30663" lon="4.12927">
        <ele>447.15</ele>
        <time>2011-10-08T09:56:21Z</time>
      </trkpt>
      <trkpt lat="45.30666" lon="4.12998">
        <ele>444.75</ele>
        <time>2011-10-08T09:56:31Z</time>
      </trkpt>
      <trkpt lat="45.30669" lon="4.13026">
        <ele>444.75</ele>
        <time>2011-10-08T09:56:35Z</time>
      </trkpt>
      <trkpt lat="45.30673" lon="4.13046">
        <ele>445.23</ele>
        <time>2011-10-08T09:56:38Z</time>
      </trkpt>
      <trkpt lat="45.30674" lon="4.13052">
        <ele>445.23</ele>
        <time>2011-10-08T09:56:39Z</time>
      </trkpt>
      <trkpt lat="45.30683" lon="4.13093">
        <ele>445.71</ele>
        <time>2011-10-08T09:56:45Z</time>
      </trkpt>
      <trkpt lat="45.30688" lon="4.13105">
        <ele>445.71</ele>
        <time>2011-10-08T09:56:47Z</time>
      </trkpt>
      <trkpt lat="45.3069" lon="4.1311">
        <ele>445.71</ele>
        <time>2011-10-08T09:56:48Z</time>
      </trkpt>
      <trkpt lat="45.30694" lon="4.13115">
        <ele>446.19</ele>
        <time>2011-10-08T09:56:49Z</time>
      </trkpt>
      <trkpt lat="45.30697" lon="4.13119">
        <ele>446.19</ele>
        <time>2011-10-08T09:56:50Z</time>
      </trkpt>
      <trkpt lat="45.30702" lon="4.13123">
        <ele>446.19</ele>
        <time>2011-10-08T09:56:51Z</time>
      </trkpt>
      <trkpt lat="45.30706" lon="4.13127">
        <ele>446.67</ele>
        <time>2011-10-08T09:56:52Z</time>
      </trkpt>
      <trkpt lat="45.30709" lon="4.13133">
        <ele>446.67</ele>
        <time>2011-10-08T09:56:53Z</time>
      </trkpt>
      <trkpt lat="45.30715" lon="4.13144">
        <ele>446.67</ele>
        <time>2011-10-08T09:56:55Z</time>
      </trkpt>
      <trkpt lat="45.30718" lon="4.13149">
        <ele>446.67</ele>
        <time>2011-10-08T09:56:56Z</time>
      </trkpt>
      <trkpt lat="45.30729" lon="4.13161">
        <ele>446.19</ele>
        <time>2011-10-08T09:56:59Z</time>
      </trkpt>
      <trkpt lat="45.30738" lon="4.13167">
        <ele>445.71</ele>
        <time>2011-10-08T09:57:01Z</time>
      </trkpt>
      <trkpt lat="45.30743" lon="4.13168">
        <ele>445.71</ele>
        <time>2011-10-08T09:57:02Z</time>
      </trkpt>
      <trkpt lat="45.30758" lon="4.13173">
        <ele>446.19</ele>
        <time>2011-10-08T09:57:05Z</time>
      </trkpt>
      <trkpt lat="45.30762" lon="4.13175">
        <ele>445.71</ele>
        <time>2011-10-08T09:57:06Z</time>
      </trkpt>
      <trkpt lat="45.30808" lon="4.13198">
        <ele>445.71</ele>
        <time>2011-10-08T09:57:17Z</time>
      </trkpt>
      <trkpt lat="45.30813" lon="4.132">
        <ele>445.71</ele>
        <time>2011-10-08T09:57:18Z</time>
      </trkpt>
      <trkpt lat="45.30817" lon="4.13202">
        <ele>445.23</ele>
        <time>2011-10-08T09:57:19Z</time>
      </trkpt>
      <trkpt lat="45.30838" lon="4.13213">
        <ele>445.71</ele>
        <time>2011-10-08T09:57:24Z</time>
      </trkpt>
      <trkpt lat="45.30842" lon="4.13215">
        <ele>446.19</ele>
        <time>2011-10-08T09:57:25Z</time>
      </trkpt>
      <trkpt lat="45.30846" lon="4.13217">
        <ele>446.19</ele>
        <time>2011-10-08T09:57:26Z</time>
      </trkpt>
      <trkpt lat="45.30851" lon="4.13219">
        <ele>445.71</ele>
        <time>2011-10-08T09:57:27Z</time>
      </trkpt>
      <trkpt lat="45.30855" lon="4.13221">
        <ele>445.71</ele>
        <time>2011-10-08T09:57:28Z</time>
      </trkpt>
      <trkpt lat="45.30859" lon="4.13225">
        <ele>445.23</ele>
        <time>2011-10-08T09:57:29Z</time>
      </trkpt>
      <trkpt lat="45.30863" lon="4.13228">
        <ele>445.23</ele>
        <time>2011-10-08T09:57:30Z</time>
      </trkpt>
      <trkpt lat="45.30867" lon="4.13231">
        <ele>445.23</ele>
        <time>2011-10-08T09:57:31Z</time>
      </trkpt>
      <trkpt lat="45.30872" lon="4.13233">
        <ele>445.71</ele>
        <time>2011-10-08T09:57:32Z</time>
      </trkpt>
      <trkpt lat="45.30876" lon="4.13236">
        <ele>445.71</ele>
        <time>2011-10-08T09:57:33Z</time>
      </trkpt>
      <trkpt lat="45.3092" lon="4.13271">
        <ele>444.75</ele>
        <time>2011-10-08T09:57:43Z</time>
      </trkpt>
      <trkpt lat="45.30944" lon="4.13295">
        <ele>444.75</ele>
        <time>2011-10-08T09:57:49Z</time>
      </trkpt>
      <trkpt lat="45.30948" lon="4.13298">
        <ele>444.75</ele>
        <time>2011-10-08T09:57:50Z</time>
      </trkpt>
      <trkpt lat="45.30952" lon="4.13302">
        <ele>444.75</ele>
        <time>2011-10-08T09:57:51Z</time>
      </trkpt>
      <trkpt lat="45.30956" lon="4.13305">
        <ele>445.23</ele>
        <time>2011-10-08T09:57:52Z</time>
      </trkpt>
      <trkpt lat="45.3096" lon="4.13309">
        <ele>445.23</ele>
        <time>2011-10-08T09:57:53Z</time>
      </trkpt>
      <trkpt lat="45.30963" lon="4.13312">
        <ele>445.23</ele>
        <time>2011-10-08T09:57:54Z</time>
      </trkpt>
      <trkpt lat="45.30988" lon="4.13331">
        <ele>444.75</ele>
        <time>2011-10-08T09:58:00Z</time>
      </trkpt>
      <trkpt lat="45.30992" lon="4.13334">
        <ele>444.27</ele>
        <time>2011-10-08T09:58:01Z</time>
      </trkpt>
      <trkpt lat="45.31004" lon="4.13342">
        <ele>443.79</ele>
        <time>2011-10-08T09:58:04Z</time>
      </trkpt>
      <trkpt lat="45.31007" lon="4.13344">
        <ele>443.31</ele>
        <time>2011-10-08T09:58:05Z</time>
      </trkpt>
      <trkpt lat="45.31011" lon="4.13347">
        <ele>443.31</ele>
        <time>2011-10-08T09:58:06Z</time>
      </trkpt>
      <trkpt lat="45.31015" lon="4.1335">
        <ele>443.31</ele>
        <time>2011-10-08T09:58:07Z</time>
      </trkpt>
      <trkpt lat="45.31019" lon="4.13354">
        <ele>443.31</ele>
        <time>2011-10-08T09:58:08Z</time>
      </trkpt>
      <trkpt lat="45.31027" lon="4.13362">
        <ele>442.82</ele>
        <time>2011-10-08T09:58:10Z</time>
      </trkpt>
      <trkpt lat="45.3104" lon="4.13372">
        <ele>442.34</ele>
        <time>2011-10-08T09:58:13Z</time>
      </trkpt>
      <trkpt lat="45.3106" lon="4.13382">
        <ele>442.34</ele>
        <time>2011-10-08T09:58:17Z</time>
      </trkpt>
      <trkpt lat="45.3107" lon="4.13385">
        <ele>442.82</ele>
        <time>2011-10-08T09:58:19Z</time>
      </trkpt>
      <trkpt lat="45.31094" lon="4.13384">
        <ele>441.38</ele>
        <time>2011-10-08T09:58:24Z</time>
      </trkpt>
      <trkpt lat="45.31098" lon="4.13387">
        <ele>441.38</ele>
        <time>2011-10-08T09:58:25Z</time>
      </trkpt>
      <trkpt lat="45.31102" lon="4.13391">
        <ele>441.38</ele>
        <time>2011-10-08T09:58:26Z</time>
      </trkpt>
      <trkpt lat="45.31106" lon="4.13395">
        <ele>440.9</ele>
        <time>2011-10-08T09:58:27Z</time>
      </trkpt>
      <trkpt lat="45.3111" lon="4.13399">
        <ele>440.9</ele>
        <time>2011-10-08T09:58:28Z</time>
      </trkpt>
      <trkpt lat="45.31137" lon="4.13415">
        <ele>440.42</ele>
        <time>2011-10-08T09:58:34Z</time>
      </trkpt>
      <trkpt lat="45.31141" lon="4.13417">
        <ele>440.42</ele>
        <time>2011-10-08T09:58:35Z</time>
      </trkpt>
      <trkpt lat="45.31146" lon="4.13419">
        <ele>440.42</ele>
        <time>2011-10-08T09:58:36Z</time>
      </trkpt>
      <trkpt lat="45.3115" lon="4.13423">
        <ele>440.42</ele>
        <time>2011-10-08T09:58:37Z</time>
      </trkpt>
      <trkpt lat="45.31154" lon="4.13427">
        <ele>440.42</ele>
        <time>2011-10-08T09:58:38Z</time>
      </trkpt>
      <trkpt lat="45.31158" lon="4.13432">
        <ele>440.42</ele>
        <time>2011-10-08T09:58:39Z</time>
      </trkpt>
      <trkpt lat="45.31162" lon="4.13437">
        <ele>440.42</ele>
        <time>2011-10-08T09:58:40Z</time>
      </trkpt>
      <trkpt lat="45.31166" lon="4.13442">
        <ele>439.94</ele>
        <time>2011-10-08T09:58:41Z</time>
      </trkpt>
      <trkpt lat="45.3117" lon="4.13445">
        <ele>439.94</ele>
        <time>2011-10-08T09:58:42Z</time>
      </trkpt>
      <trkpt lat="45.31183" lon="4.13451">
        <ele>439.94</ele>
        <time>2011-10-08T09:58:45Z</time>
      </trkpt>
      <trkpt lat="45.31187" lon="4.13452">
        <ele>439.46</ele>
        <time>2011-10-08T09:58:46Z</time>
      </trkpt>
      <trkpt lat="45.31197" lon="4.13453">
        <ele>439.46</ele>
        <time>2011-10-08T09:58:48Z</time>
      </trkpt>
      <trkpt lat="45.31203" lon="4.13455">
        <ele>439.46</ele>
        <time>2011-10-08T09:58:49Z</time>
      </trkpt>
      <trkpt lat="45.31208" lon="4.13459">
        <ele>439.46</ele>
        <time>2011-10-08T09:58:50Z</time>
      </trkpt>
      <trkpt lat="45.31212" lon="4.13465">
        <ele>439.46</ele>
        <time>2011-10-08T09:58:51Z</time>
      </trkpt>
      <trkpt lat="45.31215" lon="4.1347">
        <ele>439.46</ele>
        <time>2011-10-08T09:58:52Z</time>
      </trkpt>
      <trkpt lat="45.3123" lon="4.13488">
        <ele>438.98</ele>
        <time>2011-10-08T09:58:58Z</time>
      </trkpt>
      <trkpt lat="45.31232" lon="4.13489">
        <ele>438.98</ele>
        <time>2011-10-08T09:58:59Z</time>
      </trkpt>
      <trkpt lat="45.31233" lon="4.1349">
        <ele>438.98</ele>
        <time>2011-10-08T09:59:00Z</time>
      </trkpt>
      <trkpt lat="45.31235" lon="4.1349">
        <ele>438.5</ele>
        <time>2011-10-08T09:59:01Z</time>
      </trkpt>
      <trkpt lat="45.31237" lon="4.13491">
        <ele>438.5</ele>
        <time>2011-10-08T09:59:02Z</time>
      </trkpt>
      <trkpt lat="45.31238" lon="4.13492">
        <ele>438.5</ele>
        <time>2011-10-08T09:59:03Z</time>
      </trkpt>
      <trkpt lat="45.3124" lon="4.13494">
        <ele>438.98</ele>
        <time>2011-10-08T09:59:04Z</time>
      </trkpt>
      <trkpt lat="45.31241" lon="4.13496">
        <ele>438.98</ele>
        <time>2011-10-08T09:59:05Z</time>
      </trkpt>
      <trkpt lat="45.31242" lon="4.13498">
        <ele>438.98</ele>
        <time>2011-10-08T09:59:06Z</time>
      </trkpt>
      <trkpt lat="45.31243" lon="4.13501">
        <ele>438.98</ele>
        <time>2011-10-08T09:59:07Z</time>
      </trkpt>
      <trkpt lat="45.31244" lon="4.13504">
        <ele>438.98</ele>
        <time>2011-10-08T09:59:08Z</time>
      </trkpt>
      <trkpt lat="45.31245" lon="4.13507">
        <ele>438.98</ele>
        <time>2011-10-08T09:59:09Z</time>
      </trkpt>
      <trkpt lat="45.31247" lon="4.13511">
        <ele>439.46</ele>
        <time>2011-10-08T09:59:10Z</time>
      </trkpt>
      <trkpt lat="45.31248" lon="4.13515">
        <ele>439.46</ele>
        <time>2011-10-08T09:59:11Z</time>
      </trkpt>
      <trkpt lat="45.31249" lon="4.1352">
        <ele>439.94</ele>
        <time>2011-10-08T09:59:12Z</time>
      </trkpt>
      <trkpt lat="45.3125" lon="4.13524">
        <ele>439.94</ele>
        <time>2011-10-08T09:59:13Z</time>
      </trkpt>
      <trkpt lat="45.31248" lon="4.13541">
        <ele>439.46</ele>
        <time>2011-10-08T09:59:17Z</time>
      </trkpt>
      <trkpt lat="45.31246" lon="4.13544">
        <ele>439.94</ele>
        <time>2011-10-08T09:59:18Z</time>
      </trkpt>
      <trkpt lat="45.31244" lon="4.13547">
        <ele>439.94</ele>
        <time>2011-10-08T09:59:19Z</time>
      </trkpt>
      <trkpt lat="45.31241" lon="4.13549">
        <ele>439.94</ele>
        <time>2011-10-08T09:59:20Z</time>
      </trkpt>
      <trkpt lat="45.31239" lon="4.1355">
        <ele>440.42</ele>
        <time>2011-10-08T09:59:21Z</time>
      </trkpt>
      <trkpt lat="45.31236" lon="4.13551">
        <ele>440.42</ele>
        <time>2011-10-08T09:59:22Z</time>
      </trkpt>
      <trkpt lat="45.31234" lon="4.13552">
        <ele>440.42</ele>
        <time>2011-10-08T09:59:23Z</time>
      </trkpt>
      <trkpt lat="45.31232" lon="4.13554">
        <ele>440.42</ele>
        <time>2011-10-08T09:59:24Z</time>
      </trkpt>
      <trkpt lat="45.3123" lon="4.13555">
        <ele>440.42</ele>
        <time>2011-10-08T09:59:25Z</time>
      </trkpt>
      <trkpt lat="45.31227" lon="4.13556">
        <ele>440.42</ele>
        <time>2011-10-08T09:59:26Z</time>
      </trkpt>
      <trkpt lat="45.31224" lon="4.13558">
        <ele>440.42</ele>
        <time>2011-10-08T09:59:27Z</time>
      </trkpt>
      <trkpt lat="45.31192" lon="4.1358">
        <ele>442.34</ele>
        <time>2011-10-08T09:59:38Z</time>
      </trkpt>
      <trkpt lat="45.31144" lon="4.13613">
        <ele>442.82</ele>
        <time>2011-10-08T09:59:51Z</time>
      </trkpt>
      <trkpt lat="45.31102" lon="4.13633">
        <ele>442.82</ele>
        <time>2011-10-08T10:00:02Z</time>
      </trkpt>
      <trkpt lat="45.31083" lon="4.13637">
        <ele>443.31</ele>
        <time>2011-10-08T10:00:08Z</time>
      </trkpt>
      <trkpt lat="45.31071" lon="4.13667">
        <ele>443.79</ele>
        <time>2011-10-08T10:00:15Z</time>
      </trkpt>
      <trkpt lat="45.31068" lon="4.13671">
        <ele>444.27</ele>
        <time>2011-10-08T10:00:16Z</time>
      </trkpt>
      <trkpt lat="45.31036" lon="4.13712">
        <ele>445.23</ele>
        <time>2011-10-08T10:00:28Z</time>
      </trkpt>
      <trkpt lat="45.31025" lon="4.13725">
        <ele>445.71</ele>
        <time>2011-10-08T10:00:32Z</time>
      </trkpt>
      <trkpt lat="45.31011" lon="4.13777">
        <ele>446.19</ele>
        <time>2011-10-08T10:00:44Z</time>
      </trkpt>
      <trkpt lat="45.31006" lon="4.13807">
        <ele>448.59</ele>
        <time>2011-10-08T10:00:53Z</time>
      </trkpt>
      <trkpt lat="45.30993" lon="4.13858">
        <ele>451</ele>
        <time>2011-10-08T10:01:07Z</time>
      </trkpt>
      <trkpt lat="45.30983" lon="4.13896">
        <ele>452.92</ele>
        <time>2011-10-08T10:01:18Z</time>
      </trkpt>
      <trkpt lat="45.30977" lon="4.13919">
        <ele>454.84</ele>
        <time>2011-10-08T10:01:26Z</time>
      </trkpt>
      <trkpt lat="45.30975" lon="4.13921">
        <ele>455.32</ele>
        <time>2011-10-08T10:01:28Z</time>
      </trkpt>
      <trkpt lat="45.30969" lon="4.13937">
        <ele>456.28</ele>
        <time>2011-10-08T10:01:35Z</time>
      </trkpt>
      <trkpt lat="45.30954" lon="4.13979">
        <ele>460.13</ele>
        <time>2011-10-08T10:01:48Z</time>
      </trkpt>
      <trkpt lat="45.30939" lon="4.1401">
        <ele>460.61</ele>
        <time>2011-10-08T10:02:00Z</time>
      </trkpt>
      <trkpt lat="45.30938" lon="4.14012">
        <ele>460.61</ele>
        <time>2011-10-08T10:02:01Z</time>
      </trkpt>
      <trkpt lat="45.30921" lon="4.14027">
        <ele>459.17</ele>
        <time>2011-10-08T10:02:10Z</time>
      </trkpt>
      <trkpt lat="45.30905" lon="4.1407">
        <ele>460.13</ele>
        <time>2011-10-08T10:02:23Z</time>
      </trkpt>
      <trkpt lat="45.30901" lon="4.14085">
        <ele>461.09</ele>
        <time>2011-10-08T10:02:27Z</time>
      </trkpt>
      <trkpt lat="45.30889" lon="4.141">
        <ele>462.53</ele>
        <time>2011-10-08T10:02:33Z</time>
      </trkpt>
      <trkpt lat="45.30868" lon="4.1413">
        <ele>463.49</ele>
        <time>2011-10-08T10:02:44Z</time>
      </trkpt>
      <trkpt lat="45.30831" lon="4.14176">
        <ele>463.01</ele>
        <time>2011-10-08T10:02:58Z</time>
      </trkpt>
      <trkpt lat="45.30799" lon="4.14213">
        <ele>463.01</ele>
        <time>2011-10-08T10:03:11Z</time>
      </trkpt>
      <trkpt lat="45.3077" lon="4.14235">
        <ele>464.45</ele>
        <time>2011-10-08T10:03:22Z</time>
      </trkpt>
      <trkpt lat="45.30746" lon="4.14288">
        <ele>464.93</ele>
        <time>2011-10-08T10:03:35Z</time>
      </trkpt>
      <trkpt lat="45.30727" lon="4.14348">
        <ele>467.82</ele>
        <time>2011-10-08T10:03:48Z</time>
      </trkpt>
      <trkpt lat="45.30722" lon="4.1437">
        <ele>467.82</ele>
        <time>2011-10-08T10:03:52Z</time>
      </trkpt>
      <trkpt lat="45.30704" lon="4.14418">
        <ele>468.3</ele>
        <time>2011-10-08T10:04:03Z</time>
      </trkpt>
      <trkpt lat="45.30683" lon="4.1449">
        <ele>469.26</ele>
        <time>2011-10-08T10:04:18Z</time>
      </trkpt>
      <trkpt lat="45.30682" lon="4.14502">
        <ele>469.26</ele>
        <time>2011-10-08T10:04:21Z</time>
      </trkpt>
      <trkpt lat="45.3068" lon="4.14504">
        <ele>469.26</ele>
        <time>2011-10-08T10:04:22Z</time>
      </trkpt>
      <trkpt lat="45.30678" lon="4.14506">
        <ele>469.26</ele>
        <time>2011-10-08T10:04:23Z</time>
      </trkpt>
      <trkpt lat="45.30676" lon="4.14508">
        <ele>468.78</ele>
        <time>2011-10-08T10:04:24Z</time>
      </trkpt>
      <trkpt lat="45.30673" lon="4.1451">
        <ele>468.78</ele>
        <time>2011-10-08T10:04:25Z</time>
      </trkpt>
      <trkpt lat="45.3067" lon="4.14511">
        <ele>468.78</ele>
        <time>2011-10-08T10:04:26Z</time>
      </trkpt>
      <trkpt lat="45.30666" lon="4.14512">
        <ele>468.78</ele>
        <time>2011-10-08T10:04:27Z</time>
      </trkpt>
      <trkpt lat="45.30655" lon="4.14516">
        <ele>467.82</ele>
        <time>2011-10-08T10:04:30Z</time>
      </trkpt>
      <trkpt lat="45.30647" lon="4.14522">
        <ele>467.34</ele>
        <time>2011-10-08T10:04:32Z</time>
      </trkpt>
      <trkpt lat="45.30633" lon="4.14532">
        <ele>466.86</ele>
        <time>2011-10-08T10:04:35Z</time>
      </trkpt>
      <trkpt lat="45.30628" lon="4.14536">
        <ele>466.38</ele>
        <time>2011-10-08T10:04:36Z</time>
      </trkpt>
      <trkpt lat="45.30624" lon="4.1454">
        <ele>465.9</ele>
        <time>2011-10-08T10:04:37Z</time>
      </trkpt>
      <trkpt lat="45.30589" lon="4.14579">
        <ele>464.93</ele>
        <time>2011-10-08T10:04:44Z</time>
      </trkpt>
      <trkpt lat="45.30586" lon="4.14587">
        <ele>464.93</ele>
        <time>2011-10-08T10:04:45Z</time>
      </trkpt>
      <trkpt lat="45.30584" lon="4.14595">
        <ele>464.93</ele>
        <time>2011-10-08T10:04:46Z</time>
      </trkpt>
      <trkpt lat="45.30575" lon="4.14624">
        <ele>463.97</ele>
        <time>2011-10-08T10:04:50Z</time>
      </trkpt>
      <trkpt lat="45.30572" lon="4.14628">
        <ele>463.49</ele>
        <time>2011-10-08T10:04:51Z</time>
      </trkpt>
      <trkpt lat="45.30568" lon="4.14629">
        <ele>463.01</ele>
        <time>2011-10-08T10:04:52Z</time>
      </trkpt>
      <trkpt lat="45.30564" lon="4.14628">
        <ele>462.05</ele>
        <time>2011-10-08T10:04:53Z</time>
      </trkpt>
      <trkpt lat="45.30561" lon="4.14624">
        <ele>461.57</ele>
        <time>2011-10-08T10:04:54Z</time>
      </trkpt>
      <trkpt lat="45.30558" lon="4.14617">
        <ele>460.61</ele>
        <time>2011-10-08T10:04:55Z</time>
      </trkpt>
      <trkpt lat="45.30544" lon="4.14582">
        <ele>456.76</ele>
        <time>2011-10-08T10:05:00Z</time>
      </trkpt>
      <trkpt lat="45.30541" lon="4.14581">
        <ele>456.28</ele>
        <time>2011-10-08T10:05:01Z</time>
      </trkpt>
      <trkpt lat="45.3054" lon="4.14581">
        <ele>456.28</ele>
        <time>2011-10-08T10:05:02Z</time>
      </trkpt>
      <trkpt lat="45.30538" lon="4.14582">
        <ele>455.8</ele>
        <time>2011-10-08T10:05:03Z</time>
      </trkpt>
      <trkpt lat="45.30537" lon="4.14584">
        <ele>455.8</ele>
        <time>2011-10-08T10:05:04Z</time>
      </trkpt>
      <trkpt lat="45.30537" lon="4.14586">
        <ele>455.32</ele>
        <time>2011-10-08T10:05:05Z</time>
      </trkpt>
      <trkpt lat="45.30537" lon="4.14588">
        <ele>455.8</ele>
        <time>2011-10-08T10:05:06Z</time>
      </trkpt>
      <trkpt lat="45.30538" lon="4.14591">
        <ele>455.8</ele>
        <time>2011-10-08T10:05:07Z</time>
      </trkpt>
      <trkpt lat="45.30539" lon="4.14594">
        <ele>455.8</ele>
        <time>2011-10-08T10:05:08Z</time>
      </trkpt>
      <trkpt lat="45.3055" lon="4.14629">
        <ele>460.61</ele>
        <time>2011-10-08T10:05:21Z</time>
      </trkpt>
      <trkpt lat="45.30566" lon="4.14654">
        <ele>463.49</ele>
        <time>2011-10-08T10:05:36Z</time>
      </trkpt>
      <trkpt lat="45.30571" lon="4.1466">
        <ele>463.97</ele>
        <time>2011-10-08T10:05:40Z</time>
      </trkpt>
      <trkpt lat="45.30572" lon="4.14662">
        <ele>463.97</ele>
        <time>2011-10-08T10:05:41Z</time>
      </trkpt>
      <trkpt lat="45.30587" lon="4.14682">
        <ele>466.38</ele>
        <time>2011-10-08T10:05:56Z</time>
      </trkpt>
      <trkpt lat="45.30596" lon="4.147">
        <ele>469.26</ele>
        <time>2011-10-08T10:06:08Z</time>
      </trkpt>
      <trkpt lat="45.30608" lon="4.14722">
        <ele>471.66</ele>
        <time>2011-10-08T10:06:22Z</time>
      </trkpt>
      <trkpt lat="45.30613" lon="4.14747">
        <ele>473.59</ele>
        <time>2011-10-08T10:06:35Z</time>
      </trkpt>
      <trkpt lat="45.30612" lon="4.1475">
        <ele>474.07</ele>
        <time>2011-10-08T10:06:37Z</time>
      </trkpt>
      <trkpt lat="45.30612" lon="4.14752">
        <ele>474.07</ele>
        <time>2011-10-08T10:06:38Z</time>
      </trkpt>
      <trkpt lat="45.30604" lon="4.14783">
        <ele>475.51</ele>
        <time>2011-10-08T10:06:53Z</time>
      </trkpt>
      <trkpt lat="45.30594" lon="4.14807">
        <ele>477.91</ele>
        <time>2011-10-08T10:07:07Z</time>
      </trkpt>
      <trkpt lat="45.30582" lon="4.14835">
        <ele>479.84</ele>
        <time>2011-10-08T10:07:20Z</time>
      </trkpt>
      <trkpt lat="45.3057" lon="4.14865">
        <ele>483.2</ele>
        <time>2011-10-08T10:07:34Z</time>
      </trkpt>
      <trkpt lat="45.30562" lon="4.14901">
        <ele>487.05</ele>
        <time>2011-10-08T10:07:49Z</time>
      </trkpt>
      <trkpt lat="45.30558" lon="4.14937">
        <ele>489.93</ele>
        <time>2011-10-08T10:08:04Z</time>
      </trkpt>
      <trkpt lat="45.30557" lon="4.14963">
        <ele>491.85</ele>
        <time>2011-10-08T10:08:17Z</time>
      </trkpt>
      <trkpt lat="45.30552" lon="4.14989">
        <ele>494.26</ele>
        <time>2011-10-08T10:08:31Z</time>
      </trkpt>
      <trkpt lat="45.30546" lon="4.15023">
        <ele>496.66</ele>
        <time>2011-10-08T10:08:47Z</time>
      </trkpt>
      <trkpt lat="45.30541" lon="4.15054">
        <ele>498.1</ele>
        <time>2011-10-08T10:08:59Z</time>
      </trkpt>
      <trkpt lat="45.30534" lon="4.15083">
        <ele>500.02</ele>
        <time>2011-10-08T10:09:12Z</time>
      </trkpt>
      <trkpt lat="45.30532" lon="4.15084">
        <ele>500.5</ele>
        <time>2011-10-08T10:09:13Z</time>
      </trkpt>
      <trkpt lat="45.3053" lon="4.15083">
        <ele>500.5</ele>
        <time>2011-10-08T10:09:14Z</time>
      </trkpt>
      <trkpt lat="45.30492" lon="4.15073">
        <ele>500.5</ele>
        <time>2011-10-08T10:09:30Z</time>
      </trkpt>
      <trkpt lat="45.30448" lon="4.15066">
        <ele>500.98</ele>
        <time>2011-10-08T10:09:44Z</time>
      </trkpt>
      <trkpt lat="45.30408" lon="4.15059">
        <ele>501.95</ele>
        <time>2011-10-08T10:09:57Z</time>
      </trkpt>
      <trkpt lat="45.30364" lon="4.15051">
        <ele>501.95</ele>
        <time>2011-10-08T10:10:11Z</time>
      </trkpt>
      <trkpt lat="45.30329" lon="4.15041">
        <ele>503.39</ele>
        <time>2011-10-08T10:10:23Z</time>
      </trkpt>
      <trkpt lat="45.30305" lon="4.1504">
        <ele>502.91</ele>
        <time>2011-10-08T10:10:33Z</time>
      </trkpt>
      <trkpt lat="45.30305" lon="4.15042">
        <ele>503.39</ele>
        <time>2011-10-08T10:10:34Z</time>
      </trkpt>
      <trkpt lat="45.30305" lon="4.15045">
        <ele>503.39</ele>
        <time>2011-10-08T10:10:35Z</time>
      </trkpt>
      <trkpt lat="45.30305" lon="4.15046">
        <ele>503.39</ele>
        <time>2011-10-08T10:10:36Z</time>
      </trkpt>
      <trkpt lat="45.30306" lon="4.15048">
        <ele>503.39</ele>
        <time>2011-10-08T10:10:37Z</time>
      </trkpt>
      <trkpt lat="45.30306" lon="4.1505">
        <ele>502.91</ele>
        <time>2011-10-08T10:10:38Z</time>
      </trkpt>
      <trkpt lat="45.30307" lon="4.15052">
        <ele>502.91</ele>
        <time>2011-10-08T10:10:39Z</time>
      </trkpt>
      <trkpt lat="45.30307" lon="4.15054">
        <ele>503.39</ele>
        <time>2011-10-08T10:10:40Z</time>
      </trkpt>
      <trkpt lat="45.30301" lon="4.15082">
        <ele>507.71</ele>
        <time>2011-10-08T10:10:53Z</time>
      </trkpt>
      <trkpt lat="45.3028" lon="4.15103">
        <ele>509.16</ele>
        <time>2011-10-08T10:11:07Z</time>
      </trkpt>
      <trkpt lat="45.30256" lon="4.15121">
        <ele>511.08</ele>
        <time>2011-10-08T10:11:20Z</time>
      </trkpt>
      <trkpt lat="45.30226" lon="4.15147">
        <ele>513.48</ele>
        <time>2011-10-08T10:11:36Z</time>
      </trkpt>
      <trkpt lat="45.30197" lon="4.15156">
        <ele>515.4</ele>
        <time>2011-10-08T10:11:49Z</time>
      </trkpt>
      <trkpt lat="45.30163" lon="4.15157">
        <ele>516.85</ele>
        <time>2011-10-08T10:12:03Z</time>
      </trkpt>
      <trkpt lat="45.30129" lon="4.1516">
        <ele>519.73</ele>
        <time>2011-10-08T10:12:19Z</time>
      </trkpt>
      <trkpt lat="45.30098" lon="4.15165">
        <ele>521.17</ele>
        <time>2011-10-08T10:12:34Z</time>
      </trkpt>
      <trkpt lat="45.30094" lon="4.15168">
        <ele>521.17</ele>
        <time>2011-10-08T10:12:37Z</time>
      </trkpt>
      <trkpt lat="45.30092" lon="4.15168">
        <ele>521.65</ele>
        <time>2011-10-08T10:12:38Z</time>
      </trkpt>
      <trkpt lat="45.30069" lon="4.15184">
        <ele>523.09</ele>
        <time>2011-10-08T10:12:52Z</time>
      </trkpt>
      <trkpt lat="45.30068" lon="4.15185">
        <ele>523.58</ele>
        <time>2011-10-08T10:12:53Z</time>
      </trkpt>
      <trkpt lat="45.30067" lon="4.15187">
        <ele>524.06</ele>
        <time>2011-10-08T10:12:54Z</time>
      </trkpt>
      <trkpt lat="45.30066" lon="4.15189">
        <ele>524.06</ele>
        <time>2011-10-08T10:12:55Z</time>
      </trkpt>
      <trkpt lat="45.30058" lon="4.15209">
        <ele>526.46</ele>
        <time>2011-10-08T10:13:04Z</time>
      </trkpt>
      <trkpt lat="45.30058" lon="4.15212">
        <ele>526.94</ele>
        <time>2011-10-08T10:13:05Z</time>
      </trkpt>
      <trkpt lat="45.30052" lon="4.15247">
        <ele>530.79</ele>
        <time>2011-10-08T10:13:21Z</time>
      </trkpt>
      <trkpt lat="45.30049" lon="4.15275">
        <ele>531.27</ele>
        <time>2011-10-08T10:13:33Z</time>
      </trkpt>
      <trkpt lat="45.30046" lon="4.15313">
        <ele>532.71</ele>
        <time>2011-10-08T10:13:47Z</time>
      </trkpt>
      <trkpt lat="45.30043" lon="4.15347">
        <ele>532.71</ele>
        <time>2011-10-08T10:14:00Z</time>
      </trkpt>
      <trkpt lat="45.30038" lon="4.1538">
        <ele>536.07</ele>
        <time>2011-10-08T10:14:13Z</time>
      </trkpt>
      <trkpt lat="45.30035" lon="4.15417">
        <ele>539.44</ele>
        <time>2011-10-08T10:14:26Z</time>
      </trkpt>
      <trkpt lat="45.30035" lon="4.15454">
        <ele>541.84</ele>
        <time>2011-10-08T10:14:40Z</time>
      </trkpt>
      <trkpt lat="45.30035" lon="4.15468">
        <ele>542.8</ele>
        <time>2011-10-08T10:14:45Z</time>
      </trkpt>
      <trkpt lat="45.30035" lon="4.1547">
        <ele>543.28</ele>
        <time>2011-10-08T10:14:46Z</time>
      </trkpt>
      <trkpt lat="45.30035" lon="4.15474">
        <ele>543.76</ele>
        <time>2011-10-08T10:14:47Z</time>
      </trkpt>
      <trkpt lat="45.30036" lon="4.15476">
        <ele>543.76</ele>
        <time>2011-10-08T10:14:48Z</time>
      </trkpt>
      <trkpt lat="45.30037" lon="4.15479">
        <ele>543.76</ele>
        <time>2011-10-08T10:14:49Z</time>
      </trkpt>
      <trkpt lat="45.3004" lon="4.15522">
        <ele>546.17</ele>
        <time>2011-10-08T10:15:04Z</time>
      </trkpt>
      <trkpt lat="45.30042" lon="4.15562">
        <ele>547.61</ele>
        <time>2011-10-08T10:15:19Z</time>
      </trkpt>
      <trkpt lat="45.30044" lon="4.15603">
        <ele>549.05</ele>
        <time>2011-10-08T10:15:35Z</time>
      </trkpt>
      <trkpt lat="45.30045" lon="4.15632">
        <ele>550.49</ele>
        <time>2011-10-08T10:15:46Z</time>
      </trkpt>
      <trkpt lat="45.30048" lon="4.15676">
        <ele>550.97</ele>
        <time>2011-10-08T10:16:01Z</time>
      </trkpt>
      <trkpt lat="45.3005" lon="4.15709">
        <ele>554.34</ele>
        <time>2011-10-08T10:16:13Z</time>
      </trkpt>
      <trkpt lat="45.30051" lon="4.15711">
        <ele>554.34</ele>
        <time>2011-10-08T10:16:14Z</time>
      </trkpt>
      <trkpt lat="45.30051" lon="4.15714">
        <ele>554.34</ele>
        <time>2011-10-08T10:16:15Z</time>
      </trkpt>
      <trkpt lat="45.30051" lon="4.15716">
        <ele>554.82</ele>
        <time>2011-10-08T10:16:16Z</time>
      </trkpt>
      <trkpt lat="45.30051" lon="4.15719">
        <ele>554.82</ele>
        <time>2011-10-08T10:16:17Z</time>
      </trkpt>
      <trkpt lat="45.30054" lon="4.15755">
        <ele>555.3</ele>
        <time>2011-10-08T10:16:30Z</time>
      </trkpt>
      <trkpt lat="45.30055" lon="4.15785">
        <ele>555.3</ele>
        <time>2011-10-08T10:16:40Z</time>
      </trkpt>
      <trkpt lat="45.30055" lon="4.1579">
        <ele>555.78</ele>
        <time>2011-10-08T10:16:42Z</time>
      </trkpt>
      <trkpt lat="45.30072" lon="4.15825">
        <ele>557.7</ele>
        <time>2011-10-08T10:16:54Z</time>
      </trkpt>
      <trkpt lat="45.30082" lon="4.15835">
        <ele>555.3</ele>
        <time>2011-10-08T10:16:59Z</time>
      </trkpt>
      <trkpt lat="45.30084" lon="4.15837">
        <ele>554.82</ele>
        <time>2011-10-08T10:17:00Z</time>
      </trkpt>
      <trkpt lat="45.30092" lon="4.15847">
        <ele>555.78</ele>
        <time>2011-10-08T10:17:04Z</time>
      </trkpt>
      <trkpt lat="45.30094" lon="4.15847">
        <ele>555.3</ele>
        <time>2011-10-08T10:17:05Z</time>
      </trkpt>
      <trkpt lat="45.30096" lon="4.15848">
        <ele>555.3</ele>
        <time>2011-10-08T10:17:06Z</time>
      </trkpt>
      <trkpt lat="45.301" lon="4.15847">
        <ele>555.3</ele>
        <time>2011-10-08T10:17:07Z</time>
      </trkpt>
      <trkpt lat="45.30103" lon="4.15845">
        <ele>554.82</ele>
        <time>2011-10-08T10:17:08Z</time>
      </trkpt>
      <trkpt lat="45.30107" lon="4.15843">
        <ele>554.34</ele>
        <time>2011-10-08T10:17:09Z</time>
      </trkpt>
      <trkpt lat="45.30111" lon="4.15843">
        <ele>554.34</ele>
        <time>2011-10-08T10:17:10Z</time>
      </trkpt>
      <trkpt lat="45.30116" lon="4.15844">
        <ele>554.34</ele>
        <time>2011-10-08T10:17:11Z</time>
      </trkpt>
      <trkpt lat="45.30125" lon="4.15847">
        <ele>554.34</ele>
        <time>2011-10-08T10:17:13Z</time>
      </trkpt>
      <trkpt lat="45.3013" lon="4.15848">
        <ele>554.34</ele>
        <time>2011-10-08T10:17:14Z</time>
      </trkpt>
      <trkpt lat="45.30145" lon="4.15853">
        <ele>553.86</ele>
        <time>2011-10-08T10:17:17Z</time>
      </trkpt>
      <trkpt lat="45.3015" lon="4.15854">
        <ele>553.38</ele>
        <time>2011-10-08T10:17:18Z</time>
      </trkpt>
      <trkpt lat="45.30156" lon="4.15855">
        <ele>553.38</ele>
        <time>2011-10-08T10:17:19Z</time>
      </trkpt>
      <trkpt lat="45.30202" lon="4.15866">
        <ele>553.38</ele>
        <time>2011-10-08T10:17:27Z</time>
      </trkpt>
      <trkpt lat="45.30251" lon="4.1586">
        <ele>552.41</ele>
        <time>2011-10-08T10:17:35Z</time>
      </trkpt>
      <trkpt lat="45.30257" lon="4.15862">
        <ele>552.41</ele>
        <time>2011-10-08T10:17:36Z</time>
      </trkpt>
      <trkpt lat="45.30262" lon="4.15865">
        <ele>551.93</ele>
        <time>2011-10-08T10:17:37Z</time>
      </trkpt>
      <trkpt lat="45.30311" lon="4.15896">
        <ele>551.45</ele>
        <time>2011-10-08T10:17:46Z</time>
      </trkpt>
      <trkpt lat="45.30316" lon="4.159">
        <ele>550.97</ele>
        <time>2011-10-08T10:17:47Z</time>
      </trkpt>
      <trkpt lat="45.30321" lon="4.15906">
        <ele>550.97</ele>
        <time>2011-10-08T10:17:48Z</time>
      </trkpt>
      <trkpt lat="45.30325" lon="4.15912">
        <ele>550.97</ele>
        <time>2011-10-08T10:17:49Z</time>
      </trkpt>
      <trkpt lat="45.30329" lon="4.15919">
        <ele>550.97</ele>
        <time>2011-10-08T10:17:50Z</time>
      </trkpt>
      <trkpt lat="45.30334" lon="4.15925">
        <ele>550.97</ele>
        <time>2011-10-08T10:17:51Z</time>
      </trkpt>
      <trkpt lat="45.30338" lon="4.1593">
        <ele>550.97</ele>
        <time>2011-10-08T10:17:52Z</time>
      </trkpt>
      <trkpt lat="45.30373" lon="4.15982">
        <ele>551.93</ele>
        <time>2011-10-08T10:18:01Z</time>
      </trkpt>
      <trkpt lat="45.30393" lon="4.16016">
        <ele>552.41</ele>
        <time>2011-10-08T10:18:07Z</time>
      </trkpt>
      <trkpt lat="45.30395" lon="4.16022">
        <ele>552.9</ele>
        <time>2011-10-08T10:18:08Z</time>
      </trkpt>
      <trkpt lat="45.30397" lon="4.16029">
        <ele>552.9</ele>
        <time>2011-10-08T10:18:09Z</time>
      </trkpt>
      <trkpt lat="45.30402" lon="4.16046">
        <ele>552.9</ele>
        <time>2011-10-08T10:18:12Z</time>
      </trkpt>
      <trkpt lat="45.30406" lon="4.16049">
        <ele>552.9</ele>
        <time>2011-10-08T10:18:13Z</time>
      </trkpt>
      <trkpt lat="45.30411" lon="4.16049">
        <ele>552.41</ele>
        <time>2011-10-08T10:18:14Z</time>
      </trkpt>
      <trkpt lat="45.30415" lon="4.16049">
        <ele>551.93</ele>
        <time>2011-10-08T10:18:15Z</time>
      </trkpt>
      <trkpt lat="45.30418" lon="4.16048">
        <ele>551.93</ele>
        <time>2011-10-08T10:18:16Z</time>
      </trkpt>
      <trkpt lat="45.30442" lon="4.16052">
        <ele>549.05</ele>
        <time>2011-10-08T10:18:25Z</time>
      </trkpt>
      <trkpt lat="45.30445" lon="4.16053">
        <ele>549.05</ele>
        <time>2011-10-08T10:18:27Z</time>
      </trkpt>
      <trkpt lat="45.30446" lon="4.16051">
        <ele>549.05</ele>
        <time>2011-10-08T10:18:28Z</time>
      </trkpt>
      <trkpt lat="45.30446" lon="4.16049">
        <ele>549.05</ele>
        <time>2011-10-08T10:18:29Z</time>
      </trkpt>
      <trkpt lat="45.30445" lon="4.16047">
        <ele>549.05</ele>
        <time>2011-10-08T10:18:30Z</time>
      </trkpt>
      <trkpt lat="45.30443" lon="4.16046">
        <ele>549.53</ele>
        <time>2011-10-08T10:18:31Z</time>
      </trkpt>
      <trkpt lat="45.30441" lon="4.16046">
        <ele>549.53</ele>
        <time>2011-10-08T10:18:32Z</time>
      </trkpt>
      <trkpt lat="45.30439" lon="4.16047">
        <ele>549.53</ele>
        <time>2011-10-08T10:18:33Z</time>
      </trkpt>
      <trkpt lat="45.30436" lon="4.16048">
        <ele>549.53</ele>
        <time>2011-10-08T10:18:34Z</time>
      </trkpt>
      <trkpt lat="45.30399" lon="4.16046">
        <ele>552.9</ele>
        <time>2011-10-08T10:18:48Z</time>
      </trkpt>
      <trkpt lat="45.30368" lon="4.16051">
        <ele>555.3</ele>
        <time>2011-10-08T10:19:01Z</time>
      </trkpt>
      <trkpt lat="45.30324" lon="4.16071">
        <ele>557.7</ele>
        <time>2011-10-08T10:19:18Z</time>
      </trkpt>
      <trkpt lat="45.30291" lon="4.16095">
        <ele>560.59</ele>
        <time>2011-10-08T10:19:32Z</time>
      </trkpt>
      <trkpt lat="45.30255" lon="4.161">
        <ele>561.55</ele>
        <time>2011-10-08T10:19:44Z</time>
      </trkpt>
      <trkpt lat="45.30221" lon="4.16119">
        <ele>563.47</ele>
        <time>2011-10-08T10:19:58Z</time>
      </trkpt>
      <trkpt lat="45.30194" lon="4.16145">
        <ele>566.83</ele>
        <time>2011-10-08T10:20:11Z</time>
      </trkpt>
      <trkpt lat="45.30171" lon="4.16165">
        <ele>569.24</ele>
        <time>2011-10-08T10:20:24Z</time>
      </trkpt>
      <trkpt lat="45.3015" lon="4.16188">
        <ele>571.64</ele>
        <time>2011-10-08T10:20:37Z</time>
      </trkpt>
      <trkpt lat="45.3013" lon="4.16204">
        <ele>574.04</ele>
        <time>2011-10-08T10:20:51Z</time>
      </trkpt>
      <trkpt lat="45.30111" lon="4.1622">
        <ele>576.45</ele>
        <time>2011-10-08T10:21:04Z</time>
      </trkpt>
      <trkpt lat="45.30086" lon="4.16234">
        <ele>573.56</ele>
        <time>2011-10-08T10:21:18Z</time>
      </trkpt>
      <trkpt lat="45.30068" lon="4.16271">
        <ele>574.04</ele>
        <time>2011-10-08T10:21:31Z</time>
      </trkpt>
      <trkpt lat="45.30053" lon="4.16312">
        <ele>578.37</ele>
        <time>2011-10-08T10:21:45Z</time>
      </trkpt>
      <trkpt lat="45.3004" lon="4.16348">
        <ele>581.25</ele>
        <time>2011-10-08T10:21:57Z</time>
      </trkpt>
      <trkpt lat="45.30024" lon="4.16385">
        <ele>583.18</ele>
        <time>2011-10-08T10:22:11Z</time>
      </trkpt>
      <trkpt lat="45.30007" lon="4.16425">
        <ele>585.58</ele>
        <time>2011-10-08T10:22:25Z</time>
      </trkpt>
      <trkpt lat="45.29987" lon="4.16466">
        <ele>588.95</ele>
        <time>2011-10-08T10:22:40Z</time>
      </trkpt>
      <trkpt lat="45.29968" lon="4.16503">
        <ele>591.35</ele>
        <time>2011-10-08T10:22:53Z</time>
      </trkpt>
      <trkpt lat="45.29947" lon="4.16531">
        <ele>595.19</ele>
        <time>2011-10-08T10:23:06Z</time>
      </trkpt>
      <trkpt lat="45.29917" lon="4.16562">
        <ele>598.56</ele>
        <time>2011-10-08T10:23:22Z</time>
      </trkpt>
      <trkpt lat="45.29895" lon="4.16559">
        <ele>598.56</ele>
        <time>2011-10-08T10:23:33Z</time>
      </trkpt>
      <trkpt lat="45.29869" lon="4.16514">
        <ele>595.67</ele>
        <time>2011-10-08T10:23:44Z</time>
      </trkpt>
      <trkpt lat="45.29866" lon="4.16508">
        <ele>595.19</ele>
        <time>2011-10-08T10:23:45Z</time>
      </trkpt>
      <trkpt lat="45.29846" lon="4.16465">
        <ele>593.75</ele>
        <time>2011-10-08T10:23:52Z</time>
      </trkpt>
      <trkpt lat="45.29843" lon="4.16459">
        <ele>593.27</ele>
        <time>2011-10-08T10:23:53Z</time>
      </trkpt>
      <trkpt lat="45.29841" lon="4.16452">
        <ele>592.79</ele>
        <time>2011-10-08T10:23:54Z</time>
      </trkpt>
      <trkpt lat="45.29838" lon="4.16445">
        <ele>592.79</ele>
        <time>2011-10-08T10:23:55Z</time>
      </trkpt>
      <trkpt lat="45.29837" lon="4.16438">
        <ele>592.31</ele>
        <time>2011-10-08T10:23:56Z</time>
      </trkpt>
      <trkpt lat="45.29835" lon="4.16432">
        <ele>592.31</ele>
        <time>2011-10-08T10:23:57Z</time>
      </trkpt>
      <trkpt lat="45.29826" lon="4.16418">
        <ele>590.87</ele>
        <time>2011-10-08T10:24:04Z</time>
      </trkpt>
      <trkpt lat="45.29824" lon="4.16418">
        <ele>590.87</ele>
        <time>2011-10-08T10:24:05Z</time>
      </trkpt>
      <trkpt lat="45.29822" lon="4.16421">
        <ele>590.87</ele>
        <time>2011-10-08T10:24:06Z</time>
      </trkpt>
      <trkpt lat="45.2982" lon="4.16424">
        <ele>590.87</ele>
        <time>2011-10-08T10:24:07Z</time>
      </trkpt>
      <trkpt lat="45.29817" lon="4.16428">
        <ele>590.87</ele>
        <time>2011-10-08T10:24:08Z</time>
      </trkpt>
      <trkpt lat="45.29815" lon="4.16433">
        <ele>590.87</ele>
        <time>2011-10-08T10:24:09Z</time>
      </trkpt>
      <trkpt lat="45.29782" lon="4.16505">
        <ele>594.23</ele>
        <time>2011-10-08T10:24:23Z</time>
      </trkpt>
      <trkpt lat="45.29746" lon="4.1659">
        <ele>594.23</ele>
        <time>2011-10-08T10:24:37Z</time>
      </trkpt>
      <trkpt lat="45.29727" lon="4.16645">
        <ele>594.71</ele>
        <time>2011-10-08T10:24:45Z</time>
      </trkpt>
      <trkpt lat="45.29722" lon="4.1667">
        <ele>594.71</ele>
        <time>2011-10-08T10:24:48Z</time>
      </trkpt>
      <trkpt lat="45.29721" lon="4.16679">
        <ele>594.71</ele>
        <time>2011-10-08T10:24:49Z</time>
      </trkpt>
      <trkpt lat="45.29695" lon="4.16798">
        <ele>594.71</ele>
        <time>2011-10-08T10:25:01Z</time>
      </trkpt>
      <trkpt lat="45.29688" lon="4.16825">
        <ele>594.23</ele>
        <time>2011-10-08T10:25:04Z</time>
      </trkpt>
      <trkpt lat="45.29686" lon="4.16834">
        <ele>594.23</ele>
        <time>2011-10-08T10:25:05Z</time>
      </trkpt>
      <trkpt lat="45.29684" lon="4.16843">
        <ele>594.23</ele>
        <time>2011-10-08T10:25:06Z</time>
      </trkpt>
      <trkpt lat="45.29684" lon="4.16853">
        <ele>594.23</ele>
        <time>2011-10-08T10:25:07Z</time>
      </trkpt>
      <trkpt lat="45.29684" lon="4.16862">
        <ele>593.75</ele>
        <time>2011-10-08T10:25:08Z</time>
      </trkpt>
      <trkpt lat="45.29693" lon="4.16966">
        <ele>589.43</ele>
        <time>2011-10-08T10:25:18Z</time>
      </trkpt>
      <trkpt lat="45.29691" lon="4.16976">
        <ele>588.95</ele>
        <time>2011-10-08T10:25:19Z</time>
      </trkpt>
      <trkpt lat="45.29687" lon="4.16983">
        <ele>588.95</ele>
        <time>2011-10-08T10:25:20Z</time>
      </trkpt>
      <trkpt lat="45.29682" lon="4.16989">
        <ele>588.46</ele>
        <time>2011-10-08T10:25:21Z</time>
      </trkpt>
      <trkpt lat="45.29677" lon="4.16994">
        <ele>588.46</ele>
        <time>2011-10-08T10:25:22Z</time>
      </trkpt>
      <trkpt lat="45.2966" lon="4.17005">
        <ele>587.98</ele>
        <time>2011-10-08T10:25:26Z</time>
      </trkpt>
      <trkpt lat="45.29648" lon="4.17002">
        <ele>587.02</ele>
        <time>2011-10-08T10:25:30Z</time>
      </trkpt>
      <trkpt lat="45.29646" lon="4.17001">
        <ele>587.02</ele>
        <time>2011-10-08T10:25:31Z</time>
      </trkpt>
      <trkpt lat="45.29645" lon="4.16999">
        <ele>586.54</ele>
        <time>2011-10-08T10:25:32Z</time>
      </trkpt>
      <trkpt lat="45.29644" lon="4.16997">
        <ele>586.06</ele>
        <time>2011-10-08T10:25:33Z</time>
      </trkpt>
      <trkpt lat="45.29642" lon="4.16996">
        <ele>586.06</ele>
        <time>2011-10-08T10:25:34Z</time>
      </trkpt>
      <trkpt lat="45.2964" lon="4.16994">
        <ele>586.06</ele>
        <time>2011-10-08T10:25:35Z</time>
      </trkpt>
      <trkpt lat="45.29639" lon="4.16993">
        <ele>586.06</ele>
        <time>2011-10-08T10:25:36Z</time>
      </trkpt>
      <trkpt lat="45.29638" lon="4.16992">
        <ele>585.58</ele>
        <time>2011-10-08T10:25:37Z</time>
      </trkpt>
      <trkpt lat="45.29636" lon="4.16992">
        <ele>585.58</ele>
        <time>2011-10-08T10:25:38Z</time>
      </trkpt>
      <trkpt lat="45.29634" lon="4.16993">
        <ele>585.58</ele>
        <time>2011-10-08T10:25:39Z</time>
      </trkpt>
      <trkpt lat="45.29628" lon="4.16994">
        <ele>586.06</ele>
        <time>2011-10-08T10:25:44Z</time>
      </trkpt>
      <trkpt lat="45.29627" lon="4.16995">
        <ele>586.06</ele>
        <time>2011-10-08T10:25:45Z</time>
      </trkpt>
      <trkpt lat="45.29625" lon="4.16996">
        <ele>586.06</ele>
        <time>2011-10-08T10:25:46Z</time>
      </trkpt>
      <trkpt lat="45.29623" lon="4.16997">
        <ele>586.06</ele>
        <time>2011-10-08T10:25:47Z</time>
      </trkpt>
      <trkpt lat="45.29622" lon="4.16998">
        <ele>586.06</ele>
        <time>2011-10-08T10:25:48Z</time>
      </trkpt>
      <trkpt lat="45.29616" lon="4.17">
        <ele>586.06</ele>
        <time>2011-10-08T10:25:51Z</time>
      </trkpt>
      <trkpt lat="45.29615" lon="4.17001">
        <ele>586.54</ele>
        <time>2011-10-08T10:25:52Z</time>
      </trkpt>
      <trkpt lat="45.29601" lon="4.17007">
        <ele>589.91</ele>
        <time>2011-10-08T10:25:59Z</time>
      </trkpt>
      <trkpt lat="45.29584" lon="4.17013">
        <ele>591.83</ele>
        <time>2011-10-08T10:26:09Z</time>
      </trkpt>
      <trkpt lat="45.29583" lon="4.17014">
        <ele>591.83</ele>
        <time>2011-10-08T10:26:10Z</time>
      </trkpt>
      <trkpt lat="45.29581" lon="4.17015">
        <ele>592.31</ele>
        <time>2011-10-08T10:26:11Z</time>
      </trkpt>
      <trkpt lat="45.2958" lon="4.17016">
        <ele>592.31</ele>
        <time>2011-10-08T10:26:12Z</time>
      </trkpt>
      <trkpt lat="45.29578" lon="4.17017">
        <ele>592.31</ele>
        <time>2011-10-08T10:26:13Z</time>
      </trkpt>
      <trkpt lat="45.29576" lon="4.17018">
        <ele>592.79</ele>
        <time>2011-10-08T10:26:14Z</time>
      </trkpt>
      <trkpt lat="45.29552" lon="4.17031">
        <ele>594.23</ele>
        <time>2011-10-08T10:26:28Z</time>
      </trkpt>
      <trkpt lat="45.29519" lon="4.17046">
        <ele>594.23</ele>
        <time>2011-10-08T10:26:45Z</time>
      </trkpt>
      <trkpt lat="45.29493" lon="4.17062">
        <ele>598.56</ele>
        <time>2011-10-08T10:26:56Z</time>
      </trkpt>
      <trkpt lat="45.29463" lon="4.17083">
        <ele>601.44</ele>
        <time>2011-10-08T10:27:09Z</time>
      </trkpt>
      <trkpt lat="45.29461" lon="4.17083">
        <ele>601.44</ele>
        <time>2011-10-08T10:27:10Z</time>
      </trkpt>
      <trkpt lat="45.29458" lon="4.17081">
        <ele>601.44</ele>
        <time>2011-10-08T10:27:11Z</time>
      </trkpt>
      <trkpt lat="45.29456" lon="4.17079">
        <ele>601.44</ele>
        <time>2011-10-08T10:27:12Z</time>
      </trkpt>
      <trkpt lat="45.29425" lon="4.17035">
        <ele>599.04</ele>
        <time>2011-10-08T10:27:25Z</time>
      </trkpt>
      <trkpt lat="45.29422" lon="4.17031">
        <ele>599.52</ele>
        <time>2011-10-08T10:27:26Z</time>
      </trkpt>
      <trkpt lat="45.29419" lon="4.17027">
        <ele>599.52</ele>
        <time>2011-10-08T10:27:27Z</time>
      </trkpt>
      <trkpt lat="45.29416" lon="4.17023">
        <ele>599.52</ele>
        <time>2011-10-08T10:27:28Z</time>
      </trkpt>
      <trkpt lat="45.29412" lon="4.17021">
        <ele>600</ele>
        <time>2011-10-08T10:27:29Z</time>
      </trkpt>
      <trkpt lat="45.29408" lon="4.17019">
        <ele>600</ele>
        <time>2011-10-08T10:27:30Z</time>
      </trkpt>
      <trkpt lat="45.29404" lon="4.17016">
        <ele>600.48</ele>
        <time>2011-10-08T10:27:31Z</time>
      </trkpt>
      <trkpt lat="45.29401" lon="4.17013">
        <ele>600.48</ele>
        <time>2011-10-08T10:27:32Z</time>
      </trkpt>
      <trkpt lat="45.29398" lon="4.17009">
        <ele>600.48</ele>
        <time>2011-10-08T10:27:33Z</time>
      </trkpt>
      <trkpt lat="45.29373" lon="4.1698">
        <ele>600.48</ele>
        <time>2011-10-08T10:27:41Z</time>
      </trkpt>
      <trkpt lat="45.29341" lon="4.16934">
        <ele>599.52</ele>
        <time>2011-10-08T10:27:53Z</time>
      </trkpt>
      <trkpt lat="45.29322" lon="4.16911">
        <ele>601.92</ele>
        <time>2011-10-08T10:28:02Z</time>
      </trkpt>
      <trkpt lat="45.29321" lon="4.16909">
        <ele>602.4</ele>
        <time>2011-10-08T10:28:03Z</time>
      </trkpt>
      <trkpt lat="45.29314" lon="4.16871">
        <ele>606.73</ele>
        <time>2011-10-08T10:28:17Z</time>
      </trkpt>
      <trkpt lat="45.29312" lon="4.16867">
        <ele>607.21</ele>
        <time>2011-10-08T10:28:19Z</time>
      </trkpt>
      <trkpt lat="45.29311" lon="4.16866">
        <ele>607.21</ele>
        <time>2011-10-08T10:28:20Z</time>
      </trkpt>
      <trkpt lat="45.29303" lon="4.16857">
        <ele>607.69</ele>
        <time>2011-10-08T10:28:26Z</time>
      </trkpt>
      <trkpt lat="45.29296" lon="4.16851">
        <ele>606.25</ele>
        <time>2011-10-08T10:28:38Z</time>
      </trkpt>
    </trkseg>
  </trk>
</gpx>